<?xml version='1.0' encoding='UTF-8'?><gpx version="1.1" creator="JPX - https://github.com/jenetics/jpx" xmlns="http://www.topografix.com/GPX/1/1"><trk><trkseg><trkpt lat="44.03737849432125" lon="10.842952331417326"><ele>795.9999999999999</ele><time>2026-04-25T10:40:19.916Z</time></trkpt><trkpt lat="44.0374268278716" lon="10.842887660785927"><ele>796.0</ele><time>2026-04-25T10:40:28.916Z</time></trkpt><trkpt lat="44.037462584868464" lon="10.842807243990906"><ele>796.0</ele><time>2026-04-25T10:40:30.916Z</time></trkpt><trkpt lat="44.03743702733249" lon="10.842891135967626"><ele>796.0</ele><time>2026-04-25T10:41:15.916Z</time></trkpt><trkpt lat="44.037498434813905" lon="10.842831770967834"><ele>796.0</ele><time>2026-04-25T10:41:42.916Z</time></trkpt><trkpt lat="44.03755530757874" lon="10.842794213717886"><ele>795.9999999999999</ele><time>2026-04-25T10:42:35.915Z</time></trkpt><trkpt lat="44.03760692502283" lon="10.842712087865161"><ele>796.0</ele><time>2026-04-25T10:42:39.915Z</time></trkpt><trkpt lat="44.03763250896417" lon="10.842626066812798"><ele>794.4999999999999</ele><time>2026-04-25T10:42:45.915Z</time></trkpt><trkpt lat="44.03765501353158" lon="10.842519619935032"><ele>793.0</ele><time>2026-04-25T10:43:43.915Z</time></trkpt><trkpt lat="44.03770255093988" lon="10.842460342791357"><ele>791.5</ele><time>2026-04-25T10:43:48.915Z</time></trkpt><trkpt lat="44.03773922705934" lon="10.842369084922117"><ele>790.0</ele><time>2026-04-25T10:43:51.915Z</time></trkpt><trkpt lat="44.03776191658921" lon="10.84222997615267"><ele>788.4999999999999</ele><time>2026-04-25T10:43:54.915Z</time></trkpt><trkpt lat="44.03783468648672" lon="10.842204304822252"><ele>787.0</ele><time>2026-04-25T10:43:58.915Z</time></trkpt><trkpt lat="44.03787784648957" lon="10.842278502200864"><ele>786.9999999999999</ele><time>2026-04-25T10:44:00.915Z</time></trkpt><trkpt lat="44.037906217414076" lon="10.84244187099063"><ele>787.0</ele><time>2026-04-25T10:44:02.915Z</time></trkpt><trkpt lat="44.037953446416985" lon="10.842539944245813"><ele>787.0</ele><time>2026-04-25T10:44:06.914Z</time></trkpt><trkpt lat="44.03799926570929" lon="10.842606363951102"><ele>787.0</ele><time>2026-04-25T10:44:08.915Z</time></trkpt><trkpt lat="44.03807481439871" lon="10.842691912698095"><ele>786.9999999999999</ele><time>2026-04-25T10:44:11.915Z</time></trkpt><trkpt lat="44.03814002461323" lon="10.84269865813802"><ele>787.0</ele><time>2026-04-25T10:44:13.914Z</time></trkpt><trkpt lat="44.03817991484844" lon="10.842775977858908"><ele>786.3333333333333</ele><time>2026-04-25T10:44:16.915Z</time></trkpt><trkpt lat="44.03826173083958" lon="10.842818409348453"><ele>785.6666666666666</ele><time>2026-04-25T10:44:19.915Z</time></trkpt><trkpt lat="44.03835072260679" lon="10.842834240695444"><ele>785.0</ele><time>2026-04-25T10:44:22.915Z</time></trkpt><trkpt lat="44.0384256710937" lon="10.842839821866706"><ele>784.3333333333333</ele><time>2026-04-25T10:44:25.915Z</time></trkpt><trkpt lat="44.03849890057957" lon="10.842861678161436"><ele>783.6666666666666</ele><time>2026-04-25T10:44:29.915Z</time></trkpt><trkpt lat="44.0385630756173" lon="10.842858914572119"><ele>783.0</ele><time>2026-04-25T10:44:32.915Z</time></trkpt><trkpt lat="44.038641257129576" lon="10.842866156765592"><ele>780.5</ele><time>2026-04-25T10:44:35.915Z</time></trkpt><trkpt lat="44.03871175820094" lon="10.842844280233384"><ele>778.0</ele><time>2026-04-25T10:44:39.915Z</time></trkpt><trkpt lat="44.03879303015774" lon="10.842870912482516"><ele>775.5</ele><time>2026-04-25T10:44:43.915Z</time></trkpt><trkpt lat="44.03888448212442" lon="10.842886835263714"><ele>773.0</ele><time>2026-04-25T10:44:46.915Z</time></trkpt><trkpt lat="44.038966967425125" lon="10.842900499686408"><ele>770.5</ele><time>2026-04-25T10:44:49.915Z</time></trkpt><trkpt lat="44.03904251035811" lon="10.842916215465744"><ele>768.0</ele><time>2026-04-25T10:44:51.915Z</time></trkpt><trkpt lat="44.03914198826556" lon="10.842940928904047"><ele>765.8333333333334</ele><time>2026-04-25T10:44:53.915Z</time></trkpt><trkpt lat="44.039234015367384" lon="10.84299849050299"><ele>763.6666666666666</ele><time>2026-04-25T10:44:55.915Z</time></trkpt><trkpt lat="44.039295687554905" lon="10.843046156925704"><ele>761.5</ele><time>2026-04-25T10:44:57.915Z</time></trkpt><trkpt lat="44.039357308158245" lon="10.843101673087764"><ele>759.3333333333333</ele><time>2026-04-25T10:45:00.915Z</time></trkpt><trkpt lat="44.03941425466485" lon="10.843183909799793"><ele>757.1666666666666</ele><time>2026-04-25T10:45:05.915Z</time></trkpt><trkpt lat="44.039452487880034" lon="10.84326949112252"><ele>755.0</ele><time>2026-04-25T10:45:09.915Z</time></trkpt><trkpt lat="44.03950068990044" lon="10.843328107408613"><ele>755.0</ele><time>2026-04-25T10:45:13.915Z</time></trkpt><trkpt lat="44.0395667367587" lon="10.843384407718556"><ele>755.0</ele><time>2026-04-25T10:45:18.915Z</time></trkpt><trkpt lat="44.039614965783464" lon="10.843454235616589"><ele>755.0</ele><time>2026-04-25T10:45:22.915Z</time></trkpt><trkpt lat="44.03968486634634" lon="10.843520217547004"><ele>755.0</ele><time>2026-04-25T10:45:25.915Z</time></trkpt><trkpt lat="44.039756331778456" lon="10.843584080359975"><ele>755.0</ele><time>2026-04-25T10:45:28.915Z</time></trkpt><trkpt lat="44.039822335877496" lon="10.843654413141632"><ele>755.0</ele><time>2026-04-25T10:45:31.915Z</time></trkpt><trkpt lat="44.03987558609942" lon="10.843717486541443"><ele>754.0</ele><time>2026-04-25T10:45:34.915Z</time></trkpt><trkpt lat="44.03994355421544" lon="10.843771040648935"><ele>753.0</ele><time>2026-04-25T10:45:38.915Z</time></trkpt><trkpt lat="44.04000542526828" lon="10.843807119081092"><ele>752.0</ele><time>2026-04-25T10:45:41.915Z</time></trkpt><trkpt lat="44.04007041275431" lon="10.843837578108468"><ele>751.0</ele><time>2026-04-25T10:45:44.915Z</time></trkpt><trkpt lat="44.040157637396526" lon="10.843859825234508"><ele>750.0</ele><time>2026-04-25T10:45:48.914Z</time></trkpt><trkpt lat="44.04023593107406" lon="10.843906088850408"><ele>749.0</ele><time>2026-04-25T10:45:53.91Z</time></trkpt><trkpt lat="44.0402645479549" lon="10.843995446723563"><ele>746.6666666666666</ele><time>2026-04-25T10:45:57.907Z</time></trkpt><trkpt lat="44.040316773628284" lon="10.84413006078967"><ele>744.3333333333333</ele><time>2026-04-25T10:46:00.906Z</time></trkpt><trkpt lat="44.04037560997376" lon="10.844166835065552"><ele>742.0</ele><time>2026-04-25T10:46:14.9Z</time></trkpt><trkpt lat="44.04042769025387" lon="10.844225160056709"><ele>739.6666666666666</ele><time>2026-04-25T10:46:26.899Z</time></trkpt><trkpt lat="44.04044734716793" lon="10.844328320397658"><ele>737.3333333333334</ele><time>2026-04-25T10:46:33.899Z</time></trkpt><trkpt lat="44.040454102799174" lon="10.844430983427428"><ele>735.0</ele><time>2026-04-25T10:46:38.898Z</time></trkpt><trkpt lat="44.04044377717431" lon="10.844519675753787"><ele>734.4285714285714</ele><time>2026-04-25T10:46:41.898Z</time></trkpt><trkpt lat="44.040436447758175" lon="10.844608757072361"><ele>733.8571428571429</ele><time>2026-04-25T10:46:44.898Z</time></trkpt><trkpt lat="44.04042238028588" lon="10.844702038733217"><ele>733.2857142857142</ele><time>2026-04-25T10:46:47.898Z</time></trkpt><trkpt lat="44.04039064762007" lon="10.844798907071382"><ele>732.7142857142858</ele><time>2026-04-25T10:46:51.898Z</time></trkpt><trkpt lat="44.040372889870234" lon="10.844883882175775"><ele>732.1428571428571</ele><time>2026-04-25T10:46:54.898Z</time></trkpt><trkpt lat="44.04034849739425" lon="10.844993943379267"><ele>731.5714285714286</ele><time>2026-04-25T10:46:58.898Z</time></trkpt><trkpt lat="44.04032127229766" lon="10.845075091715868"><ele>731.0</ele><time>2026-04-25T10:47:01.898Z</time></trkpt><trkpt lat="44.040280952962966" lon="10.84517327840959"><ele>731.0</ele><time>2026-04-25T10:47:04.898Z</time></trkpt><trkpt lat="44.04025112583349" lon="10.845264473232161"><ele>731.0</ele><time>2026-04-25T10:47:07.898Z</time></trkpt><trkpt lat="44.04020628398481" lon="10.845353258146007"><ele>731.0</ele><time>2026-04-25T10:47:10.898Z</time></trkpt><trkpt lat="44.040170400256024" lon="10.845435903345596"><ele>731.0</ele><time>2026-04-25T10:47:14.898Z</time></trkpt><trkpt lat="44.04013710443517" lon="10.845516900626903"><ele>731.0</ele><time>2026-04-25T10:47:17.898Z</time></trkpt><trkpt lat="44.04009721260562" lon="10.84561182089864"><ele>731.0</ele><time>2026-04-25T10:47:20.898Z</time></trkpt><trkpt lat="44.04006280707059" lon="10.84569220638833"><ele>731.0</ele><time>2026-04-25T10:47:22.898Z</time></trkpt><trkpt lat="44.040020086201835" lon="10.845801361908832"><ele>731.0</ele><time>2026-04-25T10:47:25.898Z</time></trkpt><trkpt lat="44.03997095150477" lon="10.845914227902375"><ele>731.0</ele><time>2026-04-25T10:47:28.898Z</time></trkpt><trkpt lat="44.03992315587969" lon="10.846018849910042"><ele>731.0</ele><time>2026-04-25T10:47:31.898Z</time></trkpt><trkpt lat="44.03988018575146" lon="10.846132950706036"><ele>731.0</ele><time>2026-04-25T10:47:34.898Z</time></trkpt><trkpt lat="44.039833369425345" lon="10.846240882244894"><ele>731.0</ele><time>2026-04-25T10:47:37.898Z</time></trkpt><trkpt lat="44.03979506895723" lon="10.846316877855996"><ele>731.0</ele><time>2026-04-25T10:47:39.898Z</time></trkpt><trkpt lat="44.039744964096336" lon="10.846417120845231"><ele>730.5714285714286</ele><time>2026-04-25T10:47:42.898Z</time></trkpt><trkpt lat="44.03969597007294" lon="10.846489323504528"><ele>730.1428571428571</ele><time>2026-04-25T10:47:44.898Z</time></trkpt><trkpt lat="44.03965399594852" lon="10.846592558976672"><ele>729.7142857142858</ele><time>2026-04-25T10:47:48.898Z</time></trkpt><trkpt lat="44.039604067206696" lon="10.846661599555546"><ele>729.2857142857142</ele><time>2026-04-25T10:47:51.898Z</time></trkpt><trkpt lat="44.039555061505396" lon="10.846718330403828"><ele>728.8571428571429</ele><time>2026-04-25T10:47:53.898Z</time></trkpt><trkpt lat="44.03951022047964" lon="10.846789009577513"><ele>728.4285714285714</ele><time>2026-04-25T10:47:55.898Z</time></trkpt><trkpt lat="44.039478442562896" lon="10.846865148543936"><ele>728.0</ele><time>2026-04-25T10:47:57.898Z</time></trkpt><trkpt lat="44.03941439299415" lon="10.846944758623604"><ele>728.0</ele><time>2026-04-25T10:48:00.898Z</time></trkpt><trkpt lat="44.03937068045713" lon="10.8470097104133"><ele>728.0</ele><time>2026-04-25T10:48:02.898Z</time></trkpt><trkpt lat="44.03929707416035" lon="10.847095344502236"><ele>728.0</ele><time>2026-04-25T10:48:05.897Z</time></trkpt><trkpt lat="44.039252504868635" lon="10.847163342402501"><ele>728.0</ele><time>2026-04-25T10:48:08.897Z</time></trkpt><trkpt lat="44.039192738990046" lon="10.847249425623055"><ele>728.0</ele><time>2026-04-25T10:48:11.897Z</time></trkpt><trkpt lat="44.03915260791541" lon="10.847346143045273"><ele>728.0</ele><time>2026-04-25T10:48:14.897Z</time></trkpt><trkpt lat="44.03912838698989" lon="10.847437997784917"><ele>727.0</ele><time>2026-04-25T10:48:17.896Z</time></trkpt><trkpt lat="44.039105309531216" lon="10.847546454071384"><ele>726.0</ele><time>2026-04-25T10:48:20.896Z</time></trkpt><trkpt lat="44.03906145401741" lon="10.847627205391296"><ele>725.0</ele><time>2026-04-25T10:48:22.896Z</time></trkpt><trkpt lat="44.03904342551664" lon="10.847718554335863"><ele>724.0</ele><time>2026-04-25T10:48:25.897Z</time></trkpt><trkpt lat="44.038977794429705" lon="10.847836054728443"><ele>723.0</ele><time>2026-04-25T10:48:28.896Z</time></trkpt><trkpt lat="44.03893381355314" lon="10.847955569022073"><ele>722.0</ele><time>2026-04-25T10:48:30.896Z</time></trkpt><trkpt lat="44.038876050076176" lon="10.848091689441826"><ele>722.2</ele><time>2026-04-25T10:48:32.896Z</time></trkpt><trkpt lat="44.038802461252764" lon="10.84821956036778"><ele>722.4000000000001</ele><time>2026-04-25T10:48:34.896Z</time></trkpt><trkpt lat="44.03876370751497" lon="10.848298216023741"><ele>722.5999999999999</ele><time>2026-04-25T10:48:35.896Z</time></trkpt><trkpt lat="44.0387259968911" lon="10.848377184450937"><ele>722.8</ele><time>2026-04-25T10:48:36.896Z</time></trkpt><trkpt lat="44.038658621397346" lon="10.84851934643474"><ele>723.0</ele><time>2026-04-25T10:48:38.896Z</time></trkpt><trkpt lat="44.03861486568054" lon="10.848619195214146"><ele>723.0</ele><time>2026-04-25T10:48:39.896Z</time></trkpt><trkpt lat="44.03858245965362" lon="10.848700017097856"><ele>723.0</ele><time>2026-04-25T10:48:40.896Z</time></trkpt><trkpt lat="44.038541607500704" lon="10.848790229476897"><ele>723.0</ele><time>2026-04-25T10:48:41.896Z</time></trkpt><trkpt lat="44.038486255782466" lon="10.84888343608269"><ele>723.0</ele><time>2026-04-25T10:48:42.896Z</time></trkpt><trkpt lat="44.03843046797336" lon="10.848984424619278"><ele>723.0</ele><time>2026-04-25T10:48:43.896Z</time></trkpt><trkpt lat="44.03837766883799" lon="10.849083931166131"><ele>723.0</ele><time>2026-04-25T10:48:44.896Z</time></trkpt><trkpt lat="44.03831788085125" lon="10.849193062423256"><ele>721.3333333333334</ele><time>2026-04-25T10:48:45.896Z</time></trkpt><trkpt lat="44.038264087126585" lon="10.849295918510638"><ele>719.6666666666666</ele><time>2026-04-25T10:48:46.896Z</time></trkpt><trkpt lat="44.03821340986997" lon="10.849406802063207"><ele>718.0</ele><time>2026-04-25T10:48:47.896Z</time></trkpt><trkpt lat="44.0381611165152" lon="10.84950012679583"><ele>716.3333333333333</ele><time>2026-04-25T10:48:48.896Z</time></trkpt><trkpt lat="44.03812194301518" lon="10.849585080605458"><ele>714.6666666666666</ele><time>2026-04-25T10:48:49.896Z</time></trkpt><trkpt lat="44.03806686141266" lon="10.849683471612336"><ele>713.0</ele><time>2026-04-25T10:48:50.896Z</time></trkpt><trkpt lat="44.03802458866517" lon="10.849785103424853"><ele>713.0</ele><time>2026-04-25T10:48:51.896Z</time></trkpt><trkpt lat="44.03798406456046" lon="10.84989160948199"><ele>713.0</ele><time>2026-04-25T10:48:52.896Z</time></trkpt><trkpt lat="44.03794818753454" lon="10.849994566070666"><ele>713.0</ele><time>2026-04-25T10:48:53.896Z</time></trkpt><trkpt lat="44.037911964486696" lon="10.850100025831434"><ele>713.0</ele><time>2026-04-25T10:48:54.896Z</time></trkpt><trkpt lat="44.037875805192336" lon="10.850207506002025"><ele>713.0</ele><time>2026-04-25T10:48:55.896Z</time></trkpt><trkpt lat="44.03784972631473" lon="10.85031044306072"><ele>713.0</ele><time>2026-04-25T10:48:56.896Z</time></trkpt><trkpt lat="44.03781278307443" lon="10.850425222003764"><ele>713.0</ele><time>2026-04-25T10:48:57.896Z</time></trkpt><trkpt lat="44.037782753889196" lon="10.850535060906136"><ele>713.0</ele><time>2026-04-25T10:48:58.896Z</time></trkpt><trkpt lat="44.03775432897945" lon="10.850649864032603"><ele>713.0</ele><time>2026-04-25T10:48:59.896Z</time></trkpt><trkpt lat="44.037720392703186" lon="10.850754036276506"><ele>713.0</ele><time>2026-04-25T10:49:00.896Z</time></trkpt><trkpt lat="44.037700607505165" lon="10.850866690577371"><ele>713.0</ele><time>2026-04-25T10:49:01.896Z</time></trkpt><trkpt lat="44.03767942716305" lon="10.850969319265598"><ele>713.0</ele><time>2026-04-25T10:49:02.896Z</time></trkpt><trkpt lat="44.03763621633622" lon="10.851068913743726"><ele>712.8333333333333</ele><time>2026-04-25T10:49:03.896Z</time></trkpt><trkpt lat="44.03761492614944" lon="10.851178972031267"><ele>712.6666666666666</ele><time>2026-04-25T10:49:04.896Z</time></trkpt><trkpt lat="44.037600908157" lon="10.851280497009903"><ele>712.5</ele><time>2026-04-25T10:49:05.896Z</time></trkpt><trkpt lat="44.03761846131407" lon="10.851368121465272"><ele>712.3333333333334</ele><time>2026-04-25T10:49:06.896Z</time></trkpt><trkpt lat="44.0376396682798" lon="10.851525611611777"><ele>712.1666666666667</ele><time>2026-04-25T10:49:08.896Z</time></trkpt><trkpt lat="44.03764433460574" lon="10.851624567414932"><ele>712.0</ele><time>2026-04-25T10:49:09.896Z</time></trkpt><trkpt lat="44.03766574651418" lon="10.851783566684439"><ele>712.0</ele><time>2026-04-25T10:49:11.896Z</time></trkpt><trkpt lat="44.03768757372147" lon="10.851940150005419"><ele>712.0</ele><time>2026-04-25T10:49:13.896Z</time></trkpt><trkpt lat="44.037719259466705" lon="10.852089179425391"><ele>712.0</ele><time>2026-04-25T10:49:15.896Z</time></trkpt><trkpt lat="44.03768839660979" lon="10.852169922351484"><ele>712.0</ele><time>2026-04-25T10:49:16.896Z</time></trkpt><trkpt lat="44.037717920158656" lon="10.852321277324291"><ele>712.0</ele><time>2026-04-25T10:49:18.896Z</time></trkpt><trkpt lat="44.037756269118496" lon="10.852449087986791"><ele>712.0</ele><time>2026-04-25T10:49:20.896Z</time></trkpt><trkpt lat="44.03776351253791" lon="10.852581962655787"><ele>712.0</ele><time>2026-04-25T10:49:22.896Z</time></trkpt><trkpt lat="44.03779266409956" lon="10.852693930851718"><ele>712.0</ele><time>2026-04-25T10:49:24.896Z</time></trkpt><trkpt lat="44.0377877257404" lon="10.852834662965437"><ele>712.0</ele><time>2026-04-25T10:49:26.896Z</time></trkpt><trkpt lat="44.037779386763894" lon="10.85297448520611"><ele>712.0</ele><time>2026-04-25T10:49:28.896Z</time></trkpt><trkpt lat="44.0377541539678" lon="10.853109350883372"><ele>711.2</ele><time>2026-04-25T10:49:30.896Z</time></trkpt><trkpt lat="44.03771417580888" lon="10.853205939933089"><ele>710.4000000000001</ele><time>2026-04-25T10:49:32.896Z</time></trkpt><trkpt lat="44.03764908088521" lon="10.85327415796597"><ele>709.5999999999999</ele><time>2026-04-25T10:49:34.896Z</time></trkpt><trkpt lat="44.0375657180873" lon="10.853381747144237"><ele>708.8</ele><time>2026-04-25T10:49:36.896Z</time></trkpt><trkpt lat="44.03749171075731" lon="10.85348510564354"><ele>708.0</ele><time>2026-04-25T10:49:38.896Z</time></trkpt><trkpt lat="44.03746200971455" lon="10.853601400827472"><ele>707.8333333333334</ele><time>2026-04-25T10:49:40.896Z</time></trkpt><trkpt lat="44.03742210664163" lon="10.853716104928884"><ele>707.6666666666666</ele><time>2026-04-25T10:49:42.896Z</time></trkpt><trkpt lat="44.03739190184205" lon="10.853847923494042"><ele>707.5</ele><time>2026-04-25T10:49:44.896Z</time></trkpt><trkpt lat="44.03737462475147" lon="10.853975342211422"><ele>707.3333333333333</ele><time>2026-04-25T10:49:46.896Z</time></trkpt><trkpt lat="44.03738738608416" lon="10.854065533849019"><ele>707.1666666666666</ele><time>2026-04-25T10:49:48.896Z</time></trkpt><trkpt lat="44.03741795199026" lon="10.854161839659788"><ele>707.0</ele><time>2026-04-25T10:49:50.896Z</time></trkpt><trkpt lat="44.037472087172276" lon="10.854228550729225"><ele>708.2</ele><time>2026-04-25T10:49:52.896Z</time></trkpt><trkpt lat="44.03750473662116" lon="10.854344163924557"><ele>709.4000000000001</ele><time>2026-04-25T10:49:54.896Z</time></trkpt><trkpt lat="44.03754909873284" lon="10.854422145126179"><ele>710.5999999999999</ele><time>2026-04-25T10:49:56.896Z</time></trkpt><trkpt lat="44.03760872795204" lon="10.85454982090144"><ele>711.8</ele><time>2026-04-25T10:49:58.896Z</time></trkpt><trkpt lat="44.03765048601092" lon="10.854668410631907"><ele>713.0</ele><time>2026-04-25T10:50:00.896Z</time></trkpt><trkpt lat="44.03768950213533" lon="10.85477867867507"><ele>713.0</ele><time>2026-04-25T10:50:02.896Z</time></trkpt><trkpt lat="44.037710862781296" lon="10.854897884301257"><ele>713.0</ele><time>2026-04-25T10:50:04.896Z</time></trkpt><trkpt lat="44.03772738800563" lon="10.855030619315597"><ele>713.0</ele><time>2026-04-25T10:50:06.896Z</time></trkpt><trkpt lat="44.0377210488822" lon="10.855147041023885"><ele>713.0</ele><time>2026-04-25T10:50:08.896Z</time></trkpt><trkpt lat="44.03772383245875" lon="10.855293833946064"><ele>713.0</ele><time>2026-04-25T10:50:10.896Z</time></trkpt><trkpt lat="44.03774827592235" lon="10.855412645032883"><ele>713.3333333333333</ele><time>2026-04-25T10:50:12.896Z</time></trkpt><trkpt lat="44.037755090778745" lon="10.855524082585626"><ele>713.6666666666666</ele><time>2026-04-25T10:50:14.896Z</time></trkpt><trkpt lat="44.03775252513048" lon="10.855629271923132"><ele>714.0</ele><time>2026-04-25T10:50:17.896Z</time></trkpt><trkpt lat="44.03778444813393" lon="10.855746746168672"><ele>714.3333333333334</ele><time>2026-04-25T10:50:19.896Z</time></trkpt><trkpt lat="44.037794115955705" lon="10.855837506346441"><ele>714.6666666666667</ele><time>2026-04-25T10:50:21.896Z</time></trkpt><trkpt lat="44.037821574070314" lon="10.856002736143045"><ele>715.0</ele><time>2026-04-25T10:50:23.895Z</time></trkpt><trkpt lat="44.03782895718624" lon="10.856156714303802"><ele>715.0</ele><time>2026-04-25T10:50:25.895Z</time></trkpt><trkpt lat="44.03783350902528" lon="10.856299353216585"><ele>715.0</ele><time>2026-04-25T10:50:27.895Z</time></trkpt><trkpt lat="44.03781981764502" lon="10.856447678087234"><ele>715.0</ele><time>2026-04-25T10:50:29.894Z</time></trkpt><trkpt lat="44.03784535892529" lon="10.856583753933327"><ele>715.0</ele><time>2026-04-25T10:50:31.895Z</time></trkpt><trkpt lat="44.0378961941261" lon="10.856705713916453"><ele>715.0</ele><time>2026-04-25T10:50:33.895Z</time></trkpt><trkpt lat="44.03795624566874" lon="10.856812602372406"><ele>715.3333333333334</ele><time>2026-04-25T10:50:35.895Z</time></trkpt><trkpt lat="44.03802069904419" lon="10.856880138702213"><ele>715.6666666666667</ele><time>2026-04-25T10:50:37.895Z</time></trkpt><trkpt lat="44.038103561672294" lon="10.856919390261378"><ele>716.0</ele><time>2026-04-25T10:50:39.895Z</time></trkpt><trkpt lat="44.03815241888791" lon="10.856991084655888"><ele>716.3333333333334</ele><time>2026-04-25T10:50:40.895Z</time></trkpt><trkpt lat="44.038204611529984" lon="10.85704365997716"><ele>716.6666666666666</ele><time>2026-04-25T10:50:42.895Z</time></trkpt><trkpt lat="44.0382635867105" lon="10.857159751133956"><ele>717.0</ele><time>2026-04-25T10:50:45.895Z</time></trkpt><trkpt lat="44.038292618441055" lon="10.857312994172556"><ele>715.5</ele><time>2026-04-25T10:50:47.895Z</time></trkpt><trkpt lat="44.03831791802812" lon="10.857395393350055"><ele>714.0</ele><time>2026-04-25T10:50:48.895Z</time></trkpt><trkpt lat="44.03835005143064" lon="10.85753852991626"><ele>712.5</ele><time>2026-04-25T10:50:50.895Z</time></trkpt><trkpt lat="44.038396764637206" lon="10.857717217817507"><ele>711.0</ele><time>2026-04-25T10:50:52.895Z</time></trkpt><trkpt lat="44.03841652671214" lon="10.857804322437994"><ele>709.5</ele><time>2026-04-25T10:50:53.895Z</time></trkpt><trkpt lat="44.03844309005136" lon="10.8578896597469"><ele>708.0</ele><time>2026-04-25T10:50:54.895Z</time></trkpt><trkpt lat="44.038482284512824" lon="10.858062196466753"><ele>708.0</ele><time>2026-04-25T10:50:56.895Z</time></trkpt><trkpt lat="44.038509674781785" lon="10.858157427740423"><ele>708.0</ele><time>2026-04-25T10:50:57.895Z</time></trkpt><trkpt lat="44.03852758566437" lon="10.858248534827473"><ele>708.0</ele><time>2026-04-25T10:50:58.895Z</time></trkpt><trkpt lat="44.03857503921434" lon="10.858415315441658"><ele>708.0</ele><time>2026-04-25T10:51:00.895Z</time></trkpt><trkpt lat="44.038601590774306" lon="10.858590584394488"><ele>708.0</ele><time>2026-04-25T10:51:02.895Z</time></trkpt><trkpt lat="44.03864340692001" lon="10.858750889943012"><ele>708.2</ele><time>2026-04-25T10:51:04.895Z</time></trkpt><trkpt lat="44.038660744739275" lon="10.858835231899057"><ele>708.4</ele><time>2026-04-25T10:51:05.895Z</time></trkpt><trkpt lat="44.03869411460673" lon="10.859013249396636"><ele>708.6</ele><time>2026-04-25T10:51:07.895Z</time></trkpt><trkpt lat="44.03870383519457" lon="10.859102724313047"><ele>708.8000000000001</ele><time>2026-04-25T10:51:08.895Z</time></trkpt><trkpt lat="44.03872957754419" lon="10.859269922526108"><ele>709.0</ele><time>2026-04-25T10:51:10.895Z</time></trkpt><trkpt lat="44.03875004366394" lon="10.859423563521176"><ele>707.2</ele><time>2026-04-25T10:51:12.895Z</time></trkpt><trkpt lat="44.038752102973575" lon="10.859568381783916"><ele>705.4000000000001</ele><time>2026-04-25T10:51:14.895Z</time></trkpt><trkpt lat="44.038764537941844" lon="10.859729105270066"><ele>703.6</ele><time>2026-04-25T10:51:16.895Z</time></trkpt><trkpt lat="44.03874846266697" lon="10.859817345459543"><ele>701.8</ele><time>2026-04-25T10:51:17.895Z</time></trkpt><trkpt lat="44.038746702770915" lon="10.8599793518428"><ele>700.0</ele><time>2026-04-25T10:51:19.895Z</time></trkpt><trkpt lat="44.0387740846713" lon="10.860141297266502"><ele>698.6</ele><time>2026-04-25T10:51:21.895Z</time></trkpt><trkpt lat="44.03881007354429" lon="10.860282644354788"><ele>697.2</ele><time>2026-04-25T10:51:23.895Z</time></trkpt><trkpt lat="44.03884688886317" lon="10.860424404973088"><ele>695.8</ele><time>2026-04-25T10:51:25.895Z</time></trkpt><trkpt lat="44.03887019739087" lon="10.86057780325034"><ele>694.4</ele><time>2026-04-25T10:51:27.895Z</time></trkpt><trkpt lat="44.038881634367506" lon="10.86072504014314"><ele>693.0</ele><time>2026-04-25T10:51:29.895Z</time></trkpt><trkpt lat="44.038860692928374" lon="10.860848438459785"><ele>693.0</ele><time>2026-04-25T10:51:31.895Z</time></trkpt><trkpt lat="44.03883010931994" lon="10.860973549281981"><ele>693.0</ele><time>2026-04-25T10:51:33.895Z</time></trkpt><trkpt lat="44.03880302041885" lon="10.861067166487553"><ele>693.0</ele><time>2026-04-25T10:51:35.895Z</time></trkpt><trkpt lat="44.03877457653319" lon="10.861156831459423"><ele>693.0</ele><time>2026-04-25T10:51:37.895Z</time></trkpt><trkpt lat="44.03873831980943" lon="10.861285952613674"><ele>693.0</ele><time>2026-04-25T10:51:40.895Z</time></trkpt><trkpt lat="44.03870024312302" lon="10.861400378359095"><ele>693.0</ele><time>2026-04-25T10:51:43.895Z</time></trkpt><trkpt lat="44.03867875182137" lon="10.86153665571693"><ele>693.0</ele><time>2026-04-25T10:51:46.895Z</time></trkpt><trkpt lat="44.038667376237605" lon="10.861630316016813"><ele>693.0</ele><time>2026-04-25T10:51:48.895Z</time></trkpt><trkpt lat="44.0386352762483" lon="10.861736748411513"><ele>693.0</ele><time>2026-04-25T10:51:50.895Z</time></trkpt><trkpt lat="44.03861971117237" lon="10.861822042379602"><ele>693.0</ele><time>2026-04-25T10:51:52.895Z</time></trkpt><trkpt lat="44.03860368024535" lon="10.861926280269225"><ele>693.0</ele><time>2026-04-25T10:51:54.895Z</time></trkpt><trkpt lat="44.038610853996346" lon="10.862014956818914"><ele>693.0</ele><time>2026-04-25T10:51:56.895Z</time></trkpt><trkpt lat="44.03861562149595" lon="10.86212264463784"><ele>693.0</ele><time>2026-04-25T10:51:59.895Z</time></trkpt><trkpt lat="44.038641199786795" lon="10.862227513899517"><ele>693.1666666666666</ele><time>2026-04-25T10:52:01.895Z</time></trkpt><trkpt lat="44.038655111159116" lon="10.862333600034363"><ele>693.3333333333334</ele><time>2026-04-25T10:52:03.895Z</time></trkpt><trkpt lat="44.03868405741942" lon="10.862461158301048"><ele>693.5</ele><time>2026-04-25T10:52:06.895Z</time></trkpt><trkpt lat="44.03871256515136" lon="10.862567291881918"><ele>693.6666666666667</ele><time>2026-04-25T10:52:08.895Z</time></trkpt><trkpt lat="44.03873872188069" lon="10.862666002640138"><ele>693.8333333333334</ele><time>2026-04-25T10:52:10.895Z</time></trkpt><trkpt lat="44.03874528211338" lon="10.862765161096375"><ele>694.0</ele><time>2026-04-25T10:52:12.895Z</time></trkpt><trkpt lat="44.03875026799632" lon="10.862868010726409"><ele>694.3333333333334</ele><time>2026-04-25T10:52:14.895Z</time></trkpt><trkpt lat="44.03874555458873" lon="10.862976324825956"><ele>694.6666666666667</ele><time>2026-04-25T10:52:16.895Z</time></trkpt><trkpt lat="44.038740036973806" lon="10.863078003476229"><ele>695.0</ele><time>2026-04-25T10:52:18.895Z</time></trkpt><trkpt lat="44.038739718137016" lon="10.863166545072408"><ele>695.3333333333334</ele><time>2026-04-25T10:52:20.895Z</time></trkpt><trkpt lat="44.03874150629719" lon="10.8633130621467"><ele>695.6666666666666</ele><time>2026-04-25T10:52:23.895Z</time></trkpt><trkpt lat="44.03872448484122" lon="10.863411087258566"><ele>696.0</ele><time>2026-04-25T10:52:25.895Z</time></trkpt><trkpt lat="44.03871879592138" lon="10.863524232802458"><ele>696.2857142857142</ele><time>2026-04-25T10:52:27.895Z</time></trkpt><trkpt lat="44.03869515119903" lon="10.863611154248446"><ele>696.5714285714286</ele><time>2026-04-25T10:52:29.894Z</time></trkpt><trkpt lat="44.03867157630652" lon="10.863713529283466"><ele>696.8571428571429</ele><time>2026-04-25T10:52:31.893Z</time></trkpt><trkpt lat="44.038668882736985" lon="10.863802319187736"><ele>697.1428571428571</ele><time>2026-04-25T10:52:33.894Z</time></trkpt><trkpt lat="44.03865291042761" lon="10.86388754683566"><ele>697.4285714285714</ele><time>2026-04-25T10:52:35.894Z</time></trkpt><trkpt lat="44.0386305361044" lon="10.863973341687235"><ele>697.7142857142857</ele><time>2026-04-25T10:52:37.894Z</time></trkpt><trkpt lat="44.03861602129844" lon="10.864088635348526"><ele>698.0</ele><time>2026-04-25T10:52:40.894Z</time></trkpt><trkpt lat="44.03860779471762" lon="10.864193766386427"><ele>698.0</ele><time>2026-04-25T10:52:42.893Z</time></trkpt><trkpt lat="44.03859405730472" lon="10.86429729059259"><ele>698.0</ele><time>2026-04-25T10:52:44.893Z</time></trkpt><trkpt lat="44.03858426847726" lon="10.864404304524397"><ele>698.0</ele><time>2026-04-25T10:52:46.893Z</time></trkpt><trkpt lat="44.03858632426628" lon="10.864491857645806"><ele>698.0</ele><time>2026-04-25T10:52:48.893Z</time></trkpt><trkpt lat="44.038562512341215" lon="10.86462935576575"><ele>698.0</ele><time>2026-04-25T10:52:50.893Z</time></trkpt><trkpt lat="44.03853998210043" lon="10.864749559558867"><ele>698.0</ele><time>2026-04-25T10:52:52.893Z</time></trkpt><trkpt lat="44.038535073703265" lon="10.86490430642219"><ele>698.0</ele><time>2026-04-25T10:52:54.893Z</time></trkpt><trkpt lat="44.03852460105002" lon="10.865030214980033"><ele>698.0</ele><time>2026-04-25T10:52:56.893Z</time></trkpt><trkpt lat="44.038518681220296" lon="10.865159960596218"><ele>698.0</ele><time>2026-04-25T10:52:58.893Z</time></trkpt><trkpt lat="44.0385057228346" lon="10.865288140407243"><ele>698.0</ele><time>2026-04-25T10:53:00.893Z</time></trkpt><trkpt lat="44.03848070118232" lon="10.865436730927685"><ele>698.0</ele><time>2026-04-25T10:53:02.893Z</time></trkpt><trkpt lat="44.03845134306984" lon="10.865586327903378"><ele>698.0</ele><time>2026-04-25T10:53:04.893Z</time></trkpt><trkpt lat="44.03842457368556" lon="10.865724937065025"><ele>698.0</ele><time>2026-04-25T10:53:06.893Z</time></trkpt><trkpt lat="44.03841671532065" lon="10.865863067593091"><ele>698.0</ele><time>2026-04-25T10:53:08.893Z</time></trkpt><trkpt lat="44.03840215812189" lon="10.865986728610059"><ele>698.0</ele><time>2026-04-25T10:53:10.893Z</time></trkpt><trkpt lat="44.038388070592205" lon="10.866102064437628"><ele>698.0</ele><time>2026-04-25T10:53:12.893Z</time></trkpt><trkpt lat="44.03838459703254" lon="10.866246708106681"><ele>698.2</ele><time>2026-04-25T10:53:14.893Z</time></trkpt><trkpt lat="44.03836999467201" lon="10.866391681306373"><ele>698.4</ele><time>2026-04-25T10:53:16.893Z</time></trkpt><trkpt lat="44.03835618794983" lon="10.866535286439897"><ele>698.6</ele><time>2026-04-25T10:53:18.893Z</time></trkpt><trkpt lat="44.038341019294066" lon="10.866669322298579"><ele>698.8000000000001</ele><time>2026-04-25T10:53:20.893Z</time></trkpt><trkpt lat="44.038333875412235" lon="10.866761956530363"><ele>699.0</ele><time>2026-04-25T10:53:21.893Z</time></trkpt><trkpt lat="44.03832011312885" lon="10.866881957685989"><ele>699.0</ele><time>2026-04-25T10:53:23.893Z</time></trkpt><trkpt lat="44.038317644771965" lon="10.86706567246261"><ele>699.0</ele><time>2026-04-25T10:53:25.893Z</time></trkpt><trkpt lat="44.03830636402909" lon="10.867156472378522"><ele>699.0</ele><time>2026-04-25T10:53:26.893Z</time></trkpt><trkpt lat="44.03829761292397" lon="10.867253448068821"><ele>699.0</ele><time>2026-04-25T10:53:27.893Z</time></trkpt><trkpt lat="44.03827857793816" lon="10.867409584370437"><ele>699.0</ele><time>2026-04-25T10:53:29.893Z</time></trkpt><trkpt lat="44.038260445963274" lon="10.867504999184664"><ele>699.0</ele><time>2026-04-25T10:53:30.893Z</time></trkpt><trkpt lat="44.0382255536643" lon="10.867591228623901"><ele>699.0</ele><time>2026-04-25T10:53:31.893Z</time></trkpt><trkpt lat="44.03821283280368" lon="10.867697636544483"><ele>699.0</ele><time>2026-04-25T10:53:32.893Z</time></trkpt><trkpt lat="44.038210106457015" lon="10.8678724176917"><ele>699.0</ele><time>2026-04-25T10:53:34.893Z</time></trkpt><trkpt lat="44.03820786611583" lon="10.86797258918319"><ele>699.0</ele><time>2026-04-25T10:53:35.893Z</time></trkpt><trkpt lat="44.0381957119551" lon="10.8680665577023"><ele>699.0</ele><time>2026-04-25T10:53:36.893Z</time></trkpt><trkpt lat="44.03817530874786" lon="10.868174792433189"><ele>697.5</ele><time>2026-04-25T10:53:37.893Z</time></trkpt><trkpt lat="44.03816706316913" lon="10.868275677368148"><ele>696.0</ele><time>2026-04-25T10:53:38.893Z</time></trkpt><trkpt lat="44.03815440173853" lon="10.868379390833764"><ele>694.5</ele><time>2026-04-25T10:53:39.893Z</time></trkpt><trkpt lat="44.03812066816595" lon="10.868491127624528"><ele>693.0</ele><time>2026-04-25T10:53:40.893Z</time></trkpt><trkpt lat="44.03810730516654" lon="10.868596898668697"><ele>691.5</ele><time>2026-04-25T10:53:41.893Z</time></trkpt><trkpt lat="44.038089206950644" lon="10.868683119120474"><ele>690.0</ele><time>2026-04-25T10:53:42.893Z</time></trkpt><trkpt lat="44.03807867647795" lon="10.868792487373485"><ele>689.3333333333334</ele><time>2026-04-25T10:53:43.893Z</time></trkpt><trkpt lat="44.03806708370959" lon="10.868904593545862"><ele>688.6666666666666</ele><time>2026-04-25T10:53:44.893Z</time></trkpt><trkpt lat="44.038052014579335" lon="10.868998043654058"><ele>688.0</ele><time>2026-04-25T10:53:45.893Z</time></trkpt><trkpt lat="44.038056982231005" lon="10.869089993334073"><ele>687.3333333333333</ele><time>2026-04-25T10:53:46.893Z</time></trkpt><trkpt lat="44.038064132792805" lon="10.86926215428682"><ele>686.6666666666666</ele><time>2026-04-25T10:53:48.893Z</time></trkpt><trkpt lat="44.03809179015333" lon="10.869404945687911"><ele>686.0</ele><time>2026-04-25T10:53:50.893Z</time></trkpt><trkpt lat="44.03810162679548" lon="10.869568156841016"><ele>685.5</ele><time>2026-04-25T10:53:52.893Z</time></trkpt><trkpt lat="44.03811421011553" lon="10.86968599320862"><ele>685.0</ele><time>2026-04-25T10:53:54.893Z</time></trkpt><trkpt lat="44.038118286643474" lon="10.869818471636782"><ele>684.5</ele><time>2026-04-25T10:53:56.893Z</time></trkpt><trkpt lat="44.03810376393423" lon="10.86991121505737"><ele>684.0</ele><time>2026-04-25T10:53:58.893Z</time></trkpt><trkpt lat="44.03810194194012" lon="10.870032138022934"><ele>683.5</ele><time>2026-04-25T10:54:00.893Z</time></trkpt><trkpt lat="44.03811226372344" lon="10.870175044241163"><ele>683.0</ele><time>2026-04-25T10:54:02.893Z</time></trkpt><trkpt lat="44.038106148351595" lon="10.870304085454944"><ele>682.2</ele><time>2026-04-25T10:54:04.893Z</time></trkpt><trkpt lat="44.03810450779387" lon="10.870443349984184"><ele>681.4</ele><time>2026-04-25T10:54:06.893Z</time></trkpt><trkpt lat="44.03811851758808" lon="10.87055328801917"><ele>680.6</ele><time>2026-04-25T10:54:08.893Z</time></trkpt><trkpt lat="44.03808338269893" lon="10.870679762338368"><ele>679.8000000000001</ele><time>2026-04-25T10:54:10.893Z</time></trkpt><trkpt lat="44.03804440063566" lon="10.870812279740733"><ele>679.0</ele><time>2026-04-25T10:54:12.893Z</time></trkpt><trkpt lat="44.03804175339377" lon="10.870910226111583"><ele>678.8000000000001</ele><time>2026-04-25T10:54:13.893Z</time></trkpt><trkpt lat="44.03803848832613" lon="10.871013656180102"><ele>678.6</ele><time>2026-04-25T10:54:14.893Z</time></trkpt><trkpt lat="44.038049291713236" lon="10.871104963068298"><ele>678.4</ele><time>2026-04-25T10:54:15.893Z</time></trkpt><trkpt lat="44.038077416065306" lon="10.87126423785308"><ele>678.2</ele><time>2026-04-25T10:54:17.893Z</time></trkpt><trkpt lat="44.03811488459308" lon="10.871410712447837"><ele>678.0</ele><time>2026-04-25T10:54:19.893Z</time></trkpt><trkpt lat="44.038140768581215" lon="10.871527554487999"><ele>678.0</ele><time>2026-04-25T10:54:21.893Z</time></trkpt><trkpt lat="44.03817186108081" lon="10.871622126707514"><ele>678.0</ele><time>2026-04-25T10:54:23.893Z</time></trkpt><trkpt lat="44.038211398863126" lon="10.87174760933471"><ele>678.0</ele><time>2026-04-25T10:54:25.893Z</time></trkpt><trkpt lat="44.038260632172495" lon="10.871844746874041"><ele>678.0</ele><time>2026-04-25T10:54:27.893Z</time></trkpt><trkpt lat="44.03829152051028" lon="10.871949142338615"><ele>678.0</ele><time>2026-04-25T10:54:29.893Z</time></trkpt><trkpt lat="44.03831823271182" lon="10.872049930008668"><ele>678.0</ele><time>2026-04-25T10:54:31.893Z</time></trkpt><trkpt lat="44.038348627758246" lon="10.872144076358293"><ele>678.6666666666666</ele><time>2026-04-25T10:54:33.893Z</time></trkpt><trkpt lat="44.03837224655562" lon="10.872228076666515"><ele>679.3333333333334</ele><time>2026-04-25T10:54:35.892Z</time></trkpt><trkpt lat="44.03841626042907" lon="10.872344690158739"><ele>680.0</ele><time>2026-04-25T10:54:38.893Z</time></trkpt><trkpt lat="44.03848039684822" lon="10.872438980925267"><ele>680.6666666666667</ele><time>2026-04-25T10:54:41.892Z</time></trkpt><trkpt lat="44.038554580826215" lon="10.872493902608097"><ele>681.3333333333334</ele><time>2026-04-25T10:54:44.892Z</time></trkpt><trkpt lat="44.03863048561665" lon="10.872552652687729"><ele>682.0</ele><time>2026-04-25T10:54:47.892Z</time></trkpt><trkpt lat="44.03868503933001" lon="10.872625946820829"><ele>682.0</ele><time>2026-04-25T10:54:50.892Z</time></trkpt><trkpt lat="44.03871380395155" lon="10.872713593880318"><ele>682.0</ele><time>2026-04-25T10:54:53.892Z</time></trkpt><trkpt lat="44.03871724419346" lon="10.872805705584062"><ele>682.0</ele><time>2026-04-25T10:54:56.892Z</time></trkpt><trkpt lat="44.038730697585216" lon="10.872921317947789"><ele>682.0</ele><time>2026-04-25T10:54:59.892Z</time></trkpt><trkpt lat="44.03870090548236" lon="10.873011985522822"><ele>682.0</ele><time>2026-04-25T10:55:01.892Z</time></trkpt><trkpt lat="44.03866329652132" lon="10.873124329271917"><ele>682.0</ele><time>2026-04-25T10:55:04.892Z</time></trkpt><trkpt lat="44.038632857887386" lon="10.873225323084894"><ele>682.0</ele><time>2026-04-25T10:55:07.892Z</time></trkpt><trkpt lat="44.03859484533712" lon="10.873316612207567"><ele>682.0</ele><time>2026-04-25T10:55:10.892Z</time></trkpt><trkpt lat="44.03855627470991" lon="10.873410447888755"><ele>682.0</ele><time>2026-04-25T10:55:13.892Z</time></trkpt><trkpt lat="44.03850239389467" lon="10.873495367357268"><ele>682.0</ele><time>2026-04-25T10:55:15.892Z</time></trkpt><trkpt lat="44.03846653888774" lon="10.873596042665776"><ele>682.0</ele><time>2026-04-25T10:55:17.892Z</time></trkpt><trkpt lat="44.03843925282599" lon="10.873717933661469"><ele>682.0</ele><time>2026-04-25T10:55:19.892Z</time></trkpt><trkpt lat="44.038465452183814" lon="10.873809633862962"><ele>681.0</ele><time>2026-04-25T10:55:21.892Z</time></trkpt><trkpt lat="44.03850884590775" lon="10.873895276119113"><ele>680.0</ele><time>2026-04-25T10:55:23.892Z</time></trkpt><trkpt lat="44.038555134687385" lon="10.873981545536799"><ele>679.0</ele><time>2026-04-25T10:55:27.892Z</time></trkpt><trkpt lat="44.03858485420954" lon="10.87407749740949"><ele>678.0</ele><time>2026-04-25T10:55:32.892Z</time></trkpt><trkpt lat="44.03854266840367" lon="10.8741882443881"><ele>677.0</ele><time>2026-04-25T10:55:35.892Z</time></trkpt><trkpt lat="44.03850791648445" lon="10.874262794486075"><ele>676.0</ele><time>2026-04-25T10:55:36.892Z</time></trkpt><trkpt lat="44.03852492023136" lon="10.874391629039453"><ele>675.6666666666667</ele><time>2026-04-25T10:55:38.892Z</time></trkpt><trkpt lat="44.03856127387084" lon="10.874463400853509"><ele>675.3333333333334</ele><time>2026-04-25T10:55:39.892Z</time></trkpt><trkpt lat="44.03861045291602" lon="10.874527213954467"><ele>675.0</ele><time>2026-04-25T10:55:40.892Z</time></trkpt><trkpt lat="44.038663819669296" lon="10.8746103495139"><ele>674.6666666666666</ele><time>2026-04-25T10:55:42.892Z</time></trkpt><trkpt lat="44.03871602572635" lon="10.874689679802712"><ele>674.3333333333333</ele><time>2026-04-25T10:55:46.892Z</time></trkpt><trkpt lat="44.03873325484828" lon="10.874811966819502"><ele>674.0</ele><time>2026-04-25T10:55:50.892Z</time></trkpt><trkpt lat="44.03872609327388" lon="10.874912543712483"><ele>674.0</ele><time>2026-04-25T10:55:52.892Z</time></trkpt><trkpt lat="44.03875528079236" lon="10.875005042154042"><ele>674.0</ele><time>2026-04-25T10:55:54.892Z</time></trkpt><trkpt lat="44.03879244268006" lon="10.87512039156289"><ele>674.0</ele><time>2026-04-25T10:55:57.892Z</time></trkpt><trkpt lat="44.03883626738233" lon="10.87520499192589"><ele>674.0</ele><time>2026-04-25T10:55:59.892Z</time></trkpt><trkpt lat="44.03887310233192" lon="10.875294017735758"><ele>674.0</ele><time>2026-04-25T10:56:02.892Z</time></trkpt><trkpt lat="44.038909422416225" lon="10.875367479821254"><ele>674.0</ele><time>2026-04-25T10:56:04.892Z</time></trkpt><trkpt lat="44.038957755948395" lon="10.875455335900229"><ele>673.5</ele><time>2026-04-25T10:56:07.892Z</time></trkpt><trkpt lat="44.03897190760482" lon="10.87556967854257"><ele>673.0</ele><time>2026-04-25T10:56:10.892Z</time></trkpt><trkpt lat="44.038944608447444" lon="10.87568655409792"><ele>672.5</ele><time>2026-04-25T10:56:12.892Z</time></trkpt><trkpt lat="44.03887467466894" lon="10.875774619104543"><ele>672.0</ele><time>2026-04-25T10:56:14.892Z</time></trkpt><trkpt lat="44.038816135924655" lon="10.87587462568606"><ele>671.5</ele><time>2026-04-25T10:56:16.892Z</time></trkpt><trkpt lat="44.03878636195328" lon="10.875968068946174"><ele>671.0</ele><time>2026-04-25T10:56:20.892Z</time></trkpt><trkpt lat="44.038769760351144" lon="10.876058366400125"><ele>671.0</ele><time>2026-04-25T10:56:23.892Z</time></trkpt><trkpt lat="44.03879678249618" lon="10.876148484211583"><ele>671.0</ele><time>2026-04-25T10:56:26.892Z</time></trkpt><trkpt lat="44.03884241997862" lon="10.876219025649112"><ele>671.0</ele><time>2026-04-25T10:56:29.892Z</time></trkpt><trkpt lat="44.03890530603088" lon="10.87629774726995"><ele>671.0</ele><time>2026-04-25T10:56:32.892Z</time></trkpt><trkpt lat="44.03891790378892" lon="10.87638850255535"><ele>671.0</ele><time>2026-04-25T10:56:35.892Z</time></trkpt><trkpt lat="44.03894825414733" lon="10.876488115149021"><ele>671.0</ele><time>2026-04-25T10:56:38.892Z</time></trkpt><trkpt lat="44.03899635911615" lon="10.876578040610429"><ele>671.0</ele><time>2026-04-25T10:56:42.891Z</time></trkpt><trkpt lat="44.03901686118647" lon="10.876670396908011"><ele>672.0</ele><time>2026-04-25T10:56:46.891Z</time></trkpt><trkpt lat="44.03898683763773" lon="10.87677180552033"><ele>673.0</ele><time>2026-04-25T10:56:49.89Z</time></trkpt><trkpt lat="44.0390168412273" lon="10.87686013287914"><ele>674.0</ele><time>2026-04-25T10:56:51.89Z</time></trkpt><trkpt lat="44.03901028991718" lon="10.87699606536438"><ele>675.0</ele><time>2026-04-25T10:56:53.89Z</time></trkpt><trkpt lat="44.03898562000304" lon="10.877082074354995"><ele>676.0</ele><time>2026-04-25T10:56:56.89Z</time></trkpt><trkpt lat="44.038967742080644" lon="10.8771731077845"><ele>677.0</ele><time>2026-04-25T10:56:58.89Z</time></trkpt><trkpt lat="44.038953932581514" lon="10.877285384421386"><ele>676.9999999999999</ele><time>2026-04-25T10:57:01.89Z</time></trkpt><trkpt lat="44.038954037781224" lon="10.877381165819937"><ele>677.0</ele><time>2026-04-25T10:57:03.89Z</time></trkpt><trkpt lat="44.03895910706153" lon="10.877513005550838"><ele>677.0</ele><time>2026-04-25T10:57:06.89Z</time></trkpt><trkpt lat="44.03896336628293" lon="10.877606688106024"><ele>677.0</ele><time>2026-04-25T10:57:08.89Z</time></trkpt><trkpt lat="44.038975659146786" lon="10.877700676754278"><ele>677.0</ele><time>2026-04-25T10:57:10.89Z</time></trkpt><trkpt lat="44.03898743148604" lon="10.877788562087217"><ele>676.9999999999999</ele><time>2026-04-25T10:57:12.89Z</time></trkpt><trkpt lat="44.03899866268065" lon="10.877874971734148"><ele>677.0</ele><time>2026-04-25T10:57:14.89Z</time></trkpt><trkpt lat="44.039008602534786" lon="10.877974009191973"><ele>677.0</ele><time>2026-04-25T10:57:16.89Z</time></trkpt><trkpt lat="44.03901258021256" lon="10.878079243186786"><ele>677.0</ele><time>2026-04-25T10:57:19.89Z</time></trkpt><trkpt lat="44.039003768149904" lon="10.878196457636902"><ele>677.0</ele><time>2026-04-25T10:57:22.89Z</time></trkpt><trkpt lat="44.0389926412145" lon="10.878326970603805"><ele>677.0</ele><time>2026-04-25T10:57:25.89Z</time></trkpt><trkpt lat="44.03898430763697" lon="10.878441600075606"><ele>677.0</ele><time>2026-04-25T10:57:28.89Z</time></trkpt><trkpt lat="44.03897021383024" lon="10.878553882959437"><ele>677.0</ele><time>2026-04-25T10:57:31.89Z</time></trkpt><trkpt lat="44.03897073066082" lon="10.87866270368931"><ele>677.0</ele><time>2026-04-25T10:57:33.89Z</time></trkpt><trkpt lat="44.038986701114645" lon="10.878777376566514"><ele>677.0</ele><time>2026-04-25T10:57:35.89Z</time></trkpt><trkpt lat="44.0389783531729" lon="10.878897134831565"><ele>677.0</ele><time>2026-04-25T10:57:37.89Z</time></trkpt><trkpt lat="44.038953660108966" lon="10.878996362515283"><ele>677.0</ele><time>2026-04-25T10:57:40.89Z</time></trkpt><trkpt lat="44.038953260094935" lon="10.879138739893705"><ele>677.0</ele><time>2026-04-25T10:57:43.89Z</time></trkpt><trkpt lat="44.03895214344766" lon="10.879259829677135"><ele>677.0</ele><time>2026-04-25T10:57:45.89Z</time></trkpt><trkpt lat="44.03894897574909" lon="10.879401059252425"><ele>675.8</ele><time>2026-04-25T10:57:47.89Z</time></trkpt><trkpt lat="44.03896479677469" lon="10.879506327267134"><ele>674.6</ele><time>2026-04-25T10:57:49.89Z</time></trkpt><trkpt lat="44.03894522686088" lon="10.879612274509599"><ele>673.4</ele><time>2026-04-25T10:57:51.89Z</time></trkpt><trkpt lat="44.03894439242942" lon="10.879756587135637"><ele>672.1999999999999</ele><time>2026-04-25T10:57:53.89Z</time></trkpt><trkpt lat="44.038943788718484" lon="10.879860995666924"><ele>671.0</ele><time>2026-04-25T10:57:55.89Z</time></trkpt><trkpt lat="44.0389442684495" lon="10.880029175825893"><ele>670.1666666666666</ele><time>2026-04-25T10:57:57.89Z</time></trkpt><trkpt lat="44.03894495216277" lon="10.880192291566257"><ele>669.3333333333333</ele><time>2026-04-25T10:57:59.89Z</time></trkpt><trkpt lat="44.038945538821615" lon="10.880332252490067"><ele>668.5</ele><time>2026-04-25T10:58:01.89Z</time></trkpt><trkpt lat="44.0389459485258" lon="10.880429999422383"><ele>667.6666666666666</ele><time>2026-04-25T10:58:02.89Z</time></trkpt><trkpt lat="44.03894638661054" lon="10.880534514358853"><ele>666.8333333333334</ele><time>2026-04-25T10:58:03.89Z</time></trkpt><trkpt lat="44.03896640331357" lon="10.8806255927894"><ele>666.0</ele><time>2026-04-25T10:58:04.89Z</time></trkpt><trkpt lat="44.03898994788318" lon="10.880717843362392"><ele>666.0</ele><time>2026-04-25T10:58:05.89Z</time></trkpt><trkpt lat="44.03901897544501" lon="10.880808196501366"><ele>666.0</ele><time>2026-04-25T10:58:06.89Z</time></trkpt><trkpt lat="44.03904649007156" lon="10.880889933647603"><ele>666.0</ele><time>2026-04-25T10:58:07.89Z</time></trkpt><trkpt lat="44.039068434411135" lon="10.880986322793618"><ele>666.0</ele><time>2026-04-25T10:58:08.89Z</time></trkpt><trkpt lat="44.03910510544818" lon="10.881129376251147"><ele>666.0</ele><time>2026-04-25T10:58:10.89Z</time></trkpt><trkpt lat="44.03911626057122" lon="10.881219191461179"><ele>666.0</ele><time>2026-04-25T10:58:11.89Z</time></trkpt><trkpt lat="44.03912638550817" lon="10.88131515468403"><ele>666.0</ele><time>2026-04-25T10:58:12.89Z</time></trkpt><trkpt lat="44.03912046207637" lon="10.881460169247745"><ele>666.0</ele><time>2026-04-25T10:58:14.89Z</time></trkpt><trkpt lat="44.039198007537856" lon="10.8815372177553"><ele>666.0</ele><time>2026-04-25T10:58:15.89Z</time></trkpt><trkpt lat="44.03918598462216" lon="10.881706937768527"><ele>666.0</ele><time>2026-04-25T10:58:17.89Z</time></trkpt><trkpt lat="44.03917588231098" lon="10.881813795751524"><ele>666.0</ele><time>2026-04-25T10:58:19.89Z</time></trkpt><trkpt lat="44.03918143394355" lon="10.881949201074779"><ele>665.0</ele><time>2026-04-25T10:58:21.89Z</time></trkpt><trkpt lat="44.03919614345464" lon="10.882080871819854"><ele>664.0</ele><time>2026-04-25T10:58:23.89Z</time></trkpt><trkpt lat="44.03923244031775" lon="10.882200391902664"><ele>663.0</ele><time>2026-04-25T10:58:25.89Z</time></trkpt><trkpt lat="44.039298376339715" lon="10.882308370029813"><ele>662.0</ele><time>2026-04-25T10:58:27.89Z</time></trkpt><trkpt lat="44.039295227027395" lon="10.882463104368338"><ele>661.0</ele><time>2026-04-25T10:58:29.89Z</time></trkpt><trkpt lat="44.03932628892065" lon="10.88262512659997"><ele>660.4</ele><time>2026-04-25T10:58:31.89Z</time></trkpt><trkpt lat="44.039383284386226" lon="10.882734727208724"><ele>659.8</ele><time>2026-04-25T10:58:33.89Z</time></trkpt><trkpt lat="44.03945310408464" lon="10.882853268197753"><ele>659.1999999999999</ele><time>2026-04-25T10:58:35.89Z</time></trkpt><trkpt lat="44.03951007475211" lon="10.882937532472132"><ele>658.5999999999999</ele><time>2026-04-25T10:58:37.89Z</time></trkpt><trkpt lat="44.03957094691513" lon="10.883021988479456"><ele>658.0</ele><time>2026-04-25T10:58:41.89Z</time></trkpt><trkpt lat="44.039604780912725" lon="10.883114219246217"><ele>658.0</ele><time>2026-04-25T10:58:45.89Z</time></trkpt><trkpt lat="44.039654092532984" lon="10.883204769083306"><ele>658.0</ele><time>2026-04-25T10:58:49.89Z</time></trkpt><trkpt lat="44.03968432440325" lon="10.883286319416458"><ele>658.0</ele><time>2026-04-25T10:58:51.889Z</time></trkpt><trkpt lat="44.03971073929791" lon="10.883370356360855"><ele>658.0</ele><time>2026-04-25T10:58:53.889Z</time></trkpt><trkpt lat="44.03975415930064" lon="10.88347592553374"><ele>658.0</ele><time>2026-04-25T10:58:56.889Z</time></trkpt><trkpt lat="44.03978018297374" lon="10.883618940498415"><ele>658.0</ele><time>2026-04-25T10:58:59.889Z</time></trkpt><trkpt lat="44.03978689479162" lon="10.883731280085797"><ele>658.0</ele><time>2026-04-25T10:59:01.889Z</time></trkpt><trkpt lat="44.03980959526461" lon="10.883814529967847"><ele>658.0</ele><time>2026-04-25T10:59:03.889Z</time></trkpt><trkpt lat="44.03983301956399" lon="10.883900544955326"><ele>658.0</ele><time>2026-04-25T10:59:05.889Z</time></trkpt><trkpt lat="44.039855714593834" lon="10.88401059909448"><ele>658.0</ele><time>2026-04-25T10:59:07.889Z</time></trkpt><trkpt lat="44.03989465035528" lon="10.88412350065697"><ele>658.0</ele><time>2026-04-25T10:59:10.889Z</time></trkpt><trkpt lat="44.039917048432635" lon="10.884208186160677"><ele>658.0</ele><time>2026-04-25T10:59:12.889Z</time></trkpt><trkpt lat="44.03993452679149" lon="10.884297111763747"><ele>658.0</ele><time>2026-04-25T10:59:14.889Z</time></trkpt><trkpt lat="44.03999416234294" lon="10.884372729503408"><ele>658.0</ele><time>2026-04-25T10:59:17.889Z</time></trkpt><trkpt lat="44.0400451128924" lon="10.884502261622233"><ele>658.0</ele><time>2026-04-25T10:59:20.889Z</time></trkpt><trkpt lat="44.04007361691388" lon="10.884640332238542"><ele>658.0</ele><time>2026-04-25T10:59:22.888Z</time></trkpt><trkpt lat="44.04008210961711" lon="10.884789040803296"><ele>658.0</ele><time>2026-04-25T10:59:25.888Z</time></trkpt><trkpt lat="44.04009660431954" lon="10.88495433662155"><ele>658.0</ele><time>2026-04-25T10:59:28.888Z</time></trkpt><trkpt lat="44.04011426815195" lon="10.885072916269673"><ele>658.0</ele><time>2026-04-25T10:59:30.888Z</time></trkpt><trkpt lat="44.04014642550388" lon="10.88517694247424"><ele>658.0</ele><time>2026-04-25T10:59:32.888Z</time></trkpt><trkpt lat="44.040182491593086" lon="10.885310076781165"><ele>658.0</ele><time>2026-04-25T10:59:34.888Z</time></trkpt><trkpt lat="44.040222874570205" lon="10.885404096779657"><ele>658.0</ele><time>2026-04-25T10:59:36.888Z</time></trkpt><trkpt lat="44.04028059832301" lon="10.885519161328823"><ele>658.0</ele><time>2026-04-25T10:59:38.888Z</time></trkpt><trkpt lat="44.04033484795338" lon="10.885575895687937"><ele>658.0</ele><time>2026-04-25T10:59:40.888Z</time></trkpt><trkpt lat="44.040431603846905" lon="10.88563082863905"><ele>658.0</ele><time>2026-04-25T10:59:42.888Z</time></trkpt><trkpt lat="44.040519145596335" lon="10.885686903019568"><ele>658.0</ele><time>2026-04-25T10:59:44.888Z</time></trkpt><trkpt lat="44.04060588051454" lon="10.885747577704658"><ele>658.0</ele><time>2026-04-25T10:59:46.888Z</time></trkpt><trkpt lat="44.04069434489473" lon="10.885770496694159"><ele>658.0</ele><time>2026-04-25T10:59:48.888Z</time></trkpt><trkpt lat="44.04076481112285" lon="10.885788084631187"><ele>658.0</ele><time>2026-04-25T10:59:50.888Z</time></trkpt><trkpt lat="44.04084058957747" lon="10.885834001551968"><ele>658.0</ele><time>2026-04-25T10:59:52.888Z</time></trkpt><trkpt lat="44.04091755452639" lon="10.885891064106406"><ele>658.8333333333334</ele><time>2026-04-25T10:59:54.888Z</time></trkpt><trkpt lat="44.04100542593704" lon="10.885913971165984"><ele>659.6666666666667</ele><time>2026-04-25T10:59:57.888Z</time></trkpt><trkpt lat="44.04110186097562" lon="10.88594445054291"><ele>660.5</ele><time>2026-04-25T11:00:00.888Z</time></trkpt><trkpt lat="44.04117161184277" lon="10.885951891854539"><ele>661.3333333333334</ele><time>2026-04-25T11:00:02.888Z</time></trkpt><trkpt lat="44.04123793175848" lon="10.885983641653805"><ele>662.1666666666666</ele><time>2026-04-25T11:00:04.888Z</time></trkpt><trkpt lat="44.04131213678752" lon="10.886038563097163"><ele>663.0</ele><time>2026-04-25T11:00:07.888Z</time></trkpt><trkpt lat="44.041355484781576" lon="10.886102535390537"><ele>663.0</ele><time>2026-04-25T11:00:09.888Z</time></trkpt><trkpt lat="44.04141065725298" lon="10.886160056875468"><ele>663.0</ele><time>2026-04-25T11:00:11.888Z</time></trkpt><trkpt lat="44.04147312132951" lon="10.886225095834686"><ele>663.0</ele><time>2026-04-25T11:00:13.888Z</time></trkpt><trkpt lat="44.041540810882125" lon="10.88629153642638"><ele>663.0</ele><time>2026-04-25T11:00:15.888Z</time></trkpt><trkpt lat="44.041613263589724" lon="10.886389344926394"><ele>663.0</ele><time>2026-04-25T11:00:17.888Z</time></trkpt><trkpt lat="44.041632433195396" lon="10.886616227538488"><ele>662.6666666666666</ele><time>2026-04-25T11:00:19.888Z</time></trkpt><trkpt lat="44.04171821172425" lon="10.88673306887587"><ele>662.3333333333334</ele><time>2026-04-25T11:00:21.888Z</time></trkpt><trkpt lat="44.04179058514013" lon="10.886832525707504"><ele>662.0</ele><time>2026-04-25T11:00:23.888Z</time></trkpt><trkpt lat="44.04183977032277" lon="10.886903425424517"><ele>661.6666666666667</ele><time>2026-04-25T11:00:24.888Z</time></trkpt><trkpt lat="44.04188835050721" lon="10.886973453001774"><ele>661.3333333333334</ele><time>2026-04-25T11:00:25.888Z</time></trkpt><trkpt lat="44.04195214726718" lon="10.887039009932064"><ele>661.0</ele><time>2026-04-25T11:00:26.888Z</time></trkpt><trkpt lat="44.04199775375922" lon="10.8871159629098"><ele>661.0</ele><time>2026-04-25T11:00:27.888Z</time></trkpt><trkpt lat="44.04207448718896" lon="10.887262781138833"><ele>661.0</ele><time>2026-04-25T11:00:29.888Z</time></trkpt><trkpt lat="44.0421364843245" lon="10.887370789535995"><ele>661.0</ele><time>2026-04-25T11:00:31.888Z</time></trkpt><trkpt lat="44.04216094304704" lon="10.887457933372316"><ele>661.0</ele><time>2026-04-25T11:00:32.888Z</time></trkpt><trkpt lat="44.042198198416685" lon="10.887528768023204"><ele>661.0</ele><time>2026-04-25T11:00:33.888Z</time></trkpt><trkpt lat="44.04224426340927" lon="10.887611882248194"><ele>661.0</ele><time>2026-04-25T11:00:34.888Z</time></trkpt><trkpt lat="44.04231315842021" lon="10.887730299919552"><ele>661.0</ele><time>2026-04-25T11:00:36.888Z</time></trkpt><trkpt lat="44.042378433205364" lon="10.887857829377298"><ele>661.0</ele><time>2026-04-25T11:00:38.888Z</time></trkpt><trkpt lat="44.042432174346494" lon="10.887963428899376"><ele>661.0</ele><time>2026-04-25T11:00:40.888Z</time></trkpt><trkpt lat="44.04248779515997" lon="10.888081824998908"><ele>661.0</ele><time>2026-04-25T11:00:42.888Z</time></trkpt><trkpt lat="44.042546528869536" lon="10.8882147728188"><ele>661.0</ele><time>2026-04-25T11:00:44.888Z</time></trkpt><trkpt lat="44.042589601444526" lon="10.888361901108926"><ele>659.0</ele><time>2026-04-25T11:00:46.888Z</time></trkpt><trkpt lat="44.04264012403959" lon="10.888429154117889"><ele>657.0</ele><time>2026-04-25T11:00:47.888Z</time></trkpt><trkpt lat="44.04270005625516" lon="10.888579330672552"><ele>655.0</ele><time>2026-04-25T11:00:49.888Z</time></trkpt><trkpt lat="44.042742820616446" lon="10.8887450676836"><ele>653.0</ele><time>2026-04-25T11:00:51.888Z</time></trkpt><trkpt lat="44.04277072013305" lon="10.888880547630581"><ele>651.0</ele><time>2026-04-25T11:00:53.887Z</time></trkpt><trkpt lat="44.04279319062724" lon="10.88898966413014"><ele>651.0</ele><time>2026-04-25T11:00:55.888Z</time></trkpt><trkpt lat="44.04281196680175" lon="10.889080841007505"><ele>651.0</ele><time>2026-04-25T11:00:57.888Z</time></trkpt><trkpt lat="44.04282768670693" lon="10.88916823296328"><ele>651.0</ele><time>2026-04-25T11:00:59.888Z</time></trkpt><trkpt lat="44.04284446127105" lon="10.889282550522687"><ele>651.0</ele><time>2026-04-25T11:01:01.888Z</time></trkpt><trkpt lat="44.04277390607486" lon="10.889338388506848"><ele>651.0</ele><time>2026-04-25T11:01:02.888Z</time></trkpt><trkpt lat="44.04275645196865" lon="10.889435996926748"><ele>651.0</ele><time>2026-04-25T11:01:04.888Z</time></trkpt><trkpt lat="44.04274148367876" lon="10.889549813185226"><ele>651.1666666666666</ele><time>2026-04-25T11:01:06.887Z</time></trkpt><trkpt lat="44.04272823840216" lon="10.889664139105856"><ele>651.3333333333334</ele><time>2026-04-25T11:01:08.887Z</time></trkpt><trkpt lat="44.04269702637739" lon="10.8897931107609"><ele>651.5</ele><time>2026-04-25T11:01:11.887Z</time></trkpt><trkpt lat="44.04267398052759" lon="10.889888966686536"><ele>651.6666666666667</ele><time>2026-04-25T11:01:13.887Z</time></trkpt><trkpt lat="44.042658493415395" lon="10.89000706454606"><ele>651.8333333333334</ele><time>2026-04-25T11:01:16.887Z</time></trkpt><trkpt lat="44.042638779492314" lon="10.890099687855342"><ele>652.0</ele><time>2026-04-25T11:01:18.887Z</time></trkpt><trkpt lat="44.04261473722118" lon="10.89018359942504"><ele>652.8571428571429</ele><time>2026-04-25T11:01:20.887Z</time></trkpt><trkpt lat="44.04259343321253" lon="10.890307761186635"><ele>653.7142857142857</ele><time>2026-04-25T11:01:23.887Z</time></trkpt><trkpt lat="44.04264435880327" lon="10.890364021492477"><ele>654.5714285714286</ele><time>2026-04-25T11:01:26.887Z</time></trkpt><trkpt lat="44.04270959851871" lon="10.890394839844827"><ele>655.4285714285714</ele><time>2026-04-25T11:01:29.887Z</time></trkpt><trkpt lat="44.04277814926666" lon="10.890384858858686"><ele>656.2857142857142</ele><time>2026-04-25T11:01:33.887Z</time></trkpt><trkpt lat="44.04284257745718" lon="10.890400875402044"><ele>657.1428571428571</ele><time>2026-04-25T11:01:37.887Z</time></trkpt><trkpt lat="44.04290995046362" lon="10.890430279214362"><ele>658.0</ele><time>2026-04-25T11:01:41.887Z</time></trkpt><trkpt lat="44.04298874869788" lon="10.890449582610369"><ele>658.0</ele><time>2026-04-25T11:01:46.887Z</time></trkpt><trkpt lat="44.04305428416953" lon="10.890474767855778"><ele>658.0</ele><time>2026-04-25T11:01:49.89Z</time></trkpt><trkpt lat="44.04312236141207" lon="10.89050898531767"><ele>658.0</ele><time>2026-04-25T11:01:53.894Z</time></trkpt><trkpt lat="44.04319379116131" lon="10.890536569766345"><ele>658.0</ele><time>2026-04-25T11:01:57.898Z</time></trkpt><trkpt lat="44.04326572898701" lon="10.890541255115384"><ele>658.0</ele><time>2026-04-25T11:02:02.901Z</time></trkpt><trkpt lat="44.043326854859956" lon="10.890582962960194"><ele>658.0</ele><time>2026-04-25T11:02:05.903Z</time></trkpt><trkpt lat="44.04338976097536" lon="10.890578957261779"><ele>658.0</ele><time>2026-04-25T11:02:09.904Z</time></trkpt><trkpt lat="44.04346420513037" lon="10.890581310942846"><ele>661.7142857142857</ele><time>2026-04-25T11:02:15.906Z</time></trkpt><trkpt lat="44.04352891481297" lon="10.890587240190225"><ele>665.4285714285714</ele><time>2026-04-25T11:02:17.906Z</time></trkpt><trkpt lat="44.043601845346174" lon="10.890590101538704"><ele>669.1428571428571</ele><time>2026-04-25T11:02:21.907Z</time></trkpt><trkpt lat="44.0436696703729" lon="10.890571105903653"><ele>672.8571428571429</ele><time>2026-04-25T11:02:25.908Z</time></trkpt><trkpt lat="44.04371161516084" lon="10.89050566851498"><ele>676.5714285714286</ele><time>2026-04-25T11:02:30.908Z</time></trkpt><trkpt lat="44.04378592882724" lon="10.89052184743854"><ele>680.2857142857142</ele><time>2026-04-25T11:02:34.909Z</time></trkpt><trkpt lat="44.043849901329004" lon="10.890544353998413"><ele>684.0</ele><time>2026-04-25T11:02:38.909Z</time></trkpt><trkpt lat="44.04382485142844" lon="10.890636716547977"><ele>683.9999999999999</ele><time>2026-04-25T11:02:45.909Z</time></trkpt><trkpt lat="44.0437661790728" lon="10.890595241511702"><ele>684.0</ele><time>2026-04-25T11:02:57.909Z</time></trkpt><trkpt lat="44.04370272889974" lon="10.890561736407054"><ele>684.0</ele><time>2026-04-25T11:03:03.909Z</time></trkpt><trkpt lat="44.04362664514383" lon="10.890563816424756"><ele>684.0</ele><time>2026-04-25T11:03:08.909Z</time></trkpt><trkpt lat="44.04355785073332" lon="10.890589547077813"><ele>684.0</ele><time>2026-04-25T11:03:15.909Z</time></trkpt><trkpt lat="44.043487817074954" lon="10.890616197440618"><ele>683.9999999999999</ele><time>2026-04-25T11:03:19.909Z</time></trkpt><trkpt lat="44.04342676526565" lon="10.89067303293808"><ele>684.0</ele><time>2026-04-25T11:03:23.909Z</time></trkpt><trkpt lat="44.04337393956636" lon="10.890744804641114"><ele>683.9999999999999</ele><time>2026-04-25T11:03:27.909Z</time></trkpt><trkpt lat="44.04332408105547" lon="10.89081323970072"><ele>684.0</ele><time>2026-04-25T11:03:31.909Z</time></trkpt><trkpt lat="44.043257178816404" lon="10.890847388543698"><ele>684.0</ele><time>2026-04-25T11:03:35.909Z</time></trkpt><trkpt lat="44.0431981641417" lon="10.890881490655131"><ele>684.0</ele><time>2026-04-25T11:03:38.909Z</time></trkpt><trkpt lat="44.04314668827356" lon="10.890937226495089"><ele>684.0</ele><time>2026-04-25T11:03:41.909Z</time></trkpt><trkpt lat="44.043091375352915" lon="10.890986872276647"><ele>683.9999999999999</ele><time>2026-04-25T11:03:44.909Z</time></trkpt><trkpt lat="44.043037610126596" lon="10.891066047670861"><ele>684.0</ele><time>2026-04-25T11:03:47.909Z</time></trkpt><trkpt lat="44.042997815732086" lon="10.891137523253308"><ele>680.7142857142857</ele><time>2026-04-25T11:03:50.909Z</time></trkpt><trkpt lat="44.04297065133904" lon="10.8912333291409"><ele>677.4285714285714</ele><time>2026-04-25T11:03:54.909Z</time></trkpt><trkpt lat="44.04296492124638" lon="10.891340593501297"><ele>674.1428571428571</ele><time>2026-04-25T11:03:59.909Z</time></trkpt><trkpt lat="44.04299496517098" lon="10.891431003545192"><ele>670.8571428571429</ele><time>2026-04-25T11:04:04.909Z</time></trkpt><trkpt lat="44.043031798736976" lon="10.891514470758052"><ele>667.5714285714286</ele><time>2026-04-25T11:04:09.909Z</time></trkpt><trkpt lat="44.04307233376475" lon="10.891587967775791"><ele>664.2857142857142</ele><time>2026-04-25T11:04:14.909Z</time></trkpt><trkpt lat="44.0431242207707" lon="10.891647374420035"><ele>661.0</ele><time>2026-04-25T11:04:18.909Z</time></trkpt><trkpt lat="44.043172602912705" lon="10.891729738361398"><ele>659.4285714285714</ele><time>2026-04-25T11:04:22.909Z</time></trkpt><trkpt lat="44.04322787804452" lon="10.891789648383028"><ele>657.8571428571429</ele><time>2026-04-25T11:04:25.909Z</time></trkpt><trkpt lat="44.043288109698665" lon="10.891842144209622"><ele>656.2857142857142</ele><time>2026-04-25T11:04:28.909Z</time></trkpt><trkpt lat="44.043334544754536" lon="10.891907427011487"><ele>654.7142857142858</ele><time>2026-04-25T11:04:31.909Z</time></trkpt><trkpt lat="44.04339937989886" lon="10.891948009025231"><ele>653.1428571428572</ele><time>2026-04-25T11:04:35.909Z</time></trkpt><trkpt lat="44.043463878634874" lon="10.891987264403843"><ele>651.5714285714286</ele><time>2026-04-25T11:04:38.909Z</time></trkpt><trkpt lat="44.04354022339195" lon="10.892038588069344"><ele>650.0</ele><time>2026-04-25T11:04:42.909Z</time></trkpt><trkpt lat="44.04360198538313" lon="10.892099948458293"><ele>654.5</ele><time>2026-04-25T11:04:45.909Z</time></trkpt><trkpt lat="44.043670020289625" lon="10.892170693778798"><ele>659.0</ele><time>2026-04-25T11:04:48.909Z</time></trkpt><trkpt lat="44.043745961666154" lon="10.892277132724246"><ele>663.5</ele><time>2026-04-25T11:04:51.909Z</time></trkpt><trkpt lat="44.04379782655162" lon="10.892336409501496"><ele>668.0</ele><time>2026-04-25T11:04:54.909Z</time></trkpt><trkpt lat="44.04385638495525" lon="10.89239620967624"><ele>672.5</ele><time>2026-04-25T11:04:57.909Z</time></trkpt><trkpt lat="44.04391848314853" lon="10.89245562425037"><ele>677.0</ele><time>2026-04-25T11:05:00.909Z</time></trkpt><trkpt lat="44.043993070379116" lon="10.892516205292344"><ele>677.0</ele><time>2026-04-25T11:05:03.909Z</time></trkpt><trkpt lat="44.04405569549441" lon="10.892570196341378"><ele>677.0</ele><time>2026-04-25T11:05:06.908Z</time></trkpt><trkpt lat="44.044122932941235" lon="10.892657088701773"><ele>677.0</ele><time>2026-04-25T11:05:09.907Z</time></trkpt><trkpt lat="44.04418030545009" lon="10.892728630634668"><ele>677.0</ele><time>2026-04-25T11:05:12.908Z</time></trkpt><trkpt lat="44.04424488822456" lon="10.892806266086593"><ele>677.0</ele><time>2026-04-25T11:05:15.908Z</time></trkpt><trkpt lat="44.04431558635626" lon="10.892846360041133"><ele>677.0</ele><time>2026-04-25T11:05:19.908Z</time></trkpt><trkpt lat="44.04437999063498" lon="10.892884330020292"><ele>677.4285714285713</ele><time>2026-04-25T11:05:22.908Z</time></trkpt><trkpt lat="44.044437942467766" lon="10.892924911347798"><ele>677.8571428571429</ele><time>2026-04-25T11:05:26.908Z</time></trkpt><trkpt lat="44.04451231323968" lon="10.89296229896372"><ele>678.2857142857142</ele><time>2026-04-25T11:05:29.908Z</time></trkpt><trkpt lat="44.0445756983371" lon="10.893002208753"><ele>678.7142857142857</ele><time>2026-04-25T11:05:32.908Z</time></trkpt><trkpt lat="44.04463358709559" lon="10.893063810960925"><ele>679.1428571428571</ele><time>2026-04-25T11:05:35.908Z</time></trkpt><trkpt lat="44.04469681184808" lon="10.893141225366122"><ele>679.5714285714286</ele><time>2026-04-25T11:05:38.908Z</time></trkpt><trkpt lat="44.04476001607778" lon="10.893204902727136"><ele>680.0</ele><time>2026-04-25T11:05:41.908Z</time></trkpt><trkpt lat="44.04483839127154" lon="10.893217120864875"><ele>680.0</ele><time>2026-04-25T11:05:44.908Z</time></trkpt><trkpt lat="44.04490325275517" lon="10.893230192484559"><ele>680.0</ele><time>2026-04-25T11:05:47.908Z</time></trkpt><trkpt lat="44.04499063748188" lon="10.893197285070745"><ele>680.0</ele><time>2026-04-25T11:05:52.908Z</time></trkpt><trkpt lat="44.045062805675094" lon="10.893206440903187"><ele>680.0</ele><time>2026-04-25T11:05:55.908Z</time></trkpt><trkpt lat="44.04513840521424" lon="10.893200658901801"><ele>680.0</ele><time>2026-04-25T11:05:59.908Z</time></trkpt><trkpt lat="44.04520747407696" lon="10.893237170507092"><ele>680.0</ele><time>2026-04-25T11:06:04.908Z</time></trkpt><trkpt lat="44.04528635915407" lon="10.893258599577276"><ele>680.1666666666666</ele><time>2026-04-25T11:06:08.908Z</time></trkpt><trkpt lat="44.04536033971726" lon="10.893315229693847"><ele>680.3333333333333</ele><time>2026-04-25T11:06:13.908Z</time></trkpt><trkpt lat="44.04539617909476" lon="10.893389415178069"><ele>680.5</ele><time>2026-04-25T11:06:17.908Z</time></trkpt><trkpt lat="44.04542656249692" lon="10.893490963118042"><ele>680.6666666666666</ele><time>2026-04-25T11:06:22.908Z</time></trkpt><trkpt lat="44.04545304990052" lon="10.893600653720622"><ele>680.8333333333334</ele><time>2026-04-25T11:06:26.908Z</time></trkpt><trkpt lat="44.045485022446805" lon="10.893682597451104"><ele>681.0</ele><time>2026-04-25T11:06:29.908Z</time></trkpt><trkpt lat="44.045547229429836" lon="10.893743925579523"><ele>681.0</ele><time>2026-04-25T11:06:32.908Z</time></trkpt><trkpt lat="44.045603414721874" lon="10.893791634678847"><ele>681.0</ele><time>2026-04-25T11:06:34.908Z</time></trkpt><trkpt lat="44.0456899856687" lon="10.893815496361727"><ele>681.0</ele><time>2026-04-25T11:06:37.908Z</time></trkpt><trkpt lat="44.0457631512098" lon="10.893863954126562"><ele>681.0</ele><time>2026-04-25T11:06:41.908Z</time></trkpt><trkpt lat="44.045831457219435" lon="10.893909905461769"><ele>681.0</ele><time>2026-04-25T11:06:44.908Z</time></trkpt><trkpt lat="44.045897730021736" lon="10.893942171341289"><ele>681.0</ele><time>2026-04-25T11:06:47.908Z</time></trkpt><trkpt lat="44.04595599586159" lon="10.893992001864696"><ele>683.1428571428572</ele><time>2026-04-25T11:06:49.908Z</time></trkpt><trkpt lat="44.04603703204352" lon="10.89403796763134"><ele>685.2857142857143</ele><time>2026-04-25T11:06:52.908Z</time></trkpt><trkpt lat="44.04609736274331" lon="10.894083018468894"><ele>687.4285714285714</ele><time>2026-04-25T11:06:55.908Z</time></trkpt><trkpt lat="44.046161365057785" lon="10.89413384576617"><ele>689.5714285714287</ele><time>2026-04-25T11:06:58.908Z</time></trkpt><trkpt lat="44.04620463720737" lon="10.894209274751578"><ele>691.7142857142858</ele><time>2026-04-25T11:07:02.908Z</time></trkpt><trkpt lat="44.04625564664758" lon="10.894281025008494"><ele>693.8571428571429</ele><time>2026-04-25T11:07:06.908Z</time></trkpt><trkpt lat="44.046301404949126" lon="10.894343252136572"><ele>696.0</ele><time>2026-04-25T11:07:09.908Z</time></trkpt><trkpt lat="44.046389279354955" lon="10.89436172040253"><ele>696.0</ele><time>2026-04-25T11:07:12.907Z</time></trkpt><trkpt lat="44.04634853693754" lon="10.894289731368511"><ele>696.0</ele><time>2026-04-25T11:07:19.907Z</time></trkpt><trkpt lat="44.04630094092679" lon="10.894221549032562"><ele>696.0</ele><time>2026-04-25T11:07:25.907Z</time></trkpt><trkpt lat="44.04622914588031" lon="10.894217399797087"><ele>696.0</ele><time>2026-04-25T11:07:31.907Z</time></trkpt><trkpt lat="44.046155795861836" lon="10.894217708500499"><ele>696.0</ele><time>2026-04-25T11:07:37.907Z</time></trkpt><trkpt lat="44.04609149634064" lon="10.894166785647176"><ele>696.0</ele><time>2026-04-25T11:07:42.907Z</time></trkpt><trkpt lat="44.046026397933915" lon="10.894111486811987"><ele>696.0</ele><time>2026-04-25T11:07:48.907Z</time></trkpt><trkpt lat="44.045976866666095" lon="10.894055250763637"><ele>693.8571428571429</ele><time>2026-04-25T11:07:52.907Z</time></trkpt><trkpt lat="44.04593918859456" lon="10.893959807833095"><ele>691.7142857142858</ele><time>2026-04-25T11:07:56.907Z</time></trkpt><trkpt lat="44.04592652985052" lon="10.893871034744524"><ele>689.5714285714287</ele><time>2026-04-25T11:07:59.907Z</time></trkpt><trkpt lat="44.0458991911762" lon="10.893775054759727"><ele>687.4285714285714</ele><time>2026-04-25T11:08:03.907Z</time></trkpt><trkpt lat="44.04587428791039" lon="10.893690386964089"><ele>685.2857142857143</ele><time>2026-04-25T11:08:07.907Z</time></trkpt><trkpt lat="44.045831317411086" lon="10.893619674742851"><ele>683.1428571428572</ele><time>2026-04-25T11:08:11.907Z</time></trkpt><trkpt lat="44.045802323884224" lon="10.893533937247918"><ele>681.0</ele><time>2026-04-25T11:08:15.907Z</time></trkpt><trkpt lat="44.045755241206805" lon="10.893444997914338"><ele>685.2857142857143</ele><time>2026-04-25T11:08:19.907Z</time></trkpt><trkpt lat="44.0457170858981" lon="10.893339050528228"><ele>689.5714285714286</ele><time>2026-04-25T11:08:23.907Z</time></trkpt><trkpt lat="44.045673373062556" lon="10.893243734426148"><ele>693.8571428571429</ele><time>2026-04-25T11:08:27.907Z</time></trkpt><trkpt lat="44.04566812578956" lon="10.893151639275121"><ele>698.1428571428571</ele><time>2026-04-25T11:08:30.907Z</time></trkpt><trkpt lat="44.04566009502853" lon="10.893048118435697"><ele>702.4285714285714</ele><time>2026-04-25T11:08:35.907Z</time></trkpt><trkpt lat="44.045651197123206" lon="10.892954452063018"><ele>706.7142857142858</ele><time>2026-04-25T11:08:38.907Z</time></trkpt><trkpt lat="44.045602345761125" lon="10.892888678286992"><ele>711.0</ele><time>2026-04-25T11:08:44.907Z</time></trkpt><trkpt lat="44.04555778861406" lon="10.892825823377217"><ele>711.0</ele><time>2026-04-25T11:08:56.907Z</time></trkpt><trkpt lat="44.04548128482742" lon="10.892813145811644"><ele>711.0</ele><time>2026-04-25T11:09:01.907Z</time></trkpt><trkpt lat="44.045405857912726" lon="10.89281179752382"><ele>711.0</ele><time>2026-04-25T11:09:04.907Z</time></trkpt><trkpt lat="44.04531773499286" lon="10.89280609677509"><ele>711.0</ele><time>2026-04-25T11:09:07.907Z</time></trkpt><trkpt lat="44.04522707557648" lon="10.892796973483428"><ele>711.0</ele><time>2026-04-25T11:09:10.907Z</time></trkpt><trkpt lat="44.04514687922687" lon="10.89277759079124"><ele>711.0</ele><time>2026-04-25T11:09:14.907Z</time></trkpt><trkpt lat="44.04508096037928" lon="10.8927537425116"><ele>711.0</ele><time>2026-04-25T11:09:17.905Z</time></trkpt><trkpt lat="44.045016304056624" lon="10.892704504393866"><ele>711.0</ele><time>2026-04-25T11:09:20.905Z</time></trkpt><trkpt lat="44.04495527876146" lon="10.892657660608139"><ele>711.0</ele><time>2026-04-25T11:09:23.906Z</time></trkpt><trkpt lat="44.04489267862838" lon="10.892586602417708"><ele>711.0</ele><time>2026-04-25T11:09:27.906Z</time></trkpt><trkpt lat="44.04484429152422" lon="10.892519619058042"><ele>711.0</ele><time>2026-04-25T11:09:30.905Z</time></trkpt><trkpt lat="44.044775850903235" lon="10.892466373853587"><ele>711.0</ele><time>2026-04-25T11:09:34.905Z</time></trkpt><trkpt lat="44.044730670083325" lon="10.892399799068535"><ele>711.0</ele><time>2026-04-25T11:09:37.905Z</time></trkpt><trkpt lat="44.04467789721128" lon="10.89231814750187"><ele>712.0</ele><time>2026-04-25T11:09:40.905Z</time></trkpt><trkpt lat="44.04464963711743" lon="10.892236456865348"><ele>713.0</ele><time>2026-04-25T11:09:43.905Z</time></trkpt><trkpt lat="44.04462643683419" lon="10.892128930107022"><ele>714.0</ele><time>2026-04-25T11:09:47.905Z</time></trkpt><trkpt lat="44.04467041689485" lon="10.892041473524017"><ele>715.0</ele><time>2026-04-25T11:09:51.905Z</time></trkpt><trkpt lat="44.04471264184455" lon="10.891964847906696"><ele>716.0</ele><time>2026-04-25T11:09:55.905Z</time></trkpt><trkpt lat="44.04476703738602" lon="10.891910880056459"><ele>717.0</ele><time>2026-04-25T11:10:00.905Z</time></trkpt><trkpt lat="44.0448322974982" lon="10.891836697171458"><ele>718.0</ele><time>2026-04-25T11:10:04.905Z</time></trkpt><trkpt lat="44.044903207749876" lon="10.891771627154187"><ele>723.8571428571429</ele><time>2026-04-25T11:10:08.905Z</time></trkpt><trkpt lat="44.044976087348125" lon="10.891716564500847"><ele>729.7142857142858</ele><time>2026-04-25T11:10:13.905Z</time></trkpt><trkpt lat="44.04503195704914" lon="10.891670431990747"><ele>735.5714285714286</ele><time>2026-04-25T11:10:17.905Z</time></trkpt><trkpt lat="44.04508719599625" lon="10.891615796249825"><ele>741.4285714285714</ele><time>2026-04-25T11:10:21.905Z</time></trkpt><trkpt lat="44.045155848756735" lon="10.891569150404637"><ele>747.2857142857142</ele><time>2026-04-25T11:10:25.905Z</time></trkpt><trkpt lat="44.04520909500594" lon="10.891519040416473"><ele>753.1428571428571</ele><time>2026-04-25T11:10:29.905Z</time></trkpt><trkpt lat="44.04524750525526" lon="10.891446779009312"><ele>759.0</ele><time>2026-04-25T11:10:33.905Z</time></trkpt><trkpt lat="44.045286941931934" lon="10.891370959543227"><ele>759.0</ele><time>2026-04-25T11:10:37.905Z</time></trkpt><trkpt lat="44.04534501852246" lon="10.891321710954005"><ele>759.0</ele><time>2026-04-25T11:10:40.905Z</time></trkpt><trkpt lat="44.0454063268245" lon="10.891380532291807"><ele>759.0</ele><time>2026-04-25T11:10:52.905Z</time></trkpt><trkpt lat="44.04543429303162" lon="10.891465744100794"><ele>759.0</ele><time>2026-04-25T11:10:58.905Z</time></trkpt><trkpt lat="44.045481081605395" lon="10.891529743597857"><ele>759.0</ele><time>2026-04-25T11:11:03.905Z</time></trkpt><trkpt lat="44.04553745655776" lon="10.891573725615958"><ele>759.0</ele><time>2026-04-25T11:11:08.905Z</time></trkpt><trkpt lat="44.04560418792119" lon="10.89161668252687"><ele>759.0</ele><time>2026-04-25T11:11:13.905Z</time></trkpt><trkpt lat="44.04567481272854" lon="10.891665427292741"><ele>759.0</ele><time>2026-04-25T11:11:18.905Z</time></trkpt><trkpt lat="44.04574313953358" lon="10.891723100945006"><ele>759.0</ele><time>2026-04-25T11:11:23.904Z</time></trkpt><trkpt lat="44.04580816855204" lon="10.89177606619182"><ele>759.0</ele><time>2026-04-25T11:11:27.904Z</time></trkpt><trkpt lat="44.04588257287418" lon="10.891823182896829"><ele>759.0</ele><time>2026-04-25T11:11:31.904Z</time></trkpt><trkpt lat="44.04594820083893" lon="10.891830343802129"><ele>759.0</ele><time>2026-04-25T11:11:35.904Z</time></trkpt><trkpt lat="44.04601394887026" lon="10.891856649236688"><ele>759.0</ele><time>2026-04-25T11:11:40.904Z</time></trkpt><trkpt lat="44.0460760987852" lon="10.891899072766803"><ele>759.0</ele><time>2026-04-25T11:11:44.904Z</time></trkpt><trkpt lat="44.046143038813526" lon="10.891922302664216"><ele>759.4285714285714</ele><time>2026-04-25T11:11:48.904Z</time></trkpt><trkpt lat="44.046205719981025" lon="10.891973088642757"><ele>759.8571428571429</ele><time>2026-04-25T11:11:53.904Z</time></trkpt><trkpt lat="44.046246188956744" lon="10.89204027979019"><ele>760.2857142857142</ele><time>2026-04-25T11:11:58.904Z</time></trkpt><trkpt lat="44.04628897912616" lon="10.892131622678384"><ele>760.7142857142858</ele><time>2026-04-25T11:12:02.904Z</time></trkpt><trkpt lat="44.04631787960083" lon="10.892223262879234"><ele>761.1428571428572</ele><time>2026-04-25T11:12:06.904Z</time></trkpt><trkpt lat="44.046345319753314" lon="10.892315909523616"><ele>761.5714285714286</ele><time>2026-04-25T11:12:10.904Z</time></trkpt><trkpt lat="44.0463552265136" lon="10.892415694294034"><ele>762.0</ele><time>2026-04-25T11:12:14.904Z</time></trkpt><trkpt lat="44.046386601766216" lon="10.892500999884492"><ele>762.0</ele><time>2026-04-25T11:12:18.904Z</time></trkpt><trkpt lat="44.046430887776026" lon="10.892571604879892"><ele>762.0</ele><time>2026-04-25T11:12:21.904Z</time></trkpt><trkpt lat="44.04648648506036" lon="10.892635055041541"><ele>762.0</ele><time>2026-04-25T11:12:25.904Z</time></trkpt><trkpt lat="44.0465434423841" lon="10.892696223446466"><ele>762.0</ele><time>2026-04-25T11:12:28.904Z</time></trkpt><trkpt lat="44.04660474429341" lon="10.892758328461088"><ele>762.0</ele><time>2026-04-25T11:12:33.904Z</time></trkpt><trkpt lat="44.04665975882959" lon="10.892824594320826"><ele>762.0</ele><time>2026-04-25T11:12:37.904Z</time></trkpt><trkpt lat="44.04671895973789" lon="10.892883363688679"><ele>762.0</ele><time>2026-04-25T11:12:41.904Z</time></trkpt><trkpt lat="44.04678164864256" lon="10.89295167985062"><ele>764.1428571428571</ele><time>2026-04-25T11:12:45.904Z</time></trkpt><trkpt lat="44.04684450741983" lon="10.893010766636788"><ele>766.2857142857143</ele><time>2026-04-25T11:12:49.904Z</time></trkpt><trkpt lat="44.04691205686915" lon="10.893058295517486"><ele>768.4285714285714</ele><time>2026-04-25T11:12:53.904Z</time></trkpt><trkpt lat="44.046970550901435" lon="10.893101092908116"><ele>770.5714285714286</ele><time>2026-04-25T11:12:57.904Z</time></trkpt><trkpt lat="44.04702726757175" lon="10.893157306108053"><ele>772.7142857142858</ele><time>2026-04-25T11:13:01.904Z</time></trkpt><trkpt lat="44.04709744445513" lon="10.893205531800158"><ele>774.8571428571429</ele><time>2026-04-25T11:13:04.904Z</time></trkpt><trkpt lat="44.04717792048624" lon="10.893233631897312"><ele>777.0</ele><time>2026-04-25T11:13:08.904Z</time></trkpt><trkpt lat="44.04723755320145" lon="10.893279959247302"><ele>777.0</ele><time>2026-04-25T11:13:12.904Z</time></trkpt><trkpt lat="44.047302555181275" lon="10.893317991441815"><ele>777.0</ele><time>2026-04-25T11:13:15.904Z</time></trkpt><trkpt lat="44.04737519584667" lon="10.893367753315792"><ele>777.0</ele><time>2026-04-25T11:13:19.904Z</time></trkpt><trkpt lat="44.047445428534864" lon="10.893397639081227"><ele>777.0</ele><time>2026-04-25T11:13:23.904Z</time></trkpt><trkpt lat="44.047513764494965" lon="10.893395446445682"><ele>777.0</ele><time>2026-04-25T11:13:26.904Z</time></trkpt><trkpt lat="44.047585661415326" lon="10.8934532163266"><ele>777.0</ele><time>2026-04-25T11:13:30.902Z</time></trkpt><trkpt lat="44.04764405688688" lon="10.893502951230971"><ele>777.0</ele><time>2026-04-25T11:13:34.903Z</time></trkpt><trkpt lat="44.04770400059683" lon="10.893540177706798"><ele>778.8571428571429</ele><time>2026-04-25T11:13:37.902Z</time></trkpt><trkpt lat="44.04775251865564" lon="10.893607707765188"><ele>780.7142857142858</ele><time>2026-04-25T11:13:41.903Z</time></trkpt><trkpt lat="44.04781260919245" lon="10.893656847761214"><ele>782.5714285714286</ele><time>2026-04-25T11:13:45.902Z</time></trkpt><trkpt lat="44.04784832543519" lon="10.893735719033542"><ele>784.4285714285714</ele><time>2026-04-25T11:13:48.902Z</time></trkpt><trkpt lat="44.047886378980785" lon="10.89382507537502"><ele>786.2857142857143</ele><time>2026-04-25T11:13:51.902Z</time></trkpt><trkpt lat="44.04793373859568" lon="10.893912344484834"><ele>788.1428571428571</ele><time>2026-04-25T11:13:54.902Z</time></trkpt><trkpt lat="44.04799823307651" lon="10.893992509772518"><ele>790.0</ele><time>2026-04-25T11:13:58.902Z</time></trkpt><trkpt lat="44.04803774082164" lon="10.893920067251534"><ele>790.0</ele><time>2026-04-25T11:14:16.902Z</time></trkpt><trkpt lat="44.047994080462765" lon="10.89384469641606"><ele>790.0</ele><time>2026-04-25T11:14:23.902Z</time></trkpt><trkpt lat="44.04798160371906" lon="10.893753412983367"><ele>790.0</ele><time>2026-04-25T11:14:29.902Z</time></trkpt><trkpt lat="44.047965583238195" lon="10.893668042707171"><ele>790.0</ele><time>2026-04-25T11:14:33.902Z</time></trkpt><trkpt lat="44.047958149658896" lon="10.89357355953972"><ele>790.0</ele><time>2026-04-25T11:14:37.902Z</time></trkpt><trkpt lat="44.04796098124328" lon="10.893477543650231"><ele>790.0</ele><time>2026-04-25T11:14:41.902Z</time></trkpt><trkpt lat="44.047931378021104" lon="10.893399291664629"><ele>790.0</ele><time>2026-04-25T11:14:45.902Z</time></trkpt><trkpt lat="44.04791042743106" lon="10.893309017282254"><ele>795.1666666666666</ele><time>2026-04-25T11:14:50.902Z</time></trkpt><trkpt lat="44.04788188810914" lon="10.893221583776777"><ele>800.3333333333333</ele><time>2026-04-25T11:14:55.902Z</time></trkpt><trkpt lat="44.04786124554266" lon="10.89311753705879"><ele>805.5</ele><time>2026-04-25T11:14:59.902Z</time></trkpt><trkpt lat="44.047833552147175" lon="10.893023294733997"><ele>810.6666666666667</ele><time>2026-04-25T11:15:04.902Z</time></trkpt><trkpt lat="44.04778982064449" lon="10.892938092404416"><ele>815.8333333333334</ele><time>2026-04-25T11:15:09.902Z</time></trkpt><trkpt lat="44.047726561174386" lon="10.892874350723606"><ele>821.0</ele><time>2026-04-25T11:15:14.902Z</time></trkpt><trkpt lat="44.04768113176471" lon="10.892786774059216"><ele>821.0000000000001</ele><time>2026-04-25T11:15:17.902Z</time></trkpt><trkpt lat="44.04762882581288" lon="10.892702933154206"><ele>821.0</ele><time>2026-04-25T11:15:20.902Z</time></trkpt><trkpt lat="44.047585142766735" lon="10.892632360001024"><ele>821.0</ele><time>2026-04-25T11:15:22.902Z</time></trkpt><trkpt lat="44.04753350335654" lon="10.892563319537196"><ele>821.0</ele><time>2026-04-25T11:15:25.902Z</time></trkpt><trkpt lat="44.047505623211094" lon="10.892475993049016"><ele>821.0</ele><time>2026-04-25T11:15:28.902Z</time></trkpt><trkpt lat="44.04746188595597" lon="10.892390833302704"><ele>821.0000000000001</ele><time>2026-04-25T11:15:32.902Z</time></trkpt><trkpt lat="44.04742631595015" lon="10.892307364847603"><ele>821.0</ele><time>2026-04-25T11:15:37.901Z</time></trkpt><trkpt lat="44.047451524309814" lon="10.892216886114564"><ele>824.7142857142858</ele><time>2026-04-25T11:15:40.901Z</time></trkpt><trkpt lat="44.04748929695464" lon="10.892127816135607"><ele>828.4285714285714</ele><time>2026-04-25T11:15:44.901Z</time></trkpt><trkpt lat="44.04753959420909" lon="10.892068297477412"><ele>832.1428571428571</ele><time>2026-04-25T11:15:47.901Z</time></trkpt><trkpt lat="44.047592837582876" lon="10.892002376489131"><ele>835.8571428571429</ele><time>2026-04-25T11:15:50.901Z</time></trkpt><trkpt lat="44.04765786771334" lon="10.89196192326039"><ele>839.5714285714286</ele><time>2026-04-25T11:15:54.901Z</time></trkpt><trkpt lat="44.04772071948534" lon="10.891930615259687"><ele>843.2857142857143</ele><time>2026-04-25T11:15:58.901Z</time></trkpt><trkpt lat="44.04778846611582" lon="10.891888473797403"><ele>847.0</ele><time>2026-04-25T11:16:02.901Z</time></trkpt><trkpt lat="44.047855544281134" lon="10.89187867885484"><ele>847.0</ele><time>2026-04-25T11:16:06.901Z</time></trkpt><trkpt lat="44.04793023159184" lon="10.891869235710002"><ele>847.0</ele><time>2026-04-25T11:16:10.901Z</time></trkpt><trkpt lat="44.04800103854724" lon="10.891876100560077"><ele>847.0</ele><time>2026-04-25T11:16:14.901Z</time></trkpt><trkpt lat="44.0480666857997" lon="10.891893019793866"><ele>847.0</ele><time>2026-04-25T11:16:18.901Z</time></trkpt><trkpt lat="44.04814007547012" lon="10.8919033414981"><ele>847.0</ele><time>2026-04-25T11:16:22.901Z</time></trkpt><trkpt lat="44.048212973433806" lon="10.891895865521178"><ele>847.0</ele><time>2026-04-25T11:16:27.901Z</time></trkpt><trkpt lat="44.0482843421805" lon="10.891882596648975"><ele>847.0</ele><time>2026-04-25T11:16:31.901Z</time></trkpt><trkpt lat="44.04833746707653" lon="10.891827631871351"><ele>848.5714285714286</ele><time>2026-04-25T11:16:35.901Z</time></trkpt><trkpt lat="44.04841236541624" lon="10.891766915707038"><ele>850.1428571428571</ele><time>2026-04-25T11:16:40.901Z</time></trkpt><trkpt lat="44.04847249491833" lon="10.891734877595605"><ele>851.7142857142858</ele><time>2026-04-25T11:16:43.901Z</time></trkpt><trkpt lat="44.0485267828491" lon="10.89168624245676"><ele>853.2857142857142</ele><time>2026-04-25T11:16:46.901Z</time></trkpt><trkpt lat="44.04858641522143" lon="10.891645556670978"><ele>854.8571428571429</ele><time>2026-04-25T11:16:49.901Z</time></trkpt><trkpt lat="44.048655316806006" lon="10.891599330364299"><ele>856.4285714285714</ele><time>2026-04-25T11:16:53.901Z</time></trkpt><trkpt lat="44.04872812842628" lon="10.891557024419916"><ele>858.0</ele><time>2026-04-25T11:16:57.901Z</time></trkpt><trkpt lat="44.048794337058425" lon="10.891555771424919"><ele>858.0</ele><time>2026-04-25T11:17:00.901Z</time></trkpt><trkpt lat="44.04885852891039" lon="10.891550565384172"><ele>858.0</ele><time>2026-04-25T11:17:03.901Z</time></trkpt><trkpt lat="44.04892451097059" lon="10.891543737655988"><ele>858.0</ele><time>2026-04-25T11:17:06.901Z</time></trkpt><trkpt lat="44.048985856633" lon="10.891498879292643"><ele>858.0</ele><time>2026-04-25T11:17:09.901Z</time></trkpt><trkpt lat="44.049053397601156" lon="10.89147001319208"><ele>858.0</ele><time>2026-04-25T11:17:13.901Z</time></trkpt><trkpt lat="44.04911853532724" lon="10.89142872858815"><ele>858.0</ele><time>2026-04-25T11:17:17.901Z</time></trkpt><trkpt lat="44.049178609661446" lon="10.891371557342795"><ele>858.0</ele><time>2026-04-25T11:17:20.901Z</time></trkpt><trkpt lat="44.04923941178857" lon="10.891332856802462"><ele>858.1666666666666</ele><time>2026-04-25T11:17:24.901Z</time></trkpt><trkpt lat="44.049251046453186" lon="10.891215155782424"><ele>858.3333333333333</ele><time>2026-04-25T11:17:28.901Z</time></trkpt><trkpt lat="44.049261928779785" lon="10.89112391733707"><ele>858.5</ele><time>2026-04-25T11:17:33.901Z</time></trkpt><trkpt lat="44.049315915135544" lon="10.891041067811635"><ele>858.6666666666666</ele><time>2026-04-25T11:17:37.901Z</time></trkpt><trkpt lat="44.04938262729396" lon="10.890981246847753"><ele>858.8333333333333</ele><time>2026-04-25T11:17:41.9Z</time></trkpt><trkpt lat="44.04944027409208" lon="10.89092394426684"><ele>859.0</ele><time>2026-04-25T11:17:45.9Z</time></trkpt><trkpt lat="44.04950422269622" lon="10.890867701780321"><ele>858.9999999999999</ele><time>2026-04-25T11:17:49.899Z</time></trkpt><trkpt lat="44.0495635506544" lon="10.890825456289157"><ele>859.0</ele><time>2026-04-25T11:17:52.903Z</time></trkpt><trkpt lat="44.04960978179103" lon="10.890745150985582"><ele>859.0</ele><time>2026-04-25T11:17:56.907Z</time></trkpt><trkpt lat="44.049654472371294" lon="10.890673893744479"><ele>859.0</ele><time>2026-04-25T11:18:00.91Z</time></trkpt><trkpt lat="44.0496888868441" lon="10.890581758657577"><ele>859.0</ele><time>2026-04-25T11:18:04.913Z</time></trkpt><trkpt lat="44.04972262121786" lon="10.890502151011587"><ele>858.9999999999999</ele><time>2026-04-25T11:18:07.914Z</time></trkpt><trkpt lat="44.04976553022693" lon="10.890433371901448"><ele>859.0</ele><time>2026-04-25T11:18:10.915Z</time></trkpt><trkpt lat="44.04980583615088" lon="10.89036455654147"><ele>858.9999999999999</ele><time>2026-04-25T11:18:15.916Z</time></trkpt><trkpt lat="44.04981860513677" lon="10.890263678191936"><ele>859.0</ele><time>2026-04-25T11:18:24.918Z</time></trkpt><trkpt lat="44.04983576288143" lon="10.890142938138759"><ele>859.0</ele><time>2026-04-25T11:18:38.92Z</time></trkpt><trkpt lat="44.04990873612352" lon="10.890135116376243"><ele>859.0</ele><time>2026-04-25T11:18:48.92Z</time></trkpt><trkpt lat="44.04998191086263" lon="10.890072632220685"><ele>858.9999999999999</ele><time>2026-04-25T11:19:16.92Z</time></trkpt><trkpt lat="44.049916176127645" lon="10.890031751356473"><ele>859.0</ele><time>2026-04-25T11:20:04.918Z</time></trkpt><trkpt lat="44.04984808810265" lon="10.890019224135177"><ele>858.9999999999999</ele><time>2026-04-25T11:21:42.919Z</time></trkpt><trkpt lat="44.04976109057155" lon="10.889967654159358"><ele>859.0</ele><time>2026-04-25T11:22:09.917Z</time></trkpt><trkpt lat="44.049807065434926" lon="10.890032973959586"><ele>859.0</ele><time>2026-04-25T11:22:23.918Z</time></trkpt><trkpt lat="44.04981918467963" lon="10.890129066257861"><ele>859.0</ele><time>2026-04-25T11:22:30.918Z</time></trkpt><trkpt lat="44.04978277255786" lon="10.890207135284818"><ele>859.0</ele><time>2026-04-25T11:22:40.918Z</time></trkpt><trkpt lat="44.04974166009749" lon="10.890280557639544"><ele>858.9999999999999</ele><time>2026-04-25T11:22:46.918Z</time></trkpt><trkpt lat="44.049710843642586" lon="10.890363386816613"><ele>859.0</ele><time>2026-04-25T11:22:51.918Z</time></trkpt><trkpt lat="44.04968499915688" lon="10.890467092091004"><ele>858.9999999999999</ele><time>2026-04-25T11:22:54.918Z</time></trkpt><trkpt lat="44.04963606677133" lon="10.890547761941333"><ele>859.0</ele><time>2026-04-25T11:22:58.918Z</time></trkpt><trkpt lat="44.049618747425264" lon="10.890644246816043"><ele>859.0</ele><time>2026-04-25T11:23:02.918Z</time></trkpt><trkpt lat="44.04961464489733" lon="10.89074089924095"><ele>859.0</ele><time>2026-04-25T11:23:07.918Z</time></trkpt><trkpt lat="44.04968784987674" lon="10.890746005409486"><ele>859.0</ele><time>2026-04-25T11:23:16.918Z</time></trkpt><trkpt lat="44.049752401577095" lon="10.890715884933373"><ele>858.9999999999999</ele><time>2026-04-25T11:23:20.918Z</time></trkpt><trkpt lat="44.049807643992615" lon="10.890671482925153"><ele>859.0</ele><time>2026-04-25T11:23:24.918Z</time></trkpt><trkpt lat="44.049884990505916" lon="10.890636745678025"><ele>858.9999999999999</ele><time>2026-04-25T11:23:29.918Z</time></trkpt><trkpt lat="44.04995075741959" lon="10.890600626534829"><ele>859.0</ele><time>2026-04-25T11:23:33.918Z</time></trkpt><trkpt lat="44.05000798868655" lon="10.890548400505978"><ele>859.0</ele><time>2026-04-25T11:23:38.918Z</time></trkpt><trkpt lat="44.05003896021879" lon="10.8904584369632"><ele>859.0</ele><time>2026-04-25T11:23:45.918Z</time></trkpt><trkpt lat="44.050102399844675" lon="10.890417160561155"><ele>859.0</ele><time>2026-04-25T11:23:49.918Z</time></trkpt><trkpt lat="44.05018026120785" lon="10.89040964164577"><ele>858.9999999999999</ele><time>2026-04-25T11:23:52.918Z</time></trkpt><trkpt lat="44.05024328802827" lon="10.890416335926096"><ele>859.0</ele><time>2026-04-25T11:23:55.918Z</time></trkpt><trkpt lat="44.05031893865453" lon="10.89039709106437"><ele>859.9999999999999</ele><time>2026-04-25T11:23:59.916Z</time></trkpt><trkpt lat="44.050380949254446" lon="10.890378021940089"><ele>861.0</ele><time>2026-04-25T11:24:02.917Z</time></trkpt><trkpt lat="44.05045067758821" lon="10.890368853112559"><ele>862.0</ele><time>2026-04-25T11:24:06.917Z</time></trkpt><trkpt lat="44.05051708293582" lon="10.8903753185009"><ele>863.0</ele><time>2026-04-25T11:24:11.917Z</time></trkpt><trkpt lat="44.050578061230915" lon="10.890328345712682"><ele>864.0</ele><time>2026-04-25T11:24:14.917Z</time></trkpt><trkpt lat="44.05058061288957" lon="10.890238989446395"><ele>864.9999999999999</ele><time>2026-04-25T11:24:28.917Z</time></trkpt><trkpt lat="44.05060293836559" lon="10.890150457899052"><ele>866.0</ele><time>2026-04-25T11:24:33.917Z</time></trkpt><trkpt lat="44.050631139563365" lon="10.890067763758566"><ele>865.9999999999999</ele><time>2026-04-25T11:24:38.917Z</time></trkpt><trkpt lat="44.05066190393719" lon="10.889981196026149"><ele>866.0</ele><time>2026-04-25T11:24:42.917Z</time></trkpt><trkpt lat="44.050692583196785" lon="10.889894096005706"><ele>866.0</ele><time>2026-04-25T11:24:46.917Z</time></trkpt><trkpt lat="44.05072118454089" lon="10.889815607486007"><ele>866.0</ele><time>2026-04-25T11:24:49.917Z</time></trkpt><trkpt lat="44.05074577855539" lon="10.889718716955016"><ele>866.0</ele><time>2026-04-25T11:24:55.917Z</time></trkpt><trkpt lat="44.050771761544844" lon="10.889626434563757"><ele>865.9999999999999</ele><time>2026-04-25T11:25:00.917Z</time></trkpt><trkpt lat="44.05081916362714" lon="10.889544565049393"><ele>866.0</ele><time>2026-04-25T11:25:04.917Z</time></trkpt><trkpt lat="44.05087357541794" lon="10.889500436840788"><ele>870.6666666666667</ele><time>2026-04-25T11:25:07.917Z</time></trkpt><trkpt lat="44.0509235332735" lon="10.88943373393973"><ele>875.3333333333334</ele><time>2026-04-25T11:25:10.917Z</time></trkpt><trkpt lat="44.050978061851126" lon="10.889350556420746"><ele>880.0</ele><time>2026-04-25T11:25:15.917Z</time></trkpt><trkpt lat="44.05103245636393" lon="10.889278878116716"><ele>884.6666666666667</ele><time>2026-04-25T11:25:21.917Z</time></trkpt><trkpt lat="44.05106038485931" lon="10.88916419040136"><ele>889.3333333333334</ele><time>2026-04-25T11:25:26.917Z</time></trkpt><trkpt lat="44.05108570289522" lon="10.889080645070846"><ele>894.0</ele><time>2026-04-25T11:25:30.917Z</time></trkpt><trkpt lat="44.051124710082625" lon="10.888985374891183"><ele>893.9999999999999</ele><time>2026-04-25T11:25:34.917Z</time></trkpt><trkpt lat="44.05115476059639" lon="10.888881891319013"><ele>894.0</ele><time>2026-04-25T11:25:38.917Z</time></trkpt><trkpt lat="44.05121326089762" lon="10.888831462865063"><ele>894.0</ele><time>2026-04-25T11:25:42.917Z</time></trkpt><trkpt lat="44.05126283449046" lon="10.88875977794744"><ele>894.0</ele><time>2026-04-25T11:25:47.917Z</time></trkpt><trkpt lat="44.051299489543744" lon="10.888683394779909"><ele>894.0</ele><time>2026-04-25T11:25:51.917Z</time></trkpt><trkpt lat="44.05135655128193" lon="10.888609437778104"><ele>893.9999999999999</ele><time>2026-04-25T11:25:55.917Z</time></trkpt><trkpt lat="44.05141073171621" lon="10.888534076576478"><ele>894.0</ele><time>2026-04-25T11:25:59.917Z</time></trkpt><trkpt lat="44.0514583388998" lon="10.88846612129532"><ele>893.4285714285713</ele><time>2026-04-25T11:26:02.917Z</time></trkpt><trkpt lat="44.05150858980246" lon="10.888392969338563"><ele>892.8571428571429</ele><time>2026-04-25T11:26:05.916Z</time></trkpt><trkpt lat="44.05156083021413" lon="10.88832600447345"><ele>892.2857142857142</ele><time>2026-04-25T11:26:09.916Z</time></trkpt><trkpt lat="44.05161928733991" lon="10.888273770879445"><ele>891.7142857142857</ele><time>2026-04-25T11:26:13.916Z</time></trkpt><trkpt lat="44.051679991788724" lon="10.888243781029187"><ele>891.1428571428571</ele><time>2026-04-25T11:26:17.916Z</time></trkpt><trkpt lat="44.051746116291696" lon="10.888198120955048"><ele>890.5714285714286</ele><time>2026-04-25T11:26:21.916Z</time></trkpt><trkpt lat="44.0518252511019" lon="10.888196301474558"><ele>890.0</ele><time>2026-04-25T11:26:25.916Z</time></trkpt><trkpt lat="44.05190504308265" lon="10.888170285518427"><ele>894.1428571428571</ele><time>2026-04-25T11:26:30.916Z</time></trkpt><trkpt lat="44.051970977019465" lon="10.888174068592209"><ele>898.2857142857142</ele><time>2026-04-25T11:26:35.916Z</time></trkpt><trkpt lat="44.05204073056607" lon="10.888144539288268"><ele>902.4285714285713</ele><time>2026-04-25T11:26:39.916Z</time></trkpt><trkpt lat="44.052113320703185" lon="10.88811016601518"><ele>906.5714285714286</ele><time>2026-04-25T11:26:44.916Z</time></trkpt><trkpt lat="44.05218660985952" lon="10.888069446270572"><ele>910.7142857142856</ele><time>2026-04-25T11:26:48.916Z</time></trkpt><trkpt lat="44.05225100644202" lon="10.888056677197998"><ele>914.8571428571428</ele><time>2026-04-25T11:26:51.916Z</time></trkpt><trkpt lat="44.05232133409126" lon="10.888076992563214"><ele>919.0</ele><time>2026-04-25T11:26:55.916Z</time></trkpt><trkpt lat="44.052395791028516" lon="10.88810691746513"><ele>919.0</ele><time>2026-04-25T11:27:00.916Z</time></trkpt><trkpt lat="44.05244991806179" lon="10.888040679915374"><ele>918.9999999999999</ele><time>2026-04-25T11:27:14.916Z</time></trkpt><trkpt lat="44.052509224432654" lon="10.88798295303287"><ele>919.0</ele><time>2026-04-25T11:27:19.916Z</time></trkpt><trkpt lat="44.052564908592444" lon="10.88793997303544"><ele>919.0</ele><time>2026-04-25T11:27:23.916Z</time></trkpt><trkpt lat="44.05262926925606" lon="10.887892326919335"><ele>918.9999999999999</ele><time>2026-04-25T11:27:27.916Z</time></trkpt><trkpt lat="44.052707501343775" lon="10.887847946319994"><ele>919.0</ele><time>2026-04-25T11:27:32.916Z</time></trkpt><trkpt lat="44.052739960494385" lon="10.887767734140256"><ele>919.0</ele><time>2026-04-25T11:27:36.916Z</time></trkpt><trkpt lat="44.052714369137306" lon="10.887683296425854"><ele>920.4285714285713</ele><time>2026-04-25T11:27:44.916Z</time></trkpt><trkpt lat="44.05269039590114" lon="10.887578213202946"><ele>921.8571428571428</ele><time>2026-04-25T11:27:49.916Z</time></trkpt><trkpt lat="44.052670819739454" lon="10.887460795187097"><ele>923.2857142857142</ele><time>2026-04-25T11:27:53.916Z</time></trkpt><trkpt lat="44.05264976054947" lon="10.887375975256807"><ele>924.7142857142858</ele><time>2026-04-25T11:27:56.916Z</time></trkpt><trkpt lat="44.05264738753072" lon="10.887286620543122"><ele>926.1428571428572</ele><time>2026-04-25T11:27:59.916Z</time></trkpt><trkpt lat="44.052627029356636" lon="10.88719759452767"><ele>927.5714285714287</ele><time>2026-04-25T11:28:02.916Z</time></trkpt><trkpt lat="44.05259954237699" lon="10.887097986140937"><ele>929.0</ele><time>2026-04-25T11:28:06.916Z</time></trkpt><trkpt lat="44.05258703011964" lon="10.886998554738913"><ele>929.0</ele><time>2026-04-25T11:28:11.915Z</time></trkpt><trkpt lat="44.05256004148581" lon="10.886915943405166"><ele>929.0000000000001</ele><time>2026-04-25T11:28:14.915Z</time></trkpt><trkpt lat="44.05254581958085" lon="10.886828268544173"><ele>929.0</ele><time>2026-04-25T11:28:18.914Z</time></trkpt><trkpt lat="44.05252687179109" lon="10.886739646447833"><ele>929.0</ele><time>2026-04-25T11:28:22.914Z</time></trkpt><trkpt lat="44.0525242615545" lon="10.886639494878455"><ele>929.0000000000001</ele><time>2026-04-25T11:28:26.914Z</time></trkpt><trkpt lat="44.05253216606226" lon="10.886552371221665"><ele>929.0</ele><time>2026-04-25T11:28:30.914Z</time></trkpt><trkpt lat="44.05254151603255" lon="10.886465386179875"><ele>929.0</ele><time>2026-04-25T11:28:34.914Z</time></trkpt><trkpt lat="44.05256480288391" lon="10.88636242371849"><ele>930.1666666666667</ele><time>2026-04-25T11:28:38.914Z</time></trkpt><trkpt lat="44.05260945378726" lon="10.886258601471187"><ele>931.3333333333334</ele><time>2026-04-25T11:28:43.914Z</time></trkpt><trkpt lat="44.05265944659122" lon="10.886202729656407"><ele>932.5</ele><time>2026-04-25T11:28:46.914Z</time></trkpt><trkpt lat="44.05269905497045" lon="10.886119124892257"><ele>933.6666666666667</ele><time>2026-04-25T11:28:49.914Z</time></trkpt><trkpt lat="44.05275253671423" lon="10.886039490521172"><ele>934.8333333333334</ele><time>2026-04-25T11:28:52.914Z</time></trkpt><trkpt lat="44.052817372098666" lon="10.885967969463653"><ele>936.0</ele><time>2026-04-25T11:28:55.914Z</time></trkpt><trkpt lat="44.05288649889474" lon="10.885899638390004"><ele>936.0</ele><time>2026-04-25T11:28:58.914Z</time></trkpt><trkpt lat="44.05293637610121" lon="10.885842447339362"><ele>936.0</ele><time>2026-04-25T11:29:00.914Z</time></trkpt><trkpt lat="44.053011481916386" lon="10.88576880676109"><ele>936.0</ele><time>2026-04-25T11:29:03.914Z</time></trkpt><trkpt lat="44.05306875504384" lon="10.885715243309738"><ele>936.0</ele><time>2026-04-25T11:29:05.914Z</time></trkpt><trkpt lat="44.05313693066027" lon="10.885646988006012"><ele>936.0</ele><time>2026-04-25T11:29:08.914Z</time></trkpt><trkpt lat="44.05321233885034" lon="10.885581114526964"><ele>936.0</ele><time>2026-04-25T11:29:11.914Z</time></trkpt><trkpt lat="44.053274165739126" lon="10.885521141344833"><ele>940.1666666666666</ele><time>2026-04-25T11:29:14.914Z</time></trkpt><trkpt lat="44.05332931874895" lon="10.885461791549334"><ele>944.3333333333333</ele><time>2026-04-25T11:29:17.914Z</time></trkpt><trkpt lat="44.05340730323172" lon="10.885393583267776"><ele>948.5</ele><time>2026-04-25T11:29:20.914Z</time></trkpt><trkpt lat="44.05347846076401" lon="10.885353324341775"><ele>952.6666666666666</ele><time>2026-04-25T11:29:22.914Z</time></trkpt><trkpt lat="44.053542009835354" lon="10.885304378921989"><ele>956.8333333333333</ele><time>2026-04-25T11:29:25.914Z</time></trkpt><trkpt lat="44.05360957170906" lon="10.885233300448814"><ele>961.0</ele><time>2026-04-25T11:29:28.914Z</time></trkpt><trkpt lat="44.053680301493856" lon="10.885197716659581"><ele>960.9999999999999</ele><time>2026-04-25T11:29:31.914Z</time></trkpt><trkpt lat="44.05377995039887" lon="10.885179610682917"><ele>961.0</ele><time>2026-04-25T11:29:35.914Z</time></trkpt><trkpt lat="44.05384922058117" lon="10.885138923674377"><ele>961.0</ele><time>2026-04-25T11:29:38.914Z</time></trkpt><trkpt lat="44.05391169424719" lon="10.885126692908429"><ele>961.0</ele><time>2026-04-25T11:29:40.914Z</time></trkpt><trkpt lat="44.053982473774745" lon="10.885118022056703"><ele>960.9999999999999</ele><time>2026-04-25T11:29:43.914Z</time></trkpt><trkpt lat="44.054058252332496" lon="10.885125605254332"><ele>961.0</ele><time>2026-04-25T11:29:46.914Z</time></trkpt><trkpt lat="44.05413683560863" lon="10.885139502869212"><ele>964.6666666666666</ele><time>2026-04-25T11:29:50.914Z</time></trkpt><trkpt lat="44.05422589243759" lon="10.885131058331424"><ele>968.3333333333333</ele><time>2026-04-25T11:29:54.914Z</time></trkpt><trkpt lat="44.05430617672276" lon="10.885132124991273"><ele>972.0</ele><time>2026-04-25T11:29:58.914Z</time></trkpt><trkpt lat="44.05439029788258" lon="10.885131964235185"><ele>975.6666666666667</ele><time>2026-04-25T11:30:01.914Z</time></trkpt><trkpt lat="44.0544655039812" lon="10.885133114272913"><ele>979.3333333333334</ele><time>2026-04-25T11:30:05.914Z</time></trkpt><trkpt lat="44.054549387863986" lon="10.885138731549507"><ele>983.0</ele><time>2026-04-25T11:30:09.914Z</time></trkpt><trkpt lat="44.054625464158896" lon="10.885130627253112"><ele>978.7142857142856</ele><time>2026-04-25T11:30:12.914Z</time></trkpt><trkpt lat="44.054695141637424" lon="10.885089437582204"><ele>974.4285714285713</ele><time>2026-04-25T11:30:15.914Z</time></trkpt><trkpt lat="44.05469893864834" lon="10.884992205404743"><ele>970.1428571428571</ele><time>2026-04-25T11:30:30.914Z</time></trkpt><trkpt lat="44.05465972165575" lon="10.884913715278383"><ele>965.8571428571428</ele><time>2026-04-25T11:30:35.914Z</time></trkpt><trkpt lat="44.0546169313942" lon="10.884833083792705"><ele>961.5714285714284</ele><time>2026-04-25T11:30:39.914Z</time></trkpt><trkpt lat="44.054598372525966" lon="10.88473658066271"><ele>957.2857142857143</ele><time>2026-04-25T11:30:43.914Z</time></trkpt><trkpt lat="44.054569893811376" lon="10.884649889633922"><ele>953.0</ele><time>2026-04-25T11:30:47.914Z</time></trkpt><trkpt lat="44.054525867034634" lon="10.884568806303486"><ele>953.0</ele><time>2026-04-25T11:30:51.914Z</time></trkpt><trkpt lat="44.054481072865116" lon="10.884502036301175"><ele>953.0</ele><time>2026-04-25T11:30:54.914Z</time></trkpt><trkpt lat="44.05448239507493" lon="10.884403467626981"><ele>953.0</ele><time>2026-04-25T11:30:59.914Z</time></trkpt><trkpt lat="44.05451084655013" lon="10.884306424535698"><ele>953.0</ele><time>2026-04-25T11:31:04.914Z</time></trkpt><trkpt lat="44.05455027918865" lon="10.88422214522706"><ele>953.0</ele><time>2026-04-25T11:31:09.914Z</time></trkpt><trkpt lat="44.05459061017147" lon="10.88414251736192"><ele>953.0</ele><time>2026-04-25T11:31:14.914Z</time></trkpt><trkpt lat="44.0546233747307" lon="10.884062842744015"><ele>953.0</ele><time>2026-04-25T11:31:19.914Z</time></trkpt><trkpt lat="44.054647479506336" lon="10.883973383356494"><ele>952.7142857142858</ele><time>2026-04-25T11:31:25.914Z</time></trkpt><trkpt lat="44.05469113508659" lon="10.883883582748682"><ele>952.4285714285713</ele><time>2026-04-25T11:31:29.914Z</time></trkpt><trkpt lat="44.05474115420079" lon="10.883794134760613"><ele>952.1428571428571</ele><time>2026-04-25T11:31:33.914Z</time></trkpt><trkpt lat="44.05475987327019" lon="10.883694436691341"><ele>951.8571428571429</ele><time>2026-04-25T11:31:37.914Z</time></trkpt><trkpt lat="44.05480174477083" lon="10.883620930366668"><ele>951.5714285714287</ele><time>2026-04-25T11:31:40.914Z</time></trkpt><trkpt lat="44.05485090120273" lon="10.883546666726655"><ele>951.2857142857142</ele><time>2026-04-25T11:31:43.914Z</time></trkpt><trkpt lat="44.054832785556584" lon="10.883639622867276"><ele>951.0</ele><time>2026-04-25T11:32:01.914Z</time></trkpt><trkpt lat="44.054781000165505" lon="10.883709507429474"><ele>951.0</ele><time>2026-04-25T11:32:05.914Z</time></trkpt><trkpt lat="44.05474603465594" lon="10.883810020963603"><ele>951.0</ele><time>2026-04-25T11:32:09.914Z</time></trkpt><trkpt lat="44.054711115714255" lon="10.883886263994413"><ele>951.0</ele><time>2026-04-25T11:32:12.914Z</time></trkpt><trkpt lat="44.054705327847195" lon="10.883999196449725"><ele>951.0</ele><time>2026-04-25T11:32:15.914Z</time></trkpt><trkpt lat="44.0547376282042" lon="10.884102416606378"><ele>951.0</ele><time>2026-04-25T11:32:18.914Z</time></trkpt><trkpt lat="44.05478145836874" lon="10.884181907646191"><ele>951.0</ele><time>2026-04-25T11:32:21.914Z</time></trkpt><trkpt lat="44.05484751042974" lon="10.88425686013602"><ele>951.2857142857142</ele><time>2026-04-25T11:32:25.912Z</time></trkpt><trkpt lat="44.05491293805503" lon="10.884301437183076"><ele>951.5714285714287</ele><time>2026-04-25T11:32:28.912Z</time></trkpt><trkpt lat="44.05498027896678" lon="10.884333137172522"><ele>951.8571428571429</ele><time>2026-04-25T11:32:31.912Z</time></trkpt><trkpt lat="44.055038316737736" lon="10.88438136151503"><ele>952.1428571428571</ele><time>2026-04-25T11:32:35.912Z</time></trkpt><trkpt lat="44.05509968179345" lon="10.884422624939802"><ele>952.4285714285713</ele><time>2026-04-25T11:32:38.912Z</time></trkpt><trkpt lat="44.05516050781522" lon="10.884494610177237"><ele>952.7142857142858</ele><time>2026-04-25T11:32:42.912Z</time></trkpt><trkpt lat="44.05516271172352" lon="10.8846031710083"><ele>953.0</ele><time>2026-04-25T11:32:48.912Z</time></trkpt><trkpt lat="44.05515874975418" lon="10.884698983757865"><ele>956.4285714285714</ele><time>2026-04-25T11:32:55.912Z</time></trkpt><trkpt lat="44.055154345542796" lon="10.884788169993104"><ele>959.8571428571429</ele><time>2026-04-25T11:32:58.912Z</time></trkpt><trkpt lat="44.055165882043894" lon="10.884910614681312"><ele>963.2857142857143</ele><time>2026-04-25T11:33:02.912Z</time></trkpt><trkpt lat="44.05517808531754" lon="10.885008226861341"><ele>966.7142857142858</ele><time>2026-04-25T11:33:06.912Z</time></trkpt><trkpt lat="44.05519931374809" lon="10.885095028376488"><ele>970.1428571428571</ele><time>2026-04-25T11:33:09.912Z</time></trkpt><trkpt lat="44.055206929983456" lon="10.885192532901165"><ele>973.5714285714287</ele><time>2026-04-25T11:33:12.912Z</time></trkpt><trkpt lat="44.055206670163116" lon="10.88528607083757"><ele>977.0000000000001</ele><time>2026-04-25T11:33:15.912Z</time></trkpt><trkpt lat="44.05519552502571" lon="10.885379970304786"><ele>977.857142857143</ele><time>2026-04-25T11:33:20.912Z</time></trkpt><trkpt lat="44.05511973597903" lon="10.885380210238555"><ele>978.7142857142858</ele><time>2026-04-25T11:33:29.912Z</time></trkpt><trkpt lat="44.055060381264504" lon="10.885414016828879"><ele>979.5714285714286</ele><time>2026-04-25T11:33:34.912Z</time></trkpt><trkpt lat="44.05500743038405" lon="10.885476435715773"><ele>980.4285714285714</ele><time>2026-04-25T11:33:38.912Z</time></trkpt><trkpt lat="44.05495679405638" lon="10.885543014142964"><ele>981.2857142857142</ele><time>2026-04-25T11:33:42.912Z</time></trkpt><trkpt lat="44.054899158621126" lon="10.885597771833856"><ele>982.142857142857</ele><time>2026-04-25T11:33:46.912Z</time></trkpt><trkpt lat="44.05484128478425" lon="10.885651060986946"><ele>982.9999999999999</ele><time>2026-04-25T11:33:50.912Z</time></trkpt><trkpt lat="44.05478075034803" lon="10.885684899099333"><ele>982.9999999999999</ele><time>2026-04-25T11:33:54.912Z</time></trkpt><trkpt lat="44.05471619739411" lon="10.885750809512128"><ele>983.0</ele><time>2026-04-25T11:33:58.912Z</time></trkpt><trkpt lat="44.05465682192395" lon="10.885796021599877"><ele>982.9999999999999</ele><time>2026-04-25T11:34:01.912Z</time></trkpt><trkpt lat="44.05460266967542" lon="10.885848990868698"><ele>982.9999999999999</ele><time>2026-04-25T11:34:04.912Z</time></trkpt><trkpt lat="44.054536655215664" lon="10.885908242455539"><ele>983.0</ele><time>2026-04-25T11:34:07.912Z</time></trkpt><trkpt lat="44.05447933771526" lon="10.885970479320008"><ele>982.9999999999999</ele><time>2026-04-25T11:34:10.912Z</time></trkpt><trkpt lat="44.05442436582599" lon="10.88602886175512"><ele>982.9999999999999</ele><time>2026-04-25T11:34:13.912Z</time></trkpt><trkpt lat="44.054371297790965" lon="10.886093169600423"><ele>981.6666666666667</ele><time>2026-04-25T11:34:16.912Z</time></trkpt><trkpt lat="44.05431385927788" lon="10.886179746804526"><ele>980.3333333333334</ele><time>2026-04-25T11:34:21.912Z</time></trkpt><trkpt lat="44.05425466084613" lon="10.886231690458127"><ele>979.0</ele><time>2026-04-25T11:34:24.912Z</time></trkpt><trkpt lat="44.05418782318882" lon="10.88630496169173"><ele>977.6666666666667</ele><time>2026-04-25T11:34:28.912Z</time></trkpt><trkpt lat="44.05413776944986" lon="10.886415757607294"><ele>976.3333333333334</ele><time>2026-04-25T11:34:32.911Z</time></trkpt><trkpt lat="44.05409447974041" lon="10.886479902160948"><ele>975.0</ele><time>2026-04-25T11:34:35.912Z</time></trkpt><trkpt lat="44.05403543190046" lon="10.886549328447911"><ele>975.0</ele><time>2026-04-25T11:34:38.911Z</time></trkpt><trkpt lat="44.05399664492722" lon="10.886636426933086"><ele>975.0</ele><time>2026-04-25T11:34:42.911Z</time></trkpt><trkpt lat="44.053949302409066" lon="10.886730238685669"><ele>975.0</ele><time>2026-04-25T11:34:45.911Z</time></trkpt><trkpt lat="44.05390677705187" lon="10.886822619227479"><ele>975.0</ele><time>2026-04-25T11:34:48.911Z</time></trkpt><trkpt lat="44.05387154665574" lon="10.886909428044229"><ele>975.0</ele><time>2026-04-25T11:34:51.911Z</time></trkpt><trkpt lat="44.053850138274406" lon="10.887011813361418"><ele>975.0</ele><time>2026-04-25T11:34:54.911Z</time></trkpt><trkpt lat="44.05382822698821" lon="10.88711739032625"><ele>974.7142857142857</ele><time>2026-04-25T11:34:57.911Z</time></trkpt><trkpt lat="44.053824325667776" lon="10.887209429775185"><ele>974.4285714285713</ele><time>2026-04-25T11:35:00.911Z</time></trkpt><trkpt lat="44.05381969575329" lon="10.887320970835452"><ele>974.1428571428571</ele><time>2026-04-25T11:35:03.911Z</time></trkpt><trkpt lat="44.05381275811415" lon="10.887419931472479"><ele>973.8571428571429</ele><time>2026-04-25T11:35:06.911Z</time></trkpt><trkpt lat="44.05382368468099" lon="10.887511905059494"><ele>973.5714285714286</ele><time>2026-04-25T11:35:09.911Z</time></trkpt><trkpt lat="44.05384883997287" lon="10.887603593727647"><ele>973.2857142857142</ele><time>2026-04-25T11:35:12.911Z</time></trkpt><trkpt lat="44.05387173242849" lon="10.88768836263134"><ele>973.0</ele><time>2026-04-25T11:35:17.912Z</time></trkpt><trkpt lat="44.05390203797961" lon="10.887782001636689"><ele>972.4285714285714</ele><time>2026-04-25T11:35:22.912Z</time></trkpt><trkpt lat="44.05395327277264" lon="10.88787228406831"><ele>971.8571428571429</ele><time>2026-04-25T11:35:27.912Z</time></trkpt><trkpt lat="44.05398892978558" lon="10.887956394386718"><ele>971.2857142857142</ele><time>2026-04-25T11:35:31.912Z</time></trkpt><trkpt lat="44.05404212044285" lon="10.888043115315808"><ele>970.7142857142857</ele><time>2026-04-25T11:35:36.912Z</time></trkpt><trkpt lat="44.05409098296958" lon="10.888112646483705"><ele>970.1428571428571</ele><time>2026-04-25T11:35:40.912Z</time></trkpt><trkpt lat="44.05413824839082" lon="10.888177693205476"><ele>969.5714285714284</ele><time>2026-04-25T11:35:45.912Z</time></trkpt><trkpt lat="44.054167874420685" lon="10.888257784426862"><ele>968.9999999999999</ele><time>2026-04-25T11:35:49.912Z</time></trkpt><trkpt lat="44.05419845119595" lon="10.88835143225907"><ele>975.8333333333334</ele><time>2026-04-25T11:35:52.912Z</time></trkpt><trkpt lat="44.05422811877516" lon="10.88843032678898"><ele>982.6666666666667</ele><time>2026-04-25T11:35:55.912Z</time></trkpt><trkpt lat="44.054228684636016" lon="10.888532746462209"><ele>989.5</ele><time>2026-04-25T11:35:58.912Z</time></trkpt><trkpt lat="44.054231741780455" lon="10.888658035795066"><ele>996.3333333333334</ele><time>2026-04-25T11:36:02.912Z</time></trkpt><trkpt lat="44.05424760677586" lon="10.888767947466544"><ele>1003.1666666666667</ele><time>2026-04-25T11:36:05.912Z</time></trkpt><trkpt lat="44.05424504256522" lon="10.888875407803837"><ele>1010.0</ele><time>2026-04-25T11:36:09.912Z</time></trkpt><trkpt lat="44.054246002865604" lon="10.888981284967064"><ele>1010.0</ele><time>2026-04-25T11:36:12.912Z</time></trkpt><trkpt lat="44.05423185644591" lon="10.889080428885807"><ele>1009.9999999999999</ele><time>2026-04-25T11:36:15.912Z</time></trkpt><trkpt lat="44.05422799674469" lon="10.889167887550911"><ele>1010.0</ele><time>2026-04-25T11:36:19.913Z</time></trkpt><trkpt lat="44.05421233890713" lon="10.889267744590047"><ele>1010.0</ele><time>2026-04-25T11:36:23.913Z</time></trkpt><trkpt lat="44.05419832507438" lon="10.889370619168508"><ele>1009.9999999999999</ele><time>2026-04-25T11:36:27.913Z</time></trkpt><trkpt lat="44.054180615131024" lon="10.889459621513394"><ele>1010.0</ele><time>2026-04-25T11:36:31.913Z</time></trkpt><trkpt lat="44.054173641866214" lon="10.889554438202154"><ele>1010.0</ele><time>2026-04-25T11:36:34.913Z</time></trkpt><trkpt lat="44.05416358846956" lon="10.889656491666353"><ele>1009.2857142857142</ele><time>2026-04-25T11:36:38.911Z</time></trkpt><trkpt lat="44.05415539544988" lon="10.8897473187501"><ele>1008.5714285714284</ele><time>2026-04-25T11:36:42.911Z</time></trkpt><trkpt lat="44.05416255652054" lon="10.889846620745313"><ele>1007.8571428571429</ele><time>2026-04-25T11:36:45.91Z</time></trkpt><trkpt lat="44.05415590400793" lon="10.889952242913239"><ele>1007.1428571428571</ele><time>2026-04-25T11:36:48.91Z</time></trkpt><trkpt lat="44.054143832649025" lon="10.890049868473286"><ele>1006.4285714285714</ele><time>2026-04-25T11:36:51.91Z</time></trkpt><trkpt lat="44.054138661314795" lon="10.890141850831414"><ele>1005.7142857142858</ele><time>2026-04-25T11:36:54.91Z</time></trkpt><trkpt lat="44.054117617985" lon="10.890236547192414"><ele>1005.0000000000001</ele><time>2026-04-25T11:36:57.91Z</time></trkpt><trkpt lat="44.054120804751214" lon="10.890330479744415"><ele>1005.0</ele><time>2026-04-25T11:37:00.91Z</time></trkpt><trkpt lat="44.05411538497148" lon="10.890443017145822"><ele>1005.0</ele><time>2026-04-25T11:37:03.91Z</time></trkpt><trkpt lat="44.054076746420094" lon="10.890528691698227"><ele>1005.0</ele><time>2026-04-25T11:37:06.91Z</time></trkpt><trkpt lat="44.05405447635885" lon="10.89061322911452"><ele>1005.0</ele><time>2026-04-25T11:37:09.91Z</time></trkpt><trkpt lat="44.05402903273229" lon="10.890709744639247"><ele>1005.0</ele><time>2026-04-25T11:37:13.91Z</time></trkpt><trkpt lat="44.053972237602174" lon="10.89080405017677"><ele>1005.0</ele><time>2026-04-25T11:37:17.91Z</time></trkpt><trkpt lat="44.0539452050048" lon="10.890908078362896"><ele>1005.4285714285716</ele><time>2026-04-25T11:37:21.91Z</time></trkpt><trkpt lat="44.05392893593222" lon="10.891002120786661"><ele>1005.8571428571429</ele><time>2026-04-25T11:37:24.91Z</time></trkpt><trkpt lat="44.05393499184433" lon="10.891096929085894"><ele>1006.2857142857143</ele><time>2026-04-25T11:37:28.91Z</time></trkpt><trkpt lat="44.05397269537057" lon="10.891176375119572"><ele>1006.7142857142858</ele><time>2026-04-25T11:37:32.91Z</time></trkpt><trkpt lat="44.05404015675299" lon="10.891200400053075"><ele>1007.1428571428571</ele><time>2026-04-25T11:37:36.91Z</time></trkpt><trkpt lat="44.05410214965846" lon="10.891183257150972"><ele>1007.5714285714286</ele><time>2026-04-25T11:37:40.91Z</time></trkpt><trkpt lat="44.054160106935335" lon="10.891146173316303"><ele>1008.0</ele><time>2026-04-25T11:37:46.91Z</time></trkpt><trkpt lat="44.05422551165887" lon="10.891099414803339"><ele>1010.8571428571429</ele><time>2026-04-25T11:37:52.91Z</time></trkpt><trkpt lat="44.05427344094461" lon="10.891020655371827"><ele>1013.7142857142858</ele><time>2026-04-25T11:37:57.911Z</time></trkpt><trkpt lat="44.05431843361822" lon="10.89095285999806"><ele>1016.5714285714286</ele><time>2026-04-25T11:38:01.911Z</time></trkpt><trkpt lat="44.05436237190018" lon="10.890881430455437"><ele>1019.4285714285714</ele><time>2026-04-25T11:38:05.911Z</time></trkpt><trkpt lat="44.054408376080076" lon="10.890813966814699"><ele>1022.2857142857143</ele><time>2026-04-25T11:38:08.911Z</time></trkpt><trkpt lat="44.05445133710958" lon="10.890705888715582"><ele>1025.142857142857</ele><time>2026-04-25T11:38:12.911Z</time></trkpt><trkpt lat="44.05447573299022" lon="10.890606434847465"><ele>1028.0</ele><time>2026-04-25T11:38:15.911Z</time></trkpt><trkpt lat="44.054513976261745" lon="10.890507751087256"><ele>1028.0</ele><time>2026-04-25T11:38:18.911Z</time></trkpt><trkpt lat="44.054554463845854" lon="10.890438303536"><ele>1028.0</ele><time>2026-04-25T11:38:21.911Z</time></trkpt><trkpt lat="44.054590632634174" lon="10.890329421263989"><ele>1028.0</ele><time>2026-04-25T11:38:25.911Z</time></trkpt><trkpt lat="44.05461742792249" lon="10.890249991155935"><ele>1028.0</ele><time>2026-04-25T11:38:28.911Z</time></trkpt><trkpt lat="44.0546285580284" lon="10.890141570261864"><ele>1028.0</ele><time>2026-04-25T11:38:31.911Z</time></trkpt><trkpt lat="44.05464486549464" lon="10.890043564298457"><ele>1028.0</ele><time>2026-04-25T11:38:34.911Z</time></trkpt><trkpt lat="44.05466261551112" lon="10.889955838834549"><ele>1028.0</ele><time>2026-04-25T11:38:37.911Z</time></trkpt><trkpt lat="44.05469115845068" lon="10.889842569090893"><ele>1026.5</ele><time>2026-04-25T11:38:40.91Z</time></trkpt><trkpt lat="44.054720351241386" lon="10.88973589964362"><ele>1025.0</ele><time>2026-04-25T11:38:43.91Z</time></trkpt><trkpt lat="44.05475227275855" lon="10.889653265029741"><ele>1023.5</ele><time>2026-04-25T11:38:45.91Z</time></trkpt><trkpt lat="44.054802707664884" lon="10.88953371021018"><ele>1022.0</ele><time>2026-04-25T11:38:48.91Z</time></trkpt><trkpt lat="44.054822689534355" lon="10.889446060085517"><ele>1020.5000000000001</ele><time>2026-04-25T11:38:50.909Z</time></trkpt><trkpt lat="44.05484177252084" lon="10.889346179542715"><ele>1019.0</ele><time>2026-04-25T11:38:53.91Z</time></trkpt><trkpt lat="44.05485301198593" lon="10.889253417847444"><ele>1017.7142857142858</ele><time>2026-04-25T11:38:56.91Z</time></trkpt><trkpt lat="44.05485424721672" lon="10.88916320215951"><ele>1016.4285714285714</ele><time>2026-04-25T11:38:59.91Z</time></trkpt><trkpt lat="44.05484568999526" lon="10.889056903504034"><ele>1015.1428571428571</ele><time>2026-04-25T11:39:02.91Z</time></trkpt><trkpt lat="44.054843114501864" lon="10.888956597315966"><ele>1013.8571428571429</ele><time>2026-04-25T11:39:07.91Z</time></trkpt><trkpt lat="44.05484627590578" lon="10.888866164525526"><ele>1012.5714285714284</ele><time>2026-04-25T11:39:10.91Z</time></trkpt><trkpt lat="44.05482253926481" lon="10.888753655069019"><ele>1011.2857142857142</ele><time>2026-04-25T11:39:14.91Z</time></trkpt><trkpt lat="44.05482707739424" lon="10.88864068667479"><ele>1010.0</ele><time>2026-04-25T11:39:17.91Z</time></trkpt><trkpt lat="44.05481564105476" lon="10.88854482809568"><ele>1010.0000000000001</ele><time>2026-04-25T11:39:20.91Z</time></trkpt><trkpt lat="44.05479488218344" lon="10.888442849523951"><ele>1010.0</ele><time>2026-04-25T11:39:23.91Z</time></trkpt><trkpt lat="44.05479932394521" lon="10.88833446009913"><ele>1010.0</ele><time>2026-04-25T11:39:26.91Z</time></trkpt><trkpt lat="44.05481338522514" lon="10.888234528986018"><ele>1010.0</ele><time>2026-04-25T11:39:29.91Z</time></trkpt><trkpt lat="44.05483541271621" lon="10.88814046468835"><ele>1010.0000000000001</ele><time>2026-04-25T11:39:31.91Z</time></trkpt><trkpt lat="44.054873126725326" lon="10.888028651169915"><ele>1010.0</ele><time>2026-04-25T11:39:34.91Z</time></trkpt><trkpt lat="44.05491517813272" lon="10.887945703455312"><ele>1014.7142857142857</ele><time>2026-04-25T11:39:37.91Z</time></trkpt><trkpt lat="44.05497786018089" lon="10.887873455531969"><ele>1019.4285714285713</ele><time>2026-04-25T11:39:40.91Z</time></trkpt><trkpt lat="44.055031791571125" lon="10.887806428213372"><ele>1024.142857142857</ele><time>2026-04-25T11:39:43.91Z</time></trkpt><trkpt lat="44.055095030969845" lon="10.887738270493513"><ele>1028.857142857143</ele><time>2026-04-25T11:39:46.91Z</time></trkpt><trkpt lat="44.05514810524985" lon="10.887675981383962"><ele>1033.5714285714284</ele><time>2026-04-25T11:39:49.91Z</time></trkpt><trkpt lat="44.0552117946301" lon="10.887626635228768"><ele>1038.2857142857142</ele><time>2026-04-25T11:39:52.91Z</time></trkpt><trkpt lat="44.05527729116021" lon="10.887581170213295"><ele>1043.0</ele><time>2026-04-25T11:39:55.91Z</time></trkpt><trkpt lat="44.05533718702065" lon="10.887543171237581"><ele>1043.0</ele><time>2026-04-25T11:39:58.91Z</time></trkpt><trkpt lat="44.05539674628351" lon="10.887490975794634"><ele>1043.0</ele><time>2026-04-25T11:40:01.91Z</time></trkpt><trkpt lat="44.055451195749434" lon="10.887444499609062"><ele>1043.0</ele><time>2026-04-25T11:40:04.91Z</time></trkpt><trkpt lat="44.055502061204585" lon="10.887376450500703"><ele>1043.0</ele><time>2026-04-25T11:40:07.91Z</time></trkpt><trkpt lat="44.055561614466285" lon="10.8873172275442"><ele>1043.0</ele><time>2026-04-25T11:40:10.91Z</time></trkpt><trkpt lat="44.055648307472005" lon="10.8872482930807"><ele>1043.0</ele><time>2026-04-25T11:40:13.91Z</time></trkpt><trkpt lat="44.0557040733032" lon="10.887201823648086"><ele>1043.0</ele><time>2026-04-25T11:40:15.91Z</time></trkpt><trkpt lat="44.05575992438312" lon="10.887132482489445"><ele>1043.1666666666667</ele><time>2026-04-25T11:40:19.91Z</time></trkpt><trkpt lat="44.05581769560215" lon="10.887067312247737"><ele>1043.3333333333335</ele><time>2026-04-25T11:40:22.91Z</time></trkpt><trkpt lat="44.055884709575544" lon="10.887005133010552"><ele>1043.5</ele><time>2026-04-25T11:40:26.91Z</time></trkpt><trkpt lat="44.05594047426291" lon="10.886931163536639"><ele>1043.6666666666667</ele><time>2026-04-25T11:40:29.91Z</time></trkpt><trkpt lat="44.05598604989334" lon="10.886861655140972"><ele>1043.8333333333333</ele><time>2026-04-25T11:40:32.91Z</time></trkpt><trkpt lat="44.05603060092875" lon="10.886792606335879"><ele>1044.0</ele><time>2026-04-25T11:40:35.91Z</time></trkpt><trkpt lat="44.05610632882814" lon="10.886727342465583"><ele>1044.0</ele><time>2026-04-25T11:40:38.91Z</time></trkpt><trkpt lat="44.05619139130589" lon="10.886663797862692"><ele>1044.0</ele><time>2026-04-25T11:40:41.91Z</time></trkpt><trkpt lat="44.05626581474136" lon="10.886604202907193"><ele>1044.0</ele><time>2026-04-25T11:40:44.91Z</time></trkpt><trkpt lat="44.05633771013488" lon="10.886536489264289"><ele>1044.0</ele><time>2026-04-25T11:40:47.908Z</time></trkpt><trkpt lat="44.056397929822666" lon="10.886483956517337"><ele>1044.0</ele><time>2026-04-25T11:40:50.908Z</time></trkpt><trkpt lat="44.05646181358622" lon="10.886431860577664"><ele>1044.0</ele><time>2026-04-25T11:40:53.909Z</time></trkpt><trkpt lat="44.05651474014293" lon="10.886342149339344"><ele>1044.0</ele><time>2026-04-25T11:40:57.908Z</time></trkpt><trkpt lat="44.056551929854486" lon="10.88625866145338"><ele>1044.0</ele><time>2026-04-25T11:41:01.908Z</time></trkpt><trkpt lat="44.05660870175167" lon="10.886190387524126"><ele>1044.0</ele><time>2026-04-25T11:41:05.908Z</time></trkpt><trkpt lat="44.05666591399969" lon="10.88611640053775"><ele>1044.0</ele><time>2026-04-25T11:41:08.909Z</time></trkpt><trkpt lat="44.05670090439022" lon="10.886039424976568"><ele>1044.0</ele><time>2026-04-25T11:41:11.909Z</time></trkpt><trkpt lat="44.056741728753636" lon="10.885964256720928"><ele>1044.0</ele><time>2026-04-25T11:41:14.909Z</time></trkpt><trkpt lat="44.05677056337158" lon="10.885857120911792"><ele>1044.0</ele><time>2026-04-25T11:41:18.909Z</time></trkpt><trkpt lat="44.056805906668934" lon="10.885769605538513"><ele>1046.6666666666667</ele><time>2026-04-25T11:41:21.909Z</time></trkpt><trkpt lat="44.056853461818875" lon="10.885669411167818"><ele>1049.3333333333333</ele><time>2026-04-25T11:41:25.909Z</time></trkpt><trkpt lat="44.05685812065236" lon="10.885562254032072"><ele>1052.0</ele><time>2026-04-25T11:41:29.909Z</time></trkpt><trkpt lat="44.05685567085588" lon="10.88546522189844"><ele>1054.6666666666665</ele><time>2026-04-25T11:41:32.909Z</time></trkpt><trkpt lat="44.05690091048116" lon="10.885368538307212"><ele>1057.3333333333333</ele><time>2026-04-25T11:41:35.909Z</time></trkpt><trkpt lat="44.056929249670816" lon="10.885272157924858"><ele>1060.0</ele><time>2026-04-25T11:41:38.909Z</time></trkpt><trkpt lat="44.05697512390682" lon="10.88516693814031"><ele>1059.1666666666665</ele><time>2026-04-25T11:41:41.909Z</time></trkpt><trkpt lat="44.05702130651003" lon="10.885081146809005"><ele>1058.3333333333333</ele><time>2026-04-25T11:41:44.909Z</time></trkpt><trkpt lat="44.05706437638119" lon="10.884991742229651"><ele>1057.5</ele><time>2026-04-25T11:41:47.909Z</time></trkpt><trkpt lat="44.057110177139144" lon="10.884908270355565"><ele>1056.6666666666667</ele><time>2026-04-25T11:41:51.909Z</time></trkpt><trkpt lat="44.05714096891516" lon="10.884806621777006"><ele>1055.8333333333335</ele><time>2026-04-25T11:41:54.909Z</time></trkpt><trkpt lat="44.0571725344794" lon="10.88468944968734"><ele>1055.0</ele><time>2026-04-25T11:41:58.909Z</time></trkpt><trkpt lat="44.057197980590956" lon="10.884597027901146"><ele>1055.0</ele><time>2026-04-25T11:42:01.909Z</time></trkpt><trkpt lat="44.057190902459396" lon="10.88450703608331"><ele>1055.0</ele><time>2026-04-25T11:42:04.909Z</time></trkpt><trkpt lat="44.05720685489132" lon="10.884420830341066"><ele>1055.0</ele><time>2026-04-25T11:42:08.909Z</time></trkpt><trkpt lat="44.05719752411176" lon="10.884321718426225"><ele>1055.0</ele><time>2026-04-25T11:42:13.909Z</time></trkpt><trkpt lat="44.05719910502079" lon="10.884232555727051"><ele>1055.0</ele><time>2026-04-25T11:42:16.909Z</time></trkpt><trkpt lat="44.05720597195666" lon="10.8841229214386"><ele>1055.0</ele><time>2026-04-25T11:42:19.909Z</time></trkpt><trkpt lat="44.057191738105786" lon="10.884030981051048"><ele>1055.0</ele><time>2026-04-25T11:42:21.909Z</time></trkpt><trkpt lat="44.05718710818802" lon="10.883911355045232"><ele>1054.7142857142858</ele><time>2026-04-25T11:42:25.909Z</time></trkpt><trkpt lat="44.05719336893763" lon="10.883793971902769"><ele>1054.4285714285716</ele><time>2026-04-25T11:42:28.909Z</time></trkpt><trkpt lat="44.05719760609114" lon="10.883688492694677"><ele>1054.142857142857</ele><time>2026-04-25T11:42:31.909Z</time></trkpt><trkpt lat="44.057213105401345" lon="10.883599730823093"><ele>1053.857142857143</ele><time>2026-04-25T11:42:33.909Z</time></trkpt><trkpt lat="44.05722693059005" lon="10.883492010206353"><ele>1053.5714285714284</ele><time>2026-04-25T11:42:36.909Z</time></trkpt><trkpt lat="44.057248727818134" lon="10.883407805155716"><ele>1053.2857142857142</ele><time>2026-04-25T11:42:39.909Z</time></trkpt><trkpt lat="44.057275948021044" lon="10.883311276503788"><ele>1053.0</ele><time>2026-04-25T11:42:42.909Z</time></trkpt><trkpt lat="44.05730543711532" lon="10.883204634482363"><ele>1053.0</ele><time>2026-04-25T11:42:46.909Z</time></trkpt><trkpt lat="44.05733399275493" lon="10.883099927586024"><ele>1053.0</ele><time>2026-04-25T11:42:49.909Z</time></trkpt><trkpt lat="44.057363789967184" lon="10.883009622456768"><ele>1053.0</ele><time>2026-04-25T11:42:52.907Z</time></trkpt><trkpt lat="44.057381359853274" lon="10.882907016279285"><ele>1053.0</ele><time>2026-04-25T11:42:56.907Z</time></trkpt><trkpt lat="44.057421441173474" lon="10.882818092192121"><ele>1053.0</ele><time>2026-04-25T11:43:00.907Z</time></trkpt><trkpt lat="44.057453262639186" lon="10.882707953762162"><ele>1053.0</ele><time>2026-04-25T11:43:03.907Z</time></trkpt><trkpt lat="44.057468148283846" lon="10.882612107596787"><ele>1052.0</ele><time>2026-04-25T11:43:06.907Z</time></trkpt><trkpt lat="44.05747336263389" lon="10.882507263453881"><ele>1051.0</ele><time>2026-04-25T11:43:09.907Z</time></trkpt><trkpt lat="44.057475924119935" lon="10.882413782037235"><ele>1050.0</ele><time>2026-04-25T11:43:13.907Z</time></trkpt><trkpt lat="44.057475698116995" lon="10.882276913073207"><ele>1049.0</ele><time>2026-04-25T11:43:17.907Z</time></trkpt><trkpt lat="44.057475502235604" lon="10.882167846934134"><ele>1048.0</ele><time>2026-04-25T11:43:20.907Z</time></trkpt><trkpt lat="44.05745063072806" lon="10.882047983288276"><ele>1047.0</ele><time>2026-04-25T11:43:23.907Z</time></trkpt><trkpt lat="44.05741741613123" lon="10.881959800430607"><ele>1047.0</ele><time>2026-04-25T11:43:26.907Z</time></trkpt><trkpt lat="44.05738347090743" lon="10.881857611846254"><ele>1047.0</ele><time>2026-04-25T11:43:29.907Z</time></trkpt><trkpt lat="44.05735660458021" lon="10.881743655240586"><ele>1047.0</ele><time>2026-04-25T11:43:32.907Z</time></trkpt><trkpt lat="44.05734303403539" lon="10.881638210263906"><ele>1047.0</ele><time>2026-04-25T11:43:35.907Z</time></trkpt><trkpt lat="44.057338796041066" lon="10.881517915072765"><ele>1047.0</ele><time>2026-04-25T11:43:38.907Z</time></trkpt><trkpt lat="44.05733351007879" lon="10.881407575421179"><ele>1047.0</ele><time>2026-04-25T11:43:41.907Z</time></trkpt><trkpt lat="44.05736079814852" lon="10.881294624218665"><ele>1045.6666666666667</ele><time>2026-04-25T11:43:44.907Z</time></trkpt><trkpt lat="44.05740491218465" lon="10.88119353098266"><ele>1044.3333333333333</ele><time>2026-04-25T11:43:47.907Z</time></trkpt><trkpt lat="44.05746578543058" lon="10.881111458059406"><ele>1043.0</ele><time>2026-04-25T11:43:50.907Z</time></trkpt><trkpt lat="44.05751666725586" lon="10.881017823530646"><ele>1041.6666666666665</ele><time>2026-04-25T11:43:53.907Z</time></trkpt><trkpt lat="44.05756989854895" lon="10.88095886351835"><ele>1040.3333333333333</ele><time>2026-04-25T11:43:56.907Z</time></trkpt><trkpt lat="44.05764668425833" lon="10.88090407799244"><ele>1039.0</ele><time>2026-04-25T11:44:00.907Z</time></trkpt><trkpt lat="44.05772134960602" lon="10.88085152527086"><ele>1045.7142857142856</ele><time>2026-04-25T11:44:03.907Z</time></trkpt><trkpt lat="44.05779424916769" lon="10.88081677673419"><ele>1052.4285714285713</ele><time>2026-04-25T11:44:07.907Z</time></trkpt><trkpt lat="44.057869393468465" lon="10.88080315781114"><ele>1059.142857142857</ele><time>2026-04-25T11:44:10.907Z</time></trkpt><trkpt lat="44.057933840365926" lon="10.880794544803166"><ele>1065.8571428571427</ele><time>2026-04-25T11:44:13.907Z</time></trkpt><trkpt lat="44.058002407285635" lon="10.88078350929222"><ele>1072.5714285714284</ele><time>2026-04-25T11:44:15.907Z</time></trkpt><trkpt lat="44.0580792890637" lon="10.880761983619015"><ele>1079.2857142857142</ele><time>2026-04-25T11:44:19.907Z</time></trkpt><trkpt lat="44.058141644898754" lon="10.880746620932426"><ele>1086.0</ele><time>2026-04-25T11:44:22.907Z</time></trkpt><trkpt lat="44.05822921377617" lon="10.880746377859957"><ele>1088.857142857143</ele><time>2026-04-25T11:44:26.907Z</time></trkpt><trkpt lat="44.05830715759141" lon="10.880761937201097"><ele>1091.7142857142858</ele><time>2026-04-25T11:44:30.907Z</time></trkpt><trkpt lat="44.05838776382071" lon="10.880763875800971"><ele>1094.5714285714284</ele><time>2026-04-25T11:44:33.907Z</time></trkpt><trkpt lat="44.058455751480025" lon="10.880772519343035"><ele>1097.4285714285716</ele><time>2026-04-25T11:44:36.907Z</time></trkpt><trkpt lat="44.058520359005" lon="10.880767006861658"><ele>1100.2857142857142</ele><time>2026-04-25T11:44:39.907Z</time></trkpt><trkpt lat="44.05859024705701" lon="10.880756120235842"><ele>1103.142857142857</ele><time>2026-04-25T11:44:42.907Z</time></trkpt><trkpt lat="44.058656552302224" lon="10.880750993278056"><ele>1106.0</ele><time>2026-04-25T11:44:46.907Z</time></trkpt><trkpt lat="44.058723448341674" lon="10.880735861497731"><ele>1106.0</ele><time>2026-04-25T11:44:49.907Z</time></trkpt><trkpt lat="44.058785285405904" lon="10.880719208507017"><ele>1106.0</ele><time>2026-04-25T11:44:52.907Z</time></trkpt><trkpt lat="44.05884671454297" lon="10.880693272208282"><ele>1106.0</ele><time>2026-04-25T11:44:56.907Z</time></trkpt><trkpt lat="44.058879460335596" lon="10.880601191072156"><ele>1106.0</ele><time>2026-04-25T11:45:02.906Z</time></trkpt><trkpt lat="44.058895938228495" lon="10.880493769705996"><ele>1106.0</ele><time>2026-04-25T11:45:07.905Z</time></trkpt><trkpt lat="44.058909758738224" lon="10.880392935116893"><ele>1106.0</ele><time>2026-04-25T11:45:11.906Z</time></trkpt><trkpt lat="44.05894389428575" lon="10.880314486704846"><ele>1106.0</ele><time>2026-04-25T11:45:14.906Z</time></trkpt><trkpt lat="44.05898299756576" lon="10.880231292875573"><ele>1106.0</ele><time>2026-04-25T11:45:17.906Z</time></trkpt><trkpt lat="44.05901510222797" lon="10.88012542417079"><ele>1106.0</ele><time>2026-04-25T11:45:20.906Z</time></trkpt><trkpt lat="44.059048196992315" lon="10.880028381365417"><ele>1106.0</ele><time>2026-04-25T11:45:23.906Z</time></trkpt><trkpt lat="44.05907746288573" lon="10.879942483499018"><ele>1106.0</ele><time>2026-04-25T11:45:26.906Z</time></trkpt><trkpt lat="44.05911762445076" lon="10.879830883990971"><ele>1106.0</ele><time>2026-04-25T11:45:30.906Z</time></trkpt><trkpt lat="44.059128560342884" lon="10.8797189393978"><ele>1106.0</ele><time>2026-04-25T11:45:34.906Z</time></trkpt><trkpt lat="44.05914750507624" lon="10.879623885397608"><ele>1106.5</ele><time>2026-04-25T11:45:37.906Z</time></trkpt><trkpt lat="44.05917150399625" lon="10.879538204776617"><ele>1107.0</ele><time>2026-04-25T11:45:39.906Z</time></trkpt><trkpt lat="44.059201897608986" lon="10.879429930239812"><ele>1107.5</ele><time>2026-04-25T11:45:42.906Z</time></trkpt><trkpt lat="44.059235732965746" lon="10.87932694146939"><ele>1108.0</ele><time>2026-04-25T11:45:45.906Z</time></trkpt><trkpt lat="44.05926560259623" lon="10.879249776803054"><ele>1108.5</ele><time>2026-04-25T11:45:48.906Z</time></trkpt><trkpt lat="44.059324415656675" lon="10.879160907126751"><ele>1109.0</ele><time>2026-04-25T11:45:51.906Z</time></trkpt><trkpt lat="44.05938930302957" lon="10.879076720332467"><ele>1108.9999999999998</ele><time>2026-04-25T11:45:54.906Z</time></trkpt><trkpt lat="44.05943931203291" lon="10.87899218253964"><ele>1109.0</ele><time>2026-04-25T11:45:57.906Z</time></trkpt><trkpt lat="44.059496907235584" lon="10.878927443887754"><ele>1109.0</ele><time>2026-04-25T11:45:59.906Z</time></trkpt><trkpt lat="44.059548123809634" lon="10.878862134730682"><ele>1109.0</ele><time>2026-04-25T11:46:01.906Z</time></trkpt><trkpt lat="44.059574442952545" lon="10.87877736528135"><ele>1109.0</ele><time>2026-04-25T11:46:03.906Z</time></trkpt><trkpt lat="44.05956990428224" lon="10.878672566649467"><ele>1108.9999999999998</ele><time>2026-04-25T11:46:07.906Z</time></trkpt><trkpt lat="44.059554378620334" lon="10.878557495573501"><ele>1109.0</ele><time>2026-04-25T11:46:10.906Z</time></trkpt><trkpt lat="44.05953873832128" lon="10.878461176653246"><ele>1108.9999999999998</ele><time>2026-04-25T11:46:13.906Z</time></trkpt><trkpt lat="44.059515567907596" lon="10.878366464241347"><ele>1109.0</ele><time>2026-04-25T11:46:17.906Z</time></trkpt><trkpt lat="44.059478792697625" lon="10.878289436192363"><ele>1109.0</ele><time>2026-04-25T11:46:20.906Z</time></trkpt><trkpt lat="44.05942108782545" lon="10.87824227668485"><ele>1109.0</ele><time>2026-04-25T11:46:25.906Z</time></trkpt><trkpt lat="44.05936243786058" lon="10.87819599034522"><ele>1109.0</ele><time>2026-04-25T11:46:32.906Z</time></trkpt><trkpt lat="44.05930165688282" lon="10.878162391034001"><ele>1108.9999999999998</ele><time>2026-04-25T11:46:35.906Z</time></trkpt><trkpt lat="44.05922136356767" lon="10.878134657891474"><ele>1109.0</ele><time>2026-04-25T11:46:38.906Z</time></trkpt><trkpt lat="44.05914709777466" lon="10.878096337897837"><ele>1105.8571428571427</ele><time>2026-04-25T11:46:41.906Z</time></trkpt><trkpt lat="44.05908512329855" lon="10.878075001374592"><ele>1102.7142857142858</ele><time>2026-04-25T11:46:43.906Z</time></trkpt><trkpt lat="44.05899604242361" lon="10.878054121556598"><ele>1099.5714285714284</ele><time>2026-04-25T11:46:46.906Z</time></trkpt><trkpt lat="44.05892964221427" lon="10.87803942036018"><ele>1096.4285714285713</ele><time>2026-04-25T11:46:48.906Z</time></trkpt><trkpt lat="44.05886723611251" lon="10.878012765994212"><ele>1093.2857142857142</ele><time>2026-04-25T11:46:50.906Z</time></trkpt><trkpt lat="44.05879412738447" lon="10.877964813442102"><ele>1090.142857142857</ele><time>2026-04-25T11:46:52.906Z</time></trkpt><trkpt lat="44.058729173972196" lon="10.877899982548158"><ele>1087.0</ele><time>2026-04-25T11:46:54.906Z</time></trkpt><trkpt lat="44.05868082997927" lon="10.877843762840941"><ele>1087.0</ele><time>2026-04-25T11:46:56.906Z</time></trkpt><trkpt lat="44.05863687393849" lon="10.877776698919627"><ele>1087.0</ele><time>2026-04-25T11:46:58.906Z</time></trkpt><trkpt lat="44.05857528452168" lon="10.87769075877451"><ele>1087.0</ele><time>2026-04-25T11:47:01.906Z</time></trkpt><trkpt lat="44.058535198992566" lon="10.877608908147348"><ele>1087.0</ele><time>2026-04-25T11:47:04.904Z</time></trkpt><trkpt lat="44.05848379375497" lon="10.877502647750035"><ele>1087.0</ele><time>2026-04-25T11:47:07.903Z</time></trkpt><trkpt lat="44.058456585280204" lon="10.877385473359144"><ele>1087.0</ele><time>2026-04-25T11:47:10.904Z</time></trkpt><trkpt lat="44.05840080229624" lon="10.877305399404332"><ele>1088.5714285714284</ele><time>2026-04-25T11:47:13.903Z</time></trkpt><trkpt lat="44.05833906521826" lon="10.877277644625709"><ele>1090.142857142857</ele><time>2026-04-25T11:47:16.904Z</time></trkpt><trkpt lat="44.05826936392606" lon="10.877255223572"><ele>1091.7142857142858</ele><time>2026-04-25T11:47:22.904Z</time></trkpt><trkpt lat="44.058206739460005" lon="10.877235006974031"><ele>1093.2857142857142</ele><time>2026-04-25T11:47:26.904Z</time></trkpt><trkpt lat="44.05814300798669" lon="10.877226700056598"><ele>1094.857142857143</ele><time>2026-04-25T11:47:29.904Z</time></trkpt><trkpt lat="44.058077876871295" lon="10.877216646042038"><ele>1096.4285714285713</ele><time>2026-04-25T11:47:35.904Z</time></trkpt><trkpt lat="44.05802634059508" lon="10.877159046604772"><ele>1098.0</ele><time>2026-04-25T11:47:55.904Z</time></trkpt><trkpt lat="44.05796088947897" lon="10.877154615353911"><ele>1098.0</ele><time>2026-04-25T11:48:04.904Z</time></trkpt><trkpt lat="44.05790448429632" lon="10.877108079083976"><ele>1098.0</ele><time>2026-04-25T12:00:58.888Z</time></trkpt><trkpt lat="44.05784131974468" lon="10.877051284758867"><ele>1098.0</ele><time>2026-04-25T12:01:03.888Z</time></trkpt><trkpt lat="44.05779258662288" lon="10.876987022489999"><ele>1098.0</ele><time>2026-04-25T12:01:10.889Z</time></trkpt><trkpt lat="44.05773667327847" lon="10.876936915750578"><ele>1098.0</ele><time>2026-04-25T12:01:15.889Z</time></trkpt><trkpt lat="44.05767407146555" lon="10.876866639247197"><ele>1098.0</ele><time>2026-04-25T12:01:19.889Z</time></trkpt><trkpt lat="44.05762545547698" lon="10.87679619140464"><ele>1098.0</ele><time>2026-04-25T12:01:23.889Z</time></trkpt><trkpt lat="44.057570379132436" lon="10.876739446133596"><ele>1099.3333333333333</ele><time>2026-04-25T12:01:26.889Z</time></trkpt><trkpt lat="44.05750457072808" lon="10.876697728871743"><ele>1100.6666666666667</ele><time>2026-04-25T12:01:30.889Z</time></trkpt><trkpt lat="44.05742356949982" lon="10.87667673986164"><ele>1102.0</ele><time>2026-04-25T12:01:34.889Z</time></trkpt><trkpt lat="44.057347810991565" lon="10.876657735207798"><ele>1103.3333333333335</ele><time>2026-04-25T12:01:37.889Z</time></trkpt><trkpt lat="44.05727360803479" lon="10.876629752109382"><ele>1104.6666666666667</ele><time>2026-04-25T12:01:40.889Z</time></trkpt><trkpt lat="44.05719623449266" lon="10.87660057972507"><ele>1106.0</ele><time>2026-04-25T12:01:43.889Z</time></trkpt><trkpt lat="44.05712837021304" lon="10.876537331636486"><ele>1106.0</ele><time>2026-04-25T12:01:46.886Z</time></trkpt><trkpt lat="44.05706428167098" lon="10.876453287453613"><ele>1106.0</ele><time>2026-04-25T12:01:49.886Z</time></trkpt><trkpt lat="44.057027572222886" lon="10.876380517355523"><ele>1106.0</ele><time>2026-04-25T12:01:51.886Z</time></trkpt><trkpt lat="44.05698121611767" lon="10.876270334264001"><ele>1106.0</ele><time>2026-04-25T12:01:54.886Z</time></trkpt><trkpt lat="44.056945011384855" lon="10.876182609323864"><ele>1106.0</ele><time>2026-04-25T12:01:56.885Z</time></trkpt><trkpt lat="44.0568757638577" lon="10.876101084661913"><ele>1106.0</ele><time>2026-04-25T12:01:59.886Z</time></trkpt><trkpt lat="44.05683375304009" lon="10.87603260387508"><ele>1106.0</ele><time>2026-04-25T12:02:01.886Z</time></trkpt><trkpt lat="44.05679347665712" lon="10.875964719236618"><ele>1106.0</ele><time>2026-04-25T12:02:03.886Z</time></trkpt><trkpt lat="44.05672976917795" lon="10.875870044681902"><ele>1106.0</ele><time>2026-04-25T12:02:06.886Z</time></trkpt><trkpt lat="44.05670486746428" lon="10.87577633870405"><ele>1106.0</ele><time>2026-04-25T12:02:08.886Z</time></trkpt><trkpt lat="44.05667795979072" lon="10.87566593951294"><ele>1106.0</ele><time>2026-04-25T12:02:11.886Z</time></trkpt><trkpt lat="44.05668033308166" lon="10.875565927080528"><ele>1106.0</ele><time>2026-04-25T12:02:14.886Z</time></trkpt><trkpt lat="44.056672559556596" lon="10.875472919253"><ele>1109.5</ele><time>2026-04-25T12:02:17.886Z</time></trkpt><trkpt lat="44.056660011299606" lon="10.87535492255759"><ele>1113.0</ele><time>2026-04-25T12:02:20.886Z</time></trkpt><trkpt lat="44.05666992474166" lon="10.875245730141595"><ele>1116.5</ele><time>2026-04-25T12:02:23.886Z</time></trkpt><trkpt lat="44.056709215449644" lon="10.875137267748233"><ele>1120.0</ele><time>2026-04-25T12:02:26.886Z</time></trkpt><trkpt lat="44.05675994925856" lon="10.875032101195542"><ele>1123.5</ele><time>2026-04-25T12:02:29.886Z</time></trkpt><trkpt lat="44.056823599119525" lon="10.874972118420938"><ele>1127.0</ele><time>2026-04-25T12:02:32.886Z</time></trkpt><trkpt lat="44.05688013600955" lon="10.874884829208654"><ele>1127.0</ele><time>2026-04-25T12:02:35.886Z</time></trkpt><trkpt lat="44.05695260862472" lon="10.874806019210556"><ele>1127.0</ele><time>2026-04-25T12:02:38.886Z</time></trkpt><trkpt lat="44.05701446483207" lon="10.87473522604083"><ele>1127.0</ele><time>2026-04-25T12:02:41.886Z</time></trkpt><trkpt lat="44.05707168933498" lon="10.874658560206315"><ele>1127.0</ele><time>2026-04-25T12:02:44.886Z</time></trkpt><trkpt lat="44.05713155278751" lon="10.874590905030606"><ele>1127.0</ele><time>2026-04-25T12:02:46.886Z</time></trkpt><trkpt lat="44.05718166586664" lon="10.874505397262427"><ele>1127.0</ele><time>2026-04-25T12:02:48.886Z</time></trkpt><trkpt lat="44.057223533929076" lon="10.874431129762995"><ele>1127.0</ele><time>2026-04-25T12:02:50.886Z</time></trkpt><trkpt lat="44.05728280403428" lon="10.874354422469613"><ele>1127.0</ele><time>2026-04-25T12:02:52.886Z</time></trkpt><trkpt lat="44.05733407328213" lon="10.874288360705272"><ele>1127.0</ele><time>2026-04-25T12:02:54.886Z</time></trkpt><trkpt lat="44.057404047570266" lon="10.87419594238693"><ele>1127.0</ele><time>2026-04-25T12:02:56.886Z</time></trkpt><trkpt lat="44.05740602126164" lon="10.874075439280913"><ele>1127.0</ele><time>2026-04-25T12:02:59.886Z</time></trkpt><trkpt lat="44.05736767171394" lon="10.873984688788903"><ele>1127.0</ele><time>2026-04-25T12:03:01.886Z</time></trkpt><trkpt lat="44.05730969381286" lon="10.873906561772035"><ele>1124.8333333333335</ele><time>2026-04-25T12:03:04.886Z</time></trkpt><trkpt lat="44.057263983284464" lon="10.873825469109951"><ele>1122.6666666666667</ele><time>2026-04-25T12:03:06.886Z</time></trkpt><trkpt lat="44.05721769551338" lon="10.873747595838754"><ele>1120.5</ele><time>2026-04-25T12:03:08.886Z</time></trkpt><trkpt lat="44.057164372321765" lon="10.87367797689779"><ele>1118.3333333333333</ele><time>2026-04-25T12:03:10.886Z</time></trkpt><trkpt lat="44.05710887936279" lon="10.87358516401615"><ele>1116.1666666666665</ele><time>2026-04-25T12:03:12.886Z</time></trkpt><trkpt lat="44.05705067866003" lon="10.873501026266647"><ele>1114.0</ele><time>2026-04-25T12:03:14.886Z</time></trkpt><trkpt lat="44.056993454578446" lon="10.873408321137745"><ele>1113.6666666666665</ele><time>2026-04-25T12:03:16.886Z</time></trkpt><trkpt lat="44.05693979508978" lon="10.873309357366674"><ele>1113.3333333333333</ele><time>2026-04-25T12:03:18.886Z</time></trkpt><trkpt lat="44.05689652467709" lon="10.873225500770884"><ele>1113.0</ele><time>2026-04-25T12:03:20.886Z</time></trkpt><trkpt lat="44.05683545636319" lon="10.873157132732437"><ele>1112.6666666666667</ele><time>2026-04-25T12:03:22.886Z</time></trkpt><trkpt lat="44.056774706242166" lon="10.873095215657987"><ele>1112.3333333333335</ele><time>2026-04-25T12:03:24.886Z</time></trkpt><trkpt lat="44.056727424609846" lon="10.87302277584394"><ele>1112.0</ele><time>2026-04-25T12:03:26.886Z</time></trkpt><trkpt lat="44.0566764178936" lon="10.872964667933719"><ele>1112.0</ele><time>2026-04-25T12:03:28.886Z</time></trkpt><trkpt lat="44.056626806431524" lon="10.872872485636863"><ele>1112.0</ele><time>2026-04-25T12:03:31.886Z</time></trkpt><trkpt lat="44.05660595118551" lon="10.872760628158707"><ele>1112.0</ele><time>2026-04-25T12:03:34.886Z</time></trkpt><trkpt lat="44.05656627534303" lon="10.872661135547736"><ele>1112.0</ele><time>2026-04-25T12:03:37.886Z</time></trkpt><trkpt lat="44.05652599607575" lon="10.87258104768804"><ele>1112.0</ele><time>2026-04-25T12:03:39.886Z</time></trkpt><trkpt lat="44.05646753417444" lon="10.872510585352918"><ele>1112.0</ele><time>2026-04-25T12:03:41.886Z</time></trkpt><trkpt lat="44.05641467557533" lon="10.872457060535435"><ele>1109.7142857142858</ele><time>2026-04-25T12:03:43.886Z</time></trkpt><trkpt lat="44.05636701727863" lon="10.872394978264808"><ele>1107.4285714285716</ele><time>2026-04-25T12:03:45.886Z</time></trkpt><trkpt lat="44.05632540424707" lon="10.872296620525907"><ele>1105.1428571428573</ele><time>2026-04-25T12:03:48.886Z</time></trkpt><trkpt lat="44.056292456082296" lon="10.872206934127306"><ele>1102.857142857143</ele><time>2026-04-25T12:03:50.886Z</time></trkpt><trkpt lat="44.05629875849547" lon="10.872118556888903"><ele>1100.5714285714287</ele><time>2026-04-25T12:03:52.884Z</time></trkpt><trkpt lat="44.05629600824313" lon="10.872029883341462"><ele>1098.2857142857144</ele><time>2026-04-25T12:03:54.884Z</time></trkpt><trkpt lat="44.05626571570451" lon="10.871908537801366"><ele>1096.0</ele><time>2026-04-25T12:03:57.884Z</time></trkpt><trkpt lat="44.05625231578884" lon="10.871804740897316"><ele>1097.1666666666665</ele><time>2026-04-25T12:04:00.884Z</time></trkpt><trkpt lat="44.05623450457589" lon="10.871716811692217"><ele>1098.3333333333333</ele><time>2026-04-25T12:04:02.884Z</time></trkpt><trkpt lat="44.056246756527635" lon="10.871617913362865"><ele>1099.5</ele><time>2026-04-25T12:04:04.884Z</time></trkpt><trkpt lat="44.05625580275075" lon="10.871502517458794"><ele>1100.6666666666667</ele><time>2026-04-25T12:04:07.883Z</time></trkpt><trkpt lat="44.05628889773023" lon="10.871381683646693"><ele>1101.8333333333335</ele><time>2026-04-25T12:04:10.883Z</time></trkpt><trkpt lat="44.05632914240989" lon="10.87128560161954"><ele>1103.0</ele><time>2026-04-25T12:04:13.883Z</time></trkpt><trkpt lat="44.05639539953283" lon="10.871223811181256"><ele>1103.0</ele><time>2026-04-25T12:04:17.883Z</time></trkpt><trkpt lat="44.056449814978706" lon="10.87117731223559"><ele>1103.0</ele><time>2026-04-25T12:04:19.883Z</time></trkpt><trkpt lat="44.05651562240844" lon="10.87112597845973"><ele>1103.0</ele><time>2026-04-25T12:04:22.883Z</time></trkpt><trkpt lat="44.05659604479634" lon="10.871059973581449"><ele>1103.0</ele><time>2026-04-25T12:04:25.883Z</time></trkpt><trkpt lat="44.05665319960823" lon="10.871004103818532"><ele>1103.0</ele><time>2026-04-25T12:04:27.883Z</time></trkpt><trkpt lat="44.05671512702655" lon="10.870892559033749"><ele>1103.0</ele><time>2026-04-25T12:04:33.883Z</time></trkpt><trkpt lat="44.05675108297312" lon="10.870746297662015"><ele>1106.8333333333335</ele><time>2026-04-25T12:04:35.883Z</time></trkpt><trkpt lat="44.05681002385277" lon="10.870623997115791"><ele>1110.6666666666667</ele><time>2026-04-25T12:04:37.883Z</time></trkpt><trkpt lat="44.05682928505318" lon="10.870484266878305"><ele>1114.5</ele><time>2026-04-25T12:04:40.883Z</time></trkpt><trkpt lat="44.05685065809615" lon="10.870363734168913"><ele>1118.3333333333333</ele><time>2026-04-25T12:04:43.883Z</time></trkpt><trkpt lat="44.056896675641156" lon="10.870289305642329"><ele>1122.1666666666665</ele><time>2026-04-25T12:04:45.883Z</time></trkpt><trkpt lat="44.056941845276846" lon="10.870226554790717"><ele>1126.0</ele><time>2026-04-25T12:04:47.883Z</time></trkpt><trkpt lat="44.057017949892746" lon="10.870190520982378"><ele>1126.0</ele><time>2026-04-25T12:04:49.883Z</time></trkpt><trkpt lat="44.05709518735152" lon="10.870162309729823"><ele>1126.0</ele><time>2026-04-25T12:04:51.883Z</time></trkpt><trkpt lat="44.0571692299535" lon="10.87011428275493"><ele>1126.0</ele><time>2026-04-25T12:04:53.883Z</time></trkpt><trkpt lat="44.05722429130484" lon="10.870066732228095"><ele>1126.0</ele><time>2026-04-25T12:04:55.883Z</time></trkpt><trkpt lat="44.0572789911934" lon="10.869980801287237"><ele>1126.0</ele><time>2026-04-25T12:04:58.883Z</time></trkpt><trkpt lat="44.057329973763395" lon="10.869904522089977"><ele>1126.0</ele><time>2026-04-25T12:05:00.883Z</time></trkpt><trkpt lat="44.05739811720996" lon="10.86987999938712"><ele>1126.5</ele><time>2026-04-25T12:05:02.883Z</time></trkpt><trkpt lat="44.05748885601596" lon="10.86988349305629"><ele>1127.0</ele><time>2026-04-25T12:05:05.884Z</time></trkpt><trkpt lat="44.057568450198616" lon="10.869880915481108"><ele>1127.5</ele><time>2026-04-25T12:05:07.884Z</time></trkpt><trkpt lat="44.05763351710794" lon="10.869883593814734"><ele>1128.0</ele><time>2026-04-25T12:05:09.884Z</time></trkpt><trkpt lat="44.05769751394451" lon="10.869865311074644"><ele>1128.5</ele><time>2026-04-25T12:05:11.884Z</time></trkpt><trkpt lat="44.05777181424104" lon="10.869822813731655"><ele>1129.0</ele><time>2026-04-25T12:05:14.884Z</time></trkpt><trkpt lat="44.05782938448454" lon="10.869744042975382"><ele>1129.0</ele><time>2026-04-25T12:05:17.884Z</time></trkpt><trkpt lat="44.057907064112214" lon="10.869661046902792"><ele>1129.0</ele><time>2026-04-25T12:05:21.884Z</time></trkpt><trkpt lat="44.05796157703239" lon="10.869611350304265"><ele>1129.0</ele><time>2026-04-25T12:05:23.884Z</time></trkpt><trkpt lat="44.05802215582905" lon="10.869556077025306"><ele>1129.0</ele><time>2026-04-25T12:05:25.884Z</time></trkpt><trkpt lat="44.058093212318454" lon="10.869501457482407"><ele>1129.0</ele><time>2026-04-25T12:05:27.884Z</time></trkpt><trkpt lat="44.05813672584901" lon="10.86943169058573"><ele>1129.0</ele><time>2026-04-25T12:05:29.884Z</time></trkpt><trkpt lat="44.058149297676835" lon="10.86932816406126"><ele>1124.6666666666665</ele><time>2026-04-25T12:05:34.884Z</time></trkpt><trkpt lat="44.05814387980979" lon="10.86923073381547"><ele>1120.3333333333333</ele><time>2026-04-25T12:05:37.884Z</time></trkpt><trkpt lat="44.05814533923195" lon="10.869114303179122"><ele>1116.0</ele><time>2026-04-25T12:05:41.884Z</time></trkpt><trkpt lat="44.05815244811755" lon="10.869006620368895"><ele>1111.6666666666667</ele><time>2026-04-25T12:05:43.884Z</time></trkpt><trkpt lat="44.058169296291986" lon="10.868884187118459"><ele>1107.3333333333335</ele><time>2026-04-25T12:05:46.884Z</time></trkpt><trkpt lat="44.058135163048895" lon="10.868768784094446"><ele>1103.0</ele><time>2026-04-25T12:05:49.884Z</time></trkpt><trkpt lat="44.0581159003287" lon="10.868643483924181"><ele>1103.0</ele><time>2026-04-25T12:05:52.884Z</time></trkpt><trkpt lat="44.058081794120376" lon="10.868564632397936"><ele>1103.0</ele><time>2026-04-25T12:05:54.884Z</time></trkpt><trkpt lat="44.058061810734515" lon="10.868456318544363"><ele>1103.0</ele><time>2026-04-25T12:05:57.884Z</time></trkpt><trkpt lat="44.05801659762698" lon="10.868353049781637"><ele>1103.0</ele><time>2026-04-25T12:06:00.882Z</time></trkpt><trkpt lat="44.05800195311421" lon="10.868231751824045"><ele>1103.0</ele><time>2026-04-25T12:06:03.882Z</time></trkpt><trkpt lat="44.0579667709938" lon="10.86811949742722"><ele>1103.0</ele><time>2026-04-25T12:06:05.882Z</time></trkpt><trkpt lat="44.05791477046365" lon="10.868020716479952"><ele>1102.3333333333335</ele><time>2026-04-25T12:06:07.882Z</time></trkpt><trkpt lat="44.05786981054337" lon="10.867934620255882"><ele>1101.6666666666667</ele><time>2026-04-25T12:06:09.882Z</time></trkpt><trkpt lat="44.05784438819806" lon="10.867827919445268"><ele>1101.0</ele><time>2026-04-25T12:06:12.882Z</time></trkpt><trkpt lat="44.0578449437043" lon="10.867736355795433"><ele>1100.3333333333333</ele><time>2026-04-25T12:06:15.882Z</time></trkpt><trkpt lat="44.05786640624895" lon="10.867632576964642"><ele>1099.6666666666665</ele><time>2026-04-25T12:06:18.882Z</time></trkpt><trkpt lat="44.057887188639285" lon="10.86751207880745"><ele>1099.0</ele><time>2026-04-25T12:06:21.882Z</time></trkpt><trkpt lat="44.05787929960866" lon="10.86741239411127"><ele>1099.0</ele><time>2026-04-25T12:06:24.882Z</time></trkpt><trkpt lat="44.05786224294242" lon="10.867304286576065"><ele>1099.0</ele><time>2026-04-25T12:06:27.882Z</time></trkpt><trkpt lat="44.05783807388161" lon="10.867207051969057"><ele>1099.0</ele><time>2026-04-25T12:06:30.882Z</time></trkpt><trkpt lat="44.057811092803306" lon="10.867103689880556"><ele>1099.0</ele><time>2026-04-25T12:06:32.882Z</time></trkpt><trkpt lat="44.05782010862091" lon="10.867013323956039"><ele>1099.0</ele><time>2026-04-25T12:06:34.882Z</time></trkpt><trkpt lat="44.05784290442115" lon="10.866895689399326"><ele>1099.0</ele><time>2026-04-25T12:06:37.882Z</time></trkpt><trkpt lat="44.057869354400076" lon="10.866800716999078"><ele>1099.3333333333333</ele><time>2026-04-25T12:06:39.882Z</time></trkpt><trkpt lat="44.057890543402664" lon="10.866685030735912"><ele>1099.6666666666665</ele><time>2026-04-25T12:06:42.882Z</time></trkpt><trkpt lat="44.05791223783995" lon="10.866583342779473"><ele>1100.0</ele><time>2026-04-25T12:06:44.882Z</time></trkpt><trkpt lat="44.05793083136583" lon="10.866489466547113"><ele>1100.3333333333333</ele><time>2026-04-25T12:06:47.882Z</time></trkpt><trkpt lat="44.05796086759557" lon="10.866361380608556"><ele>1100.6666666666667</ele><time>2026-04-25T12:06:50.882Z</time></trkpt><trkpt lat="44.0580080499619" lon="10.866258888125522"><ele>1101.0</ele><time>2026-04-25T12:06:53.882Z</time></trkpt><trkpt lat="44.058072816587" lon="10.86616096785259"><ele>1101.0</ele><time>2026-04-25T12:06:56.882Z</time></trkpt><trkpt lat="44.05810995643805" lon="10.866076087818554"><ele>1101.0</ele><time>2026-04-25T12:06:58.882Z</time></trkpt><trkpt lat="44.05814470519969" lon="10.865989076483162"><ele>1101.0</ele><time>2026-04-25T12:07:00.882Z</time></trkpt><trkpt lat="44.058173478582226" lon="10.86586638842777"><ele>1101.0</ele><time>2026-04-25T12:07:03.882Z</time></trkpt><trkpt lat="44.05822066704732" lon="10.865738043674416"><ele>1101.0</ele><time>2026-04-25T12:07:06.882Z</time></trkpt><trkpt lat="44.05826305526456" lon="10.865636354613434"><ele>1101.0</ele><time>2026-04-25T12:07:09.882Z</time></trkpt><trkpt lat="44.05829200879021" lon="10.865556808881262"><ele>1103.8333333333333</ele><time>2026-04-25T12:07:11.882Z</time></trkpt><trkpt lat="44.058341349086106" lon="10.865453294871733"><ele>1106.6666666666667</ele><time>2026-04-25T12:07:14.88Z</time></trkpt><trkpt lat="44.05840279663225" lon="10.865368301633348"><ele>1109.5</ele><time>2026-04-25T12:07:16.878Z</time></trkpt><trkpt lat="44.05847125416354" lon="10.865311769100988"><ele>1112.3333333333335</ele><time>2026-04-25T12:07:18.877Z</time></trkpt><trkpt lat="44.05851577891996" lon="10.865230701953802"><ele>1115.1666666666667</ele><time>2026-04-25T12:07:20.876Z</time></trkpt><trkpt lat="44.0585734358951" lon="10.865161268869038"><ele>1118.0</ele><time>2026-04-25T12:07:23.875Z</time></trkpt><trkpt lat="44.05865756634979" lon="10.865104264813986"><ele>1118.0</ele><time>2026-04-25T12:07:25.875Z</time></trkpt><trkpt lat="44.058720815494624" lon="10.865062619289295"><ele>1118.0</ele><time>2026-04-25T12:07:27.874Z</time></trkpt><trkpt lat="44.05878477421316" lon="10.865032572870183"><ele>1118.0</ele><time>2026-04-25T12:07:29.874Z</time></trkpt><trkpt lat="44.058838762047756" lon="10.864984153349495"><ele>1118.0</ele><time>2026-04-25T12:07:31.873Z</time></trkpt><trkpt lat="44.05891642556861" lon="10.864930201645905"><ele>1118.0</ele><time>2026-04-25T12:07:35.872Z</time></trkpt><trkpt lat="44.058976685679994" lon="10.864882298335893"><ele>1118.0</ele><time>2026-04-25T12:07:39.872Z</time></trkpt><trkpt lat="44.05901476531917" lon="10.8647507693214"><ele>1118.0</ele><time>2026-04-25T12:07:43.871Z</time></trkpt><trkpt lat="44.05904643404207" lon="10.864673890417823"><ele>1118.0</ele><time>2026-04-25T12:07:45.871Z</time></trkpt><trkpt lat="44.059102971037944" lon="10.864610559758303"><ele>1118.0</ele><time>2026-04-25T12:07:47.871Z</time></trkpt><trkpt lat="44.05914539230239" lon="10.864518878978442"><ele>1118.0</ele><time>2026-04-25T12:07:49.871Z</time></trkpt><trkpt lat="44.059200483851946" lon="10.864415200237369"><ele>1118.0</ele><time>2026-04-25T12:07:52.871Z</time></trkpt><trkpt lat="44.05927579076809" lon="10.864343022566262"><ele>1118.0</ele><time>2026-04-25T12:07:55.871Z</time></trkpt><trkpt lat="44.05934782408077" lon="10.864231317384196"><ele>1118.0</ele><time>2026-04-25T12:07:57.871Z</time></trkpt><trkpt lat="44.05943512227006" lon="10.864156333065056"><ele>1118.0</ele><time>2026-04-25T12:07:59.87Z</time></trkpt><trkpt lat="44.05951722243218" lon="10.864078279060328"><ele>1118.0</ele><time>2026-04-25T12:08:01.87Z</time></trkpt><trkpt lat="44.05958052436328" lon="10.864043025194682"><ele>1118.0</ele><time>2026-04-25T12:08:03.87Z</time></trkpt><trkpt lat="44.05965367316098" lon="10.863975588711302"><ele>1118.0</ele><time>2026-04-25T12:08:06.869Z</time></trkpt><trkpt lat="44.0597192727243" lon="10.863898189366958"><ele>1118.0</ele><time>2026-04-25T12:08:08.869Z</time></trkpt><trkpt lat="44.05975914662278" lon="10.863818063689537"><ele>1118.0</ele><time>2026-04-25T12:08:10.869Z</time></trkpt><trkpt lat="44.05978113527614" lon="10.863691810236874"><ele>1118.0</ele><time>2026-04-25T12:08:13.869Z</time></trkpt><trkpt lat="44.059855599170724" lon="10.86359127547738"><ele>1118.0</ele><time>2026-04-25T12:08:16.869Z</time></trkpt><trkpt lat="44.05991582033185" lon="10.86352041560727"><ele>1118.0</ele><time>2026-04-25T12:08:18.869Z</time></trkpt><trkpt lat="44.05997774236094" lon="10.86346248691282"><ele>1118.0</ele><time>2026-04-25T12:08:20.869Z</time></trkpt><trkpt lat="44.06003483218845" lon="10.863412082941826"><ele>1118.0</ele><time>2026-04-25T12:08:22.869Z</time></trkpt><trkpt lat="44.06009840544996" lon="10.863346445599637"><ele>1120.6666666666667</ele><time>2026-04-25T12:08:24.869Z</time></trkpt><trkpt lat="44.06010239915492" lon="10.863254315833084"><ele>1123.3333333333335</ele><time>2026-04-25T12:08:27.869Z</time></trkpt><trkpt lat="44.06005753749753" lon="10.86314026421193"><ele>1126.0</ele><time>2026-04-25T12:08:31.869Z</time></trkpt><trkpt lat="44.06004895075337" lon="10.863022290442348"><ele>1128.6666666666667</ele><time>2026-04-25T12:08:34.869Z</time></trkpt><trkpt lat="44.06006075600822" lon="10.86292857071479"><ele>1131.3333333333333</ele><time>2026-04-25T12:08:36.869Z</time></trkpt><trkpt lat="44.06004663538277" lon="10.8628026970443"><ele>1134.0</ele><time>2026-04-25T12:08:38.869Z</time></trkpt><trkpt lat="44.06000072657902" lon="10.862726047234638"><ele>1133.1666666666667</ele><time>2026-04-25T12:08:41.869Z</time></trkpt><trkpt lat="44.06002956726548" lon="10.862572386906244"><ele>1132.3333333333333</ele><time>2026-04-25T12:08:44.869Z</time></trkpt><trkpt lat="44.06001025097733" lon="10.862440777703409"><ele>1131.5</ele><time>2026-04-25T12:08:46.869Z</time></trkpt><trkpt lat="44.05999130816183" lon="10.86232567651948"><ele>1130.6666666666665</ele><time>2026-04-25T12:08:50.869Z</time></trkpt><trkpt lat="44.05994593246956" lon="10.862260281052468"><ele>1129.8333333333333</ele><time>2026-04-25T12:08:52.869Z</time></trkpt><trkpt lat="44.05989967307152" lon="10.8621835535922"><ele>1129.0</ele><time>2026-04-25T12:08:54.869Z</time></trkpt><trkpt lat="44.059873488871986" lon="10.86209518644523"><ele>1122.1666666666665</ele><time>2026-04-25T12:08:56.869Z</time></trkpt><trkpt lat="44.059846189261144" lon="10.862001713715243"><ele>1115.3333333333333</ele><time>2026-04-25T12:08:58.869Z</time></trkpt><trkpt lat="44.05982360228292" lon="10.861865595805925"><ele>1108.5</ele><time>2026-04-25T12:09:00.869Z</time></trkpt><trkpt lat="44.05983398694988" lon="10.861770624891923"><ele>1101.6666666666667</ele><time>2026-04-25T12:09:02.869Z</time></trkpt><trkpt lat="44.05984404967176" lon="10.861675784138543"><ele>1094.8333333333335</ele><time>2026-04-25T12:09:04.869Z</time></trkpt><trkpt lat="44.05985471844511" lon="10.86158429328235"><ele>1088.0</ele><time>2026-04-25T12:09:06.869Z</time></trkpt><trkpt lat="44.0598492652757" lon="10.86148211377343"><ele>1087.9999999999998</ele><time>2026-04-25T12:09:08.869Z</time></trkpt><trkpt lat="44.05983729128116" lon="10.861387488999153"><ele>1088.0</ele><time>2026-04-25T12:09:10.869Z</time></trkpt><trkpt lat="44.059806066765425" lon="10.861308183858304"><ele>1088.0</ele><time>2026-04-25T12:09:12.869Z</time></trkpt><trkpt lat="44.05979252939757" lon="10.861207531250276"><ele>1088.0</ele><time>2026-04-25T12:09:15.869Z</time></trkpt><trkpt lat="44.05975279047247" lon="10.861127439331062"><ele>1088.0</ele><time>2026-04-25T12:09:18.869Z</time></trkpt><trkpt lat="44.05971139325847" lon="10.861040119705418"><ele>1087.9999999999998</ele><time>2026-04-25T12:09:20.869Z</time></trkpt><trkpt lat="44.059669986102406" lon="10.860963199035277"><ele>1088.0</ele><time>2026-04-25T12:09:23.869Z</time></trkpt><trkpt lat="44.05962668121917" lon="10.860859360637816"><ele>1091.8333333333335</ele><time>2026-04-25T12:09:26.869Z</time></trkpt><trkpt lat="44.059574833265565" lon="10.86076215176973"><ele>1095.6666666666667</ele><time>2026-04-25T12:09:28.869Z</time></trkpt><trkpt lat="44.059502963577366" lon="10.860702514334086"><ele>1099.5</ele><time>2026-04-25T12:09:31.869Z</time></trkpt><trkpt lat="44.05945242174608" lon="10.86064290204882"><ele>1103.3333333333333</ele><time>2026-04-25T12:09:34.869Z</time></trkpt><trkpt lat="44.0594116591252" lon="10.860569257692108"><ele>1107.1666666666665</ele><time>2026-04-25T12:09:36.869Z</time></trkpt><trkpt lat="44.05935160522501" lon="10.860475653716636"><ele>1111.0</ele><time>2026-04-25T12:09:38.869Z</time></trkpt><trkpt lat="44.059307936872706" lon="10.860378872732037"><ele>1111.0</ele><time>2026-04-25T12:09:40.869Z</time></trkpt><trkpt lat="44.05927275341095" lon="10.86027844603292"><ele>1111.0</ele><time>2026-04-25T12:09:42.869Z</time></trkpt><trkpt lat="44.05924280260671" lon="10.860189183732851"><ele>1111.0</ele><time>2026-04-25T12:09:43.869Z</time></trkpt><trkpt lat="44.05918430292567" lon="10.860083950956872"><ele>1111.0</ele><time>2026-04-25T12:09:45.869Z</time></trkpt><trkpt lat="44.059109692753026" lon="10.860007286924926"><ele>1111.0</ele><time>2026-04-25T12:09:48.869Z</time></trkpt><trkpt lat="44.05903456983974" lon="10.859943197488079"><ele>1111.0</ele><time>2026-04-25T12:09:50.869Z</time></trkpt><trkpt lat="44.05897768641666" lon="10.859864024329182"><ele>1107.8333333333333</ele><time>2026-04-25T12:09:52.869Z</time></trkpt><trkpt lat="44.05891003040716" lon="10.859810587858766"><ele>1104.6666666666665</ele><time>2026-04-25T12:09:54.869Z</time></trkpt><trkpt lat="44.05884085163945" lon="10.859757926753025"><ele>1101.5</ele><time>2026-04-25T12:09:57.869Z</time></trkpt><trkpt lat="44.058763478008856" lon="10.859678129773982"><ele>1098.3333333333333</ele><time>2026-04-25T12:10:00.869Z</time></trkpt><trkpt lat="44.058714625089934" lon="10.859608609330335"><ele>1095.1666666666667</ele><time>2026-04-25T12:10:02.869Z</time></trkpt><trkpt lat="44.0586378773098" lon="10.859511873065669"><ele>1092.0</ele><time>2026-04-25T12:10:05.869Z</time></trkpt><trkpt lat="44.058590424815094" lon="10.859445004120182"><ele>1092.0</ele><time>2026-04-25T12:10:07.869Z</time></trkpt><trkpt lat="44.05856563571091" lon="10.859334535338773"><ele>1092.0</ele><time>2026-04-25T12:10:10.868Z</time></trkpt><trkpt lat="44.05857562576946" lon="10.859246611191464"><ele>1092.0</ele><time>2026-04-25T12:10:13.867Z</time></trkpt><trkpt lat="44.058590033393536" lon="10.859130922360707"><ele>1092.0</ele><time>2026-04-25T12:10:17.867Z</time></trkpt><trkpt lat="44.058639305628965" lon="10.859027532944445"><ele>1092.0</ele><time>2026-04-25T12:10:21.867Z</time></trkpt><trkpt lat="44.0586830190664" lon="10.85893765389026"><ele>1092.0</ele><time>2026-04-25T12:10:24.867Z</time></trkpt><trkpt lat="44.058728524803996" lon="10.858844212928206"><ele>1092.6666666666667</ele><time>2026-04-25T12:10:27.867Z</time></trkpt><trkpt lat="44.05877572850702" lon="10.858768758735444"><ele>1093.3333333333333</ele><time>2026-04-25T12:10:29.867Z</time></trkpt><trkpt lat="44.058826733532136" lon="10.858674871278438"><ele>1094.0</ele><time>2026-04-25T12:10:32.867Z</time></trkpt><trkpt lat="44.05887386003247" lon="10.858596454590145"><ele>1094.6666666666665</ele><time>2026-04-25T12:10:35.867Z</time></trkpt><trkpt lat="44.05891659358519" lon="10.858489815537759"><ele>1095.3333333333333</ele><time>2026-04-25T12:10:38.867Z</time></trkpt><trkpt lat="44.05894651020188" lon="10.858405196339733"><ele>1096.0</ele><time>2026-04-25T12:10:41.867Z</time></trkpt><trkpt lat="44.05899124357361" lon="10.85831885267008"><ele>1096.0</ele><time>2026-04-25T12:10:45.867Z</time></trkpt><trkpt lat="44.05902456200034" lon="10.858218539900195"><ele>1096.0</ele><time>2026-04-25T12:10:48.867Z</time></trkpt><trkpt lat="44.059052381972585" lon="10.858128150838246"><ele>1096.0</ele><time>2026-04-25T12:10:50.867Z</time></trkpt><trkpt lat="44.05909971387003" lon="10.858013634813618"><ele>1096.0</ele><time>2026-04-25T12:10:53.867Z</time></trkpt><trkpt lat="44.05912898236462" lon="10.85792529898202"><ele>1096.0</ele><time>2026-04-25T12:10:55.867Z</time></trkpt><trkpt lat="44.059165769294616" lon="10.85784498736612"><ele>1096.0</ele><time>2026-04-25T12:10:57.867Z</time></trkpt><trkpt lat="44.05920495634204" lon="10.85773652597591"><ele>1099.6666666666665</ele><time>2026-04-25T12:11:01.867Z</time></trkpt><trkpt lat="44.05924630266988" lon="10.8576536565753"><ele>1103.3333333333333</ele><time>2026-04-25T12:11:03.867Z</time></trkpt><trkpt lat="44.05930254089594" lon="10.857554721110217"><ele>1107.0</ele><time>2026-04-25T12:11:05.867Z</time></trkpt><trkpt lat="44.05934696064222" lon="10.8574522729863"><ele>1110.6666666666667</ele><time>2026-04-25T12:11:07.867Z</time></trkpt><trkpt lat="44.05940088455214" lon="10.857357331891277"><ele>1114.3333333333335</ele><time>2026-04-25T12:11:09.867Z</time></trkpt><trkpt lat="44.05946691100237" lon="10.857280950561215"><ele>1118.0</ele><time>2026-04-25T12:11:11.867Z</time></trkpt><trkpt lat="44.0595231500427" lon="10.857224338868821"><ele>1118.0</ele><time>2026-04-25T12:11:13.867Z</time></trkpt><trkpt lat="44.059601542143625" lon="10.857177502655906"><ele>1118.0</ele><time>2026-04-25T12:11:16.867Z</time></trkpt><trkpt lat="44.05967345222265" lon="10.85714376532442"><ele>1118.0</ele><time>2026-04-25T12:11:18.867Z</time></trkpt><trkpt lat="44.05973672675877" lon="10.857153100457873"><ele>1118.0</ele><time>2026-04-25T12:11:21.867Z</time></trkpt><trkpt lat="44.05982182808214" lon="10.857187116277641"><ele>1118.0</ele><time>2026-04-25T12:11:24.867Z</time></trkpt><trkpt lat="44.059895984648726" lon="10.857254259655418"><ele>1118.0</ele><time>2026-04-25T12:11:27.867Z</time></trkpt><trkpt lat="44.059951537770324" lon="10.85730265705244"><ele>1120.1666666666667</ele><time>2026-04-25T12:11:29.867Z</time></trkpt><trkpt lat="44.05999822088587" lon="10.857368547721675"><ele>1122.3333333333335</ele><time>2026-04-25T12:11:31.867Z</time></trkpt><trkpt lat="44.06002830985835" lon="10.857447920307267"><ele>1124.5</ele><time>2026-04-25T12:11:33.867Z</time></trkpt><trkpt lat="44.06006648510941" lon="10.857519238827877"><ele>1126.6666666666667</ele><time>2026-04-25T12:11:35.867Z</time></trkpt><trkpt lat="44.06013426032524" lon="10.857587407645024"><ele>1128.8333333333333</ele><time>2026-04-25T12:11:37.867Z</time></trkpt><trkpt lat="44.06019649419061" lon="10.85769342444102"><ele>1131.0</ele><time>2026-04-25T12:11:39.867Z</time></trkpt><trkpt lat="44.06025479999673" lon="10.857773230285632"><ele>1134.6666666666667</ele><time>2026-04-25T12:11:41.867Z</time></trkpt><trkpt lat="44.060294103032405" lon="10.85785565276545"><ele>1138.3333333333333</ele><time>2026-04-25T12:11:43.867Z</time></trkpt><trkpt lat="44.060360681937695" lon="10.857938971040227"><ele>1142.0</ele><time>2026-04-25T12:11:45.867Z</time></trkpt><trkpt lat="44.060426429019046" lon="10.858029343776801"><ele>1145.6666666666665</ele><time>2026-04-25T12:11:48.867Z</time></trkpt><trkpt lat="44.060485195602446" lon="10.85809373858226"><ele>1149.3333333333333</ele><time>2026-04-25T12:11:51.867Z</time></trkpt><trkpt lat="44.06053940948883" lon="10.858139094375579"><ele>1153.0</ele><time>2026-04-25T12:11:53.867Z</time></trkpt><trkpt lat="44.06060108591083" lon="10.858209951304552"><ele>1153.0</ele><time>2026-04-25T12:11:55.867Z</time></trkpt><trkpt lat="44.06066690722208" lon="10.858241804274279"><ele>1153.0</ele><time>2026-04-25T12:11:57.867Z</time></trkpt><trkpt lat="44.06074003723383" lon="10.858233927335945"><ele>1153.0</ele><time>2026-04-25T12:11:59.867Z</time></trkpt><trkpt lat="44.06082914669026" lon="10.85820877493666"><ele>1153.0</ele><time>2026-04-25T12:12:01.867Z</time></trkpt><trkpt lat="44.06092225695311" lon="10.858198717557814"><ele>1153.0</ele><time>2026-04-25T12:12:03.867Z</time></trkpt><trkpt lat="44.06102012855748" lon="10.85820895145649"><ele>1153.0</ele><time>2026-04-25T12:12:05.867Z</time></trkpt><trkpt lat="44.06108706070696" lon="10.85821322752791"><ele>1149.5</ele><time>2026-04-25T12:12:06.867Z</time></trkpt><trkpt lat="44.06118214252771" lon="10.85821127843833"><ele>1146.0</ele><time>2026-04-25T12:12:08.867Z</time></trkpt><trkpt lat="44.061269540086016" lon="10.85818695117064"><ele>1142.5</ele><time>2026-04-25T12:12:10.867Z</time></trkpt><trkpt lat="44.061340670761865" lon="10.858184353816602"><ele>1139.0</ele><time>2026-04-25T12:12:12.867Z</time></trkpt><trkpt lat="44.06143319144664" lon="10.85816716744523"><ele>1135.5</ele><time>2026-04-25T12:12:14.867Z</time></trkpt><trkpt lat="44.06151853879" lon="10.858138399426464"><ele>1132.0</ele><time>2026-04-25T12:12:16.866Z</time></trkpt><trkpt lat="44.061565755624486" lon="10.858073910097199"><ele>1132.0</ele><time>2026-04-25T12:12:19.865Z</time></trkpt><trkpt lat="44.061562036014514" lon="10.857934491596723"><ele>1132.0</ele><time>2026-04-25T12:12:23.866Z</time></trkpt><trkpt lat="44.061553546279235" lon="10.857830185361793"><ele>1132.0</ele><time>2026-04-25T12:12:26.866Z</time></trkpt><trkpt lat="44.06152762893994" lon="10.857723711639206"><ele>1132.0</ele><time>2026-04-25T12:12:29.866Z</time></trkpt><trkpt lat="44.06154961563269" lon="10.857600645093978"><ele>1132.0</ele><time>2026-04-25T12:12:31.866Z</time></trkpt><trkpt lat="44.06156619956424" lon="10.857490451487296"><ele>1132.0</ele><time>2026-04-25T12:12:33.866Z</time></trkpt><trkpt lat="44.06156601464285" lon="10.857384776684091"><ele>1128.3333333333333</ele><time>2026-04-25T12:12:35.866Z</time></trkpt><trkpt lat="44.06152895660235" lon="10.857258739732767"><ele>1124.6666666666665</ele><time>2026-04-25T12:12:38.866Z</time></trkpt><trkpt lat="44.06153379580788" lon="10.857160995939354"><ele>1121.0</ele><time>2026-04-25T12:12:40.866Z</time></trkpt><trkpt lat="44.0615111343906" lon="10.857075307709241"><ele>1117.3333333333333</ele><time>2026-04-25T12:12:42.866Z</time></trkpt><trkpt lat="44.06150999528176" lon="10.856967546866844"><ele>1113.6666666666667</ele><time>2026-04-25T12:12:44.866Z</time></trkpt><trkpt lat="44.061532272367366" lon="10.856854698126943"><ele>1110.0</ele><time>2026-04-25T12:12:46.866Z</time></trkpt><trkpt lat="44.061542418340736" lon="10.856746457031498"><ele>1112.3333333333333</ele><time>2026-04-25T12:12:48.866Z</time></trkpt><trkpt lat="44.06155635106687" lon="10.85663829089018"><ele>1114.6666666666667</ele><time>2026-04-25T12:12:50.866Z</time></trkpt><trkpt lat="44.0615763256604" lon="10.856532592145067"><ele>1117.0</ele><time>2026-04-25T12:12:52.866Z</time></trkpt><trkpt lat="44.061597851100224" lon="10.856447033096979"><ele>1119.3333333333335</ele><time>2026-04-25T12:12:54.866Z</time></trkpt><trkpt lat="44.06161182410568" lon="10.856346999581122"><ele>1121.6666666666667</ele><time>2026-04-25T12:12:56.866Z</time></trkpt><trkpt lat="44.06165118443977" lon="10.85627581126035"><ele>1124.0</ele><time>2026-04-25T12:12:58.866Z</time></trkpt><trkpt lat="44.06173474122422" lon="10.85622311408148"><ele>1124.0000000000002</ele><time>2026-04-25T12:13:01.866Z</time></trkpt><trkpt lat="44.06180005689762" lon="10.856198315248728"><ele>1124.0</ele><time>2026-04-25T12:13:03.866Z</time></trkpt><trkpt lat="44.06187786824915" lon="10.856171352805841"><ele>1124.0</ele><time>2026-04-25T12:13:05.866Z</time></trkpt><trkpt lat="44.0619255490398" lon="10.856112069672074"><ele>1124.0</ele><time>2026-04-25T12:13:07.866Z</time></trkpt><trkpt lat="44.061974925850215" lon="10.856052491404274"><ele>1124.0</ele><time>2026-04-25T12:13:10.866Z</time></trkpt><trkpt lat="44.062025858281" lon="10.855978485563712"><ele>1124.0000000000002</ele><time>2026-04-25T12:13:13.866Z</time></trkpt><trkpt lat="44.062081555243275" lon="10.855885587088046"><ele>1124.0</ele><time>2026-04-25T12:13:16.866Z</time></trkpt><trkpt lat="44.0621210512088" lon="10.855793891522131"><ele>1122.3333333333335</ele><time>2026-04-25T12:13:18.866Z</time></trkpt><trkpt lat="44.06221495003188" lon="10.8557189426589"><ele>1120.6666666666667</ele><time>2026-04-25T12:13:21.866Z</time></trkpt><trkpt lat="44.062272667562816" lon="10.85561127652678"><ele>1119.0</ele><time>2026-04-25T12:13:23.866Z</time></trkpt><trkpt lat="44.06233927015175" lon="10.85556738593522"><ele>1117.3333333333333</ele><time>2026-04-25T12:13:25.866Z</time></trkpt><trkpt lat="44.06240045942023" lon="10.855528785789474"><ele>1115.6666666666665</ele><time>2026-04-25T12:13:27.866Z</time></trkpt><trkpt lat="44.06246806584523" lon="10.855443918577908"><ele>1114.0</ele><time>2026-04-25T12:13:31.866Z</time></trkpt><trkpt lat="44.06250288415961" lon="10.855360839372583"><ele>1115.0</ele><time>2026-04-25T12:13:33.866Z</time></trkpt><trkpt lat="44.06255818409586" lon="10.855263260542113"><ele>1116.0</ele><time>2026-04-25T12:13:35.866Z</time></trkpt><trkpt lat="44.0626045515385" lon="10.85518909098269"><ele>1117.0</ele><time>2026-04-25T12:13:37.866Z</time></trkpt><trkpt lat="44.06265187681517" lon="10.855100357000826"><ele>1118.0</ele><time>2026-04-25T12:13:39.866Z</time></trkpt><trkpt lat="44.062705134969875" lon="10.85502152888974"><ele>1119.0</ele><time>2026-04-25T12:13:41.866Z</time></trkpt><trkpt lat="44.062737219815396" lon="10.854936782065304"><ele>1120.0</ele><time>2026-04-25T12:13:43.866Z</time></trkpt><trkpt lat="44.06279542873296" lon="10.854878797691725"><ele>1120.0</ele><time>2026-04-25T12:13:45.866Z</time></trkpt><trkpt lat="44.06285494211884" lon="10.85482029071763"><ele>1120.0</ele><time>2026-04-25T12:13:47.866Z</time></trkpt><trkpt lat="44.06292008257049" lon="10.854785501316"><ele>1120.0</ele><time>2026-04-25T12:13:49.866Z</time></trkpt><trkpt lat="44.06298986983756" lon="10.854795982064992"><ele>1120.0</ele><time>2026-04-25T12:13:51.866Z</time></trkpt><trkpt lat="44.06306531593733" lon="10.854799425431908"><ele>1120.0</ele><time>2026-04-25T12:13:53.866Z</time></trkpt><trkpt lat="44.06313980740351" lon="10.854863368204818"><ele>1120.0</ele><time>2026-04-25T12:13:57.866Z</time></trkpt><trkpt lat="44.06321375101623" lon="10.854919999710722"><ele>1120.8333333333333</ele><time>2026-04-25T12:14:00.866Z</time></trkpt><trkpt lat="44.06328164243488" lon="10.854985338546866"><ele>1121.6666666666665</ele><time>2026-04-25T12:14:03.866Z</time></trkpt><trkpt lat="44.06335691670352" lon="10.855045021814531"><ele>1122.5</ele><time>2026-04-25T12:14:06.866Z</time></trkpt><trkpt lat="44.06342054820666" lon="10.855049153685119"><ele>1123.3333333333333</ele><time>2026-04-25T12:14:08.866Z</time></trkpt><trkpt lat="44.06350426526834" lon="10.855104234843818"><ele>1124.1666666666667</ele><time>2026-04-25T12:14:12.866Z</time></trkpt><trkpt lat="44.06357540053026" lon="10.855132285380673"><ele>1125.0</ele><time>2026-04-25T12:14:14.866Z</time></trkpt><trkpt lat="44.06363423462596" lon="10.855172128923128"><ele>1130.6666666666667</ele><time>2026-04-25T12:14:16.866Z</time></trkpt><trkpt lat="44.06371385974252" lon="10.855201997245853"><ele>1136.3333333333333</ele><time>2026-04-25T12:14:18.866Z</time></trkpt><trkpt lat="44.06377968372367" lon="10.85522085218439"><ele>1142.0</ele><time>2026-04-25T12:14:20.866Z</time></trkpt><trkpt lat="44.06384845273034" lon="10.855265544932887"><ele>1147.6666666666665</ele><time>2026-04-25T12:14:22.865Z</time></trkpt><trkpt lat="44.06391767025594" lon="10.855347931764301"><ele>1153.3333333333333</ele><time>2026-04-25T12:14:25.865Z</time></trkpt><trkpt lat="44.063957724904746" lon="10.855423447998147"><ele>1159.0</ele><time>2026-04-25T12:14:27.865Z</time></trkpt><trkpt lat="44.06402089744581" lon="10.855516150035013"><ele>1159.0</ele><time>2026-04-25T12:14:30.864Z</time></trkpt><trkpt lat="44.064086043427444" lon="10.855616965502737"><ele>1159.0</ele><time>2026-04-25T12:14:33.865Z</time></trkpt><trkpt lat="44.064107229083575" lon="10.855702673286089"><ele>1159.0</ele><time>2026-04-25T12:14:35.865Z</time></trkpt><trkpt lat="44.06412084711514" lon="10.855812951662527"><ele>1159.0</ele><time>2026-04-25T12:14:38.865Z</time></trkpt><trkpt lat="44.0641637151649" lon="10.855886009238409"><ele>1159.0</ele><time>2026-04-25T12:14:40.865Z</time></trkpt><trkpt lat="44.064200611174506" lon="10.855983200830565"><ele>1159.0</ele><time>2026-04-25T12:14:43.865Z</time></trkpt><trkpt lat="44.06425064790346" lon="10.856061757951787"><ele>1160.857142857143</ele><time>2026-04-25T12:14:46.865Z</time></trkpt><trkpt lat="44.064289788659885" lon="10.856139247943693"><ele>1162.7142857142858</ele><time>2026-04-25T12:14:50.865Z</time></trkpt><trkpt lat="44.06433471391378" lon="10.85621663672502"><ele>1164.5714285714284</ele><time>2026-04-25T12:14:53.865Z</time></trkpt><trkpt lat="44.064386033492156" lon="10.856277014970956"><ele>1166.4285714285716</ele><time>2026-04-25T12:14:56.865Z</time></trkpt><trkpt lat="44.064450924099425" lon="10.856313868894826"><ele>1168.2857142857142</ele><time>2026-04-25T12:14:59.865Z</time></trkpt><trkpt lat="44.06451189696224" lon="10.856359774325409"><ele>1170.142857142857</ele><time>2026-04-25T12:15:01.865Z</time></trkpt><trkpt lat="44.06457615126487" lon="10.8563648715924"><ele>1172.0</ele><time>2026-04-25T12:15:03.865Z</time></trkpt><trkpt lat="44.06464173055151" lon="10.856342253451146"><ele>1172.0</ele><time>2026-04-25T12:15:06.865Z</time></trkpt><trkpt lat="44.06470753665534" lon="10.856334279312684"><ele>1172.0</ele><time>2026-04-25T12:15:10.865Z</time></trkpt><trkpt lat="44.06481737784355" lon="10.856307923752183"><ele>1172.0</ele><time>2026-04-25T12:15:12.865Z</time></trkpt><trkpt lat="44.06490792706737" lon="10.856265146999855"><ele>1172.0</ele><time>2026-04-25T12:15:14.865Z</time></trkpt><trkpt lat="44.064989113916546" lon="10.85622975174649"><ele>1172.0</ele><time>2026-04-25T12:15:16.865Z</time></trkpt><trkpt lat="44.065045393898025" lon="10.856183682024035"><ele>1172.0</ele><time>2026-04-25T12:15:18.865Z</time></trkpt><trkpt lat="44.06507950456286" lon="10.8561027105786"><ele>1168.2</ele><time>2026-04-25T12:15:21.865Z</time></trkpt><trkpt lat="44.06509965204996" lon="10.855991330126246"><ele>1164.4</ele><time>2026-04-25T12:15:24.865Z</time></trkpt><trkpt lat="44.06513780758926" lon="10.855897658656112"><ele>1160.6</ele><time>2026-04-25T12:15:27.865Z</time></trkpt><trkpt lat="44.06520401512505" lon="10.855796109261933"><ele>1156.8</ele><time>2026-04-25T12:15:30.865Z</time></trkpt><trkpt lat="44.06527784976237" lon="10.855715451429596"><ele>1153.0</ele><time>2026-04-25T12:15:33.865Z</time></trkpt><trkpt lat="44.06534530340418" lon="10.855614117281558"><ele>1149.5</ele><time>2026-04-25T12:15:35.865Z</time></trkpt><trkpt lat="44.06531957458863" lon="10.855502291729188"><ele>1146.0</ele><time>2026-04-25T12:15:39.865Z</time></trkpt><trkpt lat="44.065305184623625" lon="10.855400044603435"><ele>1142.5</ele><time>2026-04-25T12:15:41.865Z</time></trkpt><trkpt lat="44.06529272662405" lon="10.85530898351222"><ele>1139.0</ele><time>2026-04-25T12:15:42.865Z</time></trkpt><trkpt lat="44.06530502416974" lon="10.85519481840861"><ele>1135.5</ele><time>2026-04-25T12:15:44.865Z</time></trkpt><trkpt lat="44.065353168484094" lon="10.855066559614047"><ele>1132.0</ele><time>2026-04-25T12:15:47.865Z</time></trkpt><trkpt lat="44.065390157947604" lon="10.8549253629907"><ele>1128.4</ele><time>2026-04-25T12:15:49.865Z</time></trkpt><trkpt lat="44.06543440161152" lon="10.854790376407239"><ele>1124.8000000000002</ele><time>2026-04-25T12:15:51.865Z</time></trkpt><trkpt lat="44.0654827439044" lon="10.854676235377045"><ele>1121.2</ele><time>2026-04-25T12:15:53.865Z</time></trkpt><trkpt lat="44.06553659054771" lon="10.854533022826887"><ele>1117.6000000000001</ele><time>2026-04-25T12:15:55.865Z</time></trkpt><trkpt lat="44.06556491425791" lon="10.854438651685598"><ele>1114.0</ele><time>2026-04-25T12:15:57.865Z</time></trkpt><trkpt lat="44.06561564617666" lon="10.854314945391799"><ele>1110.6666666666665</ele><time>2026-04-25T12:15:59.865Z</time></trkpt><trkpt lat="44.0656954954174" lon="10.85419964389794"><ele>1107.3333333333333</ele><time>2026-04-25T12:16:01.865Z</time></trkpt><trkpt lat="44.06578000872661" lon="10.854124417472361"><ele>1104.0</ele><time>2026-04-25T12:16:03.865Z</time></trkpt><trkpt lat="44.065841459540984" lon="10.85407306385251"><ele>1100.6666666666667</ele><time>2026-04-25T12:16:05.865Z</time></trkpt><trkpt lat="44.065878553431034" lon="10.853965674108927"><ele>1097.3333333333335</ele><time>2026-04-25T12:16:08.865Z</time></trkpt><trkpt lat="44.06591940834178" lon="10.853879589865418"><ele>1094.0</ele><time>2026-04-25T12:16:10.865Z</time></trkpt><trkpt lat="44.065949376324134" lon="10.853800323615134"><ele>1098.1666666666667</ele><time>2026-04-25T12:16:12.865Z</time></trkpt><trkpt lat="44.06599339194246" lon="10.853705415154035"><ele>1102.3333333333335</ele><time>2026-04-25T12:16:15.865Z</time></trkpt><trkpt lat="44.066053622706676" lon="10.853611515619459"><ele>1106.5</ele><time>2026-04-25T12:16:18.865Z</time></trkpt><trkpt lat="44.0661040666075" lon="10.85351806853485"><ele>1110.6666666666667</ele><time>2026-04-25T12:16:21.865Z</time></trkpt><trkpt lat="44.06614572725351" lon="10.853417447921059"><ele>1114.8333333333333</ele><time>2026-04-25T12:16:23.865Z</time></trkpt><trkpt lat="44.06617011976194" lon="10.853331598890861"><ele>1119.0</ele><time>2026-04-25T12:16:25.865Z</time></trkpt><trkpt lat="44.06620862817736" lon="10.853225153332083"><ele>1119.0</ele><time>2026-04-25T12:16:28.863Z</time></trkpt><trkpt lat="44.0662450568131" lon="10.853141552248138"><ele>1119.0</ele><time>2026-04-25T12:16:30.863Z</time></trkpt><trkpt lat="44.06627736028353" lon="10.853041965055418"><ele>1119.0</ele><time>2026-04-25T12:16:32.863Z</time></trkpt><trkpt lat="44.06631609742832" lon="10.85296675411821"><ele>1119.0</ele><time>2026-04-25T12:16:34.863Z</time></trkpt><trkpt lat="44.06636606692991" lon="10.852885608418074"><ele>1119.0</ele><time>2026-04-25T12:16:36.863Z</time></trkpt><trkpt lat="44.06641069619094" lon="10.85278776555778"><ele>1119.0</ele><time>2026-04-25T12:16:39.864Z</time></trkpt><trkpt lat="44.06647050689964" lon="10.852713117533453"><ele>1119.0</ele><time>2026-04-25T12:16:41.863Z</time></trkpt><trkpt lat="44.06653454192245" lon="10.852656611579562"><ele>1119.0</ele><time>2026-04-25T12:16:43.863Z</time></trkpt><trkpt lat="44.06661253572269" lon="10.85259277717847"><ele>1119.0</ele><time>2026-04-25T12:16:46.863Z</time></trkpt><trkpt lat="44.06668063085293" lon="10.85252762460729"><ele>1119.0</ele><time>2026-04-25T12:16:49.863Z</time></trkpt><trkpt lat="44.06673251989697" lon="10.852472458527776"><ele>1119.0</ele><time>2026-04-25T12:16:51.863Z</time></trkpt><trkpt lat="44.066794417526246" lon="10.852387998631762"><ele>1119.0</ele><time>2026-04-25T12:16:54.863Z</time></trkpt><trkpt lat="44.06685399747551" lon="10.852338323891912"><ele>1122.8333333333333</ele><time>2026-04-25T12:16:57.863Z</time></trkpt><trkpt lat="44.066905311173" lon="10.852260874107227"><ele>1126.6666666666667</ele><time>2026-04-25T12:17:01.863Z</time></trkpt><trkpt lat="44.066958499468974" lon="10.85217283391366"><ele>1130.5</ele><time>2026-04-25T12:17:04.863Z</time></trkpt><trkpt lat="44.06701853957139" lon="10.852092436156042"><ele>1134.3333333333335</ele><time>2026-04-25T12:17:07.863Z</time></trkpt><trkpt lat="44.06705471529807" lon="10.852009273372996"><ele>1138.1666666666667</ele><time>2026-04-25T12:17:09.863Z</time></trkpt><trkpt lat="44.067120231306326" lon="10.851966447891526"><ele>1142.0</ele><time>2026-04-25T12:17:12.863Z</time></trkpt><trkpt lat="44.0671680251797" lon="10.851903738140852"><ele>1142.0</ele><time>2026-04-25T12:17:14.863Z</time></trkpt><trkpt lat="44.06722003087911" lon="10.851843642782475"><ele>1142.0</ele><time>2026-04-25T12:17:16.863Z</time></trkpt><trkpt lat="44.067279222400565" lon="10.851783434992702"><ele>1142.0</ele><time>2026-04-25T12:17:18.863Z</time></trkpt><trkpt lat="44.067337307032034" lon="10.851747830625797"><ele>1142.0</ele><time>2026-04-25T12:17:20.863Z</time></trkpt><trkpt lat="44.06739215783549" lon="10.851675615941494"><ele>1142.0</ele><time>2026-04-25T12:17:22.863Z</time></trkpt><trkpt lat="44.06746038363059" lon="10.851627489165319"><ele>1142.0</ele><time>2026-04-25T12:17:25.863Z</time></trkpt><trkpt lat="44.06750420282942" lon="10.851560339847987"><ele>1142.0</ele><time>2026-04-25T12:17:27.863Z</time></trkpt><trkpt lat="44.067566799717085" lon="10.851511008183303"><ele>1144.0</ele><time>2026-04-25T12:17:29.863Z</time></trkpt><trkpt lat="44.06761777944937" lon="10.851443209571482"><ele>1146.0</ele><time>2026-04-25T12:17:31.863Z</time></trkpt><trkpt lat="44.06768810090514" lon="10.85139096369652"><ele>1148.0</ele><time>2026-04-25T12:17:34.863Z</time></trkpt><trkpt lat="44.06777776560319" lon="10.851324470447048"><ele>1150.0</ele><time>2026-04-25T12:17:37.863Z</time></trkpt><trkpt lat="44.06785912542156" lon="10.851294631468303"><ele>1152.0</ele><time>2026-04-25T12:17:40.863Z</time></trkpt><trkpt lat="44.067942353143245" lon="10.851232910918055"><ele>1154.0</ele><time>2026-04-25T12:17:43.863Z</time></trkpt><trkpt lat="44.06802422960464" lon="10.85116608595486"><ele>1154.0</ele><time>2026-04-25T12:17:46.863Z</time></trkpt><trkpt lat="44.06811015723406" lon="10.851106750939067"><ele>1154.0</ele><time>2026-04-25T12:17:49.863Z</time></trkpt><trkpt lat="44.06817438041815" lon="10.851017394290247"><ele>1154.0</ele><time>2026-04-25T12:17:52.863Z</time></trkpt><trkpt lat="44.06824542465743" lon="10.850967048416303"><ele>1154.0</ele><time>2026-04-25T12:17:54.863Z</time></trkpt><trkpt lat="44.06829782269968" lon="10.850912729913356"><ele>1154.0</ele><time>2026-04-25T12:17:56.863Z</time></trkpt><trkpt lat="44.06835799900011" lon="10.85085699423584"><ele>1154.0</ele><time>2026-04-25T12:17:58.863Z</time></trkpt><trkpt lat="44.068430225108685" lon="10.850799177030705"><ele>1154.0</ele><time>2026-04-25T12:18:01.863Z</time></trkpt><trkpt lat="44.06849475612938" lon="10.85077696319843"><ele>1154.0</ele><time>2026-04-25T12:18:03.863Z</time></trkpt><trkpt lat="44.06857445339105" lon="10.850779012331635"><ele>1154.0</ele><time>2026-04-25T12:18:06.863Z</time></trkpt><trkpt lat="44.06864946435471" lon="10.850764271957054"><ele>1154.0</ele><time>2026-04-25T12:18:09.863Z</time></trkpt><trkpt lat="44.06871320883202" lon="10.850749785348855"><ele>1154.0</ele><time>2026-04-25T12:18:11.863Z</time></trkpt><trkpt lat="44.068785581904876" lon="10.850742055165105"><ele>1154.0</ele><time>2026-04-25T12:18:13.863Z</time></trkpt><trkpt lat="44.06886729901069" lon="10.85075331856345"><ele>1154.0</ele><time>2026-04-25T12:18:15.863Z</time></trkpt><trkpt lat="44.06895547439743" lon="10.850788145341904"><ele>1154.0</ele><time>2026-04-25T12:18:18.863Z</time></trkpt><trkpt lat="44.06902465021392" lon="10.850822564223696"><ele>1154.0</ele><time>2026-04-25T12:18:21.863Z</time></trkpt><trkpt lat="44.06909697537107" lon="10.850834216980447"><ele>1154.0</ele><time>2026-04-25T12:18:24.863Z</time></trkpt><trkpt lat="44.06916786898602" lon="10.850869534939994"><ele>1154.0</ele><time>2026-04-25T12:18:28.863Z</time></trkpt><trkpt lat="44.06924605410602" lon="10.850911866976926"><ele>1154.0</ele><time>2026-04-25T12:18:31.863Z</time></trkpt><trkpt lat="44.06930905485858" lon="10.850940585669171"><ele>1154.0</ele><time>2026-04-25T12:18:33.863Z</time></trkpt><trkpt lat="44.06939404296225" lon="10.850956914672798"><ele>1156.1666666666667</ele><time>2026-04-25T12:18:35.862Z</time></trkpt><trkpt lat="44.06948985658253" lon="10.851003910638896"><ele>1158.3333333333335</ele><time>2026-04-25T12:18:38.862Z</time></trkpt><trkpt lat="44.06956481349007" lon="10.851021575762498"><ele>1160.5</ele><time>2026-04-25T12:18:41.861Z</time></trkpt><trkpt lat="44.06962821796551" lon="10.85102612849357"><ele>1162.6666666666667</ele><time>2026-04-25T12:18:45.861Z</time></trkpt><trkpt lat="44.06969621733708" lon="10.850990518221222"><ele>1164.8333333333333</ele><time>2026-04-25T12:18:48.862Z</time></trkpt><trkpt lat="44.06977932176311" lon="10.850944529101671"><ele>1167.0</ele><time>2026-04-25T12:18:51.862Z</time></trkpt><trkpt lat="44.06985030542352" lon="10.850875344152627"><ele>1167.0</ele><time>2026-04-25T12:18:54.862Z</time></trkpt><trkpt lat="44.069937055208726" lon="10.850843543597858"><ele>1167.0</ele><time>2026-04-25T12:18:57.862Z</time></trkpt><trkpt lat="44.07002860453403" lon="10.850807318214834"><ele>1167.0</ele><time>2026-04-25T12:19:01.862Z</time></trkpt><trkpt lat="44.07011306847122" lon="10.850787455262134"><ele>1167.0</ele><time>2026-04-25T12:19:04.862Z</time></trkpt><trkpt lat="44.07019525176464" lon="10.850739682592675"><ele>1167.0</ele><time>2026-04-25T12:19:07.862Z</time></trkpt><trkpt lat="44.07026764732195" lon="10.850709518084644"><ele>1167.0</ele><time>2026-04-25T12:19:10.862Z</time></trkpt><trkpt lat="44.07033541016346" lon="10.850675398968054"><ele>1168.2857142857142</ele><time>2026-04-25T12:19:13.862Z</time></trkpt><trkpt lat="44.070400498191226" lon="10.850642104099608"><ele>1169.5714285714287</ele><time>2026-04-25T12:19:15.862Z</time></trkpt><trkpt lat="44.07047476748368" lon="10.85062473565143"><ele>1170.857142857143</ele><time>2026-04-25T12:19:18.862Z</time></trkpt><trkpt lat="44.07054671718496" lon="10.85060318059895"><ele>1172.142857142857</ele><time>2026-04-25T12:19:22.862Z</time></trkpt><trkpt lat="44.07061206944119" lon="10.850615810181845"><ele>1173.4285714285716</ele><time>2026-04-25T12:19:25.862Z</time></trkpt><trkpt lat="44.07067579963685" lon="10.850624505048142"><ele>1174.7142857142858</ele><time>2026-04-25T12:19:28.862Z</time></trkpt><trkpt lat="44.07073729569694" lon="10.850653300799992"><ele>1176.0</ele><time>2026-04-25T12:19:31.862Z</time></trkpt><trkpt lat="44.07080590349903" lon="10.850672836325794"><ele>1177.7142857142858</ele><time>2026-04-25T12:19:34.862Z</time></trkpt><trkpt lat="44.070871531448425" lon="10.850709989739151"><ele>1179.4285714285716</ele><time>2026-04-25T12:19:37.862Z</time></trkpt><trkpt lat="44.070932005166085" lon="10.850755722279585"><ele>1181.142857142857</ele><time>2026-04-25T12:19:40.862Z</time></trkpt><trkpt lat="44.07101454644892" lon="10.850804491926166"><ele>1182.857142857143</ele><time>2026-04-25T12:19:43.862Z</time></trkpt><trkpt lat="44.07107867887642" lon="10.850840710351044"><ele>1184.5714285714287</ele><time>2026-04-25T12:19:45.862Z</time></trkpt><trkpt lat="44.07114248220481" lon="10.850881578390139"><ele>1186.2857142857142</ele><time>2026-04-25T12:19:48.862Z</time></trkpt><trkpt lat="44.071202771925236" lon="10.8509152037053"><ele>1188.0</ele><time>2026-04-25T12:19:51.862Z</time></trkpt><trkpt lat="44.07127090722827" lon="10.850977365653083"><ele>1188.3333333333333</ele><time>2026-04-25T12:19:54.862Z</time></trkpt><trkpt lat="44.07133663434993" lon="10.851020534049741"><ele>1188.6666666666667</ele><time>2026-04-25T12:19:57.862Z</time></trkpt><trkpt lat="44.07140203013097" lon="10.851047241968011"><ele>1189.0</ele><time>2026-04-25T12:19:59.862Z</time></trkpt><trkpt lat="44.07146784196714" lon="10.851094428658534"><ele>1189.3333333333335</ele><time>2026-04-25T12:20:02.862Z</time></trkpt><trkpt lat="44.07154961885355" lon="10.851146059383575"><ele>1189.6666666666667</ele><time>2026-04-25T12:20:06.862Z</time></trkpt><trkpt lat="44.0716261110555" lon="10.851200903452813"><ele>1190.0</ele><time>2026-04-25T12:20:09.862Z</time></trkpt><trkpt lat="44.071696715774934" lon="10.851274522432663"><ele>1190.0</ele><time>2026-04-25T12:20:13.862Z</time></trkpt><trkpt lat="44.071765377935556" lon="10.851328341594375"><ele>1190.0</ele><time>2026-04-25T12:20:16.862Z</time></trkpt><trkpt lat="44.07182644803298" lon="10.851400657990679"><ele>1190.0</ele><time>2026-04-25T12:20:19.862Z</time></trkpt><trkpt lat="44.07185976289073" lon="10.851483886058778"><ele>1190.0</ele><time>2026-04-25T12:20:23.862Z</time></trkpt><trkpt lat="44.071906994888664" lon="10.851548961509483"><ele>1190.0</ele><time>2026-04-25T12:20:26.862Z</time></trkpt><trkpt lat="44.07198330393124" lon="10.851612490767348"><ele>1190.0</ele><time>2026-04-25T12:20:30.862Z</time></trkpt><trkpt lat="44.07204258425256" lon="10.851671902250146"><ele>1190.0</ele><time>2026-04-25T12:20:33.862Z</time></trkpt><trkpt lat="44.07208507897817" lon="10.851737659202486"><ele>1190.0</ele><time>2026-04-25T12:20:36.862Z</time></trkpt><trkpt lat="44.07214410025264" lon="10.851799840286445"><ele>1190.0</ele><time>2026-04-25T12:20:39.862Z</time></trkpt><trkpt lat="44.07219259589294" lon="10.851877430808598"><ele>1190.0</ele><time>2026-04-25T12:20:42.861Z</time></trkpt><trkpt lat="44.072223671279765" lon="10.851955322350493"><ele>1190.0</ele><time>2026-04-25T12:20:44.861Z</time></trkpt><trkpt lat="44.07225489047312" lon="10.852036070087324"><ele>1190.0</ele><time>2026-04-25T12:20:46.861Z</time></trkpt><trkpt lat="44.072281597278625" lon="10.852156256514665"><ele>1190.0</ele><time>2026-04-25T12:20:49.861Z</time></trkpt><trkpt lat="44.072312535081025" lon="10.852266200215281"><ele>1191.1666666666667</ele><time>2026-04-25T12:20:52.861Z</time></trkpt><trkpt lat="44.07231980434434" lon="10.852384952779005"><ele>1192.3333333333335</ele><time>2026-04-25T12:20:55.86Z</time></trkpt><trkpt lat="44.072303145931286" lon="10.85247358490986"><ele>1193.5</ele><time>2026-04-25T12:20:58.86Z</time></trkpt><trkpt lat="44.07226131942984" lon="10.852569429238686"><ele>1194.6666666666667</ele><time>2026-04-25T12:21:01.86Z</time></trkpt><trkpt lat="44.07222959797399" lon="10.852651253467046"><ele>1195.8333333333333</ele><time>2026-04-25T12:21:04.86Z</time></trkpt><trkpt lat="44.07220226526898" lon="10.852740667593094"><ele>1197.0</ele><time>2026-04-25T12:21:07.86Z</time></trkpt><trkpt lat="44.07216744969513" lon="10.852857126175843"><ele>1199.8333333333333</ele><time>2026-04-25T12:21:11.86Z</time></trkpt><trkpt lat="44.072117808025354" lon="10.852948557232509"><ele>1202.6666666666667</ele><time>2026-04-25T12:21:14.86Z</time></trkpt><trkpt lat="44.072100286036004" lon="10.853061751809797"><ele>1205.5</ele><time>2026-04-25T12:21:17.861Z</time></trkpt><trkpt lat="44.07206927681956" lon="10.853175396248309"><ele>1208.3333333333335</ele><time>2026-04-25T12:21:21.861Z</time></trkpt><trkpt lat="44.07202904353696" lon="10.853269132349133"><ele>1211.1666666666667</ele><time>2026-04-25T12:21:24.861Z</time></trkpt><trkpt lat="44.07198938243987" lon="10.853362098530878"><ele>1214.0</ele><time>2026-04-25T12:21:27.861Z</time></trkpt><trkpt lat="44.07195708826294" lon="10.853438774803305"><ele>1215.8333333333335</ele><time>2026-04-25T12:21:30.861Z</time></trkpt><trkpt lat="44.07191699731484" lon="10.853536619961504"><ele>1217.6666666666667</ele><time>2026-04-25T12:21:33.861Z</time></trkpt><trkpt lat="44.07188202903558" lon="10.853642355217351"><ele>1219.5</ele><time>2026-04-25T12:21:36.861Z</time></trkpt><trkpt lat="44.07185186712496" lon="10.853742939558794"><ele>1221.3333333333333</ele><time>2026-04-25T12:21:39.861Z</time></trkpt><trkpt lat="44.071805574935986" lon="10.853840082349238"><ele>1223.1666666666665</ele><time>2026-04-25T12:21:42.861Z</time></trkpt><trkpt lat="44.071737830226745" lon="10.853868267535583"><ele>1225.0</ele><time>2026-04-25T12:21:45.861Z</time></trkpt><trkpt lat="44.071673077029125" lon="10.853859266103951"><ele>1225.0</ele><time>2026-04-25T12:21:48.861Z</time></trkpt><trkpt lat="44.07160864309446" lon="10.853836735381849"><ele>1225.0</ele><time>2026-04-25T12:21:51.861Z</time></trkpt><trkpt lat="44.07154257783177" lon="10.853786432080073"><ele>1225.0</ele><time>2026-04-25T12:21:54.861Z</time></trkpt><trkpt lat="44.071485224995754" lon="10.853733465447794"><ele>1225.0</ele><time>2026-04-25T12:21:57.861Z</time></trkpt><trkpt lat="44.07143981895961" lon="10.853663631929997"><ele>1225.0</ele><time>2026-04-25T12:22:00.861Z</time></trkpt><trkpt lat="44.07138722662727" lon="10.853592789403436"><ele>1225.0</ele><time>2026-04-25T12:22:03.861Z</time></trkpt><trkpt lat="44.07133817022924" lon="10.853504125109806"><ele>1225.0</ele><time>2026-04-25T12:22:07.861Z</time></trkpt><trkpt lat="44.071280989021815" lon="10.853431176566254"><ele>1224.7142857142858</ele><time>2026-04-25T12:22:10.861Z</time></trkpt><trkpt lat="44.07121560670777" lon="10.853368965678248"><ele>1224.4285714285716</ele><time>2026-04-25T12:22:13.861Z</time></trkpt><trkpt lat="44.0711573030487" lon="10.853315803643415"><ele>1224.142857142857</ele><time>2026-04-25T12:22:16.861Z</time></trkpt><trkpt lat="44.0711001619055" lon="10.85325166131405"><ele>1223.857142857143</ele><time>2026-04-25T12:22:19.861Z</time></trkpt><trkpt lat="44.07104666828005" lon="10.853185404532422"><ele>1223.5714285714287</ele><time>2026-04-25T12:22:23.861Z</time></trkpt><trkpt lat="44.07099298061859" lon="10.853123748647343"><ele>1223.2857142857142</ele><time>2026-04-25T12:22:26.861Z</time></trkpt><trkpt lat="44.07093553529305" lon="10.853079054992259"><ele>1223.0</ele><time>2026-04-25T12:22:29.861Z</time></trkpt><trkpt lat="44.070865667484114" lon="10.853059675404113"><ele>1223.0</ele><time>2026-04-25T12:22:33.861Z</time></trkpt><trkpt lat="44.07077635418133" lon="10.853060314152472"><ele>1223.0</ele><time>2026-04-25T12:22:37.861Z</time></trkpt><trkpt lat="44.070685001702905" lon="10.853070478805918"><ele>1223.0</ele><time>2026-04-25T12:22:40.861Z</time></trkpt><trkpt lat="44.07060808903848" lon="10.853089299635839"><ele>1223.0</ele><time>2026-04-25T12:22:42.861Z</time></trkpt><trkpt lat="44.07056089535687" lon="10.853147470804329"><ele>1223.0</ele><time>2026-04-25T12:22:45.861Z</time></trkpt><trkpt lat="44.07051108738671" lon="10.85320609227184"><ele>1223.0</ele><time>2026-04-25T12:22:48.86Z</time></trkpt><trkpt lat="44.07048135126198" lon="10.853294949891835"><ele>1223.3333333333335</ele><time>2026-04-25T12:22:54.859Z</time></trkpt><trkpt lat="44.0704496535643" lon="10.853398154718034"><ele>1223.6666666666667</ele><time>2026-04-25T12:22:57.859Z</time></trkpt><trkpt lat="44.07038334247928" lon="10.853471665595734"><ele>1224.0</ele><time>2026-04-25T12:22:59.859Z</time></trkpt><trkpt lat="44.07034079486098" lon="10.853554875248065"><ele>1224.3333333333333</ele><time>2026-04-25T12:23:02.859Z</time></trkpt><trkpt lat="44.070334544752086" lon="10.853644258852672"><ele>1224.6666666666665</ele><time>2026-04-25T12:23:05.859Z</time></trkpt><trkpt lat="44.07029389035287" lon="10.85373208154071"><ele>1225.0</ele><time>2026-04-25T12:23:09.859Z</time></trkpt><trkpt lat="44.07024070149137" lon="10.853806133187847"><ele>1226.2857142857142</ele><time>2026-04-25T12:23:12.859Z</time></trkpt><trkpt lat="44.07017549871785" lon="10.853834945641525"><ele>1227.5714285714284</ele><time>2026-04-25T12:23:15.859Z</time></trkpt><trkpt lat="44.07010855245591" lon="10.853845331862209"><ele>1228.857142857143</ele><time>2026-04-25T12:23:18.859Z</time></trkpt><trkpt lat="44.07003885025658" lon="10.853810450000934"><ele>1230.142857142857</ele><time>2026-04-25T12:23:22.859Z</time></trkpt><trkpt lat="44.06997503468974" lon="10.85376425834526"><ele>1231.4285714285713</ele><time>2026-04-25T12:23:25.859Z</time></trkpt><trkpt lat="44.06992311101151" lon="10.853712944080867"><ele>1232.7142857142858</ele><time>2026-04-25T12:23:29.859Z</time></trkpt><trkpt lat="44.06987171040162" lon="10.853661718852516"><ele>1234.0</ele><time>2026-04-25T12:23:31.859Z</time></trkpt><trkpt lat="44.06978326572429" lon="10.853605308236071"><ele>1234.3333333333333</ele><time>2026-04-25T12:23:34.859Z</time></trkpt><trkpt lat="44.06969644476917" lon="10.853554872779915"><ele>1234.6666666666665</ele><time>2026-04-25T12:23:37.859Z</time></trkpt><trkpt lat="44.06963427807329" lon="10.853520059635592"><ele>1235.0</ele><time>2026-04-25T12:23:39.859Z</time></trkpt><trkpt lat="44.06955344086352" lon="10.853498455428456"><ele>1235.3333333333333</ele><time>2026-04-25T12:23:42.859Z</time></trkpt><trkpt lat="44.06946938369595" lon="10.853486123719392"><ele>1235.6666666666667</ele><time>2026-04-25T12:23:45.859Z</time></trkpt><trkpt lat="44.06939126964387" lon="10.853479981830802"><ele>1236.0</ele><time>2026-04-25T12:23:48.859Z</time></trkpt><trkpt lat="44.06931292707393" lon="10.853490933458183"><ele>1236.0</ele><time>2026-04-25T12:23:51.859Z</time></trkpt><trkpt lat="44.069229143677745" lon="10.85351808641985"><ele>1236.0</ele><time>2026-04-25T12:23:54.859Z</time></trkpt><trkpt lat="44.06917572235055" lon="10.853572185085422"><ele>1236.0</ele><time>2026-04-25T12:23:57.859Z</time></trkpt><trkpt lat="44.06909399836654" lon="10.853647143075545"><ele>1236.0</ele><time>2026-04-25T12:24:00.809Z</time></trkpt><trkpt lat="44.06904259828629" lon="10.853698417943221"><ele>1236.0</ele><time>2026-04-25T12:24:02.809Z</time></trkpt><trkpt lat="44.068976861394965" lon="10.85373569488199"><ele>1236.0</ele><time>2026-04-25T12:24:04.809Z</time></trkpt><trkpt lat="44.06891169592574" lon="10.853794312337307"><ele>1233.8333333333333</ele><time>2026-04-25T12:24:06.809Z</time></trkpt><trkpt lat="44.06882657439914" lon="10.85386119874926"><ele>1231.6666666666667</ele><time>2026-04-25T12:24:09.809Z</time></trkpt><trkpt lat="44.068774609969594" lon="10.853952044090954"><ele>1229.5</ele><time>2026-04-25T12:24:11.809Z</time></trkpt><trkpt lat="44.06872244556411" lon="10.854022640080304"><ele>1227.3333333333335</ele><time>2026-04-25T12:24:14.809Z</time></trkpt><trkpt lat="44.06868546521168" lon="10.854102378234405"><ele>1225.1666666666667</ele><time>2026-04-25T12:24:16.809Z</time></trkpt><trkpt lat="44.06864393676391" lon="10.854185432039365"><ele>1223.0</ele><time>2026-04-25T12:24:19.809Z</time></trkpt><trkpt lat="44.06860675868228" lon="10.854256424486175"><ele>1225.0</ele><time>2026-04-25T12:24:21.809Z</time></trkpt><trkpt lat="44.068590855357066" lon="10.854342823177202"><ele>1227.0</ele><time>2026-04-25T12:24:24.809Z</time></trkpt><trkpt lat="44.0685755477965" lon="10.854436334101116"><ele>1229.0</ele><time>2026-04-25T12:24:26.809Z</time></trkpt><trkpt lat="44.068552130197936" lon="10.854529838690786"><ele>1231.0</ele><time>2026-04-25T12:24:29.809Z</time></trkpt><trkpt lat="44.068517868887156" lon="10.854604102256655"><ele>1233.0</ele><time>2026-04-25T12:24:32.809Z</time></trkpt><trkpt lat="44.06846802561784" lon="10.854698498852601"><ele>1235.0</ele><time>2026-04-25T12:24:34.809Z</time></trkpt><trkpt lat="44.068417959054514" lon="10.85479244701441"><ele>1237.0</ele><time>2026-04-25T12:24:37.809Z</time></trkpt><trkpt lat="44.068380816197156" lon="10.854874771483562"><ele>1237.0</ele><time>2026-04-25T12:24:39.809Z</time></trkpt><trkpt lat="44.06834077893117" lon="10.854971892230829"><ele>1237.0</ele><time>2026-04-25T12:24:42.809Z</time></trkpt><trkpt lat="44.06829782007815" lon="10.855038210376861"><ele>1237.0</ele><time>2026-04-25T12:24:44.809Z</time></trkpt><trkpt lat="44.068241355264554" lon="10.855129278410017"><ele>1237.0</ele><time>2026-04-25T12:24:46.809Z</time></trkpt><trkpt lat="44.06819445077713" lon="10.85520414930152"><ele>1237.0</ele><time>2026-04-25T12:24:49.809Z</time></trkpt><trkpt lat="44.068154176711126" lon="10.855281142532062"><ele>1237.0</ele><time>2026-04-25T12:24:51.809Z</time></trkpt><trkpt lat="44.0681053056969" lon="10.855368078655252"><ele>1235.5714285714284</ele><time>2026-04-25T12:24:53.807Z</time></trkpt><trkpt lat="44.0680686062564" lon="10.855440626237069"><ele>1234.1428571428573</ele><time>2026-04-25T12:24:55.807Z</time></trkpt><trkpt lat="44.06801354126441" lon="10.855507580922657"><ele>1232.7142857142858</ele><time>2026-04-25T12:24:58.808Z</time></trkpt><trkpt lat="44.067980502268284" lon="10.855590073784018"><ele>1231.2857142857142</ele><time>2026-04-25T12:25:00.807Z</time></trkpt><trkpt lat="44.06791738375645" lon="10.855686397043714"><ele>1229.8571428571427</ele><time>2026-04-25T12:25:03.807Z</time></trkpt><trkpt lat="44.06786249284386" lon="10.855761808945653"><ele>1228.4285714285716</ele><time>2026-04-25T12:25:05.807Z</time></trkpt><trkpt lat="44.067819620376355" lon="10.855843327622182"><ele>1227.0</ele><time>2026-04-25T12:25:07.807Z</time></trkpt><trkpt lat="44.06777901285314" lon="10.855935861140365"><ele>1229.1666666666667</ele><time>2026-04-25T12:25:09.807Z</time></trkpt><trkpt lat="44.067748422818106" lon="10.856023505296493"><ele>1231.3333333333333</ele><time>2026-04-25T12:25:11.807Z</time></trkpt><trkpt lat="44.06770948276906" lon="10.85609979874401"><ele>1233.5</ele><time>2026-04-25T12:25:13.807Z</time></trkpt><trkpt lat="44.06766384436043" lon="10.856222552198648"><ele>1235.6666666666665</ele><time>2026-04-25T12:25:16.807Z</time></trkpt><trkpt lat="44.06765286606084" lon="10.856319370494647"><ele>1237.8333333333333</ele><time>2026-04-25T12:25:18.807Z</time></trkpt><trkpt lat="44.06762077199288" lon="10.856431408280423"><ele>1240.0</ele><time>2026-04-25T12:25:20.807Z</time></trkpt><trkpt lat="44.06757682956382" lon="10.85650774239354"><ele>1240.0</ele><time>2026-04-25T12:25:22.807Z</time></trkpt><trkpt lat="44.06755480215132" lon="10.856597889213548"><ele>1240.0</ele><time>2026-04-25T12:25:24.807Z</time></trkpt><trkpt lat="44.06752398738991" lon="10.856677651634422"><ele>1240.0</ele><time>2026-04-25T12:25:26.807Z</time></trkpt><trkpt lat="44.06748711149432" lon="10.856755822211507"><ele>1240.0</ele><time>2026-04-25T12:25:28.807Z</time></trkpt><trkpt lat="44.067431084402486" lon="10.856848191031066"><ele>1240.0</ele><time>2026-04-25T12:25:30.807Z</time></trkpt><trkpt lat="44.067385961935365" lon="10.856938986959701"><ele>1240.0</ele><time>2026-04-25T12:25:32.807Z</time></trkpt><trkpt lat="44.06732501608853" lon="10.857032408505919"><ele>1238.0</ele><time>2026-04-25T12:25:34.807Z</time></trkpt><trkpt lat="44.06729273878384" lon="10.857112183184663"><ele>1236.0</ele><time>2026-04-25T12:25:36.807Z</time></trkpt><trkpt lat="44.067225167526466" lon="10.857200187648203"><ele>1234.0</ele><time>2026-04-25T12:25:38.807Z</time></trkpt><trkpt lat="44.06716870748613" lon="10.857279464952214"><ele>1232.0</ele><time>2026-04-25T12:25:40.807Z</time></trkpt><trkpt lat="44.06710438719513" lon="10.857358082237837"><ele>1230.0</ele><time>2026-04-25T12:25:42.807Z</time></trkpt><trkpt lat="44.067033700773116" lon="10.85743315622701"><ele>1228.0</ele><time>2026-04-25T12:25:44.807Z</time></trkpt><trkpt lat="44.066970931295565" lon="10.857503588025098"><ele>1228.0</ele><time>2026-04-25T12:25:46.807Z</time></trkpt><trkpt lat="44.06692310900999" lon="10.85759920508787"><ele>1228.0</ele><time>2026-04-25T12:25:48.807Z</time></trkpt><trkpt lat="44.066857094829736" lon="10.85771362280272"><ele>1228.0</ele><time>2026-04-25T12:25:50.807Z</time></trkpt><trkpt lat="44.066781468881416" lon="10.857795360113112"><ele>1228.0</ele><time>2026-04-25T12:25:52.807Z</time></trkpt><trkpt lat="44.06675046362604" lon="10.857874065938248"><ele>1228.0</ele><time>2026-04-25T12:25:54.807Z</time></trkpt><trkpt lat="44.066689584732565" lon="10.857937470474164"><ele>1228.0</ele><time>2026-04-25T12:25:56.807Z</time></trkpt><trkpt lat="44.0666360011693" lon="10.858001389050207"><ele>1229.6666666666665</ele><time>2026-04-25T12:25:58.807Z</time></trkpt><trkpt lat="44.06660138436693" lon="10.858102384066111"><ele>1231.3333333333333</ele><time>2026-04-25T12:26:00.807Z</time></trkpt><trkpt lat="44.06655603227906" lon="10.85816758653641"><ele>1233.0</ele><time>2026-04-25T12:26:02.807Z</time></trkpt><trkpt lat="44.06651260366939" lon="10.858262299667953"><ele>1234.6666666666667</ele><time>2026-04-25T12:26:04.807Z</time></trkpt><trkpt lat="44.06644846007732" lon="10.858355204636316"><ele>1236.3333333333335</ele><time>2026-04-25T12:26:06.807Z</time></trkpt><trkpt lat="44.066365240417504" lon="10.858448662277002"><ele>1238.0</ele><time>2026-04-25T12:26:08.807Z</time></trkpt><trkpt lat="44.06632991737258" lon="10.858536947037129"><ele>1238.0</ele><time>2026-04-25T12:26:10.807Z</time></trkpt><trkpt lat="44.06627235847107" lon="10.858619847641046"><ele>1238.0</ele><time>2026-04-25T12:26:13.807Z</time></trkpt><trkpt lat="44.06624000276464" lon="10.858700517307955"><ele>1238.0</ele><time>2026-04-25T12:26:15.807Z</time></trkpt><trkpt lat="44.06618405649493" lon="10.858749679145793"><ele>1238.0</ele><time>2026-04-25T12:26:17.807Z</time></trkpt><trkpt lat="44.06613474277503" lon="10.858813851913489"><ele>1238.0</ele><time>2026-04-25T12:26:19.807Z</time></trkpt><trkpt lat="44.06607257052448" lon="10.85888608224298"><ele>1238.0</ele><time>2026-04-25T12:26:21.807Z</time></trkpt><trkpt lat="44.06601407947278" lon="10.858927205418826"><ele>1238.0</ele><time>2026-04-25T12:26:23.807Z</time></trkpt><trkpt lat="44.06595662827611" lon="10.858978136583774"><ele>1238.0</ele><time>2026-04-25T12:26:25.807Z</time></trkpt><trkpt lat="44.0659068622541" lon="10.859060175872308"><ele>1238.0</ele><time>2026-04-25T12:26:27.807Z</time></trkpt><trkpt lat="44.06587397140914" lon="10.859141342962118"><ele>1238.0</ele><time>2026-04-25T12:26:29.807Z</time></trkpt><trkpt lat="44.06580616175605" lon="10.859249252366425"><ele>1238.0</ele><time>2026-04-25T12:26:32.807Z</time></trkpt><trkpt lat="44.06574393306061" lon="10.859288259610821"><ele>1238.0</ele><time>2026-04-25T12:26:34.807Z</time></trkpt><trkpt lat="44.06568537535627" lon="10.85937471034846"><ele>1238.0</ele><time>2026-04-25T12:26:37.807Z</time></trkpt><trkpt lat="44.06563158797539" lon="10.859445174300044"><ele>1240.5714285714284</ele><time>2026-04-25T12:26:40.807Z</time></trkpt><trkpt lat="44.06557997830883" lon="10.859498514262812"><ele>1243.142857142857</ele><time>2026-04-25T12:26:44.807Z</time></trkpt><trkpt lat="44.06549366453762" lon="10.85954288892047"><ele>1245.7142857142858</ele><time>2026-04-25T12:26:46.807Z</time></trkpt><trkpt lat="44.065428756090334" lon="10.85956383357111"><ele>1248.2857142857142</ele><time>2026-04-25T12:26:48.807Z</time></trkpt><trkpt lat="44.06536181502937" lon="10.859580254136885"><ele>1250.857142857143</ele><time>2026-04-25T12:26:50.807Z</time></trkpt><trkpt lat="44.0652765441741" lon="10.85960194125414"><ele>1253.4285714285713</ele><time>2026-04-25T12:26:52.807Z</time></trkpt><trkpt lat="44.065206442320175" lon="10.859597696087523"><ele>1256.0</ele><time>2026-04-25T12:26:54.807Z</time></trkpt><trkpt lat="44.06512954609053" lon="10.859577410566063"><ele>1256.0</ele><time>2026-04-25T12:26:57.806Z</time></trkpt><trkpt lat="44.065064399751364" lon="10.859541459147268"><ele>1256.0</ele><time>2026-04-25T12:26:59.805Z</time></trkpt><trkpt lat="44.0649984763308" lon="10.859537120835613"><ele>1256.0</ele><time>2026-04-25T12:27:01.806Z</time></trkpt><trkpt lat="44.06490349905851" lon="10.859531495093265"><ele>1256.0</ele><time>2026-04-25T12:27:04.805Z</time></trkpt><trkpt lat="44.06481466398144" lon="10.85955527005079"><ele>1256.0</ele><time>2026-04-25T12:27:07.805Z</time></trkpt><trkpt lat="44.06473406740316" lon="10.859635982475233"><ele>1256.0</ele><time>2026-04-25T12:27:10.805Z</time></trkpt><trkpt lat="44.06468573862792" lon="10.859692716838675"><ele>1255.1666666666667</ele><time>2026-04-25T12:27:12.806Z</time></trkpt><trkpt lat="44.06462809331316" lon="10.859765399141416"><ele>1254.3333333333335</ele><time>2026-04-25T12:27:14.806Z</time></trkpt><trkpt lat="44.064562729506484" lon="10.859831034074148"><ele>1253.5</ele><time>2026-04-25T12:27:17.806Z</time></trkpt><trkpt lat="44.06451185859177" lon="10.85991833858875"><ele>1252.6666666666667</ele><time>2026-04-25T12:27:19.806Z</time></trkpt><trkpt lat="44.064491173888676" lon="10.860006250797733"><ele>1251.8333333333333</ele><time>2026-04-25T12:27:22.806Z</time></trkpt><trkpt lat="44.06445050284137" lon="10.86011487988924"><ele>1251.0</ele><time>2026-04-25T12:27:25.806Z</time></trkpt><trkpt lat="44.064410431831604" lon="10.860209730893091"><ele>1249.5</ele><time>2026-04-25T12:27:28.806Z</time></trkpt><trkpt lat="44.06435099813572" lon="10.860274941357353"><ele>1248.0</ele><time>2026-04-25T12:27:32.806Z</time></trkpt><trkpt lat="44.06427862849419" lon="10.86035024379999"><ele>1246.5</ele><time>2026-04-25T12:27:35.806Z</time></trkpt><trkpt lat="44.06422401990572" lon="10.860466526931258"><ele>1245.0</ele><time>2026-04-25T12:27:38.806Z</time></trkpt><trkpt lat="44.06416036798582" lon="10.860561175393624"><ele>1243.5</ele><time>2026-04-25T12:27:41.805Z</time></trkpt><trkpt lat="44.064107154440975" lon="10.860658512204864"><ele>1242.0</ele><time>2026-04-25T12:27:43.805Z</time></trkpt><trkpt lat="44.06407269578025" lon="10.860762606428123"><ele>1241.9999999999998</ele><time>2026-04-25T12:27:46.805Z</time></trkpt><trkpt lat="44.06405219860436" lon="10.86084866230266"><ele>1242.0</ele><time>2026-04-25T12:27:48.805Z</time></trkpt><trkpt lat="44.064000829268565" lon="10.860913386573351"><ele>1242.0</ele><time>2026-04-25T12:27:50.805Z</time></trkpt><trkpt lat="44.06395035324495" lon="10.861022236563077"><ele>1242.0</ele><time>2026-04-25T12:27:53.805Z</time></trkpt><trkpt lat="44.0639002872848" lon="10.861083493560498"><ele>1242.0</ele><time>2026-04-25T12:27:55.805Z</time></trkpt><trkpt lat="44.063869738017615" lon="10.86119055051762"><ele>1241.9999999999998</ele><time>2026-04-25T12:27:58.805Z</time></trkpt><trkpt lat="44.06382687119486" lon="10.861260881911619"><ele>1242.0</ele><time>2026-04-25T12:28:00.805Z</time></trkpt><trkpt lat="44.063789174751335" lon="10.861335223849677"><ele>1243.6666666666667</ele><time>2026-04-25T12:28:02.805Z</time></trkpt><trkpt lat="44.063746645278464" lon="10.861424212865376"><ele>1245.3333333333333</ele><time>2026-04-25T12:28:05.805Z</time></trkpt><trkpt lat="44.063706170652154" lon="10.861513749213573"><ele>1247.0</ele><time>2026-04-25T12:28:08.805Z</time></trkpt><trkpt lat="44.06366097305175" lon="10.861591695505007"><ele>1248.6666666666665</ele><time>2026-04-25T12:28:11.805Z</time></trkpt><trkpt lat="44.06361698498553" lon="10.861708752093659"><ele>1250.3333333333333</ele><time>2026-04-25T12:28:15.805Z</time></trkpt><trkpt lat="44.06357692587325" lon="10.861831467297229"><ele>1252.0</ele><time>2026-04-25T12:28:19.805Z</time></trkpt><trkpt lat="44.06352439696478" lon="10.861911167998233"><ele>1253.1666666666665</ele><time>2026-04-25T12:28:22.805Z</time></trkpt><trkpt lat="44.063486052062686" lon="10.862008934195398"><ele>1254.3333333333333</ele><time>2026-04-25T12:28:25.805Z</time></trkpt><trkpt lat="44.06343378638845" lon="10.862112789745655"><ele>1255.5</ele><time>2026-04-25T12:28:28.805Z</time></trkpt><trkpt lat="44.06340436919882" lon="10.862220387523976"><ele>1256.6666666666667</ele><time>2026-04-25T12:28:31.805Z</time></trkpt><trkpt lat="44.06339909745814" lon="10.862330157667127"><ele>1257.8333333333335</ele><time>2026-04-25T12:28:35.805Z</time></trkpt><trkpt lat="44.0633916381389" lon="10.86241945054064"><ele>1259.0</ele><time>2026-04-25T12:28:38.805Z</time></trkpt><trkpt lat="44.0634037338462" lon="10.862524272102494"><ele>1260.3333333333335</ele><time>2026-04-25T12:28:41.805Z</time></trkpt><trkpt lat="44.0634097607951" lon="10.862632669795227"><ele>1261.6666666666667</ele><time>2026-04-25T12:28:44.805Z</time></trkpt><trkpt lat="44.06342360623903" lon="10.862723982755"><ele>1263.0</ele><time>2026-04-25T12:28:47.805Z</time></trkpt><trkpt lat="44.06340116940915" lon="10.862816245111468"><ele>1264.3333333333333</ele><time>2026-04-25T12:28:50.805Z</time></trkpt><trkpt lat="44.06343211647328" lon="10.862923344619832"><ele>1265.6666666666665</ele><time>2026-04-25T12:28:53.805Z</time></trkpt><trkpt lat="44.063445252425" lon="10.863028214046464"><ele>1267.0</ele><time>2026-04-25T12:28:56.805Z</time></trkpt><trkpt lat="44.063446755180095" lon="10.863134018255279"><ele>1267.0</ele><time>2026-04-25T12:28:59.805Z</time></trkpt><trkpt lat="44.06345953814722" lon="10.863257119545667"><ele>1267.0</ele><time>2026-04-25T12:29:03.805Z</time></trkpt><trkpt lat="44.06348965082416" lon="10.863358913673734"><ele>1267.0</ele><time>2026-04-25T12:29:06.804Z</time></trkpt><trkpt lat="44.06350158059148" lon="10.863464808654017"><ele>1267.0</ele><time>2026-04-25T12:29:09.804Z</time></trkpt><trkpt lat="44.063521513134674" lon="10.863591385629737"><ele>1267.0</ele><time>2026-04-25T12:29:12.804Z</time></trkpt><trkpt lat="44.06354162899705" lon="10.86370565778514"><ele>1267.0</ele><time>2026-04-25T12:29:16.803Z</time></trkpt><trkpt lat="44.063575957260674" lon="10.863816468278634"><ele>1267.3333333333333</ele><time>2026-04-25T12:29:20.803Z</time></trkpt><trkpt lat="44.063612595488" lon="10.863907051457106"><ele>1267.6666666666665</ele><time>2026-04-25T12:29:23.803Z</time></trkpt><trkpt lat="44.06366223115633" lon="10.863978801355891"><ele>1268.0</ele><time>2026-04-25T12:29:26.803Z</time></trkpt><trkpt lat="44.06373090796273" lon="10.864052005274042"><ele>1268.3333333333333</ele><time>2026-04-25T12:29:29.803Z</time></trkpt><trkpt lat="44.06379026167279" lon="10.864142017464468"><ele>1268.6666666666667</ele><time>2026-04-25T12:29:32.803Z</time></trkpt><trkpt lat="44.06383997718946" lon="10.864205432256972"><ele>1269.0</ele><time>2026-04-25T12:29:34.803Z</time></trkpt><trkpt lat="44.06386993600772" lon="10.864292856866957"><ele>1269.5714285714287</ele><time>2026-04-25T12:29:37.803Z</time></trkpt><trkpt lat="44.06391815336686" lon="10.864374917440989"><ele>1270.142857142857</ele><time>2026-04-25T12:29:40.803Z</time></trkpt><trkpt lat="44.06394708909013" lon="10.864462316781376"><ele>1270.7142857142858</ele><time>2026-04-25T12:29:43.803Z</time></trkpt><trkpt lat="44.06396213171256" lon="10.864573027935055"><ele>1271.2857142857142</ele><time>2026-04-25T12:29:46.803Z</time></trkpt><trkpt lat="44.063950910458026" lon="10.86467716039632"><ele>1271.857142857143</ele><time>2026-04-25T12:29:50.803Z</time></trkpt><trkpt lat="44.06393602066245" lon="10.864769785969921"><ele>1272.4285714285713</ele><time>2026-04-25T12:29:53.803Z</time></trkpt><trkpt lat="44.063904783774426" lon="10.864869168555682"><ele>1273.0</ele><time>2026-04-25T12:29:56.803Z</time></trkpt><trkpt lat="44.063878488368125" lon="10.864981301095817"><ele>1273.0</ele><time>2026-04-25T12:29:59.803Z</time></trkpt><trkpt lat="44.06385303201097" lon="10.865083384436497"><ele>1273.0</ele><time>2026-04-25T12:30:02.803Z</time></trkpt><trkpt lat="44.06381469845313" lon="10.865177574537121"><ele>1273.0</ele><time>2026-04-25T12:30:05.803Z</time></trkpt><trkpt lat="44.063771300257145" lon="10.865262094020737"><ele>1273.0</ele><time>2026-04-25T12:30:08.803Z</time></trkpt><trkpt lat="44.063760669715315" lon="10.865350920706536"><ele>1273.0</ele><time>2026-04-25T12:30:11.803Z</time></trkpt><trkpt lat="44.06373251591784" lon="10.865449021769809"><ele>1273.0</ele><time>2026-04-25T12:30:14.803Z</time></trkpt><trkpt lat="44.06371399377319" lon="10.865555629524707"><ele>1273.0</ele><time>2026-04-25T12:30:17.803Z</time></trkpt><trkpt lat="44.06367112181578" lon="10.865636818366651"><ele>1275.3333333333333</ele><time>2026-04-25T12:30:19.803Z</time></trkpt><trkpt lat="44.063616594392045" lon="10.865740563971517"><ele>1277.6666666666665</ele><time>2026-04-25T12:30:22.803Z</time></trkpt><trkpt lat="44.063580445832656" lon="10.865818660433776"><ele>1280.0</ele><time>2026-04-25T12:30:24.803Z</time></trkpt><trkpt lat="44.063555797650146" lon="10.865909833722313"><ele>1282.3333333333333</ele><time>2026-04-25T12:30:27.803Z</time></trkpt><trkpt lat="44.06351793569045" lon="10.866022315529834"><ele>1284.6666666666667</ele><time>2026-04-25T12:30:30.803Z</time></trkpt><trkpt lat="44.06349032672495" lon="10.86610238875893"><ele>1287.0</ele><time>2026-04-25T12:30:32.802Z</time></trkpt><trkpt lat="44.06345236198348" lon="10.866202781412586"><ele>1288.6666666666667</ele><time>2026-04-25T12:30:35.802Z</time></trkpt><trkpt lat="44.06341784767376" lon="10.86627930669888"><ele>1290.3333333333333</ele><time>2026-04-25T12:30:37.802Z</time></trkpt><trkpt lat="44.06337382306854" lon="10.866378486598583"><ele>1292.0</ele><time>2026-04-25T12:30:40.802Z</time></trkpt><trkpt lat="44.06333196397027" lon="10.866480313815789"><ele>1293.6666666666665</ele><time>2026-04-25T12:30:43.802Z</time></trkpt><trkpt lat="44.063274989223906" lon="10.86657545159032"><ele>1295.3333333333333</ele><time>2026-04-25T12:30:46.802Z</time></trkpt><trkpt lat="44.06323963738556" lon="10.866677669436088"><ele>1297.0</ele><time>2026-04-25T12:30:49.802Z</time></trkpt><trkpt lat="44.06318868377928" lon="10.866760482369392"><ele>1293.1666666666665</ele><time>2026-04-25T12:30:52.802Z</time></trkpt><trkpt lat="44.0631528389269" lon="10.866844947069266"><ele>1289.3333333333333</ele><time>2026-04-25T12:30:55.802Z</time></trkpt><trkpt lat="44.063131696353764" lon="10.86694108364598"><ele>1285.5</ele><time>2026-04-25T12:30:58.802Z</time></trkpt><trkpt lat="44.063076109789215" lon="10.867012759303481"><ele>1281.6666666666667</ele><time>2026-04-25T12:31:01.802Z</time></trkpt><trkpt lat="44.0630272901895" lon="10.86708262111996"><ele>1277.8333333333335</ele><time>2026-04-25T12:31:04.802Z</time></trkpt><trkpt lat="44.062979383197025" lon="10.867186143233967"><ele>1274.0</ele><time>2026-04-25T12:31:07.802Z</time></trkpt><trkpt lat="44.06293625456912" lon="10.867285309475108"><ele>1274.0</ele><time>2026-04-25T12:31:10.801Z</time></trkpt><trkpt lat="44.06288366528134" lon="10.867367758075213"><ele>1274.0</ele><time>2026-04-25T12:31:13.802Z</time></trkpt><trkpt lat="44.0628555307504" lon="10.867454896373292"><ele>1274.0</ele><time>2026-04-25T12:31:15.802Z</time></trkpt><trkpt lat="44.062845869239524" lon="10.867546576260837"><ele>1274.0</ele><time>2026-04-25T12:31:17.802Z</time></trkpt><trkpt lat="44.06285158094268" lon="10.867677473034322"><ele>1274.0</ele><time>2026-04-25T12:31:20.801Z</time></trkpt><trkpt lat="44.062863445757905" lon="10.867793323984325"><ele>1274.0</ele><time>2026-04-25T12:31:23.801Z</time></trkpt><trkpt lat="44.062889331950494" lon="10.867887355192773"><ele>1275.3333333333335</ele><time>2026-04-25T12:31:26.801Z</time></trkpt><trkpt lat="44.06287935290904" lon="10.867983913541519"><ele>1276.6666666666667</ele><time>2026-04-25T12:31:29.801Z</time></trkpt><trkpt lat="44.06287684092103" lon="10.868095108381302"><ele>1278.0</ele><time>2026-04-25T12:31:32.801Z</time></trkpt><trkpt lat="44.06287045085403" lon="10.868201599255606"><ele>1279.3333333333333</ele><time>2026-04-25T12:31:35.801Z</time></trkpt><trkpt lat="44.06283396890364" lon="10.868276811578612"><ele>1280.6666666666665</ele><time>2026-04-25T12:31:37.801Z</time></trkpt><trkpt lat="44.062809905230516" lon="10.868372905945256"><ele>1282.0</ele><time>2026-04-25T12:31:40.801Z</time></trkpt><trkpt lat="44.06276389199501" lon="10.868471957309948"><ele>1284.3333333333333</ele><time>2026-04-25T12:31:43.801Z</time></trkpt><trkpt lat="44.062732819232" lon="10.868607035885178"><ele>1286.6666666666665</ele><time>2026-04-25T12:31:46.801Z</time></trkpt><trkpt lat="44.06269703341657" lon="10.8687216767722"><ele>1289.0</ele><time>2026-04-25T12:31:49.801Z</time></trkpt><trkpt lat="44.062669749842485" lon="10.868807341845843"><ele>1291.3333333333333</ele><time>2026-04-25T12:31:52.801Z</time></trkpt><trkpt lat="44.06265089346911" lon="10.86890127307038"><ele>1293.6666666666667</ele><time>2026-04-25T12:31:54.801Z</time></trkpt><trkpt lat="44.06265290236716" lon="10.869000023087334"><ele>1296.0</ele><time>2026-04-25T12:31:56.801Z</time></trkpt><trkpt lat="44.062652165464165" lon="10.869088251609076"><ele>1296.0</ele><time>2026-04-25T12:31:58.801Z</time></trkpt><trkpt lat="44.062653421727084" lon="10.869177188616204"><ele>1296.0</ele><time>2026-04-25T12:32:00.801Z</time></trkpt><trkpt lat="44.06266768587535" lon="10.86930234221686"><ele>1296.0</ele><time>2026-04-25T12:32:03.801Z</time></trkpt><trkpt lat="44.06268219186942" lon="10.869407950872832"><ele>1296.0</ele><time>2026-04-25T12:32:06.801Z</time></trkpt><trkpt lat="44.06269312773029" lon="10.869504806044375"><ele>1296.0</ele><time>2026-04-25T12:32:09.801Z</time></trkpt><trkpt lat="44.06271899705715" lon="10.869597121172061"><ele>1296.0</ele><time>2026-04-25T12:32:12.801Z</time></trkpt><trkpt lat="44.06273553247969" lon="10.869683293748217"><ele>1296.0</ele><time>2026-04-25T12:32:15.801Z</time></trkpt><trkpt lat="44.062770048594025" lon="10.869766182473967"><ele>1296.7142857142858</ele><time>2026-04-25T12:32:18.801Z</time></trkpt><trkpt lat="44.062793673477756" lon="10.869853771263168"><ele>1297.4285714285713</ele><time>2026-04-25T12:32:22.801Z</time></trkpt><trkpt lat="44.06286065646653" lon="10.869904566081793"><ele>1298.142857142857</ele><time>2026-04-25T12:33:01.801Z</time></trkpt><trkpt lat="44.06291882799039" lon="10.869866911027664"><ele>1298.857142857143</ele><time>2026-04-25T12:36:26.798Z</time></trkpt><trkpt lat="44.062916117723006" lon="10.869760549815808"><ele>1299.5714285714287</ele><time>2026-04-25T12:36:32.798Z</time></trkpt><trkpt lat="44.062894124113065" lon="10.869657560612435"><ele>1300.2857142857142</ele><time>2026-04-25T12:36:38.798Z</time></trkpt><trkpt lat="44.0628915327841" lon="10.869561326146322"><ele>1301.0</ele><time>2026-04-25T12:36:43.798Z</time></trkpt><trkpt lat="44.06286774653759" lon="10.869459736811262"><ele>1301.0</ele><time>2026-04-25T12:36:49.798Z</time></trkpt><trkpt lat="44.06287498893514" lon="10.86937231809055"><ele>1301.0</ele><time>2026-04-25T12:36:53.798Z</time></trkpt><trkpt lat="44.06291965682503" lon="10.869282257058224"><ele>1301.0</ele><time>2026-04-25T12:36:58.798Z</time></trkpt><trkpt lat="44.062963358058376" lon="10.869213249006295"><ele>1301.0</ele><time>2026-04-25T12:37:04.798Z</time></trkpt><trkpt lat="44.06302427718655" lon="10.86915554794875"><ele>1301.0</ele><time>2026-04-25T12:37:10.798Z</time></trkpt><trkpt lat="44.063084288038795" lon="10.869113793721244"><ele>1301.0</ele><time>2026-04-25T12:37:15.798Z</time></trkpt><trkpt lat="44.06314811681693" lon="10.869083382662412"><ele>1301.0</ele><time>2026-04-25T12:37:20.798Z</time></trkpt><trkpt lat="44.063212060546405" lon="10.86908557920205"><ele>1302.2857142857142</ele><time>2026-04-25T12:37:26.798Z</time></trkpt><trkpt lat="44.06328439103046" lon="10.869075149843912"><ele>1303.5714285714287</ele><time>2026-04-25T12:37:31.796Z</time></trkpt><trkpt lat="44.0633599554068" lon="10.86904123538401"><ele>1304.857142857143</ele><time>2026-04-25T12:37:35.797Z</time></trkpt><trkpt lat="44.06342499478345" lon="10.869044441714488"><ele>1306.142857142857</ele><time>2026-04-25T12:37:38.796Z</time></trkpt><trkpt lat="44.06349872385837" lon="10.869041914469063"><ele>1307.4285714285713</ele><time>2026-04-25T12:37:42.797Z</time></trkpt><trkpt lat="44.063574294001064" lon="10.869041745725623"><ele>1308.7142857142858</ele><time>2026-04-25T12:37:46.797Z</time></trkpt><trkpt lat="44.063652063122426" lon="10.869042906642017"><ele>1310.0</ele><time>2026-04-25T12:37:50.796Z</time></trkpt><trkpt lat="44.06371543193807" lon="10.869053401216416"><ele>1310.0</ele><time>2026-04-25T12:37:54.796Z</time></trkpt><trkpt lat="44.06378170340947" lon="10.86907600490602"><ele>1310.0</ele><time>2026-04-25T12:38:00.796Z</time></trkpt><trkpt lat="44.06385240627772" lon="10.869102304070488"><ele>1310.0</ele><time>2026-04-25T12:38:05.796Z</time></trkpt><trkpt lat="44.06391108917832" lon="10.86917356760455"><ele>1310.0</ele><time>2026-04-25T12:38:10.796Z</time></trkpt><trkpt lat="44.06396678752418" lon="10.869255581682287"><ele>1310.0</ele><time>2026-04-25T12:38:15.796Z</time></trkpt><trkpt lat="44.0639948570562" lon="10.869340379818505"><ele>1310.0</ele><time>2026-04-25T12:38:19.796Z</time></trkpt><trkpt lat="44.06404289199356" lon="10.869430905872926"><ele>1310.0</ele><time>2026-04-25T12:38:23.796Z</time></trkpt><trkpt lat="44.06409385146021" lon="10.86948262026509"><ele>1312.7142857142858</ele><time>2026-04-25T12:38:29.796Z</time></trkpt><trkpt lat="44.06414790679889" lon="10.869534689836144"><ele>1315.4285714285713</ele><time>2026-04-25T12:38:35.796Z</time></trkpt><trkpt lat="44.064121224083266" lon="10.869448441300305"><ele>1318.142857142857</ele><time>2026-04-25T12:39:11.796Z</time></trkpt><trkpt lat="44.064131363307325" lon="10.869535705977677"><ele>1320.857142857143</ele><time>2026-04-25T12:39:33.796Z</time></trkpt><trkpt lat="44.06417846098449" lon="10.869653181334572"><ele>1323.5714285714287</ele><time>2026-04-25T12:40:24.794Z</time></trkpt><trkpt lat="44.06411510623361" lon="10.869625340218828"><ele>1326.2857142857142</ele><time>2026-04-25T12:41:37.794Z</time></trkpt><trkpt lat="44.06418001100882" lon="10.869584395484926"><ele>1329.0</ele><time>2026-04-25T12:42:34.789Z</time></trkpt><trkpt lat="44.064200779369955" lon="10.869691977225603"><ele>1329.0</ele><time>2026-04-25T12:43:37.789Z</time></trkpt><trkpt lat="44.06420997957403" lon="10.869786143428925"><ele>1329.0</ele><time>2026-04-25T12:43:40.789Z</time></trkpt><trkpt lat="44.064205991732265" lon="10.869875470657147"><ele>1329.0</ele><time>2026-04-25T12:43:44.789Z</time></trkpt><trkpt lat="44.064195402351345" lon="10.86997529747887"><ele>1329.0</ele><time>2026-04-25T12:43:48.786Z</time></trkpt><trkpt lat="44.06419475110991" lon="10.870082338308942"><ele>1329.0</ele><time>2026-04-25T12:43:52.786Z</time></trkpt><trkpt lat="44.064164581653145" lon="10.870159342160626"><ele>1329.0</ele><time>2026-04-25T12:43:55.786Z</time></trkpt><trkpt lat="44.06415630639245" lon="10.8702501488251"><ele>1329.0</ele><time>2026-04-25T12:43:58.785Z</time></trkpt><trkpt lat="44.064124491536425" lon="10.870349266725297"><ele>1329.857142857143</ele><time>2026-04-25T12:44:02.785Z</time></trkpt><trkpt lat="44.06412325797143" lon="10.870448745301957"><ele>1330.7142857142858</ele><time>2026-04-25T12:44:05.785Z</time></trkpt><trkpt lat="44.06409545851584" lon="10.870554828647867"><ele>1331.5714285714284</ele><time>2026-04-25T12:44:09.785Z</time></trkpt><trkpt lat="44.06408850343572" lon="10.870658783238175"><ele>1332.4285714285716</ele><time>2026-04-25T12:44:12.785Z</time></trkpt><trkpt lat="44.06408090194517" lon="10.870751756873068"><ele>1333.2857142857144</ele><time>2026-04-25T12:44:15.785Z</time></trkpt><trkpt lat="44.064067350801835" lon="10.870849508645405"><ele>1334.142857142857</ele><time>2026-04-25T12:44:18.785Z</time></trkpt><trkpt lat="44.06404879427394" lon="10.87094056523872"><ele>1335.0</ele><time>2026-04-25T12:44:21.785Z</time></trkpt><trkpt lat="44.06403306657387" lon="10.871036866618688"><ele>1331.6666666666667</ele><time>2026-04-25T12:44:24.785Z</time></trkpt><trkpt lat="44.06402188378698" lon="10.871160116593453"><ele>1328.3333333333333</ele><time>2026-04-25T12:44:28.785Z</time></trkpt><trkpt lat="44.063991914577876" lon="10.871266277507683"><ele>1325.0</ele><time>2026-04-25T12:44:32.785Z</time></trkpt><trkpt lat="44.06397035923482" lon="10.871372551465523"><ele>1321.6666666666665</ele><time>2026-04-25T12:44:36.785Z</time></trkpt><trkpt lat="44.06396188573756" lon="10.871503874441172"><ele>1318.3333333333333</ele><time>2026-04-25T12:44:39.785Z</time></trkpt><trkpt lat="44.063929111218656" lon="10.871609207901038"><ele>1315.0</ele><time>2026-04-25T12:44:42.785Z</time></trkpt><trkpt lat="44.06390502457435" lon="10.871691550206782"><ele>1315.6666666666665</ele><time>2026-04-25T12:44:44.785Z</time></trkpt><trkpt lat="44.0638731849352" lon="10.871800641908395"><ele>1316.3333333333333</ele><time>2026-04-25T12:44:48.785Z</time></trkpt><trkpt lat="44.06384584573566" lon="10.87191309492264"><ele>1317.0</ele><time>2026-04-25T12:44:52.785Z</time></trkpt><trkpt lat="44.06381614337801" lon="10.871999793052913"><ele>1317.6666666666667</ele><time>2026-04-25T12:44:55.785Z</time></trkpt><trkpt lat="44.063751590857564" lon="10.872058349221646"><ele>1318.3333333333335</ele><time>2026-04-25T12:45:00.785Z</time></trkpt><trkpt lat="44.063704467968776" lon="10.872149030557253"><ele>1319.0</ele><time>2026-04-25T12:45:04.785Z</time></trkpt><trkpt lat="44.06366525176838" lon="10.872228033486163"><ele>1319.0</ele><time>2026-04-25T12:45:07.785Z</time></trkpt><trkpt lat="44.063629693212505" lon="10.872316422640901"><ele>1319.0</ele><time>2026-04-25T12:45:11.785Z</time></trkpt><trkpt lat="44.06358126927285" lon="10.872394532713757"><ele>1319.0</ele><time>2026-04-25T12:45:14.785Z</time></trkpt><trkpt lat="44.06353630561427" lon="10.872493489369319"><ele>1319.0</ele><time>2026-04-25T12:45:18.785Z</time></trkpt><trkpt lat="44.06349139843066" lon="10.872590814681587"><ele>1319.0</ele><time>2026-04-25T12:45:23.785Z</time></trkpt><trkpt lat="44.06346131242502" lon="10.872683300294966"><ele>1319.0</ele><time>2026-04-25T12:45:27.785Z</time></trkpt><trkpt lat="44.06342306218453" lon="10.87276212472972"><ele>1320.0</ele><time>2026-04-25T12:45:31.785Z</time></trkpt><trkpt lat="44.06338781307422" lon="10.872855363054441"><ele>1321.0</ele><time>2026-04-25T12:45:35.785Z</time></trkpt><trkpt lat="44.063354680024624" lon="10.872959133785757"><ele>1322.0</ele><time>2026-04-25T12:45:40.785Z</time></trkpt><trkpt lat="44.063336193871514" lon="10.873048699398742"><ele>1323.0</ele><time>2026-04-25T12:45:44.785Z</time></trkpt><trkpt lat="44.06333156177559" lon="10.873175545407202"><ele>1324.0</ele><time>2026-04-25T12:45:48.785Z</time></trkpt><trkpt lat="44.06331574490385" lon="10.873266883781154"><ele>1325.0</ele><time>2026-04-25T12:45:51.785Z</time></trkpt><trkpt lat="44.063305476755296" lon="10.873375712238435"><ele>1325.0</ele><time>2026-04-25T12:45:55.784Z</time></trkpt><trkpt lat="44.063288505293315" lon="10.873468955016685"><ele>1325.0</ele><time>2026-04-25T12:45:59.785Z</time></trkpt><trkpt lat="44.063262436026385" lon="10.873579218690105"><ele>1325.0</ele><time>2026-04-25T12:46:03.784Z</time></trkpt><trkpt lat="44.06323489389494" lon="10.873671380406218"><ele>1325.0</ele><time>2026-04-25T12:46:07.785Z</time></trkpt><trkpt lat="44.063193408446075" lon="10.873749538467637"><ele>1325.0</ele><time>2026-04-25T12:46:10.785Z</time></trkpt><trkpt lat="44.063160047390966" lon="10.873844579057703"><ele>1325.0</ele><time>2026-04-25T12:46:14.785Z</time></trkpt><trkpt lat="44.06312160846977" lon="10.873951430746194"><ele>1320.5714285714287</ele><time>2026-04-25T12:46:19.784Z</time></trkpt><trkpt lat="44.06308332546007" lon="10.87403070716115"><ele>1316.142857142857</ele><time>2026-04-25T12:46:23.784Z</time></trkpt><trkpt lat="44.06302970035151" lon="10.874093970442468"><ele>1311.7142857142858</ele><time>2026-04-25T12:46:27.784Z</time></trkpt><trkpt lat="44.06298112397779" lon="10.874151322338367"><ele>1307.2857142857142</ele><time>2026-04-25T12:46:31.784Z</time></trkpt><trkpt lat="44.062937281788635" lon="10.874225535416219"><ele>1302.857142857143</ele><time>2026-04-25T12:46:37.784Z</time></trkpt><trkpt lat="44.06288419724142" lon="10.874297242152158"><ele>1298.4285714285713</ele><time>2026-04-25T12:46:42.784Z</time></trkpt><trkpt lat="44.06284195729049" lon="10.874377216975898"><ele>1294.0</ele><time>2026-04-25T12:46:46.784Z</time></trkpt><trkpt lat="44.06280202670632" lon="10.87444673591115"><ele>1293.857142857143</ele><time>2026-04-25T12:46:52.784Z</time></trkpt><trkpt lat="44.06275375441934" lon="10.874519418828841"><ele>1293.7142857142858</ele><time>2026-04-25T12:47:01.784Z</time></trkpt><trkpt lat="44.062703799013555" lon="10.87458204381713"><ele>1293.5714285714284</ele><time>2026-04-25T12:47:10.784Z</time></trkpt><trkpt lat="44.06266216408028" lon="10.874657047031176"><ele>1293.4285714285716</ele><time>2026-04-25T12:47:21.784Z</time></trkpt><trkpt lat="44.06262429941622" lon="10.874736227704497"><ele>1293.2857142857144</ele><time>2026-04-25T12:47:30.784Z</time></trkpt><trkpt lat="44.062591826779666" lon="10.874816098104855"><ele>1293.142857142857</ele><time>2026-04-25T12:47:35.784Z</time></trkpt><trkpt lat="44.06256214841327" lon="10.874914197498793"><ele>1293.0</ele><time>2026-04-25T12:47:40.784Z</time></trkpt><trkpt lat="44.06253508845845" lon="10.87499561348148"><ele>1293.0</ele><time>2026-04-25T12:47:46.784Z</time></trkpt><trkpt lat="44.06248138767241" lon="10.87508371196231"><ele>1293.0</ele><time>2026-04-25T12:47:50.784Z</time></trkpt><trkpt lat="44.06246233469438" lon="10.875173030161468"><ele>1293.0</ele><time>2026-04-25T12:47:53.784Z</time></trkpt><trkpt lat="44.06242020168599" lon="10.875252001670773"><ele>1293.0</ele><time>2026-04-25T12:47:56.784Z</time></trkpt><trkpt lat="44.062357743327425" lon="10.87532349682495"><ele>1293.0</ele><time>2026-04-25T12:47:59.783Z</time></trkpt><trkpt lat="44.06229510922482" lon="10.87538136028292"><ele>1293.0</ele><time>2026-04-25T12:48:02.783Z</time></trkpt><trkpt lat="44.06222249981725" lon="10.875454213663824"><ele>1288.3333333333333</ele><time>2026-04-25T12:48:05.783Z</time></trkpt><trkpt lat="44.06215665652122" lon="10.875501654727316"><ele>1283.6666666666667</ele><time>2026-04-25T12:48:08.782Z</time></trkpt><trkpt lat="44.06208565648847" lon="10.875551638105033"><ele>1279.0</ele><time>2026-04-25T12:48:11.782Z</time></trkpt><trkpt lat="44.062024916456394" lon="10.875591835800218"><ele>1274.3333333333335</ele><time>2026-04-25T12:48:14.782Z</time></trkpt><trkpt lat="44.06196519093342" lon="10.875644761602818"><ele>1269.6666666666667</ele><time>2026-04-25T12:48:17.782Z</time></trkpt><trkpt lat="44.06187543356983" lon="10.875695316364288"><ele>1265.0</ele><time>2026-04-25T12:48:21.782Z</time></trkpt><trkpt lat="44.06180630884629" lon="10.875741562706253"><ele>1265.0</ele><time>2026-04-25T12:48:24.782Z</time></trkpt><trkpt lat="44.06174453672187" lon="10.875778072671093"><ele>1265.0</ele><time>2026-04-25T12:48:27.782Z</time></trkpt><trkpt lat="44.06165714349296" lon="10.875803603832361"><ele>1265.0</ele><time>2026-04-25T12:48:31.782Z</time></trkpt><trkpt lat="44.06157515249874" lon="10.875843994707969"><ele>1265.0</ele><time>2026-04-25T12:48:34.782Z</time></trkpt><trkpt lat="44.061507510586424" lon="10.875875538056494"><ele>1265.0</ele><time>2026-04-25T12:48:38.782Z</time></trkpt><trkpt lat="44.06143366524559" lon="10.875901299029362"><ele>1265.0</ele><time>2026-04-25T12:48:42.782Z</time></trkpt><trkpt lat="44.061362492777654" lon="10.875947746233594"><ele>1258.4285714285713</ele><time>2026-04-25T12:48:46.782Z</time></trkpt><trkpt lat="44.06128251375073" lon="10.875956080540043"><ele>1251.857142857143</ele><time>2026-04-25T12:48:49.782Z</time></trkpt><trkpt lat="44.061198673048374" lon="10.875982959364292"><ele>1245.2857142857142</ele><time>2026-04-25T12:48:53.782Z</time></trkpt><trkpt lat="44.06114164833732" lon="10.876029955863622"><ele>1238.7142857142858</ele><time>2026-04-25T12:48:57.782Z</time></trkpt><trkpt lat="44.06107542780576" lon="10.87602413741704"><ele>1232.142857142857</ele><time>2026-04-25T12:49:08.782Z</time></trkpt><trkpt lat="44.06100924445362" lon="10.876046645496343"><ele>1225.5714285714287</ele><time>2026-04-25T12:49:13.782Z</time></trkpt><trkpt lat="44.06094254636349" lon="10.87603489937312"><ele>1219.0</ele><time>2026-04-25T12:49:17.782Z</time></trkpt><trkpt lat="44.06087192282234" lon="10.876084874204436"><ele>1219.0</ele><time>2026-04-25T12:49:21.782Z</time></trkpt><trkpt lat="44.06079156301084" lon="10.876105973988404"><ele>1219.0</ele><time>2026-04-25T12:49:25.782Z</time></trkpt><trkpt lat="44.06072220284778" lon="10.876100384166849"><ele>1219.0</ele><time>2026-04-25T12:49:29.782Z</time></trkpt><trkpt lat="44.060658772666464" lon="10.876117371057596"><ele>1219.0</ele><time>2026-04-25T12:49:33.782Z</time></trkpt><trkpt lat="44.060584034378785" lon="10.876110554344278"><ele>1219.0</ele><time>2026-04-25T12:49:37.782Z</time></trkpt><trkpt lat="44.06050372143636" lon="10.876121907528749"><ele>1219.0</ele><time>2026-04-25T12:49:42.782Z</time></trkpt><trkpt lat="44.06044194916521" lon="10.876172823837518"><ele>1219.0</ele><time>2026-04-25T12:49:47.782Z</time></trkpt><trkpt lat="44.06037904427586" lon="10.876168014229945"><ele>1214.1666666666665</ele><time>2026-04-25T12:49:52.782Z</time></trkpt><trkpt lat="44.060300339317926" lon="10.876129260763737"><ele>1209.3333333333333</ele><time>2026-04-25T12:50:06.781Z</time></trkpt><trkpt lat="44.06021413998656" lon="10.8761302019483"><ele>1204.5</ele><time>2026-04-25T12:50:12.781Z</time></trkpt><trkpt lat="44.060138412463424" lon="10.876158054802671"><ele>1199.6666666666667</ele><time>2026-04-25T12:50:16.782Z</time></trkpt><trkpt lat="44.0600710028147" lon="10.876148858633465"><ele>1194.8333333333335</ele><time>2026-04-25T12:50:20.781Z</time></trkpt><trkpt lat="44.0600041523206" lon="10.876121423012778"><ele>1190.0</ele><time>2026-04-25T12:50:24.781Z</time></trkpt><trkpt lat="44.059931434342424" lon="10.87611068543672"><ele>1188.1666666666667</ele><time>2026-04-25T12:50:27.781Z</time></trkpt><trkpt lat="44.05985446960957" lon="10.87609731840434"><ele>1186.3333333333335</ele><time>2026-04-25T12:50:32.781Z</time></trkpt><trkpt lat="44.05977520510478" lon="10.876053729950987"><ele>1184.5</ele><time>2026-04-25T12:50:36.781Z</time></trkpt><trkpt lat="44.05971171099094" lon="10.876034555260256"><ele>1182.6666666666667</ele><time>2026-04-25T12:50:38.781Z</time></trkpt><trkpt lat="44.05963499448137" lon="10.876004816272648"><ele>1180.8333333333333</ele><time>2026-04-25T12:50:41.781Z</time></trkpt><trkpt lat="44.059572737595666" lon="10.875962520558064"><ele>1179.0</ele><time>2026-04-25T12:50:44.781Z</time></trkpt><trkpt lat="44.05950805553624" lon="10.87590593684723"><ele>1179.0</ele><time>2026-04-25T12:50:48.781Z</time></trkpt><trkpt lat="44.05944258658159" lon="10.875888546278444"><ele>1179.0</ele><time>2026-04-25T12:50:51.781Z</time></trkpt><trkpt lat="44.05938326378077" lon="10.875844597080738"><ele>1179.0</ele><time>2026-04-25T12:50:54.781Z</time></trkpt><trkpt lat="44.05930433164975" lon="10.875790229681694"><ele>1179.0</ele><time>2026-04-25T12:50:57.781Z</time></trkpt><trkpt lat="44.059242286601915" lon="10.875738999684886"><ele>1179.0</ele><time>2026-04-25T12:51:00.781Z</time></trkpt><trkpt lat="44.05917994289695" lon="10.87569127558053"><ele>1179.0</ele><time>2026-04-25T12:51:03.781Z</time></trkpt><trkpt lat="44.05908982515944" lon="10.875696490190508"><ele>1177.2857142857142</ele><time>2026-04-25T12:51:06.781Z</time></trkpt><trkpt lat="44.05902755502161" lon="10.875714825547456"><ele>1175.5714285714284</ele><time>2026-04-25T12:51:09.781Z</time></trkpt><trkpt lat="44.058963981387286" lon="10.87571669002407"><ele>1173.857142857143</ele><time>2026-04-25T12:51:12.781Z</time></trkpt><trkpt lat="44.05890245331164" lon="10.875750917700046"><ele>1172.142857142857</ele><time>2026-04-25T12:51:14.781Z</time></trkpt><trkpt lat="44.058833165038266" lon="10.875788082441764"><ele>1170.4285714285716</ele><time>2026-04-25T12:51:16.781Z</time></trkpt><trkpt lat="44.05875233530632" lon="10.875787824447835"><ele>1168.7142857142858</ele><time>2026-04-25T12:51:19.781Z</time></trkpt><trkpt lat="44.05866876272243" lon="10.875780359084454"><ele>1167.0</ele><time>2026-04-25T12:51:22.781Z</time></trkpt><trkpt lat="44.05859267269434" lon="10.875768202452154"><ele>1167.0</ele><time>2026-04-25T12:51:25.781Z</time></trkpt><trkpt lat="44.05850214313614" lon="10.875743376300507"><ele>1167.0</ele><time>2026-04-25T12:51:28.781Z</time></trkpt><trkpt lat="44.05842758683563" lon="10.875697689815729"><ele>1167.0</ele><time>2026-04-25T12:51:32.781Z</time></trkpt><trkpt lat="44.058373328570845" lon="10.875638483172256"><ele>1167.0</ele><time>2026-04-25T12:51:35.781Z</time></trkpt><trkpt lat="44.05829925448944" lon="10.875611796823389"><ele>1167.0</ele><time>2026-04-25T12:51:38.781Z</time></trkpt><trkpt lat="44.05823310659242" lon="10.875620001502368"><ele>1167.0</ele><time>2026-04-25T12:51:41.781Z</time></trkpt><trkpt lat="44.058172058654804" lon="10.875590477653073"><ele>1165.0</ele><time>2026-04-25T12:51:44.781Z</time></trkpt><trkpt lat="44.058094745922084" lon="10.875573599616516"><ele>1163.0</ele><time>2026-04-25T12:51:47.781Z</time></trkpt><trkpt lat="44.05803183212937" lon="10.875570076296674"><ele>1161.0</ele><time>2026-04-25T12:51:50.781Z</time></trkpt><trkpt lat="44.05796890732406" lon="10.87553285083188"><ele>1159.0</ele><time>2026-04-25T12:51:53.781Z</time></trkpt><trkpt lat="44.05790315038631" lon="10.875563099603793"><ele>1157.0</ele><time>2026-04-25T12:51:56.781Z</time></trkpt><trkpt lat="44.05782334817884" lon="10.875561135637353"><ele>1155.0</ele><time>2026-04-25T12:52:00.781Z</time></trkpt><trkpt lat="44.05775254343919" lon="10.875556879947231"><ele>1153.0</ele><time>2026-04-25T12:52:03.781Z</time></trkpt><trkpt lat="44.057679899082785" lon="10.875567494686704"><ele>1153.0</ele><time>2026-04-25T12:52:07.781Z</time></trkpt><trkpt lat="44.05763034127176" lon="10.87551283522059"><ele>1153.0</ele><time>2026-04-25T12:52:10.78Z</time></trkpt><trkpt lat="44.05756782109936" lon="10.875476789703754"><ele>1153.0</ele><time>2026-04-25T12:52:15.78Z</time></trkpt><trkpt lat="44.05751696277445" lon="10.875406689056375"><ele>1153.0</ele><time>2026-04-25T12:52:19.78Z</time></trkpt><trkpt lat="44.057469387181946" lon="10.875347351046686"><ele>1153.0</ele><time>2026-04-25T12:52:24.78Z</time></trkpt><trkpt lat="44.05741306190057" lon="10.87530493399546"><ele>1153.0</ele><time>2026-04-25T12:52:31.78Z</time></trkpt><trkpt lat="44.057347543005626" lon="10.875277084657203"><ele>1153.0</ele><time>2026-04-25T12:52:35.78Z</time></trkpt><trkpt lat="44.05726768855714" lon="10.875300925600003"><ele>1149.7142857142858</ele><time>2026-04-25T12:52:39.78Z</time></trkpt><trkpt lat="44.05718098539918" lon="10.87526655570755"><ele>1146.4285714285716</ele><time>2026-04-25T12:52:42.78Z</time></trkpt><trkpt lat="44.0571174506705" lon="10.875269448094684"><ele>1143.142857142857</ele><time>2026-04-25T12:52:45.78Z</time></trkpt><trkpt lat="44.05705564391129" lon="10.87529528758628"><ele>1139.857142857143</ele><time>2026-04-25T12:52:49.78Z</time></trkpt><trkpt lat="44.05698584009532" lon="10.87531409958967"><ele>1136.5714285714284</ele><time>2026-04-25T12:52:52.78Z</time></trkpt><trkpt lat="44.056924136532885" lon="10.875348907256463"><ele>1133.2857142857142</ele><time>2026-04-25T12:52:54.78Z</time></trkpt><trkpt lat="44.056853355594136" lon="10.875358783282397"><ele>1130.0</ele><time>2026-04-25T12:52:58.78Z</time></trkpt><trkpt lat="44.056771730582724" lon="10.875337590705694"><ele>1129.9999999999998</ele><time>2026-04-25T12:53:02.78Z</time></trkpt><trkpt lat="44.05671388437147" lon="10.875265006981648"><ele>1130.0</ele><time>2026-04-25T12:53:06.78Z</time></trkpt><trkpt lat="44.0567005055527" lon="10.875351022244207"><ele>1130.0</ele><time>2026-04-25T12:53:13.78Z</time></trkpt><trkpt lat="44.056703788526406" lon="10.875443999636794"><ele>1130.0</ele><time>2026-04-25T12:53:19.78Z</time></trkpt><trkpt lat="44.056689410786404" lon="10.875537489954981"><ele>1130.0</ele><time>2026-04-25T12:53:23.78Z</time></trkpt><trkpt lat="44.0566634513331" lon="10.87564434145344"><ele>1129.9999999999998</ele><time>2026-04-25T12:53:28.78Z</time></trkpt><trkpt lat="44.05667618096886" lon="10.875739274971869"><ele>1130.0</ele><time>2026-04-25T12:53:32.78Z</time></trkpt><trkpt lat="44.05671692018204" lon="10.875817687201952"><ele>1130.0</ele><time>2026-04-25T12:53:36.78Z</time></trkpt><trkpt lat="44.056758525395125" lon="10.875903810222956"><ele>1130.0</ele><time>2026-04-25T12:53:40.78Z</time></trkpt><trkpt lat="44.05679686213627" lon="10.876009038368213"><ele>1130.0</ele><time>2026-04-25T12:53:43.78Z</time></trkpt><trkpt lat="44.056822135398605" lon="10.876115586355027"><ele>1130.0</ele><time>2026-04-25T12:53:46.78Z</time></trkpt><trkpt lat="44.05685346476714" lon="10.876245877600722"><ele>1130.0</ele><time>2026-04-25T12:53:49.78Z</time></trkpt><trkpt lat="44.05690083633777" lon="10.876344138917055"><ele>1130.0</ele><time>2026-04-25T12:53:52.78Z</time></trkpt><trkpt lat="44.05697857206918" lon="10.876398911473713"><ele>1126.0</ele><time>2026-04-25T12:53:54.78Z</time></trkpt><trkpt lat="44.057036754671145" lon="10.876433322641843"><ele>1122.0</ele><time>2026-04-25T12:53:56.78Z</time></trkpt><trkpt lat="44.057100543312956" lon="10.876449134100818"><ele>1118.0</ele><time>2026-04-25T12:53:58.779Z</time></trkpt><trkpt lat="44.057205499282446" lon="10.876475927537225"><ele>1114.0</ele><time>2026-04-25T12:54:00.779Z</time></trkpt><trkpt lat="44.057290364843396" lon="10.876485156714901"><ele>1110.0</ele><time>2026-04-25T12:54:02.779Z</time></trkpt><trkpt lat="44.05735885632618" lon="10.876523950918122"><ele>1106.0</ele><time>2026-04-25T12:54:04.779Z</time></trkpt><trkpt lat="44.05742426344704" lon="10.876585949711986"><ele>1104.3999999999999</ele><time>2026-04-25T12:54:07.779Z</time></trkpt><trkpt lat="44.057493078553016" lon="10.876690895633068"><ele>1102.8</ele><time>2026-04-25T12:54:11.779Z</time></trkpt><trkpt lat="44.057555706853" lon="10.876765950442433"><ele>1101.1999999999998</ele><time>2026-04-25T12:54:13.779Z</time></trkpt><trkpt lat="44.05762122178456" lon="10.87684053750537"><ele>1099.6</ele><time>2026-04-25T12:54:15.779Z</time></trkpt><trkpt lat="44.05770847985689" lon="10.876904659693114"><ele>1098.0</ele><time>2026-04-25T12:54:17.779Z</time></trkpt><trkpt lat="44.05781298673663" lon="10.876951188686085"><ele>1098.0</ele><time>2026-04-25T12:54:19.779Z</time></trkpt><trkpt lat="44.05791286945817" lon="10.876949080108353"><ele>1098.0</ele><time>2026-04-25T12:54:21.779Z</time></trkpt><trkpt lat="44.058015918233195" lon="10.876920982058024"><ele>1098.0</ele><time>2026-04-25T12:54:23.778Z</time></trkpt><trkpt lat="44.0580828180169" lon="10.876896385201476"><ele>1098.0</ele><time>2026-04-25T12:54:25.779Z</time></trkpt><trkpt lat="44.058173810465036" lon="10.87689567746186"><ele>1098.0</ele><time>2026-04-25T12:54:27.779Z</time></trkpt><trkpt lat="44.058239927468065" lon="10.876902008198535"><ele>1098.0</ele><time>2026-04-25T12:54:29.778Z</time></trkpt><trkpt lat="44.05827613849372" lon="10.876998929451881"><ele>1096.1666666666667</ele><time>2026-04-25T12:54:33.778Z</time></trkpt><trkpt lat="44.05829758284698" lon="10.87709299234865"><ele>1094.3333333333333</ele><time>2026-04-25T12:54:35.778Z</time></trkpt><trkpt lat="44.05832789673741" lon="10.877180872710367"><ele>1092.5</ele><time>2026-04-25T12:54:37.778Z</time></trkpt><trkpt lat="44.058349581702856" lon="10.877287719637048"><ele>1090.6666666666665</ele><time>2026-04-25T12:54:39.778Z</time></trkpt><trkpt lat="44.05840105853431" lon="10.877409064937881"><ele>1088.8333333333333</ele><time>2026-04-25T12:54:42.778Z</time></trkpt><trkpt lat="44.05846887763342" lon="10.877532982134131"><ele>1087.0</ele><time>2026-04-25T12:54:44.778Z</time></trkpt><trkpt lat="44.058580763151056" lon="10.877627342495394"><ele>1087.0</ele><time>2026-04-25T12:54:46.778Z</time></trkpt><trkpt lat="44.05868951218381" lon="10.877680072923342"><ele>1087.0</ele><time>2026-04-25T12:54:48.778Z</time></trkpt><trkpt lat="44.05878419813983" lon="10.877711912652044"><ele>1087.0</ele><time>2026-04-25T12:54:50.778Z</time></trkpt><trkpt lat="44.058877983334014" lon="10.877758676675159"><ele>1087.0</ele><time>2026-04-25T12:54:52.778Z</time></trkpt><trkpt lat="44.05896723755074" lon="10.877801679431569"><ele>1087.0</ele><time>2026-04-25T12:54:54.778Z</time></trkpt><trkpt lat="44.05906425422355" lon="10.877825068507912"><ele>1090.6666666666665</ele><time>2026-04-25T12:54:56.778Z</time></trkpt><trkpt lat="44.05916419935578" lon="10.877838822016772"><ele>1094.3333333333333</ele><time>2026-04-25T12:54:58.778Z</time></trkpt><trkpt lat="44.059242707212896" lon="10.877817526961282"><ele>1098.0</ele><time>2026-04-25T12:55:00.778Z</time></trkpt><trkpt lat="44.05932131907803" lon="10.87780372058764"><ele>1101.6666666666667</ele><time>2026-04-25T12:55:02.778Z</time></trkpt><trkpt lat="44.05939486176986" lon="10.87778894741808"><ele>1105.3333333333335</ele><time>2026-04-25T12:55:04.778Z</time></trkpt><trkpt lat="44.059454858826754" lon="10.877830132070327"><ele>1109.0</ele><time>2026-04-25T12:55:07.778Z</time></trkpt><trkpt lat="44.05950126202041" lon="10.877920514353598"><ele>1109.0</ele><time>2026-04-25T12:55:09.778Z</time></trkpt><trkpt lat="44.05954784926553" lon="10.877987045678122"><ele>1109.0</ele><time>2026-04-25T12:55:11.778Z</time></trkpt><trkpt lat="44.059560317834084" lon="10.878094767092644"><ele>1109.0</ele><time>2026-04-25T12:55:14.778Z</time></trkpt><trkpt lat="44.05958170732068" lon="10.87823643472949"><ele>1109.0</ele><time>2026-04-25T12:55:16.778Z</time></trkpt><trkpt lat="44.059599382428345" lon="10.878328943764446"><ele>1109.0</ele><time>2026-04-25T12:55:18.778Z</time></trkpt><trkpt lat="44.05959675244147" lon="10.87843546680667"><ele>1109.0</ele><time>2026-04-25T12:55:21.778Z</time></trkpt><trkpt lat="44.059559313859296" lon="10.878560111670392"><ele>1109.0</ele><time>2026-04-25T12:55:25.777Z</time></trkpt><trkpt lat="44.05951868863055" lon="10.878636974885469"><ele>1109.0</ele><time>2026-04-25T12:55:28.777Z</time></trkpt><trkpt lat="44.05947483551538" lon="10.878749012660984"><ele>1109.0</ele><time>2026-04-25T12:55:31.777Z</time></trkpt><trkpt lat="44.05944172685136" lon="10.878827156051114"><ele>1109.0</ele><time>2026-04-25T12:55:33.776Z</time></trkpt><trkpt lat="44.05938899348956" lon="10.878901341640706"><ele>1109.0</ele><time>2026-04-25T12:55:35.776Z</time></trkpt><trkpt lat="44.05935634436714" lon="10.87901710208095"><ele>1109.0</ele><time>2026-04-25T12:55:37.776Z</time></trkpt><trkpt lat="44.05935370555837" lon="10.879113316459451"><ele>1109.0</ele><time>2026-04-25T12:55:39.776Z</time></trkpt><trkpt lat="44.059368660565966" lon="10.879225934658567"><ele>1109.0</ele><time>2026-04-25T12:55:41.776Z</time></trkpt><trkpt lat="44.05932038768645" lon="10.879319026145822"><ele>1109.0</ele><time>2026-04-25T12:55:44.776Z</time></trkpt><trkpt lat="44.0592946132584" lon="10.879455927616728"><ele>1109.0</ele><time>2026-04-25T12:55:47.775Z</time></trkpt><trkpt lat="44.05923963288976" lon="10.879579257131319"><ele>1109.0</ele><time>2026-04-25T12:55:50.775Z</time></trkpt><trkpt lat="44.059207470906216" lon="10.879706600539459"><ele>1108.5</ele><time>2026-04-25T12:55:52.775Z</time></trkpt><trkpt lat="44.05917942537534" lon="10.879837995860704"><ele>1108.0</ele><time>2026-04-25T12:55:54.775Z</time></trkpt><trkpt lat="44.05917550557316" lon="10.879955083049936"><ele>1107.5</ele><time>2026-04-25T12:55:56.775Z</time></trkpt><trkpt lat="44.05915002310996" lon="10.880068600437738"><ele>1107.0</ele><time>2026-04-25T12:55:58.775Z</time></trkpt><trkpt lat="44.05914535058798" lon="10.880172264475844"><ele>1106.5</ele><time>2026-04-25T12:56:00.775Z</time></trkpt><trkpt lat="44.059119941305724" lon="10.880273521235708"><ele>1106.0</ele><time>2026-04-25T12:56:02.775Z</time></trkpt><trkpt lat="44.05910882078837" lon="10.88038035534033"><ele>1106.0</ele><time>2026-04-25T12:56:05.775Z</time></trkpt><trkpt lat="44.059077859097705" lon="10.880471557300119"><ele>1106.0</ele><time>2026-04-25T12:56:09.775Z</time></trkpt><trkpt lat="44.0589908587004" lon="10.880546995103254"><ele>1106.0</ele><time>2026-04-25T12:56:12.775Z</time></trkpt><trkpt lat="44.05892531911395" lon="10.880592023732918"><ele>1106.0</ele><time>2026-04-25T12:56:14.775Z</time></trkpt><trkpt lat="44.058840197026264" lon="10.880627127585063"><ele>1106.0</ele><time>2026-04-25T12:56:17.775Z</time></trkpt><trkpt lat="44.05874657149772" lon="10.880640622891445"><ele>1106.0</ele><time>2026-04-25T12:56:19.775Z</time></trkpt><trkpt lat="44.05864474908154" lon="10.880663200646747"><ele>1106.0</ele><time>2026-04-25T12:56:21.775Z</time></trkpt><trkpt lat="44.05857483516717" lon="10.880658225262513"><ele>1106.0</ele><time>2026-04-25T12:56:22.775Z</time></trkpt><trkpt lat="44.058480242707944" lon="10.880686693062534"><ele>1106.0</ele><time>2026-04-25T12:56:24.775Z</time></trkpt><trkpt lat="44.05839559203802" lon="10.880712851378675"><ele>1106.0</ele><time>2026-04-25T12:56:26.775Z</time></trkpt><trkpt lat="44.05830630203911" lon="10.880713799220675"><ele>1106.0</ele><time>2026-04-25T12:56:28.775Z</time></trkpt><trkpt lat="44.05823996431476" lon="10.880708562040953"><ele>1106.0</ele><time>2026-04-25T12:56:29.775Z</time></trkpt><trkpt lat="44.05816376765508" lon="10.880736681831644"><ele>1103.2</ele><time>2026-04-25T12:56:31.775Z</time></trkpt><trkpt lat="44.058059861095806" lon="10.88077773969011"><ele>1100.3999999999999</ele><time>2026-04-25T12:56:33.775Z</time></trkpt><trkpt lat="44.05795945383917" lon="10.880828514775452"><ele>1097.6</ele><time>2026-04-25T12:56:35.774Z</time></trkpt><trkpt lat="44.05783742413528" lon="10.880869161638024"><ele>1094.8</ele><time>2026-04-25T12:56:37.774Z</time></trkpt><trkpt lat="44.057750820909774" lon="10.880924402406473"><ele>1092.0</ele><time>2026-04-25T12:56:39.774Z</time></trkpt><trkpt lat="44.05768636582464" lon="10.8810351675564"><ele>1092.0</ele><time>2026-04-25T12:56:41.774Z</time></trkpt><trkpt lat="44.05762903998797" lon="10.881154722256259"><ele>1092.0</ele><time>2026-04-25T12:56:43.774Z</time></trkpt><trkpt lat="44.05760254866599" lon="10.881275642552428"><ele>1092.0</ele><time>2026-04-25T12:56:45.774Z</time></trkpt><trkpt lat="44.057600795944694" lon="10.881374252254437"><ele>1092.0</ele><time>2026-04-25T12:56:47.774Z</time></trkpt><trkpt lat="44.05759688030853" lon="10.88152088998646"><ele>1092.0</ele><time>2026-04-25T12:56:50.774Z</time></trkpt><trkpt lat="44.057621553396395" lon="10.881650176628215"><ele>1092.0</ele><time>2026-04-25T12:56:53.774Z</time></trkpt><trkpt lat="44.05762357367092" lon="10.881754094237008"><ele>1092.0</ele><time>2026-04-25T12:56:55.774Z</time></trkpt><trkpt lat="44.05762230743991" lon="10.881896159560851"><ele>1092.0</ele><time>2026-04-25T12:56:58.774Z</time></trkpt><trkpt lat="44.05761481304808" lon="10.88201638627744"><ele>1092.0</ele><time>2026-04-25T12:57:00.774Z</time></trkpt><trkpt lat="44.0576046257139" lon="10.88212257612644"><ele>1092.0</ele><time>2026-04-25T12:57:02.774Z</time></trkpt><trkpt lat="44.057580269901" lon="10.882228166436295"><ele>1092.0</ele><time>2026-04-25T12:57:04.774Z</time></trkpt><trkpt lat="44.05756645011206" lon="10.882347542232749"><ele>1092.0</ele><time>2026-04-25T12:57:06.774Z</time></trkpt><trkpt lat="44.05753976575335" lon="10.882482744294816"><ele>1092.0</ele><time>2026-04-25T12:57:08.774Z</time></trkpt><trkpt lat="44.057521670403844" lon="10.88257909021187"><ele>1092.0</ele><time>2026-04-25T12:57:10.774Z</time></trkpt><trkpt lat="44.0574803510833" lon="10.882709030143227"><ele>1092.0</ele><time>2026-04-25T12:57:12.774Z</time></trkpt><trkpt lat="44.05746515419964" lon="10.882825658682545"><ele>1092.0</ele><time>2026-04-25T12:57:14.774Z</time></trkpt><trkpt lat="44.057430212527606" lon="10.882969299305394"><ele>1084.2</ele><time>2026-04-25T12:57:16.774Z</time></trkpt><trkpt lat="44.05740647003318" lon="10.883130846183702"><ele>1076.4</ele><time>2026-04-25T12:57:18.774Z</time></trkpt><trkpt lat="44.057382565729704" lon="10.883236585988785"><ele>1068.6</ele><time>2026-04-25T12:57:19.774Z</time></trkpt><trkpt lat="44.05738387895768" lon="10.883397414763175"><ele>1060.8</ele><time>2026-04-25T12:57:21.774Z</time></trkpt><trkpt lat="44.05738139650722" lon="10.883493194267533"><ele>1053.0</ele><time>2026-04-25T12:57:22.774Z</time></trkpt><trkpt lat="44.05737323847181" lon="10.883635342920702"><ele>1052.6666666666667</ele><time>2026-04-25T12:57:24.774Z</time></trkpt><trkpt lat="44.05733944457346" lon="10.88370933481386"><ele>1052.3333333333333</ele><time>2026-04-25T12:57:26.774Z</time></trkpt><trkpt lat="44.057365834573226" lon="10.883835086385204"><ele>1052.0</ele><time>2026-04-25T12:57:28.774Z</time></trkpt><trkpt lat="44.05737567866853" lon="10.883936814262954"><ele>1051.6666666666665</ele><time>2026-04-25T12:57:30.774Z</time></trkpt><trkpt lat="44.057357399996256" lon="10.884021848386624"><ele>1051.3333333333333</ele><time>2026-04-25T12:57:31.774Z</time></trkpt><trkpt lat="44.05733497680102" lon="10.88416113964239"><ele>1051.0</ele><time>2026-04-25T12:57:33.774Z</time></trkpt><trkpt lat="44.05731261407643" lon="10.884273926242068"><ele>1051.8</ele><time>2026-04-25T12:57:35.774Z</time></trkpt><trkpt lat="44.05724824332586" lon="10.884423665157065"><ele>1052.6</ele><time>2026-04-25T12:57:38.774Z</time></trkpt><trkpt lat="44.057193989192584" lon="10.884592277152379"><ele>1053.4</ele><time>2026-04-25T12:57:40.774Z</time></trkpt><trkpt lat="44.05714497351453" lon="10.884686057475307"><ele>1054.2</ele><time>2026-04-25T12:57:41.774Z</time></trkpt><trkpt lat="44.05712775994347" lon="10.884812364999686"><ele>1055.0</ele><time>2026-04-25T12:57:43.774Z</time></trkpt><trkpt lat="44.05711228194806" lon="10.884937930946505"><ele>1055.0</ele><time>2026-04-25T12:57:45.774Z</time></trkpt><trkpt lat="44.057139331259926" lon="10.885084347120097"><ele>1055.0</ele><time>2026-04-25T12:57:47.774Z</time></trkpt><trkpt lat="44.05712553937768" lon="10.885197798569202"><ele>1055.0</ele><time>2026-04-25T12:57:49.774Z</time></trkpt><trkpt lat="44.05709486117282" lon="10.885336325911734"><ele>1055.0</ele><time>2026-04-25T12:57:51.774Z</time></trkpt><trkpt lat="44.05705406473691" lon="10.885475852299612"><ele>1055.0</ele><time>2026-04-25T12:57:53.774Z</time></trkpt><trkpt lat="44.056995674430745" lon="10.885576457551673"><ele>1055.8333333333335</ele><time>2026-04-25T12:57:55.774Z</time></trkpt><trkpt lat="44.056928979237746" lon="10.88568054188786"><ele>1056.6666666666667</ele><time>2026-04-25T12:57:57.774Z</time></trkpt><trkpt lat="44.056882020856264" lon="10.885767801785429"><ele>1057.5</ele><time>2026-04-25T12:57:58.774Z</time></trkpt><trkpt lat="44.05684141750798" lon="10.885856046146614"><ele>1058.3333333333333</ele><time>2026-04-25T12:58:00.774Z</time></trkpt><trkpt lat="44.05684742014865" lon="10.885948825157008"><ele>1059.1666666666665</ele><time>2026-04-25T12:58:02.774Z</time></trkpt><trkpt lat="44.056758967652875" lon="10.886036947074023"><ele>1060.0</ele><time>2026-04-25T12:58:05.774Z</time></trkpt><trkpt lat="44.056693416394886" lon="10.88611040578748"><ele>1057.3333333333333</ele><time>2026-04-25T12:58:07.774Z</time></trkpt><trkpt lat="44.05657805351975" lon="10.886206105884872"><ele>1054.6666666666665</ele><time>2026-04-25T12:58:09.774Z</time></trkpt><trkpt lat="44.05653440940849" lon="10.88627497549487"><ele>1052.0</ele><time>2026-04-25T12:58:10.774Z</time></trkpt><trkpt lat="44.056494166654716" lon="10.886353081399633"><ele>1049.3333333333333</ele><time>2026-04-25T12:58:11.774Z</time></trkpt><trkpt lat="44.05644000487452" lon="10.886420905311851"><ele>1046.6666666666667</ele><time>2026-04-25T12:58:12.774Z</time></trkpt><trkpt lat="44.05640423092529" lon="10.886529387355589"><ele>1044.0</ele><time>2026-04-25T12:58:14.774Z</time></trkpt><trkpt lat="44.05635620183877" lon="10.88662680264611"><ele>1044.0</ele><time>2026-04-25T12:58:16.774Z</time></trkpt><trkpt lat="44.05629502866082" lon="10.886726938822052"><ele>1044.0</ele><time>2026-04-25T12:58:18.774Z</time></trkpt><trkpt lat="44.056203671469916" lon="10.886808585467282"><ele>1044.0</ele><time>2026-04-25T12:58:20.774Z</time></trkpt><trkpt lat="44.05609244986012" lon="10.886890531964337"><ele>1044.0</ele><time>2026-04-25T12:58:22.774Z</time></trkpt><trkpt lat="44.056021846737714" lon="10.886928080545543"><ele>1044.0</ele><time>2026-04-25T12:58:24.774Z</time></trkpt><trkpt lat="44.055918701877175" lon="10.886990650892336"><ele>1043.8</ele><time>2026-04-25T12:58:26.774Z</time></trkpt><trkpt lat="44.05582848156038" lon="10.887083837307586"><ele>1043.6000000000001</ele><time>2026-04-25T12:58:28.774Z</time></trkpt><trkpt lat="44.055754668673984" lon="10.887148348457007"><ele>1043.4</ele><time>2026-04-25T12:58:30.773Z</time></trkpt><trkpt lat="44.05569057214511" lon="10.887207203759575"><ele>1043.2</ele><time>2026-04-25T12:58:32.774Z</time></trkpt><trkpt lat="44.055634469757436" lon="10.88725931944583"><ele>1043.0</ele><time>2026-04-25T12:58:33.774Z</time></trkpt><trkpt lat="44.05553949606506" lon="10.887329391144533"><ele>1043.0</ele><time>2026-04-25T12:58:35.774Z</time></trkpt><trkpt lat="44.055431631099445" lon="10.88740277447292"><ele>1043.0</ele><time>2026-04-25T12:58:37.773Z</time></trkpt><trkpt lat="44.05534856648557" lon="10.887500400869962"><ele>1043.0</ele><time>2026-04-25T12:58:39.773Z</time></trkpt><trkpt lat="44.05529859720274" lon="10.88764325209991"><ele>1043.0</ele><time>2026-04-25T12:58:41.774Z</time></trkpt><trkpt lat="44.05526265155503" lon="10.887720811652132"><ele>1043.0</ele><time>2026-04-25T12:58:42.774Z</time></trkpt><trkpt lat="44.05523482594537" lon="10.887829944521851"><ele>1043.6</ele><time>2026-04-25T12:58:44.774Z</time></trkpt><trkpt lat="44.05523725842489" lon="10.887937150337917"><ele>1044.1999999999998</ele><time>2026-04-25T12:58:47.774Z</time></trkpt><trkpt lat="44.05521165524183" lon="10.888071305708912"><ele>1044.8</ele><time>2026-04-25T12:58:49.774Z</time></trkpt><trkpt lat="44.05518053549519" lon="10.888224362666893"><ele>1045.3999999999999</ele><time>2026-04-25T12:58:51.774Z</time></trkpt><trkpt lat="44.05515663299431" lon="10.888375942395257"><ele>1046.0</ele><time>2026-04-25T12:58:53.774Z</time></trkpt><trkpt lat="44.05514009609928" lon="10.888463326782889"><ele>1046.0</ele><time>2026-04-25T12:58:54.774Z</time></trkpt><trkpt lat="44.055113689800734" lon="10.888545650573676"><ele>1046.0</ele><time>2026-04-25T12:58:55.774Z</time></trkpt><trkpt lat="44.05509019381952" lon="10.888660234555235"><ele>1046.0</ele><time>2026-04-25T12:58:56.774Z</time></trkpt><trkpt lat="44.055053286361186" lon="10.888754722864677"><ele>1046.0</ele><time>2026-04-25T12:58:57.774Z</time></trkpt><trkpt lat="44.0550026898598" lon="10.888869651813707"><ele>1046.0</ele><time>2026-04-25T12:58:59.773Z</time></trkpt><trkpt lat="44.05495708969637" lon="10.88894384864417"><ele>1046.0</ele><time>2026-04-25T12:59:00.773Z</time></trkpt><trkpt lat="44.054914326546196" lon="10.889015172414197"><ele>1041.5</ele><time>2026-04-25T12:59:01.773Z</time></trkpt><trkpt lat="44.05490020641168" lon="10.889132873610357"><ele>1037.0</ele><time>2026-04-25T12:59:03.773Z</time></trkpt><trkpt lat="44.05489219473809" lon="10.889221539503252"><ele>1032.5</ele><time>2026-04-25T12:59:04.773Z</time></trkpt><trkpt lat="44.054890106144605" lon="10.88936255034396"><ele>1028.0</ele><time>2026-04-25T12:59:06.773Z</time></trkpt><trkpt lat="44.05485788634883" lon="10.88946970801546"><ele>1023.5000000000001</ele><time>2026-04-25T12:59:08.773Z</time></trkpt><trkpt lat="44.05485176389593" lon="10.889605202294764"><ele>1019.0</ele><time>2026-04-25T12:59:10.773Z</time></trkpt><trkpt lat="44.05484372112563" lon="10.88970882233295"><ele>1019.0</ele><time>2026-04-25T12:59:12.773Z</time></trkpt><trkpt lat="44.05481638705693" lon="10.889800699400475"><ele>1019.0000000000001</ele><time>2026-04-25T12:59:14.773Z</time></trkpt><trkpt lat="44.0547922255595" lon="10.889940054192143"><ele>1019.0000000000001</ele><time>2026-04-25T12:59:16.773Z</time></trkpt><trkpt lat="44.0547388579579" lon="10.890048968613371"><ele>1019.0</ele><time>2026-04-25T12:59:18.773Z</time></trkpt><trkpt lat="44.054682890181326" lon="10.89014686942367"><ele>1019.0</ele><time>2026-04-25T12:59:20.773Z</time></trkpt><trkpt lat="44.05464333197527" lon="10.890261628356843"><ele>1020.8000000000001</ele><time>2026-04-25T12:59:22.773Z</time></trkpt><trkpt lat="44.05463296963821" lon="10.890404247839667"><ele>1022.6000000000001</ele><time>2026-04-25T12:59:24.773Z</time></trkpt><trkpt lat="44.054568828631666" lon="10.890537371870359"><ele>1024.4</ele><time>2026-04-25T12:59:26.773Z</time></trkpt><trkpt lat="44.054557860741326" lon="10.890642894593906"><ele>1026.2</ele><time>2026-04-25T12:59:27.773Z</time></trkpt><trkpt lat="44.054561301871026" lon="10.890795451525108"><ele>1028.0</ele><time>2026-04-25T12:59:29.773Z</time></trkpt><trkpt lat="44.054525209655615" lon="10.890876070257972"><ele>1029.0</ele><time>2026-04-25T12:59:30.773Z</time></trkpt><trkpt lat="44.054479122718725" lon="10.891001042641074"><ele>1030.0</ele><time>2026-04-25T12:59:32.773Z</time></trkpt><trkpt lat="44.05444438028314" lon="10.891102641056627"><ele>1031.0</ele><time>2026-04-25T12:59:34.773Z</time></trkpt><trkpt lat="44.05437513653682" lon="10.891186006507647"><ele>1032.0</ele><time>2026-04-25T12:59:36.773Z</time></trkpt><trkpt lat="44.054275411800596" lon="10.89123216985636"><ele>1033.0</ele><time>2026-04-25T12:59:39.773Z</time></trkpt><trkpt lat="44.05420108659169" lon="10.89123666830651"><ele>1033.0</ele><time>2026-04-25T12:59:42.773Z</time></trkpt><trkpt lat="44.054132529879865" lon="10.891167459643082"><ele>1033.0</ele><time>2026-04-25T12:59:45.773Z</time></trkpt><trkpt lat="44.054103866753344" lon="10.891085724904105"><ele>1033.0</ele><time>2026-04-25T12:59:48.773Z</time></trkpt><trkpt lat="44.054099152984364" lon="10.89096978313658"><ele>1033.0</ele><time>2026-04-25T12:59:52.773Z</time></trkpt><trkpt lat="44.05410095019741" lon="10.89085739265347"><ele>1033.0</ele><time>2026-04-25T12:59:55.773Z</time></trkpt><trkpt lat="44.05409055487193" lon="10.890760212178533"><ele>1033.0</ele><time>2026-04-25T12:59:58.773Z</time></trkpt><trkpt lat="44.05412421223527" lon="10.890658159406808"><ele>1032.1666666666665</ele><time>2026-04-25T13:00:01.773Z</time></trkpt><trkpt lat="44.05412136942334" lon="10.890565966246077"><ele>1031.3333333333333</ele><time>2026-04-25T13:00:03.773Z</time></trkpt><trkpt lat="44.05412769019425" lon="10.890423192857654"><ele>1030.5</ele><time>2026-04-25T13:00:05.773Z</time></trkpt><trkpt lat="44.05413995198127" lon="10.890283164102184"><ele>1029.6666666666667</ele><time>2026-04-25T13:00:07.773Z</time></trkpt><trkpt lat="44.05415873161505" lon="10.890167596920966"><ele>1028.8333333333335</ele><time>2026-04-25T13:00:09.773Z</time></trkpt><trkpt lat="44.05417622401518" lon="10.890052152076148"><ele>1028.0</ele><time>2026-04-25T13:00:11.773Z</time></trkpt><trkpt lat="44.054204395120486" lon="10.889936841118955"><ele>1026.7142857142858</ele><time>2026-04-25T13:00:13.773Z</time></trkpt><trkpt lat="44.05421279939468" lon="10.88984965833756"><ele>1025.4285714285716</ele><time>2026-04-25T13:00:15.773Z</time></trkpt><trkpt lat="44.05423270711648" lon="10.88975710192991"><ele>1024.1428571428573</ele><time>2026-04-25T13:00:17.773Z</time></trkpt><trkpt lat="44.0542362104694" lon="10.889659393953503"><ele>1022.8571428571429</ele><time>2026-04-25T13:00:19.773Z</time></trkpt><trkpt lat="44.05425922517616" lon="10.889550901056511"><ele>1021.5714285714287</ele><time>2026-04-25T13:00:21.773Z</time></trkpt><trkpt lat="44.05425637805667" lon="10.889449319097242"><ele>1020.2857142857144</ele><time>2026-04-25T13:00:23.773Z</time></trkpt><trkpt lat="44.05426434818723" lon="10.889347292537135"><ele>1019.0000000000001</ele><time>2026-04-25T13:00:25.773Z</time></trkpt><trkpt lat="44.05426073549142" lon="10.889218750319609"><ele>1017.5000000000001</ele><time>2026-04-25T13:00:27.773Z</time></trkpt><trkpt lat="44.05423633348611" lon="10.889123233672422"><ele>1016.0</ele><time>2026-04-25T13:00:28.773Z</time></trkpt><trkpt lat="44.054205746504536" lon="10.88903399732459"><ele>1014.5</ele><time>2026-04-25T13:00:29.773Z</time></trkpt><trkpt lat="44.05417845004713" lon="10.888920174961099"><ele>1013.0</ele><time>2026-04-25T13:00:30.773Z</time></trkpt><trkpt lat="44.054133724152265" lon="10.888774967332381"><ele>1011.5000000000001</ele><time>2026-04-25T13:00:32.773Z</time></trkpt><trkpt lat="44.054071826819964" lon="10.888656285527487"><ele>1010.0</ele><time>2026-04-25T13:00:34.772Z</time></trkpt><trkpt lat="44.05404606788999" lon="10.888549808062304"><ele>1003.6</ele><time>2026-04-25T13:00:36.772Z</time></trkpt><trkpt lat="44.05397975802624" lon="10.888434420944188"><ele>997.2</ele><time>2026-04-25T13:00:39.772Z</time></trkpt><trkpt lat="44.05393037594423" lon="10.888289358189839"><ele>990.8</ele><time>2026-04-25T13:00:41.771Z</time></trkpt><trkpt lat="44.05390830342612" lon="10.888197584146315"><ele>984.4</ele><time>2026-04-25T13:00:42.771Z</time></trkpt><trkpt lat="44.053893872375966" lon="10.888107643835554"><ele>978.0</ele><time>2026-04-25T13:00:43.772Z</time></trkpt><trkpt lat="44.05385159281069" lon="10.887945721203915"><ele>977.1666666666666</ele><time>2026-04-25T13:00:45.772Z</time></trkpt><trkpt lat="44.05383499081118" lon="10.887855476212863"><ele>976.3333333333333</ele><time>2026-04-25T13:00:46.772Z</time></trkpt><trkpt lat="44.05383719556916" lon="10.887707277037318"><ele>975.5</ele><time>2026-04-25T13:00:49.772Z</time></trkpt><trkpt lat="44.05382099573369" lon="10.887589135609359"><ele>974.6666666666666</ele><time>2026-04-25T13:00:51.772Z</time></trkpt><trkpt lat="44.05380073067649" lon="10.88748778671572"><ele>973.8333333333333</ele><time>2026-04-25T13:00:53.772Z</time></trkpt><trkpt lat="44.05380693353421" lon="10.887399199009526"><ele>973.0</ele><time>2026-04-25T13:00:55.772Z</time></trkpt><trkpt lat="44.053823961490636" lon="10.887313401384207"><ele>973.0</ele><time>2026-04-25T13:00:57.772Z</time></trkpt><trkpt lat="44.05384431706106" lon="10.887208390294457"><ele>973.0</ele><time>2026-04-25T13:00:59.772Z</time></trkpt><trkpt lat="44.05385197915571" lon="10.887119245066932"><ele>973.0</ele><time>2026-04-25T13:01:01.772Z</time></trkpt><trkpt lat="44.05388213467881" lon="10.886950743035792"><ele>973.0</ele><time>2026-04-25T13:01:04.772Z</time></trkpt><trkpt lat="44.05390808504892" lon="10.886852683215793"><ele>973.0</ele><time>2026-04-25T13:01:06.772Z</time></trkpt><trkpt lat="44.05397120981598" lon="10.886731687309963"><ele>973.3333333333333</ele><time>2026-04-25T13:01:08.772Z</time></trkpt><trkpt lat="44.05400069690195" lon="10.886624505542756"><ele>973.6666666666666</ele><time>2026-04-25T13:01:10.772Z</time></trkpt><trkpt lat="44.05405322527912" lon="10.886523721891596"><ele>974.0</ele><time>2026-04-25T13:01:12.772Z</time></trkpt><trkpt lat="44.05408848136941" lon="10.88644296363337"><ele>974.3333333333333</ele><time>2026-04-25T13:01:14.772Z</time></trkpt><trkpt lat="44.054167934428214" lon="10.886361900680736"><ele>974.6666666666666</ele><time>2026-04-25T13:01:16.772Z</time></trkpt><trkpt lat="44.054239704902365" lon="10.886295099362343"><ele>975.0</ele><time>2026-04-25T13:01:18.772Z</time></trkpt><trkpt lat="44.05430331872299" lon="10.886233722953367"><ele>976.3333333333334</ele><time>2026-04-25T13:01:20.772Z</time></trkpt><trkpt lat="44.05437248858972" lon="10.886178287964421"><ele>977.6666666666667</ele><time>2026-04-25T13:01:22.772Z</time></trkpt><trkpt lat="44.054431764899654" lon="10.886146718564751"><ele>979.0</ele><time>2026-04-25T13:01:24.772Z</time></trkpt><trkpt lat="44.05450392214652" lon="10.886090703297445"><ele>980.3333333333334</ele><time>2026-04-25T13:01:26.772Z</time></trkpt><trkpt lat="44.05456415206503" lon="10.886036196665957"><ele>981.6666666666667</ele><time>2026-04-25T13:01:28.772Z</time></trkpt><trkpt lat="44.054623993436124" lon="10.885989966326767"><ele>983.0</ele><time>2026-04-25T13:01:30.772Z</time></trkpt><trkpt lat="44.0547232678536" lon="10.885908396710162"><ele>983.0</ele><time>2026-04-25T13:01:32.772Z</time></trkpt><trkpt lat="44.05480402440147" lon="10.885871265226053"><ele>983.0</ele><time>2026-04-25T13:01:34.772Z</time></trkpt><trkpt lat="44.05488551721915" lon="10.885812419022933"><ele>983.0</ele><time>2026-04-25T13:01:36.772Z</time></trkpt><trkpt lat="44.05494074081853" lon="10.88568052623745"><ele>983.0</ele><time>2026-04-25T13:01:38.772Z</time></trkpt><trkpt lat="44.05503122859035" lon="10.88563778078054"><ele>983.0</ele><time>2026-04-25T13:01:40.772Z</time></trkpt><trkpt lat="44.0550712468302" lon="10.88552492729226"><ele>982.0000000000001</ele><time>2026-04-25T13:01:43.772Z</time></trkpt><trkpt lat="44.055062929293854" lon="10.885421211251305"><ele>981.0</ele><time>2026-04-25T13:01:45.772Z</time></trkpt><trkpt lat="44.05507687920946" lon="10.88531231754212"><ele>980.0</ele><time>2026-04-25T13:01:47.772Z</time></trkpt><trkpt lat="44.055107818949615" lon="10.885171927296652"><ele>979.0</ele><time>2026-04-25T13:01:49.772Z</time></trkpt><trkpt lat="44.05512892915855" lon="10.885033947017904"><ele>978.0000000000001</ele><time>2026-04-25T13:01:51.772Z</time></trkpt><trkpt lat="44.055146775636004" lon="10.884927058386785"><ele>977.0</ele><time>2026-04-25T13:01:52.772Z</time></trkpt><trkpt lat="44.05509862185069" lon="10.884814247433534"><ele>977.0</ele><time>2026-04-25T13:01:55.772Z</time></trkpt><trkpt lat="44.05501402247397" lon="10.884787256470231"><ele>977.0</ele><time>2026-04-25T13:01:57.772Z</time></trkpt><trkpt lat="44.05490880438027" lon="10.884737355509285"><ele>977.0</ele><time>2026-04-25T13:02:01.772Z</time></trkpt><trkpt lat="44.054846599913084" lon="10.884669786052925"><ele>977.0</ele><time>2026-04-25T13:02:03.772Z</time></trkpt><trkpt lat="44.05479613236136" lon="10.884546051728222"><ele>977.0</ele><time>2026-04-25T13:02:05.772Z</time></trkpt><trkpt lat="44.054762231221225" lon="10.88441142042884"><ele>973.0000000000001</ele><time>2026-04-25T13:02:07.771Z</time></trkpt><trkpt lat="44.05476674672936" lon="10.884277608878543"><ele>969.0</ele><time>2026-04-25T13:02:09.771Z</time></trkpt><trkpt lat="44.05479607514524" lon="10.884143367404942"><ele>965.0</ele><time>2026-04-25T13:02:11.771Z</time></trkpt><trkpt lat="44.05482347674001" lon="10.884015537976996"><ele>961.0</ele><time>2026-04-25T13:02:14.771Z</time></trkpt><trkpt lat="44.05483234977262" lon="10.883896378162534"><ele>957.0000000000001</ele><time>2026-04-25T13:02:17.771Z</time></trkpt><trkpt lat="44.05485632447297" lon="10.88381332602439"><ele>953.0</ele><time>2026-04-25T13:02:19.771Z</time></trkpt><trkpt lat="44.05487426562902" lon="10.883721505861924"><ele>952.7142857142858</ele><time>2026-04-25T13:02:21.771Z</time></trkpt><trkpt lat="44.05488878901962" lon="10.883614538954633"><ele>952.4285714285713</ele><time>2026-04-25T13:02:26.771Z</time></trkpt><trkpt lat="44.05484923277811" lon="10.883535959775804"><ele>952.1428571428571</ele><time>2026-04-25T13:02:29.771Z</time></trkpt><trkpt lat="44.054825965080276" lon="10.883448182719032"><ele>951.8571428571429</ele><time>2026-04-25T13:02:32.771Z</time></trkpt><trkpt lat="44.05479563123229" lon="10.883355015218847"><ele>951.5714285714287</ele><time>2026-04-25T13:02:36.771Z</time></trkpt><trkpt lat="44.05478381027761" lon="10.883244465183743"><ele>951.2857142857142</ele><time>2026-04-25T13:02:40.771Z</time></trkpt><trkpt lat="44.05477070646204" lon="10.88314519486808"><ele>951.0</ele><time>2026-04-25T13:02:46.77Z</time></trkpt><trkpt lat="44.05475738806861" lon="10.883039467342229"><ele>950.6666666666666</ele><time>2026-04-25T13:02:50.77Z</time></trkpt><trkpt lat="44.054743838958686" lon="10.88293761701298"><ele>950.3333333333333</ele><time>2026-04-25T13:02:53.771Z</time></trkpt><trkpt lat="44.05475158484426" lon="10.882820483174617"><ele>950.0</ele><time>2026-04-25T13:02:57.771Z</time></trkpt><trkpt lat="44.05471632051742" lon="10.882718879516842"><ele>949.6666666666666</ele><time>2026-04-25T13:03:00.77Z</time></trkpt><trkpt lat="44.05471228835681" lon="10.882608134178836"><ele>949.3333333333333</ele><time>2026-04-25T13:03:04.77Z</time></trkpt><trkpt lat="44.054696308882505" lon="10.882495009360282"><ele>949.0</ele><time>2026-04-25T13:03:08.77Z</time></trkpt><trkpt lat="44.05466909087676" lon="10.882404513445458"><ele>947.6666666666666</ele><time>2026-04-25T13:03:13.77Z</time></trkpt><trkpt lat="44.05464467879471" lon="10.882305669439141"><ele>946.3333333333333</ele><time>2026-04-25T13:03:18.77Z</time></trkpt><trkpt lat="44.054619502447444" lon="10.882204315484424"><ele>945.0</ele><time>2026-04-25T13:03:22.77Z</time></trkpt><trkpt lat="44.054580498315104" lon="10.882132175467886"><ele>943.6666666666667</ele><time>2026-04-25T13:03:29.77Z</time></trkpt><trkpt lat="44.05456988495136" lon="10.882037793592414"><ele>942.3333333333334</ele><time>2026-04-25T13:03:35.77Z</time></trkpt><trkpt lat="44.0545730528522" lon="10.881875819712771"><ele>941.0</ele><time>2026-04-25T13:04:16.77Z</time></trkpt><trkpt lat="44.05459994863005" lon="10.881963264307066"><ele>940.9999999999999</ele><time>2026-04-25T13:04:40.77Z</time></trkpt><trkpt lat="44.05462334694255" lon="10.882050047931186"><ele>941.0</ele><time>2026-04-25T13:04:49.769Z</time></trkpt><trkpt lat="44.05465600022852" lon="10.882131716045901"><ele>940.9999999999999</ele><time>2026-04-25T13:04:58.77Z</time></trkpt><trkpt lat="44.0547007898937" lon="10.882197191365831"><ele>940.9999999999999</ele><time>2026-04-25T13:05:09.769Z</time></trkpt><trkpt lat="44.05474956585633" lon="10.882261544093398"><ele>941.0</ele><time>2026-04-25T13:05:14.769Z</time></trkpt><trkpt lat="44.05477986396751" lon="10.882348936269628"><ele>940.9999999999999</ele><time>2026-04-25T13:05:21.769Z</time></trkpt><trkpt lat="44.05478778958402" lon="10.882438790499277"><ele>940.9999999999999</ele><time>2026-04-25T13:05:32.769Z</time></trkpt><trkpt lat="44.054800464466396" lon="10.882545518981754"><ele>942.142857142857</ele><time>2026-04-25T13:05:37.769Z</time></trkpt><trkpt lat="44.05480127892439" lon="10.882640105165589"><ele>943.2857142857142</ele><time>2026-04-25T13:05:40.769Z</time></trkpt><trkpt lat="44.054824057027275" lon="10.882750751015793"><ele>944.4285714285714</ele><time>2026-04-25T13:05:44.769Z</time></trkpt><trkpt lat="44.05481667238717" lon="10.882854645189337"><ele>945.5714285714286</ele><time>2026-04-25T13:05:48.769Z</time></trkpt><trkpt lat="44.05479588818317" lon="10.882939932642415"><ele>946.7142857142858</ele><time>2026-04-25T13:05:51.769Z</time></trkpt><trkpt lat="44.05477451536799" lon="10.8830235251682"><ele>947.857142857143</ele><time>2026-04-25T13:05:56.769Z</time></trkpt><trkpt lat="44.054798413023235" lon="10.883107026037134"><ele>949.0000000000001</ele><time>2026-04-25T13:06:01.769Z</time></trkpt><trkpt lat="44.054824247199534" lon="10.883191243224307"><ele>949.0000000000001</ele><time>2026-04-25T13:06:05.769Z</time></trkpt><trkpt lat="44.054816348252096" lon="10.88329600229123"><ele>949.0</ele><time>2026-04-25T13:06:11.769Z</time></trkpt><trkpt lat="44.05480914937565" lon="10.88339820830211"><ele>949.0000000000001</ele><time>2026-04-25T13:06:17.769Z</time></trkpt><trkpt lat="44.05479578966618" lon="10.883491799209978"><ele>949.0000000000001</ele><time>2026-04-25T13:06:21.769Z</time></trkpt><trkpt lat="44.05479864380867" lon="10.883606525280266"><ele>949.0</ele><time>2026-04-25T13:06:25.769Z</time></trkpt><trkpt lat="44.05478340434518" lon="10.883711217145525"><ele>949.0000000000001</ele><time>2026-04-25T13:06:28.769Z</time></trkpt><trkpt lat="44.05476551061114" lon="10.883799114908314"><ele>949.0000000000001</ele><time>2026-04-25T13:06:31.769Z</time></trkpt><trkpt lat="44.054734268542724" lon="10.883886985223395"><ele>949.2857142857144</ele><time>2026-04-25T13:06:34.769Z</time></trkpt><trkpt lat="44.05470068782197" lon="10.883981744817204"><ele>949.5714285714287</ele><time>2026-04-25T13:06:37.769Z</time></trkpt><trkpt lat="44.0546688150933" lon="10.884088329712148"><ele>949.8571428571429</ele><time>2026-04-25T13:06:40.769Z</time></trkpt><trkpt lat="44.05465499757282" lon="10.884174267912876"><ele>950.1428571428572</ele><time>2026-04-25T13:06:44.769Z</time></trkpt><trkpt lat="44.05465724578427" lon="10.884270756919017"><ele>950.4285714285716</ele><time>2026-04-25T13:06:47.769Z</time></trkpt><trkpt lat="44.054658858486846" lon="10.884381044581808"><ele>950.7142857142857</ele><time>2026-04-25T13:06:50.769Z</time></trkpt><trkpt lat="44.05466598633766" lon="10.884470500680258"><ele>951.0</ele><time>2026-04-25T13:06:54.768Z</time></trkpt><trkpt lat="44.05472329334962" lon="10.884538718343643"><ele>951.2857142857142</ele><time>2026-04-25T13:06:59.768Z</time></trkpt><trkpt lat="44.05475253290307" lon="10.884624689939036"><ele>951.5714285714287</ele><time>2026-04-25T13:07:03.768Z</time></trkpt><trkpt lat="44.05473703668429" lon="10.884720390064938"><ele>951.8571428571429</ele><time>2026-04-25T13:07:08.768Z</time></trkpt><trkpt lat="44.05470469320104" lon="10.884796709986322"><ele>952.1428571428571</ele><time>2026-04-25T13:07:13.768Z</time></trkpt><trkpt lat="44.054663094472225" lon="10.884872925075223"><ele>952.4285714285713</ele><time>2026-04-25T13:07:18.768Z</time></trkpt><trkpt lat="44.05462016266823" lon="10.884949353842037"><ele>952.7142857142858</ele><time>2026-04-25T13:07:22.768Z</time></trkpt><trkpt lat="44.0545586719092" lon="10.885010120789477"><ele>953.0</ele><time>2026-04-25T13:07:26.768Z</time></trkpt><trkpt lat="44.05448252113544" lon="10.885042033738847"><ele>953.0000000000001</ele><time>2026-04-25T13:07:30.768Z</time></trkpt><trkpt lat="44.05441187108906" lon="10.88505996516216"><ele>953.0</ele><time>2026-04-25T13:07:33.768Z</time></trkpt><trkpt lat="44.054329053058545" lon="10.88506290836865"><ele>953.0</ele><time>2026-04-25T13:07:37.768Z</time></trkpt><trkpt lat="44.05426076402701" lon="10.885085659626494"><ele>953.0</ele><time>2026-04-25T13:07:40.768Z</time></trkpt><trkpt lat="44.05415717073313" lon="10.885102641915335"><ele>953.0000000000001</ele><time>2026-04-25T13:07:43.768Z</time></trkpt><trkpt lat="44.05408660657557" lon="10.88510498812693"><ele>953.0</ele><time>2026-04-25T13:07:45.768Z</time></trkpt><trkpt lat="44.05402551499173" lon="10.885151749170532"><ele>954.5999999999999</ele><time>2026-04-25T13:07:47.768Z</time></trkpt><trkpt lat="44.05394737341566" lon="10.885197393538364"><ele>956.1999999999999</ele><time>2026-04-25T13:07:49.768Z</time></trkpt><trkpt lat="44.05386091149205" lon="10.885231183703281"><ele>957.8</ele><time>2026-04-25T13:07:51.768Z</time></trkpt><trkpt lat="44.053761286448946" lon="10.885292334846469"><ele>959.4</ele><time>2026-04-25T13:07:54.768Z</time></trkpt><trkpt lat="44.053666836973406" lon="10.885313949073554"><ele>961.0</ele><time>2026-04-25T13:07:56.768Z</time></trkpt><trkpt lat="44.05359705776603" lon="10.885372365813643"><ele>960.9999999999999</ele><time>2026-04-25T13:07:58.768Z</time></trkpt><trkpt lat="44.053532449504196" lon="10.88540234875921"><ele>961.0</ele><time>2026-04-25T13:08:00.768Z</time></trkpt><trkpt lat="44.05347079302203" lon="10.885445171556578"><ele>961.0</ele><time>2026-04-25T13:08:02.768Z</time></trkpt><trkpt lat="44.05338833769446" lon="10.885465397685875"><ele>961.0</ele><time>2026-04-25T13:08:06.768Z</time></trkpt><trkpt lat="44.05331033179422" lon="10.885512664169775"><ele>960.9999999999999</ele><time>2026-04-25T13:08:09.768Z</time></trkpt><trkpt lat="44.05323156118615" lon="10.885553959953597"><ele>961.0</ele><time>2026-04-25T13:08:12.768Z</time></trkpt><trkpt lat="44.0531705844236" lon="10.885598840001235"><ele>957.1666666666666</ele><time>2026-04-25T13:08:15.768Z</time></trkpt><trkpt lat="44.05310677447718" lon="10.88567694635254"><ele>953.3333333333333</ele><time>2026-04-25T13:08:18.768Z</time></trkpt><trkpt lat="44.05307700847986" lon="10.885788767593612"><ele>949.5</ele><time>2026-04-25T13:08:22.768Z</time></trkpt><trkpt lat="44.05303060943153" lon="10.885857348551392"><ele>945.6666666666667</ele><time>2026-04-25T13:08:25.768Z</time></trkpt><trkpt lat="44.05300217477466" lon="10.885941646770837"><ele>941.8333333333334</ele><time>2026-04-25T13:08:28.768Z</time></trkpt><trkpt lat="44.05299408293985" lon="10.886033787723134"><ele>938.0</ele><time>2026-04-25T13:08:32.768Z</time></trkpt><trkpt lat="44.05296753252651" lon="10.886135515678015"><ele>938.0</ele><time>2026-04-25T13:08:36.768Z</time></trkpt><trkpt lat="44.05295060222927" lon="10.886243780018452"><ele>938.0</ele><time>2026-04-25T13:08:40.768Z</time></trkpt><trkpt lat="44.05296325598822" lon="10.886359806399476"><ele>938.0</ele><time>2026-04-25T13:08:44.768Z</time></trkpt><trkpt lat="44.05294904341002" lon="10.88644876473672"><ele>938.0</ele><time>2026-04-25T13:08:46.768Z</time></trkpt><trkpt lat="44.052971241578724" lon="10.886549039877389"><ele>938.0</ele><time>2026-04-25T13:08:48.768Z</time></trkpt><trkpt lat="44.053000260601834" lon="10.886635725050423"><ele>938.0</ele><time>2026-04-25T13:08:50.768Z</time></trkpt><trkpt lat="44.05299100668234" lon="10.886735940562266"><ele>938.0</ele><time>2026-04-25T13:08:52.768Z</time></trkpt><trkpt lat="44.052972791003114" lon="10.886846347749275"><ele>936.5000000000001</ele><time>2026-04-25T13:08:55.768Z</time></trkpt><trkpt lat="44.05290423724602" lon="10.886926618733668"><ele>935.0</ele><time>2026-04-25T13:08:58.768Z</time></trkpt><trkpt lat="44.05284755232507" lon="10.887002433469831"><ele>933.5</ele><time>2026-04-25T13:09:00.768Z</time></trkpt><trkpt lat="44.05280676904278" lon="10.88707659361282"><ele>932.0</ele><time>2026-04-25T13:09:02.768Z</time></trkpt><trkpt lat="44.052783035040534" lon="10.887167482904719"><ele>930.5000000000001</ele><time>2026-04-25T13:09:04.768Z</time></trkpt><trkpt lat="44.05276721719792" lon="10.887279696720789"><ele>929.0</ele><time>2026-04-25T13:09:06.768Z</time></trkpt><trkpt lat="44.05275471093955" lon="10.887429217058209"><ele>929.0000000000001</ele><time>2026-04-25T13:09:09.767Z</time></trkpt><trkpt lat="44.052724307553206" lon="10.887511599079367"><ele>929.0</ele><time>2026-04-25T13:09:10.767Z</time></trkpt><trkpt lat="44.05266581201302" lon="10.887631334565983"><ele>929.0</ele><time>2026-04-25T13:09:12.767Z</time></trkpt><trkpt lat="44.05260884276091" lon="10.887706899559166"><ele>929.0</ele><time>2026-04-25T13:09:14.767Z</time></trkpt><trkpt lat="44.05255271435467" lon="10.88776248971902"><ele>929.0000000000001</ele><time>2026-04-25T13:09:16.767Z</time></trkpt><trkpt lat="44.05247297762007" lon="10.887819779367836"><ele>929.0</ele><time>2026-04-25T13:09:18.767Z</time></trkpt><trkpt lat="44.05242632544257" lon="10.887885966126513"><ele>927.0</ele><time>2026-04-25T13:09:20.767Z</time></trkpt><trkpt lat="44.052359952116625" lon="10.887970650720948"><ele>925.0000000000001</ele><time>2026-04-25T13:09:22.767Z</time></trkpt><trkpt lat="44.052294766091926" lon="10.888050626207692"><ele>923.0000000000001</ele><time>2026-04-25T13:09:24.767Z</time></trkpt><trkpt lat="44.052202293693895" lon="10.888066971956022"><ele>921.0</ele><time>2026-04-25T13:09:27.767Z</time></trkpt><trkpt lat="44.05210527235807" lon="10.88809407710592"><ele>919.0</ele><time>2026-04-25T13:09:29.767Z</time></trkpt><trkpt lat="44.05201071620146" lon="10.888134135683398"><ele>918.9999999999999</ele><time>2026-04-25T13:09:32.767Z</time></trkpt><trkpt lat="44.05191711749422" lon="10.88815765455186"><ele>919.0</ele><time>2026-04-25T13:09:35.767Z</time></trkpt><trkpt lat="44.051839658333535" lon="10.888213968547449"><ele>919.0</ele><time>2026-04-25T13:09:38.767Z</time></trkpt><trkpt lat="44.05177986017056" lon="10.888275299292381"><ele>919.0</ele><time>2026-04-25T13:09:41.767Z</time></trkpt><trkpt lat="44.05170847202046" lon="10.888340288054616"><ele>918.9999999999999</ele><time>2026-04-25T13:09:44.767Z</time></trkpt><trkpt lat="44.0516591305375" lon="10.888415997959735"><ele>919.0</ele><time>2026-04-25T13:09:47.767Z</time></trkpt><trkpt lat="44.051603320996186" lon="10.888467502491396"><ele>914.8333333333333</ele><time>2026-04-25T13:09:49.767Z</time></trkpt><trkpt lat="44.0515413174776" lon="10.888539586409657"><ele>910.6666666666666</ele><time>2026-04-25T13:09:52.767Z</time></trkpt><trkpt lat="44.051493296856854" lon="10.888643638953507"><ele>906.5</ele><time>2026-04-25T13:09:55.767Z</time></trkpt><trkpt lat="44.05146029801722" lon="10.888757517892431"><ele>902.3333333333333</ele><time>2026-04-25T13:09:58.767Z</time></trkpt><trkpt lat="44.051416448541" lon="10.888845692887585"><ele>898.1666666666666</ele><time>2026-04-25T13:10:01.767Z</time></trkpt><trkpt lat="44.05134067806058" lon="10.888916177748726"><ele>894.0</ele><time>2026-04-25T13:10:04.767Z</time></trkpt><trkpt lat="44.051264059465886" lon="10.8889668122565"><ele>893.9999999999999</ele><time>2026-04-25T13:10:07.766Z</time></trkpt><trkpt lat="44.051228439448" lon="10.889047939022404"><ele>894.0</ele><time>2026-04-25T13:10:10.766Z</time></trkpt><trkpt lat="44.05119970943125" lon="10.889142908711504"><ele>894.0</ele><time>2026-04-25T13:10:12.766Z</time></trkpt><trkpt lat="44.05118547333841" lon="10.889229786032775"><ele>894.0</ele><time>2026-04-25T13:10:14.766Z</time></trkpt><trkpt lat="44.05117135045968" lon="10.889339007633641"><ele>894.0</ele><time>2026-04-25T13:10:17.766Z</time></trkpt><trkpt lat="44.05114791843529" lon="10.889443309523163"><ele>893.9999999999999</ele><time>2026-04-25T13:10:20.766Z</time></trkpt><trkpt lat="44.05112023585174" lon="10.889538919319948"><ele>894.0</ele><time>2026-04-25T13:10:22.766Z</time></trkpt><trkpt lat="44.05108837796763" lon="10.889638430705402"><ele>894.5</ele><time>2026-04-25T13:10:25.766Z</time></trkpt><trkpt lat="44.05103022391232" lon="10.889712298277752"><ele>895.0</ele><time>2026-04-25T13:10:29.766Z</time></trkpt><trkpt lat="44.05095343641861" lon="10.889777066412329"><ele>895.5</ele><time>2026-04-25T13:10:32.766Z</time></trkpt><trkpt lat="44.050877220195986" lon="10.889817801263979"><ele>896.0</ele><time>2026-04-25T13:10:35.766Z</time></trkpt><trkpt lat="44.05080960679074" lon="10.889876491407708"><ele>896.5</ele><time>2026-04-25T13:10:38.766Z</time></trkpt><trkpt lat="44.0507593077522" lon="10.88993197698888"><ele>897.0</ele><time>2026-04-25T13:10:40.766Z</time></trkpt><trkpt lat="44.05070046333653" lon="10.890018798068011"><ele>894.3333333333334</ele><time>2026-04-25T13:10:43.766Z</time></trkpt><trkpt lat="44.05065238147324" lon="10.890104391606338"><ele>891.6666666666667</ele><time>2026-04-25T13:10:45.766Z</time></trkpt><trkpt lat="44.05058220093468" lon="10.890174629267678"><ele>889.0</ele><time>2026-04-25T13:10:48.766Z</time></trkpt><trkpt lat="44.05050853053547" lon="10.890235145662631"><ele>886.3333333333334</ele><time>2026-04-25T13:10:50.766Z</time></trkpt><trkpt lat="44.050424125154606" lon="10.890294508944837"><ele>883.6666666666667</ele><time>2026-04-25T13:10:52.766Z</time></trkpt><trkpt lat="44.050342880953764" lon="10.890345211761666"><ele>881.0</ele><time>2026-04-25T13:10:54.766Z</time></trkpt><trkpt lat="44.050275499924716" lon="10.890391694986807"><ele>881.0</ele><time>2026-04-25T13:10:57.769Z</time></trkpt><trkpt lat="44.050194711400536" lon="10.890440896579653"><ele>881.0</ele><time>2026-04-25T13:10:59.771Z</time></trkpt><trkpt lat="44.0501421156945" lon="10.890507082009265"><ele>881.0</ele><time>2026-04-25T13:11:01.772Z</time></trkpt><trkpt lat="44.050088245712224" lon="10.890590743267563"><ele>881.0</ele><time>2026-04-25T13:11:03.773Z</time></trkpt><trkpt lat="44.05002624807745" lon="10.89062925187415"><ele>881.0</ele><time>2026-04-25T13:11:05.774Z</time></trkpt><trkpt lat="44.049970209200374" lon="10.890676600948684"><ele>881.0</ele><time>2026-04-25T13:11:07.776Z</time></trkpt><trkpt lat="44.049909120584026" lon="10.890734258934403"><ele>881.0</ele><time>2026-04-25T13:11:09.776Z</time></trkpt><trkpt lat="44.04982234794381" lon="10.890806832139337"><ele>880.4</ele><time>2026-04-25T13:11:12.777Z</time></trkpt><trkpt lat="44.04974686172835" lon="10.890889716183223"><ele>879.8</ele><time>2026-04-25T13:11:14.778Z</time></trkpt><trkpt lat="44.04968863882393" lon="10.890956364429513"><ele>879.1999999999999</ele><time>2026-04-25T13:11:17.779Z</time></trkpt><trkpt lat="44.049609771533596" lon="10.891016968062047"><ele>878.5999999999999</ele><time>2026-04-25T13:11:20.779Z</time></trkpt><trkpt lat="44.04951670896512" lon="10.891082198194153"><ele>878.0</ele><time>2026-04-25T13:11:22.78Z</time></trkpt><trkpt lat="44.049414864064765" lon="10.891094087193204"><ele>878.0000000000001</ele><time>2026-04-25T13:11:24.78Z</time></trkpt><trkpt lat="44.04932037396854" lon="10.891139609361563"><ele>878.0</ele><time>2026-04-25T13:11:26.78Z</time></trkpt><trkpt lat="44.04925631334069" lon="10.891184648757648"><ele>878.0</ele><time>2026-04-25T13:11:28.781Z</time></trkpt><trkpt lat="44.04918794279282" lon="10.891244031057669"><ele>878.0</ele><time>2026-04-25T13:11:30.781Z</time></trkpt><trkpt lat="44.049131658637016" lon="10.89135027194511"><ele>878.0000000000001</ele><time>2026-04-25T13:11:32.781Z</time></trkpt><trkpt lat="44.0490668763218" lon="10.891429848181073"><ele>878.0</ele><time>2026-04-25T13:11:34.781Z</time></trkpt><trkpt lat="44.04900549058633" lon="10.891509162784727"><ele>874.6666666666667</ele><time>2026-04-25T13:11:36.781Z</time></trkpt><trkpt lat="44.04894222940325" lon="10.891551747071885"><ele>871.3333333333334</ele><time>2026-04-25T13:11:38.781Z</time></trkpt><trkpt lat="44.048863429557535" lon="10.891587623175733"><ele>868.0</ele><time>2026-04-25T13:11:40.781Z</time></trkpt><trkpt lat="44.04876001107999" lon="10.891598113702454"><ele>864.6666666666667</ele><time>2026-04-25T13:11:42.782Z</time></trkpt><trkpt lat="44.04867512873625" lon="10.891599239521286"><ele>861.3333333333334</ele><time>2026-04-25T13:11:44.782Z</time></trkpt><trkpt lat="44.0485782350291" lon="10.891607438222303"><ele>858.0</ele><time>2026-04-25T13:11:46.782Z</time></trkpt><trkpt lat="44.048472970154805" lon="10.891587836953546"><ele>858.0</ele><time>2026-04-25T13:11:48.782Z</time></trkpt><trkpt lat="44.048392186476285" lon="10.891605564583973"><ele>858.0</ele><time>2026-04-25T13:11:50.782Z</time></trkpt><trkpt lat="44.048288822529734" lon="10.89162349676581"><ele>858.0</ele><time>2026-04-25T13:11:52.782Z</time></trkpt><trkpt lat="44.0481998718817" lon="10.8916553990438"><ele>858.0</ele><time>2026-04-25T13:11:54.782Z</time></trkpt><trkpt lat="44.04809000288638" lon="10.891707948821184"><ele>858.0</ele><time>2026-04-25T13:11:56.782Z</time></trkpt><trkpt lat="44.048012636374494" lon="10.891796303864842"><ele>856.1666666666666</ele><time>2026-04-25T13:11:58.782Z</time></trkpt><trkpt lat="44.04796338594898" lon="10.891863417165622"><ele>854.3333333333333</ele><time>2026-04-25T13:12:00.782Z</time></trkpt><trkpt lat="44.04791173809463" lon="10.891939976042577"><ele>852.5</ele><time>2026-04-25T13:12:02.782Z</time></trkpt><trkpt lat="44.047883079189674" lon="10.892058012394422"><ele>850.6666666666666</ele><time>2026-04-25T13:12:04.782Z</time></trkpt><trkpt lat="44.04784192994715" lon="10.89216512661159"><ele>848.8333333333333</ele><time>2026-04-25T13:12:07.782Z</time></trkpt><trkpt lat="44.047821528000455" lon="10.892256203542617"><ele>847.0</ele><time>2026-04-25T13:12:09.782Z</time></trkpt><trkpt lat="44.04781182340846" lon="10.892358325923693"><ele>847.0</ele><time>2026-04-25T13:12:12.782Z</time></trkpt><trkpt lat="44.04781095432137" lon="10.892461541390889"><ele>847.0</ele><time>2026-04-25T13:12:16.782Z</time></trkpt><trkpt lat="44.04785812910687" lon="10.892557203862387"><ele>847.0</ele><time>2026-04-25T13:12:20.782Z</time></trkpt><trkpt lat="44.047884904866805" lon="10.892648908668487"><ele>847.0</ele><time>2026-04-25T13:12:23.782Z</time></trkpt><trkpt lat="44.04790165834519" lon="10.892743397240798"><ele>847.0</ele><time>2026-04-25T13:12:24.782Z</time></trkpt><trkpt lat="44.047907447278796" lon="10.892837129451474"><ele>847.0</ele><time>2026-04-25T13:12:27.782Z</time></trkpt><trkpt lat="44.04791093282344" lon="10.89293411057499"><ele>847.0</ele><time>2026-04-25T13:12:29.782Z</time></trkpt><trkpt lat="44.04792987998506" lon="10.89303426932843"><ele>842.6666666666666</ele><time>2026-04-25T13:12:31.782Z</time></trkpt><trkpt lat="44.04795692752395" lon="10.893137832960477"><ele>838.3333333333333</ele><time>2026-04-25T13:12:33.782Z</time></trkpt><trkpt lat="44.04800325741177" lon="10.89325300474394"><ele>834.0</ele><time>2026-04-25T13:12:36.782Z</time></trkpt><trkpt lat="44.0480433942865" lon="10.893353116423231"><ele>829.6666666666667</ele><time>2026-04-25T13:12:38.782Z</time></trkpt><trkpt lat="44.048040009215136" lon="10.893482180558467"><ele>825.3333333333334</ele><time>2026-04-25T13:12:40.782Z</time></trkpt><trkpt lat="44.04807784446785" lon="10.893605562699733"><ele>821.0</ele><time>2026-04-25T13:12:42.782Z</time></trkpt><trkpt lat="44.04810133359464" lon="10.893696926950057"><ele>815.8333333333334</ele><time>2026-04-25T13:12:44.782Z</time></trkpt><trkpt lat="44.04807349802192" lon="10.893838478686572"><ele>810.6666666666667</ele><time>2026-04-25T13:12:47.782Z</time></trkpt><trkpt lat="44.048007192216005" lon="10.893852888536744"><ele>805.5</ele><time>2026-04-25T13:12:51.782Z</time></trkpt><trkpt lat="44.04793746008472" lon="10.89384282718722"><ele>800.3333333333333</ele><time>2026-04-25T13:12:56.782Z</time></trkpt><trkpt lat="44.04787980419967" lon="10.893773309778364"><ele>795.1666666666666</ele><time>2026-04-25T13:12:58.782Z</time></trkpt><trkpt lat="44.04782153647009" lon="10.893724341915453"><ele>790.0</ele><time>2026-04-25T13:13:00.782Z</time></trkpt><trkpt lat="44.047756251390545" lon="10.893682256725201"><ele>789.9999999999999</ele><time>2026-04-25T13:13:02.782Z</time></trkpt><trkpt lat="44.047699311842806" lon="10.893643074187784"><ele>790.0</ele><time>2026-04-25T13:13:04.782Z</time></trkpt><trkpt lat="44.047631060505054" lon="10.89361438236731"><ele>790.0</ele><time>2026-04-25T13:13:06.782Z</time></trkpt><trkpt lat="44.047558151986316" lon="10.893558087176187"><ele>790.0</ele><time>2026-04-25T13:13:08.782Z</time></trkpt><trkpt lat="44.04748158747159" lon="10.893546894171777"><ele>789.9999999999999</ele><time>2026-04-25T13:13:10.781Z</time></trkpt><trkpt lat="44.04740134141843" lon="10.893518261052684"><ele>790.0</ele><time>2026-04-25T13:13:12.782Z</time></trkpt><trkpt lat="44.04732919130919" lon="10.89346411296282"><ele>787.8333333333333</ele><time>2026-04-25T13:13:14.782Z</time></trkpt><trkpt lat="44.04723904273209" lon="10.89340802886672"><ele>785.6666666666666</ele><time>2026-04-25T13:13:16.782Z</time></trkpt><trkpt lat="44.04717845385037" lon="10.893381684008741"><ele>783.5</ele><time>2026-04-25T13:13:17.781Z</time></trkpt><trkpt lat="44.047100112823564" lon="10.893290158720392"><ele>781.3333333333333</ele><time>2026-04-25T13:13:19.781Z</time></trkpt><trkpt lat="44.047042327677204" lon="10.893243423909285"><ele>779.1666666666666</ele><time>2026-04-25T13:13:20.781Z</time></trkpt><trkpt lat="44.04696103549955" lon="10.893192532774913"><ele>777.0</ele><time>2026-04-25T13:13:22.782Z</time></trkpt><trkpt lat="44.04687124879625" lon="10.893096978539214"><ele>777.0</ele><time>2026-04-25T13:13:25.782Z</time></trkpt><trkpt lat="44.04680157487352" lon="10.893040810440537"><ele>777.0</ele><time>2026-04-25T13:13:27.782Z</time></trkpt><trkpt lat="44.046718984333424" lon="10.892990796475388"><ele>777.0</ele><time>2026-04-25T13:13:30.782Z</time></trkpt><trkpt lat="44.04665403632397" lon="10.892889615046288"><ele>777.0</ele><time>2026-04-25T13:13:33.782Z</time></trkpt><trkpt lat="44.04664154087962" lon="10.89277468155207"><ele>777.0</ele><time>2026-04-25T13:13:35.782Z</time></trkpt><trkpt lat="44.046638163412275" lon="10.89265091822101"><ele>777.0</ele><time>2026-04-25T13:13:38.782Z</time></trkpt><trkpt lat="44.04658264409486" lon="10.892556749345742"><ele>774.5</ele><time>2026-04-25T13:13:40.782Z</time></trkpt><trkpt lat="44.04652979835219" lon="10.892485604899361"><ele>772.0</ele><time>2026-04-25T13:13:42.782Z</time></trkpt><trkpt lat="44.046453866528616" lon="10.892408214307338"><ele>769.5</ele><time>2026-04-25T13:13:44.782Z</time></trkpt><trkpt lat="44.0463772673562" lon="10.892354144040073"><ele>767.0</ele><time>2026-04-25T13:13:46.782Z</time></trkpt><trkpt lat="44.04630383039712" lon="10.892305682645839"><ele>764.5</ele><time>2026-04-25T13:13:48.782Z</time></trkpt><trkpt lat="44.046234889775555" lon="10.892259656091099"><ele>762.0</ele><time>2026-04-25T13:13:49.782Z</time></trkpt><trkpt lat="44.0461708282053" lon="10.892218474811065"><ele>762.0</ele><time>2026-04-25T13:13:50.782Z</time></trkpt><trkpt lat="44.04610151500907" lon="10.892170363287288"><ele>762.0</ele><time>2026-04-25T13:13:51.782Z</time></trkpt><trkpt lat="44.046034260478116" lon="10.892138047599405"><ele>762.0</ele><time>2026-04-25T13:13:52.782Z</time></trkpt><trkpt lat="44.04595120583822" lon="10.892097964346291"><ele>762.0</ele><time>2026-04-25T13:13:54.782Z</time></trkpt><trkpt lat="44.04587288754488" lon="10.892044406385189"><ele>762.0</ele><time>2026-04-25T13:13:56.782Z</time></trkpt><trkpt lat="44.04578085891619" lon="10.891985123686418"><ele>762.0</ele><time>2026-04-25T13:13:58.782Z</time></trkpt><trkpt lat="44.04571563271152" lon="10.891951830771538"><ele>761.5</ele><time>2026-04-25T13:14:00.782Z</time></trkpt><trkpt lat="44.04563856913357" lon="10.891930060493525"><ele>761.0</ele><time>2026-04-25T13:14:03.782Z</time></trkpt><trkpt lat="44.04559222251477" lon="10.891859342784228"><ele>760.5</ele><time>2026-04-25T13:14:05.782Z</time></trkpt><trkpt lat="44.04555030497264" lon="10.891750787517632"><ele>760.0</ele><time>2026-04-25T13:14:07.781Z</time></trkpt><trkpt lat="44.045530055125" lon="10.891653407199069"><ele>759.5</ele><time>2026-04-25T13:14:09.781Z</time></trkpt><trkpt lat="44.04552173018813" lon="10.891535976945185"><ele>759.0</ele><time>2026-04-25T13:14:12.781Z</time></trkpt><trkpt lat="44.04554121344169" lon="10.891440299171627"><ele>759.0</ele><time>2026-04-25T13:14:14.781Z</time></trkpt><trkpt lat="44.04553490789511" lon="10.891352769111785"><ele>759.0</ele><time>2026-04-25T13:14:16.781Z</time></trkpt><trkpt lat="44.04546628527261" lon="10.891371766666632"><ele>759.0</ele><time>2026-04-25T13:14:22.781Z</time></trkpt><trkpt lat="44.04539158177853" lon="10.89143864432949"><ele>759.0</ele><time>2026-04-25T13:14:26.781Z</time></trkpt><trkpt lat="44.04533876442145" lon="10.89150720310296"><ele>759.0</ele><time>2026-04-25T13:14:28.781Z</time></trkpt><trkpt lat="44.04525941919086" lon="10.891578885881284"><ele>759.0</ele><time>2026-04-25T13:14:31.781Z</time></trkpt><trkpt lat="44.04518715679172" lon="10.891647125706989"><ele>759.0</ele><time>2026-04-25T13:14:33.781Z</time></trkpt><trkpt lat="44.045099199645584" lon="10.891697062527156"><ele>759.0</ele><time>2026-04-25T13:14:35.781Z</time></trkpt><trkpt lat="44.04500530603729" lon="10.891756040542887"><ele>759.0</ele><time>2026-04-25T13:14:37.781Z</time></trkpt><trkpt lat="44.044927677815956" lon="10.891807627800782"><ele>759.0</ele><time>2026-04-25T13:14:39.781Z</time></trkpt><trkpt lat="44.044870339409776" lon="10.891843872653771"><ele>759.0</ele><time>2026-04-25T13:14:41.781Z</time></trkpt><trkpt lat="44.04483924490502" lon="10.891926264571472"><ele>759.0</ele><time>2026-04-25T13:14:44.781Z</time></trkpt><trkpt lat="44.04480205443667" lon="10.892012792394027"><ele>757.1428571428571</ele><time>2026-04-25T13:14:46.781Z</time></trkpt><trkpt lat="44.044784152863066" lon="10.892098218756335"><ele>755.2857142857142</ele><time>2026-04-25T13:14:49.781Z</time></trkpt><trkpt lat="44.04480786094356" lon="10.89218561185516"><ele>753.4285714285714</ele><time>2026-04-25T13:14:51.781Z</time></trkpt><trkpt lat="44.044853280720496" lon="10.892257265956639"><ele>751.5714285714286</ele><time>2026-04-25T13:14:53.781Z</time></trkpt><trkpt lat="44.04489683567163" lon="10.892332506919209"><ele>749.7142857142858</ele><time>2026-04-25T13:14:55.781Z</time></trkpt><trkpt lat="44.04495363457234" lon="10.892386115687456"><ele>747.8571428571429</ele><time>2026-04-25T13:14:57.781Z</time></trkpt><trkpt lat="44.045027049567345" lon="10.89241568055874"><ele>746.0</ele><time>2026-04-25T13:14:59.781Z</time></trkpt><trkpt lat="44.04511319104966" lon="10.892426751084615"><ele>746.0</ele><time>2026-04-25T13:15:01.781Z</time></trkpt><trkpt lat="44.04519417513134" lon="10.892460859499934"><ele>746.0</ele><time>2026-04-25T13:15:04.781Z</time></trkpt><trkpt lat="44.04528158938192" lon="10.89245125249898"><ele>746.0</ele><time>2026-04-25T13:15:06.781Z</time></trkpt><trkpt lat="44.0453644436431" lon="10.892436218660482"><ele>746.0</ele><time>2026-04-25T13:15:09.781Z</time></trkpt><trkpt lat="44.045438400307276" lon="10.892407894646135"><ele>746.0</ele><time>2026-04-25T13:15:11.781Z</time></trkpt><trkpt lat="44.04549759287422" lon="10.892439466663681"><ele>746.0</ele><time>2026-04-25T13:15:16.781Z</time></trkpt><trkpt lat="44.04554488997268" lon="10.8925185033598"><ele>743.8333333333333</ele><time>2026-04-25T13:15:18.78Z</time></trkpt><trkpt lat="44.045569067627795" lon="10.892609172298647"><ele>741.6666666666666</ele><time>2026-04-25T13:15:20.78Z</time></trkpt><trkpt lat="44.04559848468156" lon="10.89271546170936"><ele>739.5</ele><time>2026-04-25T13:15:23.781Z</time></trkpt><trkpt lat="44.04566482564069" lon="10.892860050202763"><ele>737.3333333333334</ele><time>2026-04-25T13:15:25.781Z</time></trkpt><trkpt lat="44.04570610789709" lon="10.892936757118683"><ele>735.1666666666667</ele><time>2026-04-25T13:15:26.78Z</time></trkpt><trkpt lat="44.04576490273622" lon="10.893056587125134"><ele>733.0</ele><time>2026-04-25T13:15:28.78Z</time></trkpt><trkpt lat="44.045819034386575" lon="10.893192293834083"><ele>733.0</ele><time>2026-04-25T13:15:30.781Z</time></trkpt><trkpt lat="44.04584282499351" lon="10.893282694489583"><ele>733.0</ele><time>2026-04-25T13:15:32.781Z</time></trkpt><trkpt lat="44.04585225751515" lon="10.89339500757964"><ele>733.0</ele><time>2026-04-25T13:15:35.781Z</time></trkpt><trkpt lat="44.04590765109984" lon="10.893491930298278"><ele>733.0</ele><time>2026-04-25T13:15:38.78Z</time></trkpt><trkpt lat="44.045948705199606" lon="10.893566212281593"><ele>733.0</ele><time>2026-04-25T13:15:40.78Z</time></trkpt><trkpt lat="44.04599062101696" lon="10.893636690854846"><ele>733.0</ele><time>2026-04-25T13:15:42.78Z</time></trkpt><trkpt lat="44.04603896060044" lon="10.893721708235029"><ele>728.8</ele><time>2026-04-25T13:15:45.78Z</time></trkpt><trkpt lat="44.046106590274825" lon="10.893774822855582"><ele>724.5999999999999</ele><time>2026-04-25T13:15:47.78Z</time></trkpt><trkpt lat="44.04617848123088" lon="10.893849235174226"><ele>720.4000000000001</ele><time>2026-04-25T13:15:49.78Z</time></trkpt><trkpt lat="44.046230611787834" lon="10.893970469674667"><ele>716.2</ele><time>2026-04-25T13:15:51.78Z</time></trkpt><trkpt lat="44.04628387533171" lon="10.894053604305945"><ele>712.0</ele><time>2026-04-25T13:15:53.78Z</time></trkpt><trkpt lat="44.04634175277761" lon="10.894191890548754"><ele>709.7142857142857</ele><time>2026-04-25T13:15:55.78Z</time></trkpt><trkpt lat="44.046385907492166" lon="10.89427592421321"><ele>707.4285714285714</ele><time>2026-04-25T13:15:57.78Z</time></trkpt><trkpt lat="44.046409837099624" lon="10.8943664577572"><ele>705.1428571428571</ele><time>2026-04-25T13:15:59.78Z</time></trkpt><trkpt lat="44.04641250482142" lon="10.894475717561413"><ele>702.8571428571429</ele><time>2026-04-25T13:16:02.78Z</time></trkpt><trkpt lat="44.0464311311776" lon="10.894568043612082"><ele>700.5714285714286</ele><time>2026-04-25T13:16:08.78Z</time></trkpt><trkpt lat="44.04649635750513" lon="10.894598286401573"><ele>698.2857142857142</ele><time>2026-04-25T13:16:14.78Z</time></trkpt><trkpt lat="44.046431418833336" lon="10.894591181206927"><ele>696.0</ele><time>2026-04-25T13:16:24.78Z</time></trkpt><trkpt lat="44.046384136123706" lon="10.894499520002066"><ele>696.0</ele><time>2026-04-25T13:16:28.78Z</time></trkpt><trkpt lat="44.046348302189365" lon="10.89442228837182"><ele>696.0</ele><time>2026-04-25T13:16:30.78Z</time></trkpt><trkpt lat="44.046281088128374" lon="10.89437726054797"><ele>696.0</ele><time>2026-04-25T13:16:32.78Z</time></trkpt><trkpt lat="44.04621774317591" lon="10.894348299275215"><ele>696.0</ele><time>2026-04-25T13:16:34.78Z</time></trkpt><trkpt lat="44.046148545100905" lon="10.894330002895607"><ele>696.0</ele><time>2026-04-25T13:16:36.78Z</time></trkpt><trkpt lat="44.04607219165267" lon="10.894274216216742"><ele>696.0</ele><time>2026-04-25T13:16:38.78Z</time></trkpt><trkpt lat="44.045994263188796" lon="10.8942435827415"><ele>696.0</ele><time>2026-04-25T13:16:40.78Z</time></trkpt><trkpt lat="44.04591897435126" lon="10.894172367660813"><ele>693.5</ele><time>2026-04-25T13:16:43.78Z</time></trkpt><trkpt lat="44.04584661332347" lon="10.89412557285421"><ele>691.0</ele><time>2026-04-25T13:16:45.78Z</time></trkpt><trkpt lat="44.04578786312553" lon="10.894065126628535"><ele>688.5</ele><time>2026-04-25T13:16:47.78Z</time></trkpt><trkpt lat="44.04575341520521" lon="10.893987603252326"><ele>686.0</ele><time>2026-04-25T13:16:49.78Z</time></trkpt><trkpt lat="44.045733074493135" lon="10.893892570163338"><ele>683.5</ele><time>2026-04-25T13:16:51.78Z</time></trkpt><trkpt lat="44.045716642059304" lon="10.893780950000208"><ele>681.0</ele><time>2026-04-25T13:16:53.78Z</time></trkpt><trkpt lat="44.04567032725769" lon="10.89369222726995"><ele>681.0</ele><time>2026-04-25T13:16:56.78Z</time></trkpt><trkpt lat="44.045620893501415" lon="10.893621100886957"><ele>681.0</ele><time>2026-04-25T13:16:58.78Z</time></trkpt><trkpt lat="44.04553897074459" lon="10.893549942196898"><ele>681.0</ele><time>2026-04-25T13:17:00.78Z</time></trkpt><trkpt lat="44.04543859423586" lon="10.893479970306712"><ele>681.0</ele><time>2026-04-25T13:17:02.78Z</time></trkpt><trkpt lat="44.045335217665894" lon="10.89347935611086"><ele>681.0</ele><time>2026-04-25T13:17:04.78Z</time></trkpt><trkpt lat="44.04527906711751" lon="10.893537200782701"><ele>681.0</ele><time>2026-04-25T13:17:09.78Z</time></trkpt><trkpt lat="44.045194854645" lon="10.89351908192463"><ele>681.0</ele><time>2026-04-25T13:17:11.78Z</time></trkpt><trkpt lat="44.04512858981835" lon="10.89348036943907"><ele>681.0</ele><time>2026-04-25T13:17:13.78Z</time></trkpt><trkpt lat="44.045049413696674" lon="10.893446461979627"><ele>681.0</ele><time>2026-04-25T13:17:15.78Z</time></trkpt><trkpt lat="44.04493922877116" lon="10.893386573761752"><ele>681.0</ele><time>2026-04-25T13:17:17.78Z</time></trkpt><trkpt lat="44.04486801571683" lon="10.893357746576367"><ele>681.0</ele><time>2026-04-25T13:17:19.78Z</time></trkpt><trkpt lat="44.044761974023636" lon="10.893306301312135"><ele>680.8</ele><time>2026-04-25T13:17:21.78Z</time></trkpt><trkpt lat="44.044694350851714" lon="10.893247275190681"><ele>680.5999999999999</ele><time>2026-04-25T13:17:23.78Z</time></trkpt><trkpt lat="44.04458216611375" lon="10.893182989126082"><ele>680.4</ele><time>2026-04-25T13:17:25.78Z</time></trkpt><trkpt lat="44.044474687740596" lon="10.893113792705309"><ele>680.2</ele><time>2026-04-25T13:17:27.78Z</time></trkpt><trkpt lat="44.04437771436518" lon="10.893041109911671"><ele>680.0</ele><time>2026-04-25T13:17:29.779Z</time></trkpt><trkpt lat="44.04427642905795" lon="10.892975058076214"><ele>680.0</ele><time>2026-04-25T13:17:31.78Z</time></trkpt><trkpt lat="44.0442080619041" lon="10.892923328550246"><ele>680.0</ele><time>2026-04-25T13:17:32.779Z</time></trkpt><trkpt lat="44.0441132845316" lon="10.892806042922768"><ele>680.0</ele><time>2026-04-25T13:17:34.78Z</time></trkpt><trkpt lat="44.04400755370817" lon="10.892698773608917"><ele>680.0</ele><time>2026-04-25T13:17:36.78Z</time></trkpt><trkpt lat="44.04393061035645" lon="10.892600999612725"><ele>680.0</ele><time>2026-04-25T13:17:38.78Z</time></trkpt><trkpt lat="44.04386350803526" lon="10.892546967895479"><ele>679.5</ele><time>2026-04-25T13:17:40.78Z</time></trkpt><trkpt lat="44.04378277963095" lon="10.892483171039194"><ele>679.0</ele><time>2026-04-25T13:17:43.78Z</time></trkpt><trkpt lat="44.04373150203606" lon="10.892412220313336"><ele>678.5</ele><time>2026-04-25T13:17:45.78Z</time></trkpt><trkpt lat="44.04363662783623" lon="10.892365032564877"><ele>678.0</ele><time>2026-04-25T13:17:47.78Z</time></trkpt><trkpt lat="44.04357644099389" lon="10.892299671843539"><ele>677.5</ele><time>2026-04-25T13:17:49.78Z</time></trkpt><trkpt lat="44.04349833964563" lon="10.892236878545736"><ele>677.0</ele><time>2026-04-25T13:17:51.78Z</time></trkpt><trkpt lat="44.043417826032" lon="10.892155504832624"><ele>677.0</ele><time>2026-04-25T13:17:53.78Z</time></trkpt><trkpt lat="44.04336957863967" lon="10.89207302744835"><ele>677.0</ele><time>2026-04-25T13:17:55.78Z</time></trkpt><trkpt lat="44.04330854521031" lon="10.892012845373834"><ele>677.0</ele><time>2026-04-25T13:17:57.779Z</time></trkpt><trkpt lat="44.04323837870153" lon="10.891938848930037"><ele>677.0</ele><time>2026-04-25T13:17:59.779Z</time></trkpt><trkpt lat="44.043198248414015" lon="10.891869287956208"><ele>677.0</ele><time>2026-04-25T13:18:01.779Z</time></trkpt><trkpt lat="44.04313186780894" lon="10.891777687728261"><ele>677.0</ele><time>2026-04-25T13:18:03.779Z</time></trkpt><trkpt lat="44.043088547872124" lon="10.891696024376555"><ele>674.3333333333333</ele><time>2026-04-25T13:18:05.779Z</time></trkpt><trkpt lat="44.04305457625886" lon="10.891597045488096"><ele>671.6666666666666</ele><time>2026-04-25T13:18:07.779Z</time></trkpt><trkpt lat="44.04302420127341" lon="10.891469151997805"><ele>669.0</ele><time>2026-04-25T13:18:09.779Z</time></trkpt><trkpt lat="44.04302230351397" lon="10.891367697004183"><ele>666.3333333333334</ele><time>2026-04-25T13:18:11.779Z</time></trkpt><trkpt lat="44.04302915517434" lon="10.891274113343883"><ele>663.6666666666667</ele><time>2026-04-25T13:18:13.779Z</time></trkpt><trkpt lat="44.04308459578953" lon="10.891167245844843"><ele>661.0</ele><time>2026-04-25T13:18:16.779Z</time></trkpt><trkpt lat="44.043152970409345" lon="10.891115136539137"><ele>661.0</ele><time>2026-04-25T13:18:18.779Z</time></trkpt><trkpt lat="44.04321562183096" lon="10.891067071362967"><ele>661.0</ele><time>2026-04-25T13:18:20.779Z</time></trkpt><trkpt lat="44.043273330687974" lon="10.891023851473042"><ele>661.0</ele><time>2026-04-25T13:18:22.779Z</time></trkpt><trkpt lat="44.04333450084034" lon="10.89100177855753"><ele>661.0</ele><time>2026-04-25T13:18:24.779Z</time></trkpt><trkpt lat="44.04341530894826" lon="10.890981254108931"><ele>661.0</ele><time>2026-04-25T13:18:26.779Z</time></trkpt><trkpt lat="44.04348449415434" lon="10.890957632362603"><ele>661.0</ele><time>2026-04-25T13:18:28.779Z</time></trkpt><trkpt lat="44.04356593735524" lon="10.890918337496378"><ele>661.0</ele><time>2026-04-25T13:18:30.779Z</time></trkpt><trkpt lat="44.04364670557083" lon="10.890877686233313"><ele>664.8333333333334</ele><time>2026-04-25T13:18:32.779Z</time></trkpt><trkpt lat="44.043730282967545" lon="10.89083101996488"><ele>668.6666666666667</ele><time>2026-04-25T13:18:34.779Z</time></trkpt><trkpt lat="44.04378161663214" lon="10.89077649982316"><ele>672.5</ele><time>2026-04-25T13:18:38.779Z</time></trkpt><trkpt lat="44.04382644294428" lon="10.890675687290177"><ele>676.3333333333334</ele><time>2026-04-25T13:18:42.779Z</time></trkpt><trkpt lat="44.043751195477384" lon="10.89066321696592"><ele>680.1666666666666</ele><time>2026-04-25T13:18:46.779Z</time></trkpt><trkpt lat="44.04368001608877" lon="10.890689194045493"><ele>684.0</ele><time>2026-04-25T13:18:50.779Z</time></trkpt><trkpt lat="44.043586474566055" lon="10.890672735609824"><ele>684.0</ele><time>2026-04-25T13:18:53.779Z</time></trkpt><trkpt lat="44.043515250804646" lon="10.8906450135343"><ele>684.0</ele><time>2026-04-25T13:18:55.779Z</time></trkpt><trkpt lat="44.04342987728902" lon="10.890649108532934"><ele>684.0</ele><time>2026-04-25T13:18:58.779Z</time></trkpt><trkpt lat="44.04336058467318" lon="10.89061462807151"><ele>684.0</ele><time>2026-04-25T13:19:00.779Z</time></trkpt><trkpt lat="44.04326202832371" lon="10.890589951676114"><ele>684.0</ele><time>2026-04-25T13:19:03.779Z</time></trkpt><trkpt lat="44.04316195557928" lon="10.890605709882049"><ele>684.0</ele><time>2026-04-25T13:19:05.779Z</time></trkpt><trkpt lat="44.04309474879262" lon="10.890589031614871"><ele>679.6666666666666</ele><time>2026-04-25T13:19:08.779Z</time></trkpt><trkpt lat="44.043024751620294" lon="10.89058530271159"><ele>675.3333333333334</ele><time>2026-04-25T13:19:12.779Z</time></trkpt><trkpt lat="44.042929891054406" lon="10.890580809281733"><ele>671.0</ele><time>2026-04-25T13:19:15.779Z</time></trkpt><trkpt lat="44.042823965072515" lon="10.890580100139516"><ele>666.6666666666667</ele><time>2026-04-25T13:19:17.779Z</time></trkpt><trkpt lat="44.04274620354882" lon="10.890553643425639"><ele>662.3333333333334</ele><time>2026-04-25T13:19:20.779Z</time></trkpt><trkpt lat="44.04275382893278" lon="10.89045926978344"><ele>658.0</ele><time>2026-04-25T13:19:26.779Z</time></trkpt><trkpt lat="44.042770646680104" lon="10.890370835500725"><ele>658.0</ele><time>2026-04-25T13:19:29.78Z</time></trkpt><trkpt lat="44.04277199390288" lon="10.890268453048082"><ele>658.0</ele><time>2026-04-25T13:19:31.779Z</time></trkpt><trkpt lat="44.04278977180155" lon="10.890137684672128"><ele>658.0</ele><time>2026-04-25T13:19:34.779Z</time></trkpt><trkpt lat="44.04279601034561" lon="10.890049352513005"><ele>658.0</ele><time>2026-04-25T13:19:36.779Z</time></trkpt><trkpt lat="44.04280390141878" lon="10.889931078149786"><ele>658.0</ele><time>2026-04-25T13:19:39.779Z</time></trkpt><trkpt lat="44.04281737606316" lon="10.889842871326032"><ele>658.0</ele><time>2026-04-25T13:19:41.779Z</time></trkpt><trkpt lat="44.042817155373214" lon="10.889716151924357"><ele>657.0</ele><time>2026-04-25T13:19:44.779Z</time></trkpt><trkpt lat="44.04281993857479" lon="10.889592448762112"><ele>656.0</ele><time>2026-04-25T13:19:46.779Z</time></trkpt><trkpt lat="44.04282105893406" lon="10.88945582662131"><ele>655.0</ele><time>2026-04-25T13:19:48.779Z</time></trkpt><trkpt lat="44.04280124439417" lon="10.889358843690173"><ele>654.0</ele><time>2026-04-25T13:19:50.779Z</time></trkpt><trkpt lat="44.042782913843645" lon="10.889241192013571"><ele>653.0</ele><time>2026-04-25T13:19:52.779Z</time></trkpt><trkpt lat="44.04275966038834" lon="10.889107439351685"><ele>652.0</ele><time>2026-04-25T13:19:54.779Z</time></trkpt><trkpt lat="44.04274705589105" lon="10.888983945611802"><ele>651.8</ele><time>2026-04-25T13:19:56.779Z</time></trkpt><trkpt lat="44.0427271682076" lon="10.888847263812895"><ele>651.6</ele><time>2026-04-25T13:19:58.779Z</time></trkpt><trkpt lat="44.04269704421145" lon="10.888728341408862"><ele>651.4</ele><time>2026-04-25T13:20:00.779Z</time></trkpt><trkpt lat="44.04266025146061" lon="10.888602942767706"><ele>651.1999999999999</ele><time>2026-04-25T13:20:02.779Z</time></trkpt><trkpt lat="44.042606633553945" lon="10.888506784147438"><ele>651.0</ele><time>2026-04-25T13:20:04.779Z</time></trkpt><trkpt lat="44.04255643398666" lon="10.888404078807342"><ele>651.5999999999999</ele><time>2026-04-25T13:20:06.779Z</time></trkpt><trkpt lat="44.04251105495435" lon="10.888256958865497"><ele>652.2</ele><time>2026-04-25T13:20:08.779Z</time></trkpt><trkpt lat="44.04245795998853" lon="10.888174839223023"><ele>652.8</ele><time>2026-04-25T13:20:10.779Z</time></trkpt><trkpt lat="44.042404579256335" lon="10.88806986695067"><ele>653.4000000000001</ele><time>2026-04-25T13:20:12.779Z</time></trkpt><trkpt lat="44.04235114230683" lon="10.887973451464198"><ele>654.0</ele><time>2026-04-25T13:20:14.779Z</time></trkpt><trkpt lat="44.04229838708554" lon="10.887842976263524"><ele>654.4000000000001</ele><time>2026-04-25T13:20:16.779Z</time></trkpt><trkpt lat="44.042245288393175" lon="10.887710835490983"><ele>654.8</ele><time>2026-04-25T13:20:18.779Z</time></trkpt><trkpt lat="44.042188617546316" lon="10.887589334668485"><ele>655.2</ele><time>2026-04-25T13:20:20.779Z</time></trkpt><trkpt lat="44.04214546758405" lon="10.887484157450391"><ele>655.5999999999999</ele><time>2026-04-25T13:20:22.779Z</time></trkpt><trkpt lat="44.04208095617747" lon="10.887370162861028"><ele>656.0</ele><time>2026-04-25T13:20:24.779Z</time></trkpt><trkpt lat="44.04202826756604" lon="10.887256134855365"><ele>656.0</ele><time>2026-04-25T13:20:26.779Z</time></trkpt><trkpt lat="44.04197003082911" lon="10.887149727547865"><ele>656.0</ele><time>2026-04-25T13:20:28.779Z</time></trkpt><trkpt lat="44.04191294513405" lon="10.88703975764138"><ele>656.0</ele><time>2026-04-25T13:20:30.779Z</time></trkpt><trkpt lat="44.04186007954745" lon="10.886942072699402"><ele>656.0</ele><time>2026-04-25T13:20:32.779Z</time></trkpt><trkpt lat="44.04179477925781" lon="10.886828303489503"><ele>656.0</ele><time>2026-04-25T13:20:34.779Z</time></trkpt><trkpt lat="44.04173252537559" lon="10.886725292952585"><ele>657.0</ele><time>2026-04-25T13:20:36.779Z</time></trkpt><trkpt lat="44.04166601096517" lon="10.88663232432007"><ele>658.0</ele><time>2026-04-25T13:20:38.779Z</time></trkpt><trkpt lat="44.04160028944584" lon="10.886562865110163"><ele>659.0</ele><time>2026-04-25T13:20:40.779Z</time></trkpt><trkpt lat="44.041525149298984" lon="10.886470816698191"><ele>660.0</ele><time>2026-04-25T13:20:42.779Z</time></trkpt><trkpt lat="44.04145579100617" lon="10.886396728962012"><ele>661.0</ele><time>2026-04-25T13:20:44.779Z</time></trkpt><trkpt lat="44.04138568234341" lon="10.886310115614876"><ele>661.4</ele><time>2026-04-25T13:20:46.779Z</time></trkpt><trkpt lat="44.041311197665124" lon="10.886223556827266"><ele>661.8</ele><time>2026-04-25T13:20:48.779Z</time></trkpt><trkpt lat="44.041219712397876" lon="10.88619277403328"><ele>662.1999999999999</ele><time>2026-04-25T13:20:50.779Z</time></trkpt><trkpt lat="44.04113162353993" lon="10.886139231499538"><ele>662.5999999999999</ele><time>2026-04-25T13:20:52.779Z</time></trkpt><trkpt lat="44.04105662135541" lon="10.886105880728506"><ele>663.0</ele><time>2026-04-25T13:20:54.779Z</time></trkpt><trkpt lat="44.04096254104292" lon="10.886076484019023"><ele>663.0</ele><time>2026-04-25T13:20:56.779Z</time></trkpt><trkpt lat="44.04086700797819" lon="10.886033747940141"><ele>663.0</ele><time>2026-04-25T13:20:58.779Z</time></trkpt><trkpt lat="44.040770056110354" lon="10.885999177838835"><ele>663.0</ele><time>2026-04-25T13:21:00.779Z</time></trkpt><trkpt lat="44.040676611575044" lon="10.885958269065448"><ele>663.0</ele><time>2026-04-25T13:21:02.779Z</time></trkpt><trkpt lat="44.040589787887846" lon="10.885924174254225"><ele>663.0</ele><time>2026-04-25T13:21:04.779Z</time></trkpt><trkpt lat="44.04050543629602" lon="10.885871130750296"><ele>662.1666666666666</ele><time>2026-04-25T13:21:06.779Z</time></trkpt><trkpt lat="44.04042818478298" lon="10.88579653175538"><ele>661.3333333333334</ele><time>2026-04-25T13:21:08.779Z</time></trkpt><trkpt lat="44.040363313821906" lon="10.885689165948373"><ele>660.5</ele><time>2026-04-25T13:21:10.779Z</time></trkpt><trkpt lat="44.040336287110236" lon="10.885585677343329"><ele>659.6666666666667</ele><time>2026-04-25T13:21:12.779Z</time></trkpt><trkpt lat="44.04030693630083" lon="10.885471276035297"><ele>658.8333333333334</ele><time>2026-04-25T13:21:14.779Z</time></trkpt><trkpt lat="44.04029215171237" lon="10.885364909646018"><ele>658.0</ele><time>2026-04-25T13:21:16.779Z</time></trkpt><trkpt lat="44.04027225667751" lon="10.885254317207949"><ele>658.0</ele><time>2026-04-25T13:21:18.779Z</time></trkpt><trkpt lat="44.040250879883374" lon="10.885125562395347"><ele>658.0</ele><time>2026-04-25T13:21:20.779Z</time></trkpt><trkpt lat="44.040249164195835" lon="10.885020832703933"><ele>658.0</ele><time>2026-04-25T13:21:22.779Z</time></trkpt><trkpt lat="44.040223628656236" lon="10.884918124494043"><ele>658.0</ele><time>2026-04-25T13:21:24.779Z</time></trkpt><trkpt lat="44.04018347559317" lon="10.884806014481214"><ele>658.0</ele><time>2026-04-25T13:21:26.779Z</time></trkpt><trkpt lat="44.04013700762173" lon="10.884723523334827"><ele>658.0</ele><time>2026-04-25T13:21:28.779Z</time></trkpt><trkpt lat="44.040088920389195" lon="10.88466557094984"><ele>658.0</ele><time>2026-04-25T13:21:30.779Z</time></trkpt><trkpt lat="44.04004934733518" lon="10.884596422921144"><ele>658.0</ele><time>2026-04-25T13:21:32.779Z</time></trkpt><trkpt lat="44.04001224054093" lon="10.884504037630073"><ele>658.0</ele><time>2026-04-25T13:21:34.778Z</time></trkpt><trkpt lat="44.03998415591816" lon="10.884412656376552"><ele>658.0</ele><time>2026-04-25T13:21:36.778Z</time></trkpt><trkpt lat="44.039940464760804" lon="10.884331676785026"><ele>658.0</ele><time>2026-04-25T13:21:38.778Z</time></trkpt><trkpt lat="44.03989238924224" lon="10.884200504668991"><ele>658.0</ele><time>2026-04-25T13:21:40.778Z</time></trkpt><trkpt lat="44.03986450232308" lon="10.884109319919578"><ele>658.1428571428571</ele><time>2026-04-25T13:21:42.778Z</time></trkpt><trkpt lat="44.03982151500724" lon="10.884029780032295"><ele>658.2857142857142</ele><time>2026-04-25T13:21:44.778Z</time></trkpt><trkpt lat="44.03979737971469" lon="10.883930321665401"><ele>658.4285714285714</ele><time>2026-04-25T13:21:46.778Z</time></trkpt><trkpt lat="44.039775905259575" lon="10.883835504470825"><ele>658.5714285714286</ele><time>2026-04-25T13:21:48.778Z</time></trkpt><trkpt lat="44.03973244169813" lon="10.883752308365157"><ele>658.7142857142857</ele><time>2026-04-25T13:21:50.778Z</time></trkpt><trkpt lat="44.03970326044586" lon="10.88365796764855"><ele>658.8571428571429</ele><time>2026-04-25T13:21:52.778Z</time></trkpt><trkpt lat="44.03965693317016" lon="10.88357880867741"><ele>659.0</ele><time>2026-04-25T13:21:54.778Z</time></trkpt><trkpt lat="44.039619894124975" lon="10.883471749749521"><ele>658.8000000000001</ele><time>2026-04-25T13:21:56.778Z</time></trkpt><trkpt lat="44.03958358701147" lon="10.883374689397536"><ele>658.6</ele><time>2026-04-25T13:21:58.778Z</time></trkpt><trkpt lat="44.03952850665868" lon="10.883277091818744"><ele>658.4</ele><time>2026-04-25T13:22:00.778Z</time></trkpt><trkpt lat="44.03945135331222" lon="10.883177367104974"><ele>658.2</ele><time>2026-04-25T13:22:02.778Z</time></trkpt><trkpt lat="44.03940570143858" lon="10.883063941162252"><ele>658.0</ele><time>2026-04-25T13:22:04.778Z</time></trkpt><trkpt lat="44.03935862354281" lon="10.882932121385581"><ele>658.0</ele><time>2026-04-25T13:22:07.778Z</time></trkpt><trkpt lat="44.039337797371076" lon="10.882796812839933"><ele>658.0</ele><time>2026-04-25T13:22:09.778Z</time></trkpt><trkpt lat="44.039344246100384" lon="10.882694345792347"><ele>658.0</ele><time>2026-04-25T13:22:11.778Z</time></trkpt><trkpt lat="44.03929437710693" lon="10.88262065682996"><ele>658.0</ele><time>2026-04-25T13:22:13.778Z</time></trkpt><trkpt lat="44.03923579883186" lon="10.882492529608797"><ele>658.0</ele><time>2026-04-25T13:22:15.778Z</time></trkpt><trkpt lat="44.039241028347135" lon="10.882371292848159"><ele>658.0</ele><time>2026-04-25T13:22:17.778Z</time></trkpt><trkpt lat="44.039220681963116" lon="10.88227569863806"><ele>658.5</ele><time>2026-04-25T13:22:19.778Z</time></trkpt><trkpt lat="44.03919482674468" lon="10.882171688352752"><ele>659.0</ele><time>2026-04-25T13:22:21.778Z</time></trkpt><trkpt lat="44.039191456778035" lon="10.882073218208525"><ele>659.5</ele><time>2026-04-25T13:22:23.778Z</time></trkpt><trkpt lat="44.039184045064495" lon="10.88195875511614"><ele>660.0</ele><time>2026-04-25T13:22:25.778Z</time></trkpt><trkpt lat="44.03918424253671" lon="10.881854440452647"><ele>660.5</ele><time>2026-04-25T13:22:27.778Z</time></trkpt><trkpt lat="44.03918306900527" lon="10.881749676252646"><ele>661.0</ele><time>2026-04-25T13:22:29.778Z</time></trkpt><trkpt lat="44.03916241609156" lon="10.881612652171707"><ele>661.8333333333334</ele><time>2026-04-25T13:22:32.778Z</time></trkpt><trkpt lat="44.039132529118056" lon="10.881533004253741"><ele>662.6666666666667</ele><time>2026-04-25T13:22:34.778Z</time></trkpt><trkpt lat="44.03910443609909" lon="10.881443976016925"><ele>663.5</ele><time>2026-04-25T13:22:36.778Z</time></trkpt><trkpt lat="44.0390509656886" lon="10.881294681780576"><ele>664.3333333333334</ele><time>2026-04-25T13:22:39.778Z</time></trkpt><trkpt lat="44.039013013815996" lon="10.881203187141539"><ele>665.1666666666666</ele><time>2026-04-25T13:22:41.778Z</time></trkpt><trkpt lat="44.03900115038382" lon="10.88109383529718"><ele>666.0</ele><time>2026-04-25T13:22:43.778Z</time></trkpt><trkpt lat="44.03900259203972" lon="10.880997947111275"><ele>666.0</ele><time>2026-04-25T13:22:45.778Z</time></trkpt><trkpt lat="44.039009689795435" lon="10.880890176919197"><ele>666.0</ele><time>2026-04-25T13:22:47.778Z</time></trkpt><trkpt lat="44.039019855535095" lon="10.880793072649503"><ele>666.0</ele><time>2026-04-25T13:22:49.778Z</time></trkpt><trkpt lat="44.03898999814478" lon="10.880681074361934"><ele>666.0</ele><time>2026-04-25T13:22:51.778Z</time></trkpt><trkpt lat="44.038988099792846" lon="10.880566600236696"><ele>666.0</ele><time>2026-04-25T13:22:53.778Z</time></trkpt><trkpt lat="44.03899619173282" lon="10.880446886808048"><ele>666.0</ele><time>2026-04-25T13:22:55.778Z</time></trkpt><trkpt lat="44.03899627654608" lon="10.880353643972434"><ele>666.0</ele><time>2026-04-25T13:22:57.778Z</time></trkpt><trkpt lat="44.03898205137432" lon="10.880263233025298"><ele>666.0</ele><time>2026-04-25T13:22:59.778Z</time></trkpt><trkpt lat="44.03897650633205" lon="10.880154689168219"><ele>666.0</ele><time>2026-04-25T13:23:02.778Z</time></trkpt><trkpt lat="44.03897042222575" lon="10.880055400012981"><ele>666.0</ele><time>2026-04-25T13:23:04.778Z</time></trkpt><trkpt lat="44.03897244088447" lon="10.879966440923834"><ele>666.0</ele><time>2026-04-25T13:23:06.778Z</time></trkpt><trkpt lat="44.038972098737425" lon="10.87986728891385"><ele>666.0</ele><time>2026-04-25T13:23:08.778Z</time></trkpt><trkpt lat="44.038981658184234" lon="10.87974704315284"><ele>666.0</ele><time>2026-04-25T13:23:10.778Z</time></trkpt><trkpt lat="44.038977373323505" lon="10.879659025545681"><ele>666.8333333333334</ele><time>2026-04-25T13:23:12.778Z</time></trkpt><trkpt lat="44.038969416974595" lon="10.879556815784351"><ele>667.6666666666666</ele><time>2026-04-25T13:23:15.778Z</time></trkpt><trkpt lat="44.038975785960815" lon="10.879454836799203"><ele>668.5</ele><time>2026-04-25T13:23:17.778Z</time></trkpt><trkpt lat="44.03898398054322" lon="10.87936477025575"><ele>669.3333333333333</ele><time>2026-04-25T13:23:19.778Z</time></trkpt><trkpt lat="44.038988994171774" lon="10.87922909843447"><ele>670.1666666666666</ele><time>2026-04-25T13:23:22.778Z</time></trkpt><trkpt lat="44.038980219434634" lon="10.879116494714518"><ele>671.0</ele><time>2026-04-25T13:23:24.778Z</time></trkpt><trkpt lat="44.03897813868532" lon="10.87901145098923"><ele>672.0</ele><time>2026-04-25T13:23:26.778Z</time></trkpt><trkpt lat="44.03898103091625" lon="10.878901282518477"><ele>673.0</ele><time>2026-04-25T13:23:28.778Z</time></trkpt><trkpt lat="44.03898940216181" lon="10.87880689875396"><ele>674.0</ele><time>2026-04-25T13:23:30.778Z</time></trkpt><trkpt lat="44.03899066016482" lon="10.878698299734292"><ele>675.0</ele><time>2026-04-25T13:23:32.778Z</time></trkpt><trkpt lat="44.03899672170407" lon="10.878551857497035"><ele>676.0</ele><time>2026-04-25T13:23:35.778Z</time></trkpt><trkpt lat="44.03898877569762" lon="10.87843101344156"><ele>677.0</ele><time>2026-04-25T13:23:37.778Z</time></trkpt><trkpt lat="44.03897644246056" lon="10.878301169170262"><ele>678.0</ele><time>2026-04-25T13:23:39.778Z</time></trkpt><trkpt lat="44.03894484695082" lon="10.878207594327518"><ele>679.0</ele><time>2026-04-25T13:23:41.777Z</time></trkpt><trkpt lat="44.0389284221396" lon="10.878030858950838"><ele>680.0</ele><time>2026-04-25T13:23:44.778Z</time></trkpt><trkpt lat="44.03892055416559" lon="10.87789305638161"><ele>681.0</ele><time>2026-04-25T13:23:46.777Z</time></trkpt><trkpt lat="44.03893157868941" lon="10.877774780901655"><ele>682.0</ele><time>2026-04-25T13:23:48.777Z</time></trkpt><trkpt lat="44.03894913498028" lon="10.877649337132516"><ele>681.1666666666667</ele><time>2026-04-25T13:23:50.778Z</time></trkpt><trkpt lat="44.038929117591756" lon="10.877550485409248"><ele>680.3333333333334</ele><time>2026-04-25T13:23:52.778Z</time></trkpt><trkpt lat="44.03893428259483" lon="10.87741468201156"><ele>679.5</ele><time>2026-04-25T13:23:55.778Z</time></trkpt><trkpt lat="44.038962940670444" lon="10.877302897916723"><ele>678.6666666666666</ele><time>2026-04-25T13:23:57.778Z</time></trkpt><trkpt lat="44.038979702378796" lon="10.877187859477788"><ele>677.8333333333333</ele><time>2026-04-25T13:23:59.778Z</time></trkpt><trkpt lat="44.038963476766924" lon="10.87707517459564"><ele>677.0</ele><time>2026-04-25T13:24:01.778Z</time></trkpt><trkpt lat="44.03893971436177" lon="10.87698623577824"><ele>677.0</ele><time>2026-04-25T13:24:03.778Z</time></trkpt><trkpt lat="44.03890258268045" lon="10.876888927736072"><ele>677.0</ele><time>2026-04-25T13:24:05.778Z</time></trkpt><trkpt lat="44.038851199571134" lon="10.876806155456666"><ele>677.0</ele><time>2026-04-25T13:24:07.778Z</time></trkpt><trkpt lat="44.03881019172297" lon="10.876694551431735"><ele>677.0</ele><time>2026-04-25T13:24:09.778Z</time></trkpt><trkpt lat="44.03879601744005" lon="10.876584874750012"><ele>677.0</ele><time>2026-04-25T13:24:11.778Z</time></trkpt><trkpt lat="44.03876158860025" lon="10.87650186838422"><ele>677.0</ele><time>2026-04-25T13:24:13.778Z</time></trkpt><trkpt lat="44.03873296150172" lon="10.876410966550013"><ele>676.0</ele><time>2026-04-25T13:24:15.778Z</time></trkpt><trkpt lat="44.03870646580604" lon="10.876306549607152"><ele>675.0</ele><time>2026-04-25T13:24:17.777Z</time></trkpt><trkpt lat="44.03870300664036" lon="10.876206607428843"><ele>674.0</ele><time>2026-04-25T13:24:19.777Z</time></trkpt><trkpt lat="44.03877015269012" lon="10.876124158807379"><ele>673.0</ele><time>2026-04-25T13:24:22.777Z</time></trkpt><trkpt lat="44.03883638331178" lon="10.876043505672934"><ele>672.0</ele><time>2026-04-25T13:24:24.777Z</time></trkpt><trkpt lat="44.03888317906719" lon="10.875964666449903"><ele>671.0</ele><time>2026-04-25T13:24:26.777Z</time></trkpt><trkpt lat="44.0389511077264" lon="10.875909752172339"><ele>671.0</ele><time>2026-04-25T13:24:28.777Z</time></trkpt><trkpt lat="44.03901919694353" lon="10.875843305124715"><ele>671.0</ele><time>2026-04-25T13:24:30.777Z</time></trkpt><trkpt lat="44.039035069819484" lon="10.875755750348029"><ele>671.0</ele><time>2026-04-25T13:24:32.777Z</time></trkpt><trkpt lat="44.03898785540697" lon="10.875673951054486"><ele>671.0</ele><time>2026-04-25T13:24:35.777Z</time></trkpt><trkpt lat="44.0389319837321" lon="10.87557328343041"><ele>671.0</ele><time>2026-04-25T13:24:38.777Z</time></trkpt><trkpt lat="44.03889450326061" lon="10.87549872598302"><ele>671.0</ele><time>2026-04-25T13:24:40.777Z</time></trkpt><trkpt lat="44.0388349639236" lon="10.875423289932026"><ele>671.0</ele><time>2026-04-25T13:24:43.777Z</time></trkpt><trkpt lat="44.038784517746606" lon="10.875327735228682"><ele>671.0</ele><time>2026-04-25T13:24:46.777Z</time></trkpt><trkpt lat="44.03874152653409" lon="10.875232556823574"><ele>671.0</ele><time>2026-04-25T13:24:49.777Z</time></trkpt><trkpt lat="44.03874605825876" lon="10.875109885357302"><ele>671.0</ele><time>2026-04-25T13:24:52.777Z</time></trkpt><trkpt lat="44.03874725051418" lon="10.87499919649158"><ele>671.0</ele><time>2026-04-25T13:24:55.777Z</time></trkpt><trkpt lat="44.03869095241777" lon="10.874903298144394"><ele>671.0</ele><time>2026-04-25T13:24:58.777Z</time></trkpt><trkpt lat="44.038639716526234" lon="10.874829253485043"><ele>671.5</ele><time>2026-04-25T13:25:00.777Z</time></trkpt><trkpt lat="44.03858031391984" lon="10.87473129186098"><ele>672.0</ele><time>2026-04-25T13:25:02.777Z</time></trkpt><trkpt lat="44.03852669436685" lon="10.874607857619031"><ele>672.5</ele><time>2026-04-25T13:25:04.777Z</time></trkpt><trkpt lat="44.03849876174114" lon="10.874526684449195"><ele>673.0</ele><time>2026-04-25T13:25:06.777Z</time></trkpt><trkpt lat="44.038520962717556" lon="10.874411444608604"><ele>673.5</ele><time>2026-04-25T13:25:09.777Z</time></trkpt><trkpt lat="44.0385591910659" lon="10.874333574755745"><ele>674.0</ele><time>2026-04-25T13:25:11.777Z</time></trkpt><trkpt lat="44.03854985356106" lon="10.874241735160629"><ele>674.3333333333333</ele><time>2026-04-25T13:25:13.777Z</time></trkpt><trkpt lat="44.03851358681964" lon="10.874143843398905"><ele>674.6666666666666</ele><time>2026-04-25T13:25:16.777Z</time></trkpt><trkpt lat="44.03845215302377" lon="10.874104322101708"><ele>675.0</ele><time>2026-04-25T13:25:18.777Z</time></trkpt><trkpt lat="44.03841382914896" lon="10.874012284135059"><ele>675.3333333333334</ele><time>2026-04-25T13:25:20.777Z</time></trkpt><trkpt lat="44.038366283383255" lon="10.873909414723478"><ele>675.6666666666667</ele><time>2026-04-25T13:25:22.777Z</time></trkpt><trkpt lat="44.038337122452845" lon="10.873825722648743"><ele>676.0</ele><time>2026-04-25T13:25:24.777Z</time></trkpt><trkpt lat="44.03834930059633" lon="10.873718787553146"><ele>676.0</ele><time>2026-04-25T13:25:27.777Z</time></trkpt><trkpt lat="44.03840281836593" lon="10.873631864136842"><ele>676.0</ele><time>2026-04-25T13:25:30.777Z</time></trkpt><trkpt lat="44.038446994876765" lon="10.873554170784963"><ele>676.0</ele><time>2026-04-25T13:25:33.777Z</time></trkpt><trkpt lat="44.038489264562955" lon="10.873483734102507"><ele>676.0</ele><time>2026-04-25T13:25:36.777Z</time></trkpt><trkpt lat="44.038537884882146" lon="10.873386910896281"><ele>676.0</ele><time>2026-04-25T13:25:39.777Z</time></trkpt><trkpt lat="44.03857411384907" lon="10.873306699356233"><ele>676.0</ele><time>2026-04-25T13:25:43.777Z</time></trkpt><trkpt lat="44.03861649886099" lon="10.873238211178908"><ele>676.0</ele><time>2026-04-25T13:25:45.777Z</time></trkpt><trkpt lat="44.03866729453264" lon="10.873162821597802"><ele>677.0</ele><time>2026-04-25T13:25:48.777Z</time></trkpt><trkpt lat="44.03869401662418" lon="10.873072971311991"><ele>678.0</ele><time>2026-04-25T13:25:51.777Z</time></trkpt><trkpt lat="44.03871488433699" lon="10.87296328735762"><ele>679.0</ele><time>2026-04-25T13:25:54.777Z</time></trkpt><trkpt lat="44.03869930880641" lon="10.87286797617228"><ele>680.0</ele><time>2026-04-25T13:25:58.776Z</time></trkpt><trkpt lat="44.03866174536898" lon="10.872768732856898"><ele>681.0</ele><time>2026-04-25T13:26:01.776Z</time></trkpt><trkpt lat="44.03860002058416" lon="10.872709940392532"><ele>682.0</ele><time>2026-04-25T13:26:03.776Z</time></trkpt><trkpt lat="44.038538862131425" lon="10.872637537287128"><ele>682.8</ele><time>2026-04-25T13:26:05.776Z</time></trkpt><trkpt lat="44.03846653448139" lon="10.872517107955458"><ele>683.6</ele><time>2026-04-25T13:26:07.776Z</time></trkpt><trkpt lat="44.03844046222619" lon="10.872437126361593"><ele>684.4</ele><time>2026-04-25T13:26:08.776Z</time></trkpt><trkpt lat="44.038378310496455" lon="10.872283779241714"><ele>685.1999999999999</ele><time>2026-04-25T13:26:10.776Z</time></trkpt><trkpt lat="44.03832253595319" lon="10.872141561878"><ele>686.0</ele><time>2026-04-25T13:26:12.776Z</time></trkpt><trkpt lat="44.03828090599981" lon="10.872053986580516"><ele>684.6666666666666</ele><time>2026-04-25T13:26:13.776Z</time></trkpt><trkpt lat="44.0382084631462" lon="10.871933021879432"><ele>683.3333333333333</ele><time>2026-04-25T13:26:15.776Z</time></trkpt><trkpt lat="44.03816663055402" lon="10.871812749937922"><ele>682.0</ele><time>2026-04-25T13:26:16.776Z</time></trkpt><trkpt lat="44.03813584595879" lon="10.871712007211865"><ele>680.6666666666666</ele><time>2026-04-25T13:26:17.776Z</time></trkpt><trkpt lat="44.038108923713054" lon="10.871616936601889"><ele>679.3333333333334</ele><time>2026-04-25T13:26:18.776Z</time></trkpt><trkpt lat="44.0380820632725" lon="10.871523018271406"><ele>678.0</ele><time>2026-04-25T13:26:19.776Z</time></trkpt><trkpt lat="44.03806218591893" lon="10.871411359179616"><ele>678.0</ele><time>2026-04-25T13:26:20.776Z</time></trkpt><trkpt lat="44.03804280071697" lon="10.87130840899911"><ele>678.0</ele><time>2026-04-25T13:26:21.776Z</time></trkpt><trkpt lat="44.03803287921782" lon="10.871152720780202"><ele>678.0</ele><time>2026-04-25T13:26:23.776Z</time></trkpt><trkpt lat="44.03805760566628" lon="10.871010124585242"><ele>678.0</ele><time>2026-04-25T13:26:25.776Z</time></trkpt><trkpt lat="44.03806332653769" lon="10.870869582948398"><ele>678.0</ele><time>2026-04-25T13:26:27.776Z</time></trkpt><trkpt lat="44.03807758146504" lon="10.870776433836834"><ele>678.1666666666666</ele><time>2026-04-25T13:26:29.776Z</time></trkpt><trkpt lat="44.038080937793616" lon="10.870670762259657"><ele>678.3333333333334</ele><time>2026-04-25T13:26:31.776Z</time></trkpt><trkpt lat="44.03809135348076" lon="10.870545931959716"><ele>678.5</ele><time>2026-04-25T13:26:33.776Z</time></trkpt><trkpt lat="44.03810243855026" lon="10.870432290710411"><ele>678.6666666666667</ele><time>2026-04-25T13:26:35.776Z</time></trkpt><trkpt lat="44.03811372305834" lon="10.870321709808145"><ele>678.8333333333334</ele><time>2026-04-25T13:26:37.776Z</time></trkpt><trkpt lat="44.03812775808973" lon="10.870210790065759"><ele>679.0</ele><time>2026-04-25T13:26:39.776Z</time></trkpt><trkpt lat="44.03813450283581" lon="10.870097852795336"><ele>679.5714285714286</ele><time>2026-04-25T13:26:41.776Z</time></trkpt><trkpt lat="44.03814622687535" lon="10.870007753399166"><ele>680.1428571428571</ele><time>2026-04-25T13:26:43.776Z</time></trkpt><trkpt lat="44.03817278711947" lon="10.869908432314844"><ele>680.7142857142858</ele><time>2026-04-25T13:26:45.776Z</time></trkpt><trkpt lat="44.038163198214875" lon="10.869819642863057"><ele>681.2857142857142</ele><time>2026-04-25T13:26:47.776Z</time></trkpt><trkpt lat="44.03816299906066" lon="10.869731192704608"><ele>681.8571428571429</ele><time>2026-04-25T13:26:49.776Z</time></trkpt><trkpt lat="44.03813622537266" lon="10.869629803328683"><ele>682.4285714285714</ele><time>2026-04-25T13:26:51.776Z</time></trkpt><trkpt lat="44.038122625866144" lon="10.869505693555519"><ele>683.0</ele><time>2026-04-25T13:26:53.776Z</time></trkpt><trkpt lat="44.03810550584276" lon="10.869381788774561"><ele>683.5999999999999</ele><time>2026-04-25T13:26:55.776Z</time></trkpt><trkpt lat="44.03810462137224" lon="10.869231425692446"><ele>684.1999999999999</ele><time>2026-04-25T13:26:57.775Z</time></trkpt><trkpt lat="44.038096857791786" lon="10.869093386545904"><ele>684.8</ele><time>2026-04-25T13:26:59.775Z</time></trkpt><trkpt lat="44.03809740577437" lon="10.868969509103055"><ele>685.4</ele><time>2026-04-25T13:27:01.775Z</time></trkpt><trkpt lat="44.03811722720257" lon="10.8688374632296"><ele>686.0</ele><time>2026-04-25T13:27:03.774Z</time></trkpt><trkpt lat="44.03813032706839" lon="10.868720668902188"><ele>686.0</ele><time>2026-04-25T13:27:05.774Z</time></trkpt><trkpt lat="44.0381409390121" lon="10.86859787853558"><ele>686.0</ele><time>2026-04-25T13:27:07.774Z</time></trkpt><trkpt lat="44.038169187775594" lon="10.868487385659895"><ele>686.0</ele><time>2026-04-25T13:27:09.773Z</time></trkpt><trkpt lat="44.03814913084226" lon="10.868386005915422"><ele>686.0</ele><time>2026-04-25T13:27:11.773Z</time></trkpt><trkpt lat="44.03814139852494" lon="10.868287507630866"><ele>686.0</ele><time>2026-04-25T13:27:13.773Z</time></trkpt><trkpt lat="44.03815580894397" lon="10.868183305839041"><ele>686.0</ele><time>2026-04-25T13:27:15.773Z</time></trkpt><trkpt lat="44.038184384124726" lon="10.868086088552774"><ele>686.2857142857143</ele><time>2026-04-25T13:27:18.773Z</time></trkpt><trkpt lat="44.0382587615865" lon="10.868091005283185"><ele>686.5714285714286</ele><time>2026-04-25T13:27:21.773Z</time></trkpt><trkpt lat="44.03832933481666" lon="10.868105067586107"><ele>686.8571428571429</ele><time>2026-04-25T13:27:25.772Z</time></trkpt><trkpt lat="44.03839408739832" lon="10.868121660812184"><ele>687.1428571428571</ele><time>2026-04-25T13:27:29.772Z</time></trkpt><trkpt lat="44.03840745217314" lon="10.868016876001786"><ele>687.4285714285714</ele><time>2026-04-25T13:27:33.772Z</time></trkpt><trkpt lat="44.03847571409369" lon="10.868020723168643"><ele>687.7142857142858</ele><time>2026-04-25T13:27:35.772Z</time></trkpt><trkpt lat="44.038404547506964" lon="10.86807802655546"><ele>688.0</ele><time>2026-04-25T13:31:07.77Z</time></trkpt><trkpt lat="44.0383385536931" lon="10.86806533325372"><ele>688.3333333333334</ele><time>2026-04-25T13:31:10.77Z</time></trkpt><trkpt lat="44.03827121460969" lon="10.868007286235024"><ele>688.6666666666667</ele><time>2026-04-25T13:31:14.77Z</time></trkpt><trkpt lat="44.03822263450449" lon="10.867944417172867"><ele>689.0</ele><time>2026-04-25T13:31:17.77Z</time></trkpt><trkpt lat="44.038240185739966" lon="10.86784575498557"><ele>689.3333333333334</ele><time>2026-04-25T13:31:19.77Z</time></trkpt><trkpt lat="44.0382395821495" lon="10.86769660756537"><ele>689.6666666666666</ele><time>2026-04-25T13:31:22.77Z</time></trkpt><trkpt lat="44.03827196120578" lon="10.867608907712656"><ele>690.0</ele><time>2026-04-25T13:31:24.77Z</time></trkpt><trkpt lat="44.03829223672741" lon="10.86752498609146"><ele>690.6666666666666</ele><time>2026-04-25T13:31:26.77Z</time></trkpt><trkpt lat="44.038309865261894" lon="10.867435444447853"><ele>691.3333333333334</ele><time>2026-04-25T13:31:28.77Z</time></trkpt><trkpt lat="44.0383073290356" lon="10.867334406084783"><ele>692.0</ele><time>2026-04-25T13:31:30.77Z</time></trkpt><trkpt lat="44.03831370286919" lon="10.867204099655616"><ele>692.6666666666667</ele><time>2026-04-25T13:31:32.77Z</time></trkpt><trkpt lat="44.03832954050075" lon="10.867073206519116"><ele>693.3333333333334</ele><time>2026-04-25T13:31:35.77Z</time></trkpt><trkpt lat="44.038332715840205" lon="10.866963520727227"><ele>694.0</ele><time>2026-04-25T13:31:37.77Z</time></trkpt><trkpt lat="44.03831469209527" lon="10.866853191992394"><ele>694.8333333333334</ele><time>2026-04-25T13:31:39.77Z</time></trkpt><trkpt lat="44.03831904596345" lon="10.866739020057013"><ele>695.6666666666667</ele><time>2026-04-25T13:31:41.77Z</time></trkpt><trkpt lat="44.03831533861589" lon="10.866618206361833"><ele>696.5</ele><time>2026-04-25T13:31:43.77Z</time></trkpt><trkpt lat="44.03830326253514" lon="10.866496269592336"><ele>697.3333333333334</ele><time>2026-04-25T13:31:45.77Z</time></trkpt><trkpt lat="44.03830195020792" lon="10.866370795775243"><ele>698.1666666666666</ele><time>2026-04-25T13:31:47.77Z</time></trkpt><trkpt lat="44.03831011152408" lon="10.86624723061144"><ele>699.0</ele><time>2026-04-25T13:31:49.77Z</time></trkpt><trkpt lat="44.038323540198085" lon="10.866126545837908"><ele>699.0</ele><time>2026-04-25T13:31:51.77Z</time></trkpt><trkpt lat="44.03834491851769" lon="10.866008137545442"><ele>699.0</ele><time>2026-04-25T13:31:53.77Z</time></trkpt><trkpt lat="44.03835783822069" lon="10.865892415015537"><ele>699.0</ele><time>2026-04-25T13:31:55.77Z</time></trkpt><trkpt lat="44.03836363674563" lon="10.865778198373134"><ele>699.0</ele><time>2026-04-25T13:31:57.77Z</time></trkpt><trkpt lat="44.038378976557055" lon="10.865671501185943"><ele>699.0</ele><time>2026-04-25T13:31:59.77Z</time></trkpt><trkpt lat="44.03839803735334" lon="10.865563714783649"><ele>699.0</ele><time>2026-04-25T13:32:01.77Z</time></trkpt><trkpt lat="44.03843007729688" lon="10.865470847977102"><ele>698.8333333333334</ele><time>2026-04-25T13:32:03.77Z</time></trkpt><trkpt lat="44.03844632439969" lon="10.865324089917696"><ele>698.6666666666666</ele><time>2026-04-25T13:32:06.77Z</time></trkpt><trkpt lat="44.038462047302396" lon="10.865213535058174"><ele>698.5</ele><time>2026-04-25T13:32:08.77Z</time></trkpt><trkpt lat="44.03848669616856" lon="10.865103428919547"><ele>698.3333333333333</ele><time>2026-04-25T13:32:10.771Z</time></trkpt><trkpt lat="44.03852645402111" lon="10.864994636598562"><ele>698.1666666666666</ele><time>2026-04-25T13:32:12.771Z</time></trkpt><trkpt lat="44.03853278109597" lon="10.864884432202016"><ele>698.0</ele><time>2026-04-25T13:32:14.77Z</time></trkpt><trkpt lat="44.03855017389954" lon="10.86478030669993"><ele>698.0</ele><time>2026-04-25T13:32:16.77Z</time></trkpt><trkpt lat="44.03856645399654" lon="10.864666285169951"><ele>698.0</ele><time>2026-04-25T13:32:18.77Z</time></trkpt><trkpt lat="44.038580594461635" lon="10.864565538269506"><ele>698.0</ele><time>2026-04-25T13:32:20.77Z</time></trkpt><trkpt lat="44.03858883700892" lon="10.864469263279458"><ele>698.0</ele><time>2026-04-25T13:32:22.77Z</time></trkpt><trkpt lat="44.03858707334781" lon="10.864366347506724"><ele>698.0</ele><time>2026-04-25T13:32:24.77Z</time></trkpt><trkpt lat="44.03861235888132" lon="10.864277802066175"><ele>698.0</ele><time>2026-04-25T13:32:26.77Z</time></trkpt><trkpt lat="44.0386447676746" lon="10.864151261764897"><ele>698.0</ele><time>2026-04-25T13:32:29.77Z</time></trkpt><trkpt lat="44.03865538033432" lon="10.864047965484964"><ele>698.0</ele><time>2026-04-25T13:32:31.77Z</time></trkpt><trkpt lat="44.0386779623649" lon="10.863960549101328"><ele>698.0</ele><time>2026-04-25T13:32:33.77Z</time></trkpt><trkpt lat="44.03868640831012" lon="10.863870527607721"><ele>698.0</ele><time>2026-04-25T13:32:35.77Z</time></trkpt><trkpt lat="44.03867844665564" lon="10.863766157074275"><ele>698.0</ele><time>2026-04-25T13:32:38.77Z</time></trkpt><trkpt lat="44.03868123489643" lon="10.863626303741997"><ele>698.0</ele><time>2026-04-25T13:32:40.77Z</time></trkpt><trkpt lat="44.03867179036218" lon="10.86350662141788"><ele>697.6666666666666</ele><time>2026-04-25T13:32:42.77Z</time></trkpt><trkpt lat="44.03865055193516" lon="10.863413762822525"><ele>697.3333333333333</ele><time>2026-04-25T13:32:44.77Z</time></trkpt><trkpt lat="44.038655933407355" lon="10.863285427723048"><ele>697.0</ele><time>2026-04-25T13:32:46.77Z</time></trkpt><trkpt lat="44.03867239549266" lon="10.863192632154982"><ele>696.6666666666666</ele><time>2026-04-25T13:32:47.77Z</time></trkpt><trkpt lat="44.038663036911636" lon="10.86304996574445"><ele>696.3333333333334</ele><time>2026-04-25T13:32:49.77Z</time></trkpt><trkpt lat="44.03865214992732" lon="10.862963435944907"><ele>696.0</ele><time>2026-04-25T13:32:50.77Z</time></trkpt><trkpt lat="44.03864459426977" lon="10.862866920478972"><ele>696.0</ele><time>2026-04-25T13:32:51.77Z</time></trkpt><trkpt lat="44.03863403485898" lon="10.862780217049185"><ele>696.0</ele><time>2026-04-25T13:32:52.77Z</time></trkpt><trkpt lat="44.038611851190524" lon="10.862617459790687"><ele>696.0</ele><time>2026-04-25T13:32:54.77Z</time></trkpt><trkpt lat="44.038598037001535" lon="10.862524225858582"><ele>696.0</ele><time>2026-04-25T13:32:55.77Z</time></trkpt><trkpt lat="44.038598592910944" lon="10.862419707844357"><ele>696.0</ele><time>2026-04-25T13:32:56.77Z</time></trkpt><trkpt lat="44.03859281806824" lon="10.862310537133563"><ele>696.0</ele><time>2026-04-25T13:32:57.77Z</time></trkpt><trkpt lat="44.03859729817853" lon="10.862202928955812"><ele>695.6666666666666</ele><time>2026-04-25T13:32:58.77Z</time></trkpt><trkpt lat="44.03859469219072" lon="10.862110686653107"><ele>695.3333333333334</ele><time>2026-04-25T13:32:59.77Z</time></trkpt><trkpt lat="44.03859013575886" lon="10.862017199719809"><ele>695.0</ele><time>2026-04-25T13:33:00.77Z</time></trkpt><trkpt lat="44.03859663153236" lon="10.861923988140914"><ele>694.6666666666667</ele><time>2026-04-25T13:33:01.77Z</time></trkpt><trkpt lat="44.03860277418107" lon="10.861820739642587"><ele>694.3333333333334</ele><time>2026-04-25T13:33:02.77Z</time></trkpt><trkpt lat="44.038613065181536" lon="10.861634781190729"><ele>694.0</ele><time>2026-04-25T13:33:04.77Z</time></trkpt><trkpt lat="44.038626912387606" lon="10.861537560561342"><ele>693.8000000000001</ele><time>2026-04-25T13:33:05.77Z</time></trkpt><trkpt lat="44.03868150381438" lon="10.861413544541572"><ele>693.6</ele><time>2026-04-25T13:33:06.77Z</time></trkpt><trkpt lat="44.03874785460554" lon="10.861295975744644"><ele>693.4</ele><time>2026-04-25T13:33:07.77Z</time></trkpt><trkpt lat="44.03879271921237" lon="10.861187963283433"><ele>693.2</ele><time>2026-04-25T13:33:08.77Z</time></trkpt><trkpt lat="44.038829628020856" lon="10.861086220788726"><ele>693.0</ele><time>2026-04-25T13:33:09.77Z</time></trkpt><trkpt lat="44.03885337945963" lon="10.860969170553444"><ele>693.0</ele><time>2026-04-25T13:33:10.77Z</time></trkpt><trkpt lat="44.038848760954885" lon="10.860853287670539"><ele>693.0</ele><time>2026-04-25T13:33:11.77Z</time></trkpt><trkpt lat="44.038834736149184" lon="10.860749067963388"><ele>693.0</ele><time>2026-04-25T13:33:12.77Z</time></trkpt><trkpt lat="44.03881811741463" lon="10.860643453063856"><ele>693.0</ele><time>2026-04-25T13:33:13.77Z</time></trkpt><trkpt lat="44.038803666631" lon="10.860551947700452"><ele>693.0</ele><time>2026-04-25T13:33:14.77Z</time></trkpt><trkpt lat="44.03879461710888" lon="10.860458994797725"><ele>693.0</ele><time>2026-04-25T13:33:15.77Z</time></trkpt><trkpt lat="44.03878978607762" lon="10.86036155375441"><ele>693.0</ele><time>2026-04-25T13:33:16.77Z</time></trkpt><trkpt lat="44.03876894753158" lon="10.860274619958181"><ele>693.0</ele><time>2026-04-25T13:33:17.77Z</time></trkpt><trkpt lat="44.03876439241877" lon="10.860124833202935"><ele>693.0</ele><time>2026-04-25T13:33:19.77Z</time></trkpt><trkpt lat="44.038775057132575" lon="10.859981271669685"><ele>693.0</ele><time>2026-04-25T13:33:21.77Z</time></trkpt><trkpt lat="44.03876801532218" lon="10.859847542479754"><ele>693.0</ele><time>2026-04-25T13:33:23.77Z</time></trkpt><trkpt lat="44.03876065664915" lon="10.85972226332555"><ele>693.0</ele><time>2026-04-25T13:33:25.77Z</time></trkpt><trkpt lat="44.038761738282055" lon="10.859595336763013"><ele>694.1666666666666</ele><time>2026-04-25T13:33:27.77Z</time></trkpt><trkpt lat="44.03874075908164" lon="10.859476831163073"><ele>695.3333333333334</ele><time>2026-04-25T13:33:29.77Z</time></trkpt><trkpt lat="44.03873831911073" lon="10.859339103202574"><ele>696.5</ele><time>2026-04-25T13:33:31.77Z</time></trkpt><trkpt lat="44.038727688985524" lon="10.859221805205507"><ele>697.6666666666667</ele><time>2026-04-25T13:33:33.77Z</time></trkpt><trkpt lat="44.03870506627003" lon="10.859089238041465"><ele>698.8333333333334</ele><time>2026-04-25T13:33:35.77Z</time></trkpt><trkpt lat="44.038682496853525" lon="10.858986447265883"><ele>700.0</ele><time>2026-04-25T13:33:37.77Z</time></trkpt><trkpt lat="44.03865771517864" lon="10.858859648396306"><ele>701.6</ele><time>2026-04-25T13:33:39.77Z</time></trkpt><trkpt lat="44.0386362966316" lon="10.858731838790819"><ele>703.2</ele><time>2026-04-25T13:33:41.77Z</time></trkpt><trkpt lat="44.038614655296215" lon="10.858637202683648"><ele>704.8</ele><time>2026-04-25T13:33:43.77Z</time></trkpt><trkpt lat="44.038596902941215" lon="10.858503230153472"><ele>706.4</ele><time>2026-04-25T13:33:45.77Z</time></trkpt><trkpt lat="44.03858154567148" lon="10.858361266902731"><ele>708.0</ele><time>2026-04-25T13:33:47.77Z</time></trkpt><trkpt lat="44.038548181587245" lon="10.858239043440086"><ele>708.0</ele><time>2026-04-25T13:33:49.77Z</time></trkpt><trkpt lat="44.03852321770663" lon="10.858116753185584"><ele>708.0</ele><time>2026-04-25T13:33:51.77Z</time></trkpt><trkpt lat="44.03848979500349" lon="10.857994490682284"><ele>708.0</ele><time>2026-04-25T13:33:53.77Z</time></trkpt><trkpt lat="44.03846134248172" lon="10.857892293892482"><ele>708.0</ele><time>2026-04-25T13:33:55.77Z</time></trkpt><trkpt lat="44.03844307425913" lon="10.857780141610972"><ele>708.0</ele><time>2026-04-25T13:33:57.77Z</time></trkpt><trkpt lat="44.03839743989721" lon="10.857684743194872"><ele>708.0</ele><time>2026-04-25T13:34:00.77Z</time></trkpt><trkpt lat="44.0383767881313" lon="10.857539871519789"><ele>707.0</ele><time>2026-04-25T13:34:02.77Z</time></trkpt><trkpt lat="44.03833419267241" lon="10.857411981437966"><ele>706.0</ele><time>2026-04-25T13:34:04.77Z</time></trkpt><trkpt lat="44.03828460770859" lon="10.857298515006335"><ele>705.0</ele><time>2026-04-25T13:34:06.77Z</time></trkpt><trkpt lat="44.038218703256696" lon="10.857215299270948"><ele>704.0</ele><time>2026-04-25T13:34:08.77Z</time></trkpt><trkpt lat="44.03813762031984" lon="10.857140003466556"><ele>703.0</ele><time>2026-04-25T13:34:10.77Z</time></trkpt><trkpt lat="44.03805540216054" lon="10.857075021425265"><ele>705.4</ele><time>2026-04-25T13:34:12.769Z</time></trkpt><trkpt lat="44.037974842133224" lon="10.856968864419521"><ele>707.8</ele><time>2026-04-25T13:34:15.769Z</time></trkpt><trkpt lat="44.037918527423344" lon="10.856829053638407"><ele>710.2</ele><time>2026-04-25T13:34:17.77Z</time></trkpt><trkpt lat="44.03789315011876" lon="10.8566972261431"><ele>712.6</ele><time>2026-04-25T13:34:19.77Z</time></trkpt><trkpt lat="44.03787850226943" lon="10.856570239852914"><ele>715.0</ele><time>2026-04-25T13:34:21.769Z</time></trkpt><trkpt lat="44.03787389064071" lon="10.856436894813996"><ele>715.0</ele><time>2026-04-25T13:34:23.77Z</time></trkpt><trkpt lat="44.037856950725065" lon="10.856304806110513"><ele>715.0</ele><time>2026-04-25T13:34:25.77Z</time></trkpt><trkpt lat="44.0378387983508" lon="10.856184956722688"><ele>715.0</ele><time>2026-04-25T13:34:27.77Z</time></trkpt><trkpt lat="44.03782145267638" lon="10.856085374958049"><ele>715.0</ele><time>2026-04-25T13:34:29.77Z</time></trkpt><trkpt lat="44.037825575257926" lon="10.855937645680763"><ele>715.0</ele><time>2026-04-25T13:34:31.77Z</time></trkpt><trkpt lat="44.0378113880317" lon="10.855777003783563"><ele>715.0</ele><time>2026-04-25T13:34:33.77Z</time></trkpt><trkpt lat="44.037800801039154" lon="10.855655490931996"><ele>715.0</ele><time>2026-04-25T13:34:35.77Z</time></trkpt><trkpt lat="44.03779260010007" lon="10.855517932628073"><ele>715.0</ele><time>2026-04-25T13:34:37.77Z</time></trkpt><trkpt lat="44.037763594729505" lon="10.855368429023736"><ele>715.0</ele><time>2026-04-25T13:34:39.77Z</time></trkpt><trkpt lat="44.03774560249028" lon="10.855237960420686"><ele>715.0</ele><time>2026-04-25T13:34:41.77Z</time></trkpt><trkpt lat="44.03771791853887" lon="10.855122019065044"><ele>714.6</ele><time>2026-04-25T13:34:43.77Z</time></trkpt><trkpt lat="44.03769124099296" lon="10.855033601414473"><ele>714.2</ele><time>2026-04-25T13:34:45.77Z</time></trkpt><trkpt lat="44.037673597622124" lon="10.854919940601837"><ele>713.8</ele><time>2026-04-25T13:34:47.77Z</time></trkpt><trkpt lat="44.03764598615401" lon="10.854789246311496"><ele>713.4</ele><time>2026-04-25T13:34:49.77Z</time></trkpt><trkpt lat="44.0376000715736" lon="10.854659694389"><ele>713.0</ele><time>2026-04-25T13:34:51.77Z</time></trkpt><trkpt lat="44.037555015435366" lon="10.854539548081902"><ele>713.0</ele><time>2026-04-25T13:34:53.77Z</time></trkpt><trkpt lat="44.037505876580724" lon="10.854431000338396"><ele>713.0</ele><time>2026-04-25T13:34:55.77Z</time></trkpt><trkpt lat="44.03745751188156" lon="10.854348980007138"><ele>713.0</ele><time>2026-04-25T13:34:57.77Z</time></trkpt><trkpt lat="44.037412130245855" lon="10.854261714221007"><ele>713.0</ele><time>2026-04-25T13:34:59.77Z</time></trkpt><trkpt lat="44.03738041010109" lon="10.85413862621423"><ele>713.0</ele><time>2026-04-25T13:35:01.77Z</time></trkpt><trkpt lat="44.03734147871495" lon="10.854019453930253"><ele>713.0</ele><time>2026-04-25T13:35:03.77Z</time></trkpt><trkpt lat="44.03734957043638" lon="10.853880951401424"><ele>714.0</ele><time>2026-04-25T13:35:05.77Z</time></trkpt><trkpt lat="44.03737606821166" lon="10.853744275318682"><ele>715.0</ele><time>2026-04-25T13:35:07.77Z</time></trkpt><trkpt lat="44.037401107780916" lon="10.853629240643729"><ele>716.0</ele><time>2026-04-25T13:35:09.77Z</time></trkpt><trkpt lat="44.03746632708845" lon="10.853540840439596"><ele>717.0</ele><time>2026-04-25T13:35:11.77Z</time></trkpt><trkpt lat="44.037571784198455" lon="10.853448477778597"><ele>718.0</ele><time>2026-04-25T13:35:13.77Z</time></trkpt><trkpt lat="44.03764417735834" lon="10.85335190913786"><ele>716.0</ele><time>2026-04-25T13:35:15.77Z</time></trkpt><trkpt lat="44.03768621051898" lon="10.853257505575879"><ele>714.0</ele><time>2026-04-25T13:35:17.77Z</time></trkpt><trkpt lat="44.03773719960575" lon="10.853155357191081"><ele>712.0</ele><time>2026-04-25T13:35:19.77Z</time></trkpt><trkpt lat="44.037772930886916" lon="10.853021517873557"><ele>710.0</ele><time>2026-04-25T13:35:21.77Z</time></trkpt><trkpt lat="44.03779114018063" lon="10.852874523664578"><ele>708.0</ele><time>2026-04-25T13:35:23.77Z</time></trkpt><trkpt lat="44.037753505369956" lon="10.852730067902206"><ele>708.8</ele><time>2026-04-25T13:35:25.77Z</time></trkpt><trkpt lat="44.03771687344424" lon="10.852589774757151"><ele>709.5999999999999</ele><time>2026-04-25T13:35:27.77Z</time></trkpt><trkpt lat="44.03771100207444" lon="10.85243081877119"><ele>710.4000000000001</ele><time>2026-04-25T13:35:29.77Z</time></trkpt><trkpt lat="44.03769182904969" lon="10.852272811764232"><ele>711.2</ele><time>2026-04-25T13:35:31.77Z</time></trkpt><trkpt lat="44.03766275350451" lon="10.852126748194209"><ele>712.0</ele><time>2026-04-25T13:35:33.77Z</time></trkpt><trkpt lat="44.03763332451309" lon="10.851987433708423"><ele>712.0</ele><time>2026-04-25T13:35:35.77Z</time></trkpt><trkpt lat="44.037603925973904" lon="10.851840496134992"><ele>712.0</ele><time>2026-04-25T13:35:37.77Z</time></trkpt><trkpt lat="44.03757926536636" lon="10.85170281720292"><ele>712.0</ele><time>2026-04-25T13:35:39.769Z</time></trkpt><trkpt lat="44.037558580731904" lon="10.851549649842656"><ele>712.0</ele><time>2026-04-25T13:35:41.769Z</time></trkpt><trkpt lat="44.037549186213035" lon="10.8514207014529"><ele>712.0</ele><time>2026-04-25T13:35:43.769Z</time></trkpt><trkpt lat="44.03756092857724" lon="10.851255372952734"><ele>712.0</ele><time>2026-04-25T13:35:45.769Z</time></trkpt><trkpt lat="44.037596627572356" lon="10.851132295247321"><ele>712.0</ele><time>2026-04-25T13:35:47.769Z</time></trkpt><trkpt lat="44.03762279262363" lon="10.851045466332325"><ele>712.0</ele><time>2026-04-25T13:35:48.769Z</time></trkpt><trkpt lat="44.03764519650441" lon="10.850901976096171"><ele>712.0</ele><time>2026-04-25T13:35:50.769Z</time></trkpt><trkpt lat="44.03768877936354" lon="10.8507651465864"><ele>712.0</ele><time>2026-04-25T13:35:52.769Z</time></trkpt><trkpt lat="44.03770472813806" lon="10.850641603723055"><ele>712.1666666666667</ele><time>2026-04-25T13:35:54.769Z</time></trkpt><trkpt lat="44.03773385579384" lon="10.850542633895845"><ele>712.3333333333334</ele><time>2026-04-25T13:35:56.769Z</time></trkpt><trkpt lat="44.03775211966987" lon="10.850449129273743"><ele>712.5</ele><time>2026-04-25T13:35:58.769Z</time></trkpt><trkpt lat="44.03778134716495" lon="10.850328640223971"><ele>712.6666666666666</ele><time>2026-04-25T13:36:01.769Z</time></trkpt><trkpt lat="44.03780234005151" lon="10.850217638238124"><ele>712.8333333333333</ele><time>2026-04-25T13:36:04.769Z</time></trkpt><trkpt lat="44.03783567244996" lon="10.850105445759285"><ele>713.0</ele><time>2026-04-25T13:36:07.769Z</time></trkpt><trkpt lat="44.03788545731771" lon="10.850032105444999"><ele>713.0</ele><time>2026-04-25T13:36:09.769Z</time></trkpt><trkpt lat="44.03793182165315" lon="10.849940271749116"><ele>713.0</ele><time>2026-04-25T13:36:11.769Z</time></trkpt><trkpt lat="44.037982719153895" lon="10.849847330390736"><ele>713.0</ele><time>2026-04-25T13:36:13.769Z</time></trkpt><trkpt lat="44.038025468729714" lon="10.849777852475306"><ele>713.0</ele><time>2026-04-25T13:36:15.768Z</time></trkpt><trkpt lat="44.038065779292424" lon="10.849684778820667"><ele>713.0</ele><time>2026-04-25T13:36:17.769Z</time></trkpt><trkpt lat="44.03807867116871" lon="10.849571848961954"><ele>713.0</ele><time>2026-04-25T13:36:20.769Z</time></trkpt><trkpt lat="44.03808559880863" lon="10.849458716582253"><ele>713.0</ele><time>2026-04-25T13:36:23.769Z</time></trkpt><trkpt lat="44.03811686178448" lon="10.849364288124962"><ele>713.0</ele><time>2026-04-25T13:36:25.769Z</time></trkpt><trkpt lat="44.03814568718533" lon="10.849275846414047"><ele>713.0</ele><time>2026-04-25T13:36:27.769Z</time></trkpt><trkpt lat="44.038189700673904" lon="10.849185533129331"><ele>713.0</ele><time>2026-04-25T13:36:29.769Z</time></trkpt><trkpt lat="44.03823423027063" lon="10.849080360903178"><ele>713.0</ele><time>2026-04-25T13:36:32.769Z</time></trkpt><trkpt lat="44.03829904085177" lon="10.848999473126723"><ele>713.0</ele><time>2026-04-25T13:36:34.769Z</time></trkpt><trkpt lat="44.038376687289734" lon="10.848938903142695"><ele>714.6666666666666</ele><time>2026-04-25T13:36:36.769Z</time></trkpt><trkpt lat="44.03843966706823" lon="10.848863902922115"><ele>716.3333333333333</ele><time>2026-04-25T13:36:39.769Z</time></trkpt><trkpt lat="44.03848772943867" lon="10.848778672970203"><ele>718.0</ele><time>2026-04-25T13:36:41.769Z</time></trkpt><trkpt lat="44.038555108013945" lon="10.848683271949765"><ele>719.6666666666666</ele><time>2026-04-25T13:36:44.769Z</time></trkpt><trkpt lat="44.0386035325115" lon="10.84860756132421"><ele>721.3333333333334</ele><time>2026-04-25T13:36:46.769Z</time></trkpt><trkpt lat="44.038663681317345" lon="10.848549304478063"><ele>723.0</ele><time>2026-04-25T13:36:49.769Z</time></trkpt><trkpt lat="44.03869836689593" lon="10.848473784259324"><ele>722.3333333333334</ele><time>2026-04-25T13:36:52.769Z</time></trkpt><trkpt lat="44.038751497657955" lon="10.848373912643256"><ele>721.6666666666666</ele><time>2026-04-25T13:36:55.769Z</time></trkpt><trkpt lat="44.038806697930276" lon="10.848272918267426"><ele>721.0</ele><time>2026-04-25T13:36:58.769Z</time></trkpt><trkpt lat="44.038848581661696" lon="10.848189831852023"><ele>720.3333333333333</ele><time>2026-04-25T13:37:00.769Z</time></trkpt><trkpt lat="44.038900453334556" lon="10.848094639897123"><ele>719.6666666666666</ele><time>2026-04-25T13:37:03.769Z</time></trkpt><trkpt lat="44.038940472673694" lon="10.847989625861604"><ele>719.0</ele><time>2026-04-25T13:37:06.769Z</time></trkpt><trkpt lat="44.038994892003636" lon="10.847903227370253"><ele>718.9999999999999</ele><time>2026-04-25T13:37:09.769Z</time></trkpt><trkpt lat="44.03901693147343" lon="10.84781700270358"><ele>719.0</ele><time>2026-04-25T13:37:11.769Z</time></trkpt><trkpt lat="44.03904620136972" lon="10.84773502750015"><ele>719.0</ele><time>2026-04-25T13:37:13.769Z</time></trkpt><trkpt lat="44.03908010427831" lon="10.847636225901008"><ele>719.0</ele><time>2026-04-25T13:37:16.769Z</time></trkpt><trkpt lat="44.03909686678112" lon="10.847515212216845"><ele>719.0</ele><time>2026-04-25T13:37:19.769Z</time></trkpt><trkpt lat="44.03912086973757" lon="10.847433263498466"><ele>718.9999999999999</ele><time>2026-04-25T13:37:21.769Z</time></trkpt><trkpt lat="44.03916337788923" lon="10.847359981820237"><ele>719.0</ele><time>2026-04-25T13:37:23.769Z</time></trkpt><trkpt lat="44.03920759069927" lon="10.847279135291348"><ele>720.0</ele><time>2026-04-25T13:37:25.769Z</time></trkpt><trkpt lat="44.039259230899056" lon="10.847175162200136"><ele>721.0</ele><time>2026-04-25T13:37:28.769Z</time></trkpt><trkpt lat="44.039319693692235" lon="10.847096681788551"><ele>722.0</ele><time>2026-04-25T13:37:30.769Z</time></trkpt><trkpt lat="44.03937249564242" lon="10.847019217345087"><ele>723.0</ele><time>2026-04-25T13:37:32.769Z</time></trkpt><trkpt lat="44.03941949358655" lon="10.84692194174877"><ele>724.0</ele><time>2026-04-25T13:37:34.769Z</time></trkpt><trkpt lat="44.039477500800984" lon="10.846837562449608"><ele>725.0</ele><time>2026-04-25T13:37:36.769Z</time></trkpt><trkpt lat="44.03954445670112" lon="10.846735409766387"><ele>725.0</ele><time>2026-04-25T13:37:38.769Z</time></trkpt><trkpt lat="44.03960717209962" lon="10.846614462019724"><ele>725.0</ele><time>2026-04-25T13:37:40.769Z</time></trkpt><trkpt lat="44.03965505026881" lon="10.84653379093303"><ele>725.0</ele><time>2026-04-25T13:37:42.769Z</time></trkpt><trkpt lat="44.039701075252246" lon="10.846449155501057"><ele>725.0</ele><time>2026-04-25T13:37:44.769Z</time></trkpt><trkpt lat="44.03975290309039" lon="10.846344381033594"><ele>725.0</ele><time>2026-04-25T13:37:46.769Z</time></trkpt><trkpt lat="44.039800578378596" lon="10.84626337098128"><ele>725.0</ele><time>2026-04-25T13:37:48.769Z</time></trkpt><trkpt lat="44.03985137559409" lon="10.84614659050311"><ele>725.0</ele><time>2026-04-25T13:37:50.769Z</time></trkpt><trkpt lat="44.03989817543208" lon="10.846030719217643"><ele>725.0</ele><time>2026-04-25T13:37:52.769Z</time></trkpt><trkpt lat="44.03993581585837" lon="10.845926514998776"><ele>725.0</ele><time>2026-04-25T13:37:54.769Z</time></trkpt><trkpt lat="44.03999329136567" lon="10.845823475719609"><ele>725.0</ele><time>2026-04-25T13:37:56.769Z</time></trkpt><trkpt lat="44.040022398765835" lon="10.845740834267918"><ele>725.0</ele><time>2026-04-25T13:37:58.769Z</time></trkpt><trkpt lat="44.040073711993315" lon="10.845638402082503"><ele>725.0</ele><time>2026-04-25T13:38:01.768Z</time></trkpt><trkpt lat="44.04011584632803" lon="10.84552532165052"><ele>726.2</ele><time>2026-04-25T13:38:03.768Z</time></trkpt><trkpt lat="44.04018554076727" lon="10.845421541199277"><ele>727.4</ele><time>2026-04-25T13:38:05.768Z</time></trkpt><trkpt lat="44.04023819199446" lon="10.84530944403565"><ele>728.5999999999999</ele><time>2026-04-25T13:38:07.768Z</time></trkpt><trkpt lat="44.040284791871635" lon="10.845201603462202"><ele>729.8</ele><time>2026-04-25T13:38:09.768Z</time></trkpt><trkpt lat="44.040315578252304" lon="10.845095512002944"><ele>731.0</ele><time>2026-04-25T13:38:11.768Z</time></trkpt><trkpt lat="44.040342353510205" lon="10.844965530217447"><ele>731.0</ele><time>2026-04-25T13:38:13.768Z</time></trkpt><trkpt lat="44.040373159655886" lon="10.844829846075392"><ele>731.0</ele><time>2026-04-25T13:38:15.768Z</time></trkpt><trkpt lat="44.040398580297406" lon="10.84466661132534"><ele>731.0</ele><time>2026-04-25T13:38:17.768Z</time></trkpt><trkpt lat="44.04040285838674" lon="10.844506512045214"><ele>731.0</ele><time>2026-04-25T13:38:19.768Z</time></trkpt><trkpt lat="44.040400588623214" lon="10.844356620773942"><ele>731.0</ele><time>2026-04-25T13:38:21.768Z</time></trkpt><trkpt lat="44.040384495755006" lon="10.844232038956557"><ele>731.6666666666666</ele><time>2026-04-25T13:38:23.767Z</time></trkpt><trkpt lat="44.04035769372666" lon="10.844126284563965"><ele>732.3333333333333</ele><time>2026-04-25T13:38:26.768Z</time></trkpt><trkpt lat="44.04031977527731" lon="10.844016341739088"><ele>733.0</ele><time>2026-04-25T13:38:29.768Z</time></trkpt><trkpt lat="44.040312523549254" lon="10.843919786766195"><ele>733.6666666666666</ele><time>2026-04-25T13:38:31.768Z</time></trkpt><trkpt lat="44.040294897984076" lon="10.843797291445782"><ele>734.3333333333334</ele><time>2026-04-25T13:38:34.768Z</time></trkpt><trkpt lat="44.04027870224149" lon="10.843695667751398"><ele>735.0</ele><time>2026-04-25T13:38:37.768Z</time></trkpt><trkpt lat="44.04026423881857" lon="10.843589726827325"><ele>735.0</ele><time>2026-04-25T13:38:40.768Z</time></trkpt><trkpt lat="44.04021254619832" lon="10.84349227136419"><ele>735.0</ele><time>2026-04-25T13:38:43.768Z</time></trkpt><trkpt lat="44.04017716178234" lon="10.843386099398655"><ele>735.0</ele><time>2026-04-25T13:38:46.768Z</time></trkpt><trkpt lat="44.040139355921916" lon="10.843292444939149"><ele>735.0</ele><time>2026-04-25T13:38:49.768Z</time></trkpt><trkpt lat="44.04008898358529" lon="10.843236989905307"><ele>735.0</ele><time>2026-04-25T13:38:51.768Z</time></trkpt><trkpt lat="44.04002700654589" lon="10.843133778925871"><ele>735.0</ele><time>2026-04-25T13:38:54.768Z</time></trkpt><trkpt lat="44.03998897310605" lon="10.843057260592072"><ele>738.3333333333334</ele><time>2026-04-25T13:38:56.768Z</time></trkpt><trkpt lat="44.039957990619634" lon="10.842966774026792"><ele>741.6666666666666</ele><time>2026-04-25T13:38:59.768Z</time></trkpt><trkpt lat="44.03995656605172" lon="10.842875015999835"><ele>745.0</ele><time>2026-04-25T13:39:03.768Z</time></trkpt><trkpt lat="44.03996063273083" lon="10.842777051847472"><ele>748.3333333333333</ele><time>2026-04-25T13:39:07.768Z</time></trkpt><trkpt lat="44.03995310045412" lon="10.842665027843946"><ele>751.6666666666666</ele><time>2026-04-25T13:39:11.768Z</time></trkpt><trkpt lat="44.03994048498754" lon="10.842561243092518"><ele>755.0</ele><time>2026-04-25T13:39:14.768Z</time></trkpt><trkpt lat="44.03990870944046" lon="10.84245194650789"><ele>755.1666666666666</ele><time>2026-04-25T13:39:17.768Z</time></trkpt><trkpt lat="44.03985382743408" lon="10.842372335351175"><ele>755.3333333333333</ele><time>2026-04-25T13:39:21.768Z</time></trkpt><trkpt lat="44.039779485037826" lon="10.842325838635515"><ele>755.5</ele><time>2026-04-25T13:39:25.768Z</time></trkpt><trkpt lat="44.039729796200305" lon="10.842239112359866"><ele>755.6666666666666</ele><time>2026-04-25T13:39:28.768Z</time></trkpt><trkpt lat="44.03968083720456" lon="10.842163743142235"><ele>755.8333333333334</ele><time>2026-04-25T13:39:31.768Z</time></trkpt><trkpt lat="44.03964360244256" lon="10.842078175955017"><ele>756.0</ele><time>2026-04-25T13:39:34.768Z</time></trkpt><trkpt lat="44.03963233135664" lon="10.841964459934967"><ele>756.0</ele><time>2026-04-25T13:39:39.768Z</time></trkpt><trkpt lat="44.03962969148386" lon="10.841871329818986"><ele>756.0</ele><time>2026-04-25T13:39:43.768Z</time></trkpt><trkpt lat="44.03962658207332" lon="10.841777411931785"><ele>756.0</ele><time>2026-04-25T13:39:47.768Z</time></trkpt><trkpt lat="44.03961560603618" lon="10.841683187416013"><ele>756.0</ele><time>2026-04-25T13:39:50.768Z</time></trkpt><trkpt lat="44.039572296784726" lon="10.841585176704237"><ele>756.0</ele><time>2026-04-25T13:39:53.768Z</time></trkpt><trkpt lat="44.039535970711874" lon="10.841491014352204"><ele>756.0</ele><time>2026-04-25T13:39:56.768Z</time></trkpt><trkpt lat="44.0395021562958" lon="10.841412245952771"><ele>756.0</ele><time>2026-04-25T13:39:59.768Z</time></trkpt><trkpt lat="44.039481259003296" lon="10.84131129970461"><ele>756.6666666666666</ele><time>2026-04-25T13:40:02.768Z</time></trkpt><trkpt lat="44.03945203868902" lon="10.841198671403706"><ele>757.3333333333334</ele><time>2026-04-25T13:40:06.768Z</time></trkpt><trkpt lat="44.03943344575239" lon="10.841095388343618"><ele>758.0</ele><time>2026-04-25T13:40:09.768Z</time></trkpt><trkpt lat="44.03942487102473" lon="10.840979643406177"><ele>758.6666666666667</ele><time>2026-04-25T13:40:12.768Z</time></trkpt><trkpt lat="44.039415986510434" lon="10.840869451921922"><ele>759.3333333333334</ele><time>2026-04-25T13:40:16.768Z</time></trkpt><trkpt lat="44.0393974247233" lon="10.840762994057894"><ele>760.0</ele><time>2026-04-25T13:40:19.768Z</time></trkpt><trkpt lat="44.03936680642281" lon="10.840663405161848"><ele>760.6666666666667</ele><time>2026-04-25T13:40:22.768Z</time></trkpt><trkpt lat="44.03936092623956" lon="10.840569798876572"><ele>761.3333333333334</ele><time>2026-04-25T13:40:24.768Z</time></trkpt><trkpt lat="44.03934359580102" lon="10.840446207516738"><ele>762.0</ele><time>2026-04-25T13:40:27.767Z</time></trkpt><trkpt lat="44.03933480431188" lon="10.840340844299272"><ele>762.6666666666666</ele><time>2026-04-25T13:40:30.767Z</time></trkpt><trkpt lat="44.03931518068901" lon="10.840256911895843"><ele>763.3333333333333</ele><time>2026-04-25T13:40:32.767Z</time></trkpt><trkpt lat="44.03930763773097" lon="10.840145945204384"><ele>764.0</ele><time>2026-04-25T13:40:35.767Z</time></trkpt><trkpt lat="44.03929234408221" lon="10.84002715865775"><ele>764.4285714285714</ele><time>2026-04-25T13:40:38.767Z</time></trkpt><trkpt lat="44.039278507799" lon="10.839938940617992"><ele>764.8571428571428</ele><time>2026-04-25T13:40:40.767Z</time></trkpt><trkpt lat="44.0392516568908" lon="10.839843201037658"><ele>765.2857142857142</ele><time>2026-04-25T13:40:42.767Z</time></trkpt><trkpt lat="44.03922464616179" lon="10.839762451840107"><ele>765.7142857142858</ele><time>2026-04-25T13:40:44.767Z</time></trkpt><trkpt lat="44.03916811026286" lon="10.839684898636667"><ele>766.1428571428571</ele><time>2026-04-25T13:40:47.767Z</time></trkpt><trkpt lat="44.039072679036614" lon="10.839705814201587"><ele>766.5714285714286</ele><time>2026-04-25T13:40:50.767Z</time></trkpt><trkpt lat="44.039069649396176" lon="10.839794326507462"><ele>767.0</ele><time>2026-04-25T13:40:53.767Z</time></trkpt><trkpt lat="44.03908650907451" lon="10.839904562508229"><ele>770.0</ele><time>2026-04-25T13:40:57.767Z</time></trkpt><trkpt lat="44.039074757840694" lon="10.839993043265569"><ele>773.0</ele><time>2026-04-25T13:41:01.767Z</time></trkpt><trkpt lat="44.03907940351682" lon="10.840082089886675"><ele>776.0</ele><time>2026-04-25T13:41:04.767Z</time></trkpt><trkpt lat="44.039099789926404" lon="10.840192438196642"><ele>779.0</ele><time>2026-04-25T13:41:07.767Z</time></trkpt><trkpt lat="44.039095605878174" lon="10.840299180141388"><ele>782.0</ele><time>2026-04-25T13:41:10.767Z</time></trkpt><trkpt lat="44.039121977751805" lon="10.840381585772622"><ele>785.0</ele><time>2026-04-25T13:41:12.767Z</time></trkpt><trkpt lat="44.03910366024319" lon="10.840493038991232"><ele>788.0</ele><time>2026-04-25T13:41:14.767Z</time></trkpt><trkpt lat="44.03909786114713" lon="10.840626095523193"><ele>788.0</ele><time>2026-04-25T13:41:17.767Z</time></trkpt><trkpt lat="44.039060557459386" lon="10.840731030756565"><ele>788.0</ele><time>2026-04-25T13:41:19.767Z</time></trkpt><trkpt lat="44.039025702315314" lon="10.840818742883167"><ele>788.0</ele><time>2026-04-25T13:41:21.767Z</time></trkpt><trkpt lat="44.03898241340275" lon="10.840898283847443"><ele>788.0</ele><time>2026-04-25T13:41:23.767Z</time></trkpt><trkpt lat="44.03894218996008" lon="10.840995591703296"><ele>788.0</ele><time>2026-04-25T13:41:26.767Z</time></trkpt><trkpt lat="44.03889794628709" lon="10.841059588784452"><ele>788.0</ele><time>2026-04-25T13:41:28.767Z</time></trkpt><trkpt lat="44.03883994876143" lon="10.84111272868062"><ele>788.0</ele><time>2026-04-25T13:41:30.767Z</time></trkpt><trkpt lat="44.03879289682771" lon="10.841177723854624"><ele>786.4285714285714</ele><time>2026-04-25T13:41:32.767Z</time></trkpt><trkpt lat="44.03874227638284" lon="10.84124534550933"><ele>784.8571428571429</ele><time>2026-04-25T13:41:34.767Z</time></trkpt><trkpt lat="44.03869500000607" lon="10.841305761688496"><ele>783.2857142857142</ele><time>2026-04-25T13:41:36.767Z</time></trkpt><trkpt lat="44.038640809601766" lon="10.84136268741213"><ele>781.7142857142858</ele><time>2026-04-25T13:41:38.767Z</time></trkpt><trkpt lat="44.03855330799404" lon="10.841411996270532"><ele>780.1428571428571</ele><time>2026-04-25T13:41:41.767Z</time></trkpt><trkpt lat="44.038504688080685" lon="10.841468305283751"><ele>778.5714285714286</ele><time>2026-04-25T13:41:43.767Z</time></trkpt><trkpt lat="44.03844078871104" lon="10.841517371366276"><ele>777.0</ele><time>2026-04-25T13:41:46.767Z</time></trkpt><trkpt lat="44.0383597375047" lon="10.841588769090723"><ele>777.0</ele><time>2026-04-25T13:41:49.767Z</time></trkpt><trkpt lat="44.03830256037133" lon="10.841639795903621"><ele>777.0</ele><time>2026-04-25T13:41:52.767Z</time></trkpt><trkpt lat="44.038240904859784" lon="10.841695057752322"><ele>777.0</ele><time>2026-04-25T13:41:55.767Z</time></trkpt><trkpt lat="44.03818103619843" lon="10.84173545079494"><ele>777.0</ele><time>2026-04-25T13:41:59.767Z</time></trkpt><trkpt lat="44.03811290125189" lon="10.8417692416186"><ele>777.0</ele><time>2026-04-25T13:42:02.767Z</time></trkpt><trkpt lat="44.038039110047905" lon="10.841837744351922"><ele>777.0</ele><time>2026-04-25T13:42:05.767Z</time></trkpt><trkpt lat="44.03796039734623" lon="10.841892201783375"><ele>778.4285714285714</ele><time>2026-04-25T13:42:08.767Z</time></trkpt><trkpt lat="44.03791731203653" lon="10.841957327286954"><ele>779.8571428571429</ele><time>2026-04-25T13:42:10.767Z</time></trkpt><trkpt lat="44.037884490643805" lon="10.842063167659246"><ele>781.2857142857142</ele><time>2026-04-25T13:42:13.767Z</time></trkpt><trkpt lat="44.03787223461429" lon="10.842174973075812"><ele>782.7142857142858</ele><time>2026-04-25T13:42:16.767Z</time></trkpt><trkpt lat="44.03782498920412" lon="10.842236088791088"><ele>784.1428571428571</ele><time>2026-04-25T13:42:18.767Z</time></trkpt><trkpt lat="44.03776028649782" lon="10.84227742913718"><ele>785.5714285714286</ele><time>2026-04-25T13:42:20.767Z</time></trkpt><trkpt lat="44.03769356717617" lon="10.842342525460271"><ele>787.0</ele><time>2026-04-25T13:42:23.767Z</time></trkpt><trkpt lat="44.03763022995153" lon="10.842358328515035"><ele>786.9999999999999</ele><time>2026-04-25T13:42:25.767Z</time></trkpt><trkpt lat="44.037577313987015" lon="10.842424648911964"><ele>787.0</ele><time>2026-04-25T13:42:29.767Z</time></trkpt><trkpt lat="44.03756707545185" lon="10.84251452953682"><ele>787.0</ele><time>2026-04-25T13:42:34.766Z</time></trkpt><trkpt lat="44.03752760563179" lon="10.842585915405415"><ele>787.0</ele><time>2026-04-25T13:42:39.767Z</time></trkpt><trkpt lat="44.037542918534285" lon="10.842684104135966"><ele>786.9999999999999</ele><time>2026-04-25T13:42:54.766Z</time></trkpt><trkpt lat="44.03751687200321" lon="10.842781815351028"><ele>787.0</ele><time>2026-04-25T13:43:05.768Z</time></trkpt><trkpt lat="44.03745015156739" lon="10.842897121558245"><ele>787.0</ele><time>2026-04-25T13:44:16.77Z</time></trkpt><trkpt lat="44.03744362533899" lon="10.842803150132715"><ele>787.0</ele><time>2026-04-25T13:44:33.77Z</time></trkpt><trkpt lat="44.037403857352096" lon="10.842889968119222"><ele>787.0</ele><time>2026-04-25T13:50:48.766Z</time></trkpt><trkpt lat="44.037452792005524" lon="10.842821128522317"><ele>787.0</ele><time>2026-04-25T13:51:53.765Z</time></trkpt><trkpt lat="44.03749801270304" lon="10.84274887775902"><ele>787.0</ele><time>2026-04-25T13:52:08.765Z</time></trkpt><trkpt lat="44.03745641001937" lon="10.842682409565864"><ele>787.0</ele><time>2026-04-25T13:52:19.765Z</time></trkpt><trkpt lat="44.03742504997873" lon="10.842603727622617"><ele>787.0</ele><time>2026-04-25T13:53:29.765Z</time></trkpt><trkpt lat="44.03748575238858" lon="10.842562480836946"><ele>787.0</ele><time>2026-04-25T13:53:40.765Z</time></trkpt><trkpt lat="44.03748405771835" lon="10.842472023148547"><ele>787.0</ele><time>2026-04-25T13:53:47.765Z</time></trkpt><trkpt lat="44.03746374504633" lon="10.842385499520274"><ele>802.0</ele><time>2026-04-25T13:53:53.765Z</time></trkpt><trkpt lat="44.03744419828594" lon="10.842286690689122"><ele>802.0</ele><time>2026-04-25T13:54:49.765Z</time></trkpt><trkpt lat="44.037433588726486" lon="10.842197652032684"><ele>802.0</ele><time>2026-04-25T13:54:56.765Z</time></trkpt><trkpt lat="44.037385953352" lon="10.842110509800168"><ele>802.0</ele><time>2026-04-25T13:55:14.765Z</time></trkpt></trkseg></trk></gpx>